<?xml version="1.0" encoding="UTF-8"?>
<gpx version="1.1" creator="https://www.www-youtrack-es.amenigma.com" xsi:schemaLocation="http://www.topografix.com/GPX/1/1 http://www.topografix.com/GPX/1/1/gpx.xsd http://www.garmin.com/xmlschemas/GpxExtensions/v3 http://www.garmin.com/xmlschemas/GpxExtensionsv3.xsd http://www.garmin.com/xmlschemas/TrackPointExtension/v1 http://www.garmin.com/xmlschemas/TrackPointExtensionv1.xsd" xmlns:gpxtpx="http://www.garmin.com/xmlschemas/TrackPointExtension/v1" xmlns:gpxx="http://www.garmin.com/xmlschemas/GpxExtensions/v3" xmlns:xsi="http://www.w3.org/2001/XMLSchema-instance">
  <metadata>
    <link href="https://www.www-youtrack-es.amenigma.com">
      <text>YouTrack.es</text>
    </link>
    <time>2026-08-31T20:55:19Z</time>
  </metadata>
  <trk>
    <src>https://www.www-youtrack-es.amenigma.com</src>
    <link href="https://www.www-youtrack-es.amenigma.com/ruta/503-volta-per-certascan">
      <text>YouTrack.es</text>
    </link>
    <trkseg>
      <trkpt lat="42.6975842379033565521240234375" lon="1.2365397624671459197998046875">
        <ele>1774.800048828125</ele>
        <time>2018-04-30T07:40:02.000Z</time>
      </trkpt>
      <trkpt lat="42.6975906081497669219970703125" lon="1.2365380860865116119384765625">
        <ele>1671.800048828125</ele>
        <time>2018-04-30T07:40:03.000Z</time>
      </trkpt>
      <trkpt lat="42.69759505055844783782958984375" lon="1.2365390919148921966552734375">
        <ele>1671.800048828125</ele>
        <time>2018-04-30T07:40:04.000Z</time>
      </trkpt>
      <trkpt lat="42.69761122763156890869140625" lon="1.236541271209716796875">
        <ele>1775.5999755859375</ele>
        <time>2018-04-30T07:40:06.000Z</time>
      </trkpt>
      <trkpt lat="42.697622291743755340576171875" lon="1.23654269613325595855712890625">
        <ele>1775.5999755859375</ele>
        <time>2018-04-30T07:40:07.000Z</time>
      </trkpt>
      <trkpt lat="42.69781214185059070587158203125" lon="1.236567758023738861083984375">
        <ele>1777.800048828125</ele>
        <time>2018-04-30T07:40:28.000Z</time>
      </trkpt>
      <trkpt lat="42.69800056703388690948486328125" lon="1.23658225871622562408447265625">
        <ele>1780.4000244140625</ele>
        <time>2018-04-30T07:40:44.000Z</time>
      </trkpt>
      <trkpt lat="42.6982051692903041839599609375" lon="1.2365776486694812774658203125">
        <ele>1783</ele>
        <time>2018-04-30T07:41:02.000Z</time>
      </trkpt>
      <trkpt lat="42.69836534745991230010986328125" lon="1.23643993400037288665771484375">
        <ele>1785</ele>
        <time>2018-04-30T07:41:19.000Z</time>
      </trkpt>
      <trkpt lat="42.6985612325370311737060546875" lon="1.2364353239536285400390625">
        <ele>1787.199951171875</ele>
        <time>2018-04-30T07:41:36.000Z</time>
      </trkpt>
      <trkpt lat="42.6987489871680736541748046875" lon="1.23630263842642307281494140625">
        <ele>1789.5999755859375</ele>
        <time>2018-04-30T07:41:53.000Z</time>
      </trkpt>
      <trkpt lat="42.698899023234844207763671875" lon="1.23626005835831165313720703125">
        <ele>1791.5999755859375</ele>
        <time>2018-04-30T07:42:08.000Z</time>
      </trkpt>
      <trkpt lat="42.6989417709410190582275390625" lon="1.2362339906394481658935546875">
        <ele>1792</ele>
        <time>2018-04-30T07:42:13.000Z</time>
      </trkpt>
      <trkpt lat="42.69894973374903202056884765625" lon="1.23623172752559185028076171875">
        <ele>1792</ele>
        <time>2018-04-30T07:42:14.000Z</time>
      </trkpt>
      <trkpt lat="42.6989568583667278289794921875" lon="1.23623508028686046600341796875">
        <ele>1792.199951171875</ele>
        <time>2018-04-30T07:42:15.000Z</time>
      </trkpt>
      <trkpt lat="42.69896582700312137603759765625" lon="1.2362393550574779510498046875">
        <ele>1792.199951171875</ele>
        <time>2018-04-30T07:42:16.000Z</time>
      </trkpt>
      <trkpt lat="42.69897555001080036163330078125" lon="1.23623860068619251251220703125">
        <ele>1792.4000244140625</ele>
        <time>2018-04-30T07:42:17.000Z</time>
      </trkpt>
      <trkpt lat="42.69898720085620880126953125" lon="1.23623759485781192779541015625">
        <ele>1792.5999755859375</ele>
        <time>2018-04-30T07:42:18.000Z</time>
      </trkpt>
      <trkpt lat="42.6989991031587123870849609375" lon="1.2362346611917018890380859375">
        <ele>1792.5999755859375</ele>
        <time>2018-04-30T07:42:19.000Z</time>
      </trkpt>
      <trkpt lat="42.6990111730992794036865234375" lon="1.236235834658145904541015625">
        <ele>1792.800048828125</ele>
        <time>2018-04-30T07:42:20.000Z</time>
      </trkpt>
      <trkpt lat="42.6991952396929264068603515625" lon="1.23624094761908054351806640625">
        <ele>1795.800048828125</ele>
        <time>2018-04-30T07:42:38.000Z</time>
      </trkpt>
      <trkpt lat="42.6992063038051128387451171875" lon="1.2362443841993808746337890625">
        <ele>1795.800048828125</ele>
        <time>2018-04-30T07:42:39.000Z</time>
      </trkpt>
      <trkpt lat="42.69921795465052127838134765625" lon="1.236243546009063720703125">
        <ele>1796</ele>
        <time>2018-04-30T07:42:40.000Z</time>
      </trkpt>
      <trkpt lat="42.69923019222915172576904296875" lon="1.23623826541006565093994140625">
        <ele>1796.199951171875</ele>
        <time>2018-04-30T07:42:41.000Z</time>
      </trkpt>
      <trkpt lat="42.6992426812648773193359375" lon="1.2362370081245899200439453125">
        <ele>1796.199951171875</ele>
        <time>2018-04-30T07:42:42.000Z</time>
      </trkpt>
      <trkpt lat="42.699252404272556304931640625" lon="1.23623642139136791229248046875">
        <ele>1796.4000244140625</ele>
        <time>2018-04-30T07:42:43.000Z</time>
      </trkpt>
      <trkpt lat="42.699264474213123321533203125" lon="1.23623709194362163543701171875">
        <ele>1796.5999755859375</ele>
        <time>2018-04-30T07:42:44.000Z</time>
      </trkpt>
      <trkpt lat="42.69927528686821460723876953125" lon="1.23623692430555820465087890625">
        <ele>1796.5999755859375</ele>
        <time>2018-04-30T07:42:45.000Z</time>
      </trkpt>
      <trkpt lat="42.6992864347994327545166015625" lon="1.23623885214328765869140625">
        <ele>1796.800048828125</ele>
        <time>2018-04-30T07:42:46.000Z</time>
      </trkpt>
      <trkpt lat="42.69948483444750308990478515625" lon="1.23625251464545726776123046875">
        <ele>1798.800048828125</ele>
        <time>2018-04-30T07:43:04.000Z</time>
      </trkpt>
      <trkpt lat="42.69949304871261119842529296875" lon="1.2362470664083957672119140625">
        <ele>1799</ele>
        <time>2018-04-30T07:43:05.000Z</time>
      </trkpt>
      <trkpt lat="42.69950360991060733795166015625" lon="1.2362440489232540130615234375">
        <ele>1799</ele>
        <time>2018-04-30T07:43:06.000Z</time>
      </trkpt>
      <trkpt lat="42.6995301805436611175537109375" lon="1.23624664731323719024658203125">
        <ele>1799.5999755859375</ele>
        <time>2018-04-30T07:43:09.000Z</time>
      </trkpt>
      <trkpt lat="42.6996503770351409912109375" lon="1.2362370081245899200439453125">
        <ele>1800.800048828125</ele>
        <time>2018-04-30T07:43:19.000Z</time>
      </trkpt>
      <trkpt lat="42.69984223879873752593994140625" lon="1.23615704476833343505859375">
        <ele>1802.5999755859375</ele>
        <time>2018-04-30T07:43:35.000Z</time>
      </trkpt>
      <trkpt lat="42.700015492737293243408203125" lon="1.23614254407584667205810546875">
        <ele>1804.800048828125</ele>
        <time>2018-04-30T07:43:51.000Z</time>
      </trkpt>
      <trkpt lat="42.70012102089822292327880859375" lon="1.23622099868953227996826171875">
        <ele>1805</ele>
        <time>2018-04-30T07:44:02.000Z</time>
      </trkpt>
      <trkpt lat="42.700130827724933624267578125" lon="1.23621747829020023345947265625">
        <ele>1805</ele>
        <time>2018-04-30T07:44:03.000Z</time>
      </trkpt>
      <trkpt lat="42.70015220157802104949951171875" lon="1.23619887046515941619873046875">
        <ele>1805.4000244140625</ele>
        <time>2018-04-30T07:44:06.000Z</time>
      </trkpt>
      <trkpt lat="42.70016066730022430419921875" lon="1.23619535006582736968994140625">
        <ele>1805.4000244140625</ele>
        <time>2018-04-30T07:44:07.000Z</time>
      </trkpt>
      <trkpt lat="42.7001702226698398590087890625" lon="1.236184872686862945556640625">
        <ele>1805.5999755859375</ele>
        <time>2018-04-30T07:44:08.000Z</time>
      </trkpt>
      <trkpt lat="42.70018137060105800628662109375" lon="1.23617640696465969085693359375">
        <ele>1805.5999755859375</ele>
        <time>2018-04-30T07:44:09.000Z</time>
      </trkpt>
      <trkpt lat="42.70018975250422954559326171875" lon="1.23616785742342472076416015625">
        <ele>1805.800048828125</ele>
        <time>2018-04-30T07:44:10.000Z</time>
      </trkpt>
      <trkpt lat="42.700200565159320831298828125" lon="1.2361639179289340972900390625">
        <ele>1806</ele>
        <time>2018-04-30T07:44:11.000Z</time>
      </trkpt>
      <trkpt lat="42.70020903088152408599853515625" lon="1.23615528456866741180419921875">
        <ele>1806</ele>
        <time>2018-04-30T07:44:12.000Z</time>
      </trkpt>
      <trkpt lat="42.7002168260514736175537109375" lon="1.236143298447132110595703125">
        <ele>1806.199951171875</ele>
        <time>2018-04-30T07:44:13.000Z</time>
      </trkpt>
      <trkpt lat="42.70022596232593059539794921875" lon="1.2361364252865314483642578125">
        <ele>1806.199951171875</ele>
        <time>2018-04-30T07:44:14.000Z</time>
      </trkpt>
      <trkpt lat="42.70023576915264129638671875" lon="1.23612863011658191680908203125">
        <ele>1806.199951171875</ele>
        <time>2018-04-30T07:44:15.000Z</time>
      </trkpt>
      <trkpt lat="42.70037566311657428741455078125" lon="1.23610675334930419921875">
        <ele>1807.4000244140625</ele>
        <time>2018-04-30T07:44:27.000Z</time>
      </trkpt>
      <trkpt lat="42.700388990342617034912109375" lon="1.2361173145473003387451171875">
        <ele>1807.4000244140625</ele>
        <time>2018-04-30T07:44:28.000Z</time>
      </trkpt>
      <trkpt lat="42.7003998868167400360107421875" lon="1.23612175695598125457763671875">
        <ele>1807.5999755859375</ele>
        <time>2018-04-30T07:44:29.000Z</time>
      </trkpt>
      <trkpt lat="42.70041103474795818328857421875" lon="1.236130557954311370849609375">
        <ele>1807.4000244140625</ele>
        <time>2018-04-30T07:44:30.000Z</time>
      </trkpt>
      <trkpt lat="42.7004223503172397613525390625" lon="1.23613483272492885589599609375">
        <ele>1807.5999755859375</ele>
        <time>2018-04-30T07:44:31.000Z</time>
      </trkpt>
      <trkpt lat="42.700433246791362762451171875" lon="1.2361411191523075103759765625">
        <ele>1807.800048828125</ele>
        <time>2018-04-30T07:44:32.000Z</time>
      </trkpt>
      <trkpt lat="42.70044053904712200164794921875" lon="1.23614824377000331878662109375">
        <ele>1808</ele>
        <time>2018-04-30T07:44:33.000Z</time>
      </trkpt>
      <trkpt lat="42.700453698635101318359375" lon="1.23615075834095478057861328125">
        <ele>1808.199951171875</ele>
        <time>2018-04-30T07:44:34.000Z</time>
      </trkpt>
      <trkpt lat="42.70054380409419536590576171875" lon="1.23618914745748043060302734375">
        <ele>1809.800048828125</ele>
        <time>2018-04-30T07:44:42.000Z</time>
      </trkpt>
      <trkpt lat="42.700557969510555267333984375" lon="1.23619283549487590789794921875">
        <ele>1809.800048828125</ele>
        <time>2018-04-30T07:44:43.000Z</time>
      </trkpt>
      <trkpt lat="42.70074002444744110107421875" lon="1.23620976693928241729736328125">
        <ele>1811.4000244140625</ele>
        <time>2018-04-30T07:44:58.000Z</time>
      </trkpt>
      <trkpt lat="42.70085594616830348968505859375" lon="1.23629509471356868743896484375">
        <ele>1812.199951171875</ele>
        <time>2018-04-30T07:45:10.000Z</time>
      </trkpt>
      <trkpt lat="42.70086566917598247528076171875" lon="1.2363000400364398956298828125">
        <ele>1812.199951171875</ele>
        <time>2018-04-30T07:45:11.000Z</time>
      </trkpt>
      <trkpt lat="42.70087321288883686065673828125" lon="1.236306913197040557861328125">
        <ele>1812.4000244140625</ele>
        <time>2018-04-30T07:45:12.000Z</time>
      </trkpt>
      <trkpt lat="42.70088293589651584625244140625" lon="1.2363159656524658203125">
        <ele>1812.4000244140625</ele>
        <time>2018-04-30T07:45:13.000Z</time>
      </trkpt>
      <trkpt lat="42.70089400000870227813720703125" lon="1.2363258562982082366943359375">
        <ele>1812.5999755859375</ele>
        <time>2018-04-30T07:45:14.000Z</time>
      </trkpt>
      <trkpt lat="42.70090623758733272552490234375" lon="1.23633113689720630645751953125">
        <ele>1812.5999755859375</ele>
        <time>2018-04-30T07:45:15.000Z</time>
      </trkpt>
      <trkpt lat="42.70091663114726543426513671875" lon="1.236334405839443206787109375">
        <ele>1812.5999755859375</ele>
        <time>2018-04-30T07:45:16.000Z</time>
      </trkpt>
      <trkpt lat="42.70092719234526157379150390625" lon="1.23633834533393383026123046875">
        <ele>1812.800048828125</ele>
        <time>2018-04-30T07:45:17.000Z</time>
      </trkpt>
      <trkpt lat="42.70093875937163829803466796875" lon="1.23633884824812412261962890625">
        <ele>1813</ele>
        <time>2018-04-30T07:45:18.000Z</time>
      </trkpt>
      <trkpt lat="42.7009530924260616302490234375" lon="1.23634345829486846923828125">
        <ele>1813</ele>
        <time>2018-04-30T07:45:19.000Z</time>
      </trkpt>
      <trkpt lat="42.70109700970351696014404296875" lon="1.2363567017018795013427734375">
        <ele>1814.4000244140625</ele>
        <time>2018-04-30T07:45:32.000Z</time>
      </trkpt>
      <trkpt lat="42.7012588642537593841552734375" lon="1.23642736114561557769775390625">
        <ele>1816</ele>
        <time>2018-04-30T07:45:46.000Z</time>
      </trkpt>
      <trkpt lat="42.70128258503973484039306640625" lon="1.23644270002841949462890625">
        <ele>1816.4000244140625</ele>
        <time>2018-04-30T07:45:49.000Z</time>
      </trkpt>
      <trkpt lat="42.701292894780635833740234375" lon="1.23644093982875347137451171875">
        <ele>1816.5999755859375</ele>
        <time>2018-04-30T07:45:50.000Z</time>
      </trkpt>
      <trkpt lat="42.70148877985775470733642578125" lon="1.236479915678501129150390625">
        <ele>1818.4000244140625</ele>
        <time>2018-04-30T07:46:07.000Z</time>
      </trkpt>
      <trkpt lat="42.70162515342235565185546875" lon="1.23651646077632904052734375">
        <ele>1820.199951171875</ele>
        <time>2018-04-30T07:46:20.000Z</time>
      </trkpt>
      <trkpt lat="42.70176353864371776580810546875" lon="1.23656968586146831512451171875">
        <ele>1822.5999755859375</ele>
        <time>2018-04-30T07:46:34.000Z</time>
      </trkpt>
      <trkpt lat="42.70177493803203105926513671875" lon="1.236577816307544708251953125">
        <ele>1822.800048828125</ele>
        <time>2018-04-30T07:46:35.000Z</time>
      </trkpt>
      <trkpt lat="42.70178583450615406036376953125" lon="1.2365803308784961700439453125">
        <ele>1823</ele>
        <time>2018-04-30T07:46:36.000Z</time>
      </trkpt>
      <trkpt lat="42.70179505459964275360107421875" lon="1.2365823425352573394775390625">
        <ele>1823</ele>
        <time>2018-04-30T07:46:37.000Z</time>
      </trkpt>
      <trkpt lat="42.70180620253086090087890625" lon="1.2365877069532871246337890625">
        <ele>1823.199951171875</ele>
        <time>2018-04-30T07:46:38.000Z</time>
      </trkpt>
      <trkpt lat="42.70181735046207904815673828125" lon="1.236590556800365447998046875">
        <ele>1823.5999755859375</ele>
        <time>2018-04-30T07:46:39.000Z</time>
      </trkpt>
      <trkpt lat="42.7018395625054836273193359375" lon="1.23659717850387096405029296875">
        <ele>1823.800048828125</ele>
        <time>2018-04-30T07:46:41.000Z</time>
      </trkpt>
      <trkpt lat="42.70184920169413089752197265625" lon="1.236605979502201080322265625">
        <ele>1824</ele>
        <time>2018-04-30T07:46:42.000Z</time>
      </trkpt>
      <trkpt lat="42.7018580026924610137939453125" lon="1.2366151995956897735595703125">
        <ele>1824.199951171875</ele>
        <time>2018-04-30T07:46:43.000Z</time>
      </trkpt>
      <trkpt lat="42.70187015645205974578857421875" lon="1.23662785626947879791259765625">
        <ele>1824.4000244140625</ele>
        <time>2018-04-30T07:46:44.000Z</time>
      </trkpt>
      <trkpt lat="42.701880633831024169921875" lon="1.23663422651588916778564453125">
        <ele>1824.5999755859375</ele>
        <time>2018-04-30T07:46:45.000Z</time>
      </trkpt>
      <trkpt lat="42.70190301351249217987060546875" lon="1.2366520799696445465087890625">
        <ele>1825.199951171875</ele>
        <time>2018-04-30T07:46:48.000Z</time>
      </trkpt>
      <trkpt lat="42.70191106013953685760498046875" lon="1.23665920458734035491943359375">
        <ele>1825.4000244140625</ele>
        <time>2018-04-30T07:46:49.000Z</time>
      </trkpt>
      <trkpt lat="42.7019195258617401123046875" lon="1.23666674830019474029541015625">
        <ele>1825.5999755859375</ele>
        <time>2018-04-30T07:46:50.000Z</time>
      </trkpt>
      <trkpt lat="42.7019314281642436981201171875" lon="1.23667010106146335601806640625">
        <ele>1825.5999755859375</ele>
        <time>2018-04-30T07:46:51.000Z</time>
      </trkpt>
      <trkpt lat="42.70194307900965213775634765625" lon="1.2366728670895099639892578125">
        <ele>1825.5999755859375</ele>
        <time>2018-04-30T07:46:52.000Z</time>
      </trkpt>
      <trkpt lat="42.70212446339428424835205078125" lon="1.23676515184342861175537109375">
        <ele>1828</ele>
        <time>2018-04-30T07:47:10.000Z</time>
      </trkpt>
      <trkpt lat="42.70229947753250598907470703125" lon="1.236797086894512176513671875">
        <ele>1830.4000244140625</ele>
        <time>2018-04-30T07:47:29.000Z</time>
      </trkpt>
      <trkpt lat="42.702505588531494140625" lon="1.2367278523743152618408203125">
        <ele>1832.4000244140625</ele>
        <time>2018-04-30T07:47:49.000Z</time>
      </trkpt>
      <trkpt lat="42.7027226798236370086669921875" lon="1.236754842102527618408203125">
        <ele>1834.4000244140625</ele>
        <time>2018-04-30T07:48:07.000Z</time>
      </trkpt>
      <trkpt lat="42.70293080247938632965087890625" lon="1.23677797615528106689453125">
        <ele>1837</ele>
        <time>2018-04-30T07:48:29.000Z</time>
      </trkpt>
      <trkpt lat="42.7031206525862216949462890625" lon="1.23683187179267406463623046875">
        <ele>1840</ele>
        <time>2018-04-30T07:48:47.000Z</time>
      </trkpt>
      <trkpt lat="42.70327948965132236480712890625" lon="1.23701778240501880645751953125">
        <ele>1842.199951171875</ele>
        <time>2018-04-30T07:49:08.000Z</time>
      </trkpt>
      <trkpt lat="42.70329608581960201263427734375" lon="1.23709841631352901458740234375">
        <ele>1842.199951171875</ele>
        <time>2018-04-30T07:50:11.000Z</time>
      </trkpt>
      <trkpt lat="42.70332357846200466156005859375" lon="1.237105540931224822998046875">
        <ele>1842.199951171875</ele>
        <time>2018-04-30T07:50:51.000Z</time>
      </trkpt>
      <trkpt lat="42.70331838168203830718994140625" lon="1.2371020205318927764892578125">
        <ele>1842.4000244140625</ele>
        <time>2018-04-30T07:51:37.000Z</time>
      </trkpt>
      <trkpt lat="42.7033402584493160247802734375" lon="1.23715482652187347412109375">
        <ele>1842.4000244140625</ele>
        <time>2018-04-30T07:53:26.000Z</time>
      </trkpt>
      <trkpt lat="42.70339951850473880767822265625" lon="1.23722414486110210418701171875">
        <ele>1845</ele>
        <time>2018-04-30T07:55:05.000Z</time>
      </trkpt>
      <trkpt lat="42.70339465700089931488037109375" lon="1.2373370490968227386474609375">
        <ele>1848</ele>
        <time>2018-04-30T07:55:18.000Z</time>
      </trkpt>
      <trkpt lat="42.70335073582828044891357421875" lon="1.23741894029080867767333984375">
        <ele>1851</ele>
        <time>2018-04-30T07:55:32.000Z</time>
      </trkpt>
      <trkpt lat="42.7032993547618389129638671875" lon="1.2375036813318729400634765625">
        <ele>1854.199951171875</ele>
        <time>2018-04-30T07:55:47.000Z</time>
      </trkpt>
      <trkpt lat="42.70323975943028926849365234375" lon="1.23757861554622650146484375">
        <ele>1857.4000244140625</ele>
        <time>2018-04-30T07:56:01.000Z</time>
      </trkpt>
      <trkpt lat="42.703242860734462738037109375" lon="1.23765246011316776275634765625">
        <ele>1860.5999755859375</ele>
        <time>2018-04-30T07:56:14.000Z</time>
      </trkpt>
      <trkpt lat="42.70333346910774707794189453125" lon="1.23771666549146175384521484375">
        <ele>1863.5999755859375</ele>
        <time>2018-04-30T07:56:28.000Z</time>
      </trkpt>
      <trkpt lat="42.70334168337285518646240234375" lon="1.23772135935723781585693359375">
        <ele>1863.800048828125</ele>
        <time>2018-04-30T07:56:29.000Z</time>
      </trkpt>
      <trkpt lat="42.7034167014062404632568359375" lon="1.23776477761566638946533203125">
        <ele>1867</ele>
        <time>2018-04-30T07:56:43.000Z</time>
      </trkpt>
      <trkpt lat="42.7034586109220981597900390625" lon="1.23780484311282634735107421875">
        <ele>1870.199951171875</ele>
        <time>2018-04-30T07:57:00.000Z</time>
      </trkpt>
      <trkpt lat="42.7034012787044048309326171875" lon="1.23790089972317218780517578125">
        <ele>1873.4000244140625</ele>
        <time>2018-04-30T07:57:16.000Z</time>
      </trkpt>
      <trkpt lat="42.703353501856327056884765625" lon="1.23797315172851085662841796875">
        <ele>1876.4000244140625</ele>
        <time>2018-04-30T07:57:34.000Z</time>
      </trkpt>
      <trkpt lat="42.7033358998596668243408203125" lon="1.23801556415855884552001953125">
        <ele>1879.4000244140625</ele>
        <time>2018-04-30T07:57:50.000Z</time>
      </trkpt>
      <trkpt lat="42.7032923139631748199462890625" lon="1.23808823525905609130859375">
        <ele>1882.4000244140625</ele>
        <time>2018-04-30T07:58:08.000Z</time>
      </trkpt>
      <trkpt lat="42.70323238335549831390380859375" lon="1.2381118722259998321533203125">
        <ele>1885.199951171875</ele>
        <time>2018-04-30T07:58:25.000Z</time>
      </trkpt>
      <trkpt lat="42.703309915959835052490234375" lon="1.23816627077758312225341796875">
        <ele>1888.199951171875</ele>
        <time>2018-04-30T07:58:45.000Z</time>
      </trkpt>
      <trkpt lat="42.7032601274549961090087890625" lon="1.23816358856856822967529296875">
        <ele>1889</ele>
        <time>2018-04-30T07:58:50.000Z</time>
      </trkpt>
      <trkpt lat="42.7032011188566684722900390625" lon="1.238224692642688751220703125">
        <ele>1892.4000244140625</ele>
        <time>2018-04-30T07:59:04.000Z</time>
      </trkpt>
      <trkpt lat="42.7032507397234439849853515625" lon="1.2382768280804157257080078125">
        <ele>1895.4000244140625</ele>
        <time>2018-04-30T07:59:21.000Z</time>
      </trkpt>
      <trkpt lat="42.7032624743878841400146484375" lon="1.238289065659046173095703125">
        <ele>1895.5999755859375</ele>
        <time>2018-04-30T07:59:23.000Z</time>
      </trkpt>
      <trkpt lat="42.703260965645313262939453125" lon="1.23837028630077838897705078125">
        <ele>1898.800048828125</ele>
        <time>2018-04-30T07:59:41.000Z</time>
      </trkpt>
      <trkpt lat="42.70320891402661800384521484375" lon="1.23841940425336360931396484375">
        <ele>1901.800048828125</ele>
        <time>2018-04-30T07:59:54.000Z</time>
      </trkpt>
      <trkpt lat="42.7032034657895565032958984375" lon="1.2384246848523616790771484375">
        <ele>1902.800048828125</ele>
        <time>2018-04-30T08:00:03.000Z</time>
      </trkpt>
      <trkpt lat="42.70326641388237476348876953125" lon="1.23846106231212615966796875">
        <ele>1906</ele>
        <time>2018-04-30T08:00:18.000Z</time>
      </trkpt>
      <trkpt lat="42.7033231593668460845947265625" lon="1.2385269440710544586181640625">
        <ele>1909</ele>
        <time>2018-04-30T08:00:39.000Z</time>
      </trkpt>
      <trkpt lat="42.703250236809253692626953125" lon="1.238594837486743927001953125">
        <ele>1912</ele>
        <time>2018-04-30T08:00:55.000Z</time>
      </trkpt>
      <trkpt lat="42.70326239056885242462158203125" lon="1.23863398097455501556396484375">
        <ele>1915</ele>
        <time>2018-04-30T08:01:11.000Z</time>
      </trkpt>
      <trkpt lat="42.70321360789239406585693359375" lon="1.23867773450911045074462890625">
        <ele>1918.199951171875</ele>
        <time>2018-04-30T08:01:31.000Z</time>
      </trkpt>
      <trkpt lat="42.70322232507169246673583984375" lon="1.238682009279727935791015625">
        <ele>1918.199951171875</ele>
        <time>2018-04-30T08:01:33.000Z</time>
      </trkpt>
      <trkpt lat="42.7032644860446453094482421875" lon="1.23873758129775524139404296875">
        <ele>1921.199951171875</ele>
        <time>2018-04-30T08:02:41.000Z</time>
      </trkpt>
      <trkpt lat="42.70325350575149059295654296875" lon="1.23875786550343036651611328125">
        <ele>1921.5999755859375</ele>
        <time>2018-04-30T08:03:08.000Z</time>
      </trkpt>
      <trkpt lat="42.70326934754848480224609375" lon="1.23877085745334625244140625">
        <ele>1921.800048828125</ele>
        <time>2018-04-30T08:03:26.000Z</time>
      </trkpt>
      <trkpt lat="42.7032571099698543548583984375" lon="1.2387723661959171295166015625">
        <ele>1922.4000244140625</ele>
        <time>2018-04-30T08:03:32.000Z</time>
      </trkpt>
      <trkpt lat="42.70326758734881877899169921875" lon="1.2387849390506744384765625">
        <ele>1923</ele>
        <time>2018-04-30T08:03:47.000Z</time>
      </trkpt>
      <trkpt lat="42.70331117324531078338623046875" lon="1.23878653161227703094482421875">
        <ele>1924</ele>
        <time>2018-04-30T08:04:33.000Z</time>
      </trkpt>
      <trkpt lat="42.70334335975348949432373046875" lon="1.23883933760225772857666015625">
        <ele>1925.5999755859375</ele>
        <time>2018-04-30T08:04:40.000Z</time>
      </trkpt>
      <trkpt lat="42.70332760177552700042724609375" lon="1.23881905339658260345458984375">
        <ele>1926.5999755859375</ele>
        <time>2018-04-30T08:05:22.000Z</time>
      </trkpt>
      <trkpt lat="42.7033057250082492828369140625" lon="1.23881201259791851043701171875">
        <ele>1926</ele>
        <time>2018-04-30T08:06:34.000Z</time>
      </trkpt>
      <trkpt lat="42.7032926492393016815185546875" lon="1.238819472491741180419921875">
        <ele>1925.800048828125</ele>
        <time>2018-04-30T08:06:37.000Z</time>
      </trkpt>
      <trkpt lat="42.70334604196250438690185546875" lon="1.23883388936519622802734375">
        <ele>1926.4000244140625</ele>
        <time>2018-04-30T08:07:08.000Z</time>
      </trkpt>
      <trkpt lat="42.7033087424933910369873046875" lon="1.23889080248773097991943359375">
        <ele>1929.4000244140625</ele>
        <time>2018-04-30T08:07:59.000Z</time>
      </trkpt>
      <trkpt lat="42.70328971557319164276123046875" lon="1.238928101956844329833984375">
        <ele>1932.5999755859375</ele>
        <time>2018-04-30T08:08:18.000Z</time>
      </trkpt>
      <trkpt lat="42.7032946608960628509521484375" lon="1.23896623961627483367919921875">
        <ele>1935.5999755859375</ele>
        <time>2018-04-30T08:08:47.000Z</time>
      </trkpt>
      <trkpt lat="42.70328384824097156524658203125" lon="1.23903413303196430206298828125">
        <ele>1938.800048828125</ele>
        <time>2018-04-30T08:09:06.000Z</time>
      </trkpt>
      <trkpt lat="42.70327161066234111785888671875" lon="1.23908241279423236846923828125">
        <ele>1942</ele>
        <time>2018-04-30T08:09:50.000Z</time>
      </trkpt>
      <trkpt lat="42.703344784677028656005859375" lon="1.23913706280291080474853515625">
        <ele>1945.199951171875</ele>
        <time>2018-04-30T08:10:15.000Z</time>
      </trkpt>
      <trkpt lat="42.70335517823696136474609375" lon="1.239215433597564697265625">
        <ele>1948.5999755859375</ele>
        <time>2018-04-30T08:10:28.000Z</time>
      </trkpt>
      <trkpt lat="42.70339968614280223846435546875" lon="1.2392578460276126861572265625">
        <ele>1951.5999755859375</ele>
        <time>2018-04-30T08:11:17.000Z</time>
      </trkpt>
      <trkpt lat="42.7034264244139194488525390625" lon="1.23934208415448665618896484375">
        <ele>1954.800048828125</ele>
        <time>2018-04-30T08:11:40.000Z</time>
      </trkpt>
      <trkpt lat="42.70339868031442165374755859375" lon="1.23937158845365047454833984375">
        <ele>1957.800048828125</ele>
        <time>2018-04-30T08:11:55.000Z</time>
      </trkpt>
      <trkpt lat="42.7034106664359569549560546875" lon="1.23937661759555339813232421875">
        <ele>1958.800048828125</ele>
        <time>2018-04-30T08:12:10.000Z</time>
      </trkpt>
      <trkpt lat="42.703397758305072784423828125" lon="1.2393723428249359130859375">
        <ele>1958.800048828125</ele>
        <time>2018-04-30T08:12:11.000Z</time>
      </trkpt>
      <trkpt lat="42.70340153016149997711181640625" lon="1.2394472770392894744873046875">
        <ele>1962</ele>
        <time>2018-04-30T08:12:51.000Z</time>
      </trkpt>
      <trkpt lat="42.7033985964953899383544921875" lon="1.2394821457564830780029296875">
        <ele>1964.5999755859375</ele>
        <time>2018-04-30T08:13:04.000Z</time>
      </trkpt>
      <trkpt lat="42.7033697627484798431396484375" lon="1.2394911982119083404541015625">
        <ele>1966.800048828125</ele>
        <time>2018-04-30T08:13:24.000Z</time>
      </trkpt>
      <trkpt lat="42.70337588153779506683349609375" lon="1.2395039387047290802001953125">
        <ele>1967.5999755859375</ele>
        <time>2018-04-30T08:13:33.000Z</time>
      </trkpt>
      <trkpt lat="42.70336724817752838134765625" lon="1.2395039387047290802001953125">
        <ele>1970.800048828125</ele>
        <time>2018-04-30T08:13:42.000Z</time>
      </trkpt>
      <trkpt lat="42.70338334143161773681640625" lon="1.23956403695046901702880859375">
        <ele>1974</ele>
        <time>2018-04-30T08:13:55.000Z</time>
      </trkpt>
      <trkpt lat="42.7033352293074131011962890625" lon="1.2395310960710048675537109375">
        <ele>1974.5999755859375</ele>
        <time>2018-04-30T08:14:35.000Z</time>
      </trkpt>
      <trkpt lat="42.7033395878970623016357421875" lon="1.239598654210567474365234375">
        <ele>1974.4000244140625</ele>
        <time>2018-04-30T08:15:09.000Z</time>
      </trkpt>
      <trkpt lat="42.7033355645835399627685546875" lon="1.23953335918486118316650390625">
        <ele>1974.5999755859375</ele>
        <time>2018-04-30T08:15:28.000Z</time>
      </trkpt>
      <trkpt lat="42.70326892845332622528076171875" lon="1.23958750627934932708740234375">
        <ele>1975.5999755859375</ele>
        <time>2018-04-30T08:16:12.000Z</time>
      </trkpt>
      <trkpt lat="42.70323925651609897613525390625" lon="1.23967249877750873565673828125">
        <ele>1978.800048828125</ele>
        <time>2018-04-30T08:16:27.000Z</time>
      </trkpt>
      <trkpt lat="42.703264653682708740234375" lon="1.23971541412174701690673828125">
        <ele>1982</ele>
        <time>2018-04-30T08:16:40.000Z</time>
      </trkpt>
      <trkpt lat="42.703275717794895172119140625" lon="1.23971943743526935577392578125">
        <ele>1982.4000244140625</ele>
        <time>2018-04-30T08:17:15.000Z</time>
      </trkpt>
      <trkpt lat="42.70322643220424652099609375" lon="1.239730417728424072265625">
        <ele>1983</ele>
        <time>2018-04-30T08:18:16.000Z</time>
      </trkpt>
      <trkpt lat="42.70319516770541667938232421875" lon="1.2397909350693225860595703125">
        <ele>1985</ele>
        <time>2018-04-30T08:19:59.000Z</time>
      </trkpt>
      <trkpt lat="42.70312786102294921875" lon="1.2399183399975299835205078125">
        <ele>1987</ele>
        <time>2018-04-30T08:20:18.000Z</time>
      </trkpt>
      <trkpt lat="42.703124172985553741455078125" lon="1.239928901195526123046875">
        <ele>1987</ele>
        <time>2018-04-30T08:20:19.000Z</time>
      </trkpt>
      <trkpt lat="42.7030861191451549530029296875" lon="1.2400568090379238128662109375">
        <ele>1990.199951171875</ele>
        <time>2018-04-30T08:20:34.000Z</time>
      </trkpt>
      <trkpt lat="42.7030408568680286407470703125" lon="1.24019871465861797332763671875">
        <ele>1993.199951171875</ele>
        <time>2018-04-30T08:20:50.000Z</time>
      </trkpt>
      <trkpt lat="42.7030616439878940582275390625" lon="1.240376494824886322021484375">
        <ele>1996.199951171875</ele>
        <time>2018-04-30T08:21:09.000Z</time>
      </trkpt>
      <trkpt lat="42.70307396538555622100830078125" lon="1.24051655642688274383544921875">
        <ele>1999.199951171875</ele>
        <time>2018-04-30T08:21:26.000Z</time>
      </trkpt>
      <trkpt lat="42.70306793041527271270751953125" lon="1.24064840376377105712890625">
        <ele>2002.4000244140625</ele>
        <time>2018-04-30T08:21:42.000Z</time>
      </trkpt>
      <trkpt lat="42.7030639909207820892333984375" lon="1.240777485072612762451171875">
        <ele>2005.5999755859375</ele>
        <time>2018-04-30T08:21:57.000Z</time>
      </trkpt>
      <trkpt lat="42.70304211415350437164306640625" lon="1.24090396799147129058837890625">
        <ele>2008.800048828125</ele>
        <time>2018-04-30T08:22:12.000Z</time>
      </trkpt>
      <trkpt lat="42.70297832787036895751953125" lon="1.24097906984388828277587890625">
        <ele>2012</ele>
        <time>2018-04-30T08:22:25.000Z</time>
      </trkpt>
      <trkpt lat="42.7029090933501720428466796875" lon="1.24105635099112987518310546875">
        <ele>2015.199951171875</ele>
        <time>2018-04-30T08:22:39.000Z</time>
      </trkpt>
      <trkpt lat="42.7028534375131130218505859375" lon="1.241117455065250396728515625">
        <ele>2017.4000244140625</ele>
        <time>2018-04-30T08:22:50.000Z</time>
      </trkpt>
      <trkpt lat="42.7028638310730457305908203125" lon="1.2411833368241786956787109375">
        <ele>2020.5999755859375</ele>
        <time>2018-04-30T08:23:03.000Z</time>
      </trkpt>
      <trkpt lat="42.7028896473348140716552734375" lon="1.24128970317542552947998046875">
        <ele>2023.5999755859375</ele>
        <time>2018-04-30T08:23:18.000Z</time>
      </trkpt>
      <trkpt lat="42.70284882746636867523193359375" lon="1.24136388301849365234375">
        <ele>2026.800048828125</ele>
        <time>2018-04-30T08:23:37.000Z</time>
      </trkpt>
      <trkpt lat="42.70276986993849277496337890625" lon="1.24139011837542057037353515625">
        <ele>2029.800048828125</ele>
        <time>2018-04-30T08:23:54.000Z</time>
      </trkpt>
      <trkpt lat="42.7026539482176303863525390625" lon="1.24144158326089382171630859375">
        <ele>2032.800048828125</ele>
        <time>2018-04-30T08:24:12.000Z</time>
      </trkpt>
      <trkpt lat="42.7025699615478515625" lon="1.2414800561964511871337890625">
        <ele>2036</ele>
        <time>2018-04-30T08:24:28.000Z</time>
      </trkpt>
      <trkpt lat="42.7024863101541996002197265625" lon="1.24152942560613155364990234375">
        <ele>2039</ele>
        <time>2018-04-30T08:24:42.000Z</time>
      </trkpt>
      <trkpt lat="42.70241238176822662353515625" lon="1.241607964038848876953125">
        <ele>2042.199951171875</ele>
        <time>2018-04-30T08:24:59.000Z</time>
      </trkpt>
      <trkpt lat="42.702436186373233795166015625" lon="1.24166068620979785919189453125">
        <ele>2045.4000244140625</ele>
        <time>2018-04-30T08:25:14.000Z</time>
      </trkpt>
      <trkpt lat="42.70249209366738796234130859375" lon="1.2417479418218135833740234375">
        <ele>2048.60009765625</ele>
        <time>2018-04-30T08:25:29.000Z</time>
      </trkpt>
      <trkpt lat="42.7024876512587070465087890625" lon="1.24177786521613597869873046875">
        <ele>2050</ele>
        <time>2018-04-30T08:25:38.000Z</time>
      </trkpt>
      <trkpt lat="42.70238555967807769775390625" lon="1.2418599240481853485107421875">
        <ele>2053</ele>
        <time>2018-04-30T08:25:57.000Z</time>
      </trkpt>
      <trkpt lat="42.7023257128894329071044921875" lon="1.24193091876804828643798828125">
        <ele>2056.199951171875</ele>
        <time>2018-04-30T08:26:12.000Z</time>
      </trkpt>
      <trkpt lat="42.70225790329277515411376953125" lon="1.24202596955001354217529296875">
        <ele>2059.39990234375</ele>
        <time>2018-04-30T08:26:29.000Z</time>
      </trkpt>
      <trkpt lat="42.70220057107508182525634765625" lon="1.242092438042163848876953125">
        <ele>2062.39990234375</ele>
        <time>2018-04-30T08:26:42.000Z</time>
      </trkpt>
      <trkpt lat="42.702107615768909454345703125" lon="1.24217801727354526519775390625">
        <ele>2065.199951171875</ele>
        <time>2018-04-30T08:26:59.000Z</time>
      </trkpt>
      <trkpt lat="42.70193352364003658294677734375" lon="1.24223300255835056304931640625">
        <ele>2066.800048828125</ele>
        <time>2018-04-30T08:27:21.000Z</time>
      </trkpt>
      <trkpt lat="42.70189731381833553314208984375" lon="1.2424034066498279571533203125">
        <ele>2069.199951171875</ele>
        <time>2018-04-30T08:27:43.000Z</time>
      </trkpt>
      <trkpt lat="42.70189530216157436370849609375" lon="1.24248345382511615753173828125">
        <ele>2070.800048828125</ele>
        <time>2018-04-30T08:27:53.000Z</time>
      </trkpt>
      <trkpt lat="42.70183562301099300384521484375" lon="1.2426210008561611175537109375">
        <ele>2073.800048828125</ele>
        <time>2018-04-30T08:28:10.000Z</time>
      </trkpt>
      <trkpt lat="42.70177862606942653656005859375" lon="1.24283985234797000885009765625">
        <ele>2077</ele>
        <time>2018-04-30T08:28:35.000Z</time>
      </trkpt>
      <trkpt lat="42.7017419971525669097900390625" lon="1.242978237569332122802734375">
        <ele>2080.199951171875</ele>
        <time>2018-04-30T08:28:50.000Z</time>
      </trkpt>
      <trkpt lat="42.7016808092594146728515625" lon="1.243127100169658660888671875">
        <ele>2082.60009765625</ele>
        <time>2018-04-30T08:29:08.000Z</time>
      </trkpt>
      <trkpt lat="42.70157712511718273162841796875" lon="1.24335366301238536834716796875">
        <ele>2085.39990234375</ele>
        <time>2018-04-30T08:29:32.000Z</time>
      </trkpt>
      <trkpt lat="42.7014771290123462677001953125" lon="1.24359212815761566162109375">
        <ele>2088.199951171875</ele>
        <time>2018-04-30T08:29:55.000Z</time>
      </trkpt>
      <trkpt lat="42.70133103244006633758544921875" lon="1.2437391467392444610595703125">
        <ele>2090.39990234375</ele>
        <time>2018-04-30T08:30:19.000Z</time>
      </trkpt>
      <trkpt lat="42.7012689225375652313232421875" lon="1.24380310066044330596923828125">
        <ele>2091.199951171875</ele>
        <time>2018-04-30T08:30:36.000Z</time>
      </trkpt>
      <trkpt lat="42.70114763639867305755615234375" lon="1.2439052760601043701171875">
        <ele>2091.199951171875</ele>
        <time>2018-04-30T08:30:56.000Z</time>
      </trkpt>
      <trkpt lat="42.7009359933435916900634765625" lon="1.24392262659966945648193359375">
        <ele>2090.39990234375</ele>
        <time>2018-04-30T08:31:17.000Z</time>
      </trkpt>
      <trkpt lat="42.7009031362831592559814453125" lon="1.24391893856227397918701171875">
        <ele>2089.60009765625</ele>
        <time>2018-04-30T08:31:20.000Z</time>
      </trkpt>
      <trkpt lat="42.70089156925678253173828125" lon="1.24392145313322544097900390625">
        <ele>2089.199951171875</ele>
        <time>2018-04-30T08:31:21.000Z</time>
      </trkpt>
      <trkpt lat="42.7008796669542789459228515625" lon="1.24392396770417690277099609375">
        <ele>2088.800048828125</ele>
        <time>2018-04-30T08:31:22.000Z</time>
      </trkpt>
      <trkpt lat="42.7008253522217273712158203125" lon="1.2439711578190326690673828125">
        <ele>2089.39990234375</ele>
        <time>2018-04-30T08:31:32.000Z</time>
      </trkpt>
      <trkpt lat="42.70079995505511760711669921875" lon="1.24399336986243724822998046875">
        <ele>2090.39990234375</ele>
        <time>2018-04-30T08:31:36.000Z</time>
      </trkpt>
      <trkpt lat="42.700638435781002044677734375" lon="1.24406277202069759368896484375">
        <ele>2093.60009765625</ele>
        <time>2018-04-30T08:31:59.000Z</time>
      </trkpt>
      <trkpt lat="42.70055805332958698272705078125" lon="1.24412454664707183837890625">
        <ele>2096.60009765625</ele>
        <time>2018-04-30T08:32:14.000Z</time>
      </trkpt>
      <trkpt lat="42.700479514896869659423828125" lon="1.244183890521526336669921875">
        <ele>2099</ele>
        <time>2018-04-30T08:32:27.000Z</time>
      </trkpt>
      <trkpt lat="42.7003951929509639739990234375" lon="1.24419855885207653045654296875">
        <ele>2101</ele>
        <time>2018-04-30T08:32:37.000Z</time>
      </trkpt>
      <trkpt lat="42.70036174915730953216552734375" lon="1.2442092038691043853759765625">
        <ele>2101</ele>
        <time>2018-04-30T08:32:49.000Z</time>
      </trkpt>
      <trkpt lat="42.70035873167216777801513671875" lon="1.24421440064907073974609375">
        <ele>2101.199951171875</ele>
        <time>2018-04-30T08:33:01.000Z</time>
      </trkpt>
      <trkpt lat="42.700351439416408538818359375" lon="1.24420157633721828460693359375">
        <ele>2101.39990234375</ele>
        <time>2018-04-30T08:33:29.000Z</time>
      </trkpt>
      <trkpt lat="42.7003512717783451080322265625" lon="1.2441897578537464141845703125">
        <ele>2100.39990234375</ele>
        <time>2018-04-30T08:34:09.000Z</time>
      </trkpt>
      <trkpt lat="42.70023752935230731964111328125" lon="1.2442259676754474639892578125">
        <ele>2102.39990234375</ele>
        <time>2018-04-30T08:35:17.000Z</time>
      </trkpt>
      <trkpt lat="42.70024306140840053558349609375" lon="1.24425287358462810516357421875">
        <ele>2102.800048828125</ele>
        <time>2018-04-30T08:35:22.000Z</time>
      </trkpt>
      <trkpt lat="42.7002379484474658966064453125" lon="1.24431020580232143402099609375">
        <ele>2103.199951171875</ele>
        <time>2018-04-30T08:36:36.000Z</time>
      </trkpt>
      <trkpt lat="42.700173072516918182373046875" lon="1.2444703839719295501708984375">
        <ele>2106.39990234375</ele>
        <time>2018-04-30T08:36:54.000Z</time>
      </trkpt>
      <trkpt lat="42.70012135617434978485107421875" lon="1.24455814249813556671142578125">
        <ele>2109.39990234375</ele>
        <time>2018-04-30T08:37:06.000Z</time>
      </trkpt>
      <trkpt lat="42.70010962150990962982177734375" lon="1.24465604312717914581298828125">
        <ele>2112.39990234375</ele>
        <time>2018-04-30T08:37:22.000Z</time>
      </trkpt>
      <trkpt lat="42.700157649815082550048828125" lon="1.2447023950517177581787109375">
        <ele>2113.800048828125</ele>
        <time>2018-04-30T08:37:30.000Z</time>
      </trkpt>
      <trkpt lat="42.700165025889873504638671875" lon="1.24471086077392101287841796875">
        <ele>2114</ele>
        <time>2018-04-30T08:37:31.000Z</time>
      </trkpt>
      <trkpt lat="42.70026125013828277587890625" lon="1.24478646554052829742431640625">
        <ele>2116</ele>
        <time>2018-04-30T08:37:44.000Z</time>
      </trkpt>
      <trkpt lat="42.70028480328619480133056640625" lon="1.24479266814887523651123046875">
        <ele>2116.39990234375</ele>
        <time>2018-04-30T08:37:47.000Z</time>
      </trkpt>
      <trkpt lat="42.7003968693315982818603515625" lon="1.244826614856719970703125">
        <ele>2119.60009765625</ele>
        <time>2018-04-30T08:38:20.000Z</time>
      </trkpt>
      <trkpt lat="42.7005299739539623260498046875" lon="1.24486885964870452880859375">
        <ele>2122.60009765625</ele>
        <time>2018-04-30T08:38:39.000Z</time>
      </trkpt>
      <trkpt lat="42.700649164617061614990234375" lon="1.2448931671679019927978515625">
        <ele>2125.39990234375</ele>
        <time>2018-04-30T08:38:56.000Z</time>
      </trkpt>
      <trkpt lat="42.700721919536590576171875" lon="1.24495443888008594512939453125">
        <ele>2128.39990234375</ele>
        <time>2018-04-30T08:39:18.000Z</time>
      </trkpt>
      <trkpt lat="42.700737006962299346923828125" lon="1.244971789419651031494140625">
        <ele>2128.60009765625</ele>
        <time>2018-04-30T08:39:23.000Z</time>
      </trkpt>
      <trkpt lat="42.700830213725566864013671875" lon="1.2450318038463592529296875">
        <ele>2131.800048828125</ele>
        <time>2018-04-30T08:39:38.000Z</time>
      </trkpt>
      <trkpt lat="42.7009111829102039337158203125" lon="1.2450608052313327789306640625">
        <ele>2133.800048828125</ele>
        <time>2018-04-30T08:39:48.000Z</time>
      </trkpt>
      <trkpt lat="42.70098301582038402557373046875" lon="1.2451077438890933990478515625">
        <ele>2136.800048828125</ele>
        <time>2018-04-30T08:40:01.000Z</time>
      </trkpt>
      <trkpt lat="42.7009909786283969879150390625" lon="1.24513783492147922515869140625">
        <ele>2137.39990234375</ele>
        <time>2018-04-30T08:40:04.000Z</time>
      </trkpt>
      <trkpt lat="42.7009494043886661529541015625" lon="1.245239675045013427734375">
        <ele>2140.60009765625</ele>
        <time>2018-04-30T08:40:19.000Z</time>
      </trkpt>
      <trkpt lat="42.70086877048015594482421875" lon="1.2453464604914188385009765625">
        <ele>2143.60009765625</ele>
        <time>2018-04-30T08:40:34.000Z</time>
      </trkpt>
      <trkpt lat="42.7007888071238994598388671875" lon="1.245460622012615203857421875">
        <ele>2147</ele>
        <time>2018-04-30T08:40:51.000Z</time>
      </trkpt>
      <trkpt lat="42.70072669722139835357666015625" lon="1.2455419264733791351318359375">
        <ele>2149.800048828125</ele>
        <time>2018-04-30T08:41:05.000Z</time>
      </trkpt>
      <trkpt lat="42.70071127451956272125244140625" lon="1.2455630488693714141845703125">
        <ele>2150.199951171875</ele>
        <time>2018-04-30T08:41:08.000Z</time>
      </trkpt>
      <trkpt lat="42.70064388401806354522705078125" lon="1.2456602789461612701416015625">
        <ele>2152.60009765625</ele>
        <time>2018-04-30T08:41:22.000Z</time>
      </trkpt>
      <trkpt lat="42.70056970417499542236328125" lon="1.24580386094748973846435546875">
        <ele>2155.60009765625</ele>
        <time>2018-04-30T08:41:41.000Z</time>
      </trkpt>
      <trkpt lat="42.7005125395953655242919921875" lon="1.24595892615616321563720703125">
        <ele>2159</ele>
        <time>2018-04-30T08:42:02.000Z</time>
      </trkpt>
      <trkpt lat="42.70050608552992343902587890625" lon="1.24606319703161716461181640625">
        <ele>2162.199951171875</ele>
        <time>2018-04-30T08:42:17.000Z</time>
      </trkpt>
      <trkpt lat="42.7005060017108917236328125" lon="1.24622337520122528076171875">
        <ele>2165.39990234375</ele>
        <time>2018-04-30T08:42:36.000Z</time>
      </trkpt>
      <trkpt lat="42.70046568475663661956787109375" lon="1.24633845873177051544189453125">
        <ele>2168.39990234375</ele>
        <time>2018-04-30T08:42:55.000Z</time>
      </trkpt>
      <trkpt lat="42.7004226855933666229248046875" lon="1.24640786089003086090087890625">
        <ele>2171.39990234375</ele>
        <time>2018-04-30T08:43:10.000Z</time>
      </trkpt>
      <trkpt lat="42.70048060454428195953369140625" lon="1.2464542128145694732666015625">
        <ele>2174.800048828125</ele>
        <time>2018-04-30T08:43:25.000Z</time>
      </trkpt>
      <trkpt lat="42.70056433975696563720703125" lon="1.24646469019353389739990234375">
        <ele>2176.39990234375</ele>
        <time>2018-04-30T08:43:41.000Z</time>
      </trkpt>
      <trkpt lat="42.7006386034190654754638671875" lon="1.246479861438274383544921875">
        <ele>2179.199951171875</ele>
        <time>2018-04-30T08:43:54.000Z</time>
      </trkpt>
      <trkpt lat="42.7006493322551250457763671875" lon="1.246544234454631805419921875">
        <ele>2181.60009765625</ele>
        <time>2018-04-30T08:44:12.000Z</time>
      </trkpt>
      <trkpt lat="42.70061119459569454193115234375" lon="1.24666904099285602569580078125">
        <ele>2184.60009765625</ele>
        <time>2018-04-30T08:44:29.000Z</time>
      </trkpt>
      <trkpt lat="42.70053944550454616546630859375" lon="1.2467609904706478118896484375">
        <ele>2187.800048828125</ele>
        <time>2018-04-30T08:44:44.000Z</time>
      </trkpt>
      <trkpt lat="42.70050575025379657745361328125" lon="1.2468065880239009857177734375">
        <ele>2189.199951171875</ele>
        <time>2018-04-30T08:44:50.000Z</time>
      </trkpt>
      <trkpt lat="42.700498290359973907470703125" lon="1.24681212007999420166015625">
        <ele>2189.39990234375</ele>
        <time>2018-04-30T08:44:51.000Z</time>
      </trkpt>
      <trkpt lat="42.70041388459503650665283203125" lon="1.24686081893742084503173828125">
        <ele>2192</ele>
        <time>2018-04-30T08:45:09.000Z</time>
      </trkpt>
      <trkpt lat="42.7003254555165767669677734375" lon="1.2469095177948474884033203125">
        <ele>2194.800048828125</ele>
        <time>2018-04-30T08:45:26.000Z</time>
      </trkpt>
      <trkpt lat="42.7002600766718387603759765625" lon="1.24695788137614727020263671875">
        <ele>2197.800048828125</ele>
        <time>2018-04-30T08:45:44.000Z</time>
      </trkpt>
      <trkpt lat="42.7003251202404499053955078125" lon="1.24704287387430667877197265625">
        <ele>2200.800048828125</ele>
        <time>2018-04-30T08:46:00.000Z</time>
      </trkpt>
      <trkpt lat="42.70035940222442150115966796875" lon="1.2470885552465915679931640625">
        <ele>2201.60009765625</ele>
        <time>2018-04-30T08:46:06.000Z</time>
      </trkpt>
      <trkpt lat="42.70042260177433490753173828125" lon="1.2471160478889942169189453125">
        <ele>2204.199951171875</ele>
        <time>2018-04-30T08:46:21.000Z</time>
      </trkpt>
      <trkpt lat="42.700496278703212738037109375" lon="1.24713926576077938079833984375">
        <ele>2205.800048828125</ele>
        <time>2018-04-30T08:46:35.000Z</time>
      </trkpt>
      <trkpt lat="42.70047993399202823638916015625" lon="1.247153766453266143798828125">
        <ele>2206.800048828125</ele>
        <time>2018-04-30T08:46:51.000Z</time>
      </trkpt>
      <trkpt lat="42.700453363358974456787109375" lon="1.247185282409191131591796875">
        <ele>2207.39990234375</ele>
        <time>2018-04-30T08:46:56.000Z</time>
      </trkpt>
      <trkpt lat="42.70036091096699237823486328125" lon="1.24728159047663211822509765625">
        <ele>2210.60009765625</ele>
        <time>2018-04-30T08:47:16.000Z</time>
      </trkpt>
      <trkpt lat="42.70030844025313854217529296875" lon="1.2473336420953273773193359375">
        <ele>2212.39990234375</ele>
        <time>2018-04-30T08:47:26.000Z</time>
      </trkpt>
      <trkpt lat="42.70030039362609386444091796875" lon="1.24733892269432544708251953125">
        <ele>2212.800048828125</ele>
        <time>2018-04-30T08:47:27.000Z</time>
      </trkpt>
      <trkpt lat="42.70025094039738178253173828125" lon="1.2473916448652744293212890625">
        <ele>2215.800048828125</ele>
        <time>2018-04-30T08:47:46.000Z</time>
      </trkpt>
      <trkpt lat="42.700370214879512786865234375" lon="1.24742190353572368621826171875">
        <ele>2218.800048828125</ele>
        <time>2018-04-30T08:48:04.000Z</time>
      </trkpt>
      <trkpt lat="42.7004505135118961334228515625" lon="1.24740882776677608489990234375">
        <ele>2220.800048828125</ele>
        <time>2018-04-30T08:48:16.000Z</time>
      </trkpt>
      <trkpt lat="42.7005272917449474334716796875" lon="1.247389130294322967529296875">
        <ele>2224</ele>
        <time>2018-04-30T08:48:29.000Z</time>
      </trkpt>
      <trkpt lat="42.70059116184711456298828125" lon="1.24736155383288860321044921875">
        <ele>2225.800048828125</ele>
        <time>2018-04-30T08:48:39.000Z</time>
      </trkpt>
      <trkpt lat="42.7006419561803340911865234375" lon="1.2473852746188640594482421875">
        <ele>2227</ele>
        <time>2018-04-30T08:49:07.000Z</time>
      </trkpt>
      <trkpt lat="42.700582109391689300537109375" lon="1.24749985523521900177001953125">
        <ele>2229</ele>
        <time>2018-04-30T08:49:21.000Z</time>
      </trkpt>
      <trkpt lat="42.70048253238201141357421875" lon="1.24761032871901988983154296875">
        <ele>2232.199951171875</ele>
        <time>2018-04-30T08:49:38.000Z</time>
      </trkpt>
      <trkpt lat="42.70046400837600231170654296875" lon="1.2476786412298679351806640625">
        <ele>2234.800048828125</ele>
        <time>2018-04-30T08:49:53.000Z</time>
      </trkpt>
      <trkpt lat="42.70057816989719867706298828125" lon="1.24766598455607891082763671875">
        <ele>2238</ele>
        <time>2018-04-30T08:50:13.000Z</time>
      </trkpt>
      <trkpt lat="42.70068596117198467254638671875" lon="1.24766782857477664947509765625">
        <ele>2241.199951171875</ele>
        <time>2018-04-30T08:50:30.000Z</time>
      </trkpt>
      <trkpt lat="42.7007515914738178253173828125" lon="1.24766866676509380340576171875">
        <ele>2242.199951171875</ele>
        <time>2018-04-30T08:50:39.000Z</time>
      </trkpt>
      <trkpt lat="42.70085762254893779754638671875" lon="1.2476469576358795166015625">
        <ele>2245.199951171875</ele>
        <time>2018-04-30T08:50:53.000Z</time>
      </trkpt>
      <trkpt lat="42.70091797225177288055419921875" lon="1.24770470894873142242431640625">
        <ele>2248.39990234375</ele>
        <time>2018-04-30T08:51:27.000Z</time>
      </trkpt>
      <trkpt lat="42.70087270997464656829833984375" lon="1.24773890711367130279541015625">
        <ele>2250.39990234375</ele>
        <time>2018-04-30T08:51:34.000Z</time>
      </trkpt>
      <trkpt lat="42.70075469277799129486083984375" lon="1.24785742722451686859130859375">
        <ele>2253.60009765625</ele>
        <time>2018-04-30T08:51:55.000Z</time>
      </trkpt>
      <trkpt lat="42.70073977299034595489501953125" lon="1.24793403781950473785400390625">
        <ele>2256.60009765625</ele>
        <time>2018-04-30T08:52:15.000Z</time>
      </trkpt>
      <trkpt lat="42.700779922306537628173828125" lon="1.247932277619838714599609375">
        <ele>2258.39990234375</ele>
        <time>2018-04-30T08:52:21.000Z</time>
      </trkpt>
      <trkpt lat="42.70096625201404094696044921875" lon="1.24799002893269062042236328125">
        <ele>2259.800048828125</ele>
        <time>2018-04-30T08:52:42.000Z</time>
      </trkpt>
      <trkpt lat="42.7010865323245525360107421875" lon="1.2481010891497135162353515625">
        <ele>2258</ele>
        <time>2018-04-30T08:53:47.000Z</time>
      </trkpt>
      <trkpt lat="42.70112500526010990142822265625" lon="1.24822036363184452056884765625">
        <ele>2258.800048828125</ele>
        <time>2018-04-30T08:54:26.000Z</time>
      </trkpt>
      <trkpt lat="42.70117596723139286041259765625" lon="1.2483684718608856201171875">
        <ele>2262</ele>
        <time>2018-04-30T08:55:11.000Z</time>
      </trkpt>
      <trkpt lat="42.7011254243552684783935546875" lon="1.2484531290829181671142578125">
        <ele>2265</ele>
        <time>2018-04-30T08:56:21.000Z</time>
      </trkpt>
      <trkpt lat="42.70105141215026378631591796875" lon="1.2484182603657245635986328125">
        <ele>2268.199951171875</ele>
        <time>2018-04-30T08:56:43.000Z</time>
      </trkpt>
      <trkpt lat="42.7010288648307323455810546875" lon="1.24849344603717327117919921875">
        <ele>2271.199951171875</ele>
        <time>2018-04-30T08:57:05.000Z</time>
      </trkpt>
      <trkpt lat="42.701022326946258544921875" lon="1.2485486827790737152099609375">
        <ele>2274.199951171875</ele>
        <time>2018-04-30T08:57:38.000Z</time>
      </trkpt>
      <trkpt lat="42.70104303024709224700927734375" lon="1.2485884130001068115234375">
        <ele>2274.800048828125</ele>
        <time>2018-04-30T08:57:49.000Z</time>
      </trkpt>
      <trkpt lat="42.7010717801749706268310546875" lon="1.24872981570661067962646484375">
        <ele>2278</ele>
        <time>2018-04-30T08:58:39.000Z</time>
      </trkpt>
      <trkpt lat="42.701051495969295501708984375" lon="1.24887616373598575592041015625">
        <ele>2279.39990234375</ele>
        <time>2018-04-30T08:59:25.000Z</time>
      </trkpt>
      <trkpt lat="42.70107806660234928131103515625" lon="1.2488943524658679962158203125">
        <ele>2279.800048828125</ele>
        <time>2018-04-30T09:00:13.000Z</time>
      </trkpt>
      <trkpt lat="42.70110388286411762237548828125" lon="1.24902318231761455535888671875">
        <ele>2277.60009765625</ele>
        <time>2018-04-30T09:00:41.000Z</time>
      </trkpt>
      <trkpt lat="42.70112785510718822479248046875" lon="1.24927380122244358062744140625">
        <ele>2277</ele>
        <time>2018-04-30T09:01:09.000Z</time>
      </trkpt>
      <trkpt lat="42.70113204605877399444580078125" lon="1.2492936663329601287841796875">
        <ele>2277.199951171875</ele>
        <time>2018-04-30T09:01:11.000Z</time>
      </trkpt>
      <trkpt lat="42.7011448703706264495849609375" lon="1.2493476457893848419189453125">
        <ele>2276.60009765625</ele>
        <time>2018-04-30T09:01:16.000Z</time>
      </trkpt>
      <trkpt lat="42.70116993226110935211181640625" lon="1.2494193948805332183837890625">
        <ele>2275</ele>
        <time>2018-04-30T09:01:20.000Z</time>
      </trkpt>
      <trkpt lat="42.701263725757598876953125" lon="1.2495769746601581573486328125">
        <ele>2272</ele>
        <time>2018-04-30T09:01:31.000Z</time>
      </trkpt>
      <trkpt lat="42.701304964721202850341796875" lon="1.24967269599437713623046875">
        <ele>2271.60009765625</ele>
        <time>2018-04-30T09:01:38.000Z</time>
      </trkpt>
      <trkpt lat="42.70131443627178668975830078125" lon="1.2496845982968807220458984375">
        <ele>2271.39990234375</ele>
        <time>2018-04-30T09:01:39.000Z</time>
      </trkpt>
      <trkpt lat="42.70131938159465789794921875" lon="1.249697841703891754150390625">
        <ele>2271.60009765625</ele>
        <time>2018-04-30T09:01:40.000Z</time>
      </trkpt>
      <trkpt lat="42.70132835023105144500732421875" lon="1.24971519224345684051513671875">
        <ele>2271.60009765625</ele>
        <time>2018-04-30T09:01:41.000Z</time>
      </trkpt>
      <trkpt lat="42.7013346366584300994873046875" lon="1.2497310340404510498046875">
        <ele>2271.39990234375</ele>
        <time>2018-04-30T09:01:42.000Z</time>
      </trkpt>
      <trkpt lat="42.70134142599999904632568359375" lon="1.24974377453327178955078125">
        <ele>2271</ele>
        <time>2018-04-30T09:01:43.000Z</time>
      </trkpt>
      <trkpt lat="42.7013503946363925933837890625" lon="1.24975944869220256805419921875">
        <ele>2271</ele>
        <time>2018-04-30T09:01:44.000Z</time>
      </trkpt>
      <trkpt lat="42.701359279453754425048828125" lon="1.24977068044245243072509765625">
        <ele>2270.800048828125</ele>
        <time>2018-04-30T09:01:45.000Z</time>
      </trkpt>
      <trkpt lat="42.7013674937188625335693359375" lon="1.24978342093527317047119140625">
        <ele>2270.60009765625</ele>
        <time>2018-04-30T09:01:46.000Z</time>
      </trkpt>
      <trkpt lat="42.70137327723205089569091796875" lon="1.24979498796164989471435546875">
        <ele>2270.39990234375</ele>
        <time>2018-04-30T09:01:47.000Z</time>
      </trkpt>
      <trkpt lat="42.701472938060760498046875" lon="1.24998223967850208282470703125">
        <ele>2270.199951171875</ele>
        <time>2018-04-30T09:02:07.000Z</time>
      </trkpt>
      <trkpt lat="42.7014918811619281768798828125" lon="1.25002004206180572509765625">
        <ele>2270.199951171875</ele>
        <time>2018-04-30T09:02:11.000Z</time>
      </trkpt>
      <trkpt lat="42.70150043070316314697265625" lon="1.25003035180270671844482421875">
        <ele>2270</ele>
        <time>2018-04-30T09:02:12.000Z</time>
      </trkpt>
      <trkpt lat="42.70150805823504924774169921875" lon="1.25003990717232227325439453125">
        <ele>2270</ele>
        <time>2018-04-30T09:02:13.000Z</time>
      </trkpt>
      <trkpt lat="42.70163026638329029083251953125" lon="1.25022254884243011474609375">
        <ele>2270</ele>
        <time>2018-04-30T09:02:31.000Z</time>
      </trkpt>
      <trkpt lat="42.70173914730548858642578125" lon="1.250407285988330841064453125">
        <ele>2270.800048828125</ele>
        <time>2018-04-30T09:02:49.000Z</time>
      </trkpt>
      <trkpt lat="42.70187149755656719207763671875" lon="1.250550448894500732421875">
        <ele>2272.60009765625</ele>
        <time>2018-04-30T09:03:14.000Z</time>
      </trkpt>
      <trkpt lat="42.70193536765873432159423828125" lon="1.250672824680805206298828125">
        <ele>2275.60009765625</ele>
        <time>2018-04-30T09:03:30.000Z</time>
      </trkpt>
      <trkpt lat="42.70199404098093509674072265625" lon="1.2507065199315547943115234375">
        <ele>2278.800048828125</ele>
        <time>2018-04-30T09:03:39.000Z</time>
      </trkpt>
      <trkpt lat="42.7020333521068096160888671875" lon="1.2507717311382293701171875">
        <ele>2280</ele>
        <time>2018-04-30T09:05:14.000Z</time>
      </trkpt>
      <trkpt lat="42.70202077925205230712890625" lon="1.2507663667201995849609375">
        <ele>2279.39990234375</ele>
        <time>2018-04-30T09:05:37.000Z</time>
      </trkpt>
      <trkpt lat="42.701989598572254180908203125" lon="1.250733174383640289306640625">
        <ele>2280.60009765625</ele>
        <time>2018-04-30T09:06:25.000Z</time>
      </trkpt>
      <trkpt lat="42.7019921131432056427001953125" lon="1.2507226131856441497802734375">
        <ele>2279.39990234375</ele>
        <time>2018-04-30T09:07:10.000Z</time>
      </trkpt>
      <trkpt lat="42.702030502259731292724609375" lon="1.25073426403105258941650390625">
        <ele>2281.60009765625</ele>
        <time>2018-04-30T09:07:32.000Z</time>
      </trkpt>
      <trkpt lat="42.7020410634577274322509765625" lon="1.25073828734457492828369140625">
        <ele>2279.199951171875</ele>
        <time>2018-04-30T09:07:59.000Z</time>
      </trkpt>
      <trkpt lat="42.7020491100847721099853515625" lon="1.250731833279132843017578125">
        <ele>2280.60009765625</ele>
        <time>2018-04-30T09:08:14.000Z</time>
      </trkpt>
      <trkpt lat="42.70204584114253520965576171875" lon="1.2507273070514202117919921875">
        <ele>2279</ele>
        <time>2018-04-30T09:08:35.000Z</time>
      </trkpt>
      <trkpt lat="42.70202455110847949981689453125" lon="1.25074935145676136016845703125">
        <ele>2279</ele>
        <time>2018-04-30T09:09:02.000Z</time>
      </trkpt>
      <trkpt lat="42.7020316757261753082275390625" lon="1.2507480941712856292724609375">
        <ele>2279.800048828125</ele>
        <time>2018-04-30T09:09:04.000Z</time>
      </trkpt>
      <trkpt lat="42.702014409005641937255859375" lon="1.25073644332587718963623046875">
        <ele>2278.60009765625</ele>
        <time>2018-04-30T09:10:33.000Z</time>
      </trkpt>
      <trkpt lat="42.70204416476190090179443359375" lon="1.25077768228948116302490234375">
        <ele>2279</ele>
        <time>2018-04-30T09:11:22.000Z</time>
      </trkpt>
      <trkpt lat="42.702067382633686065673828125" lon="1.250810287892818450927734375">
        <ele>2277.800048828125</ele>
        <time>2018-04-30T09:11:23.000Z</time>
      </trkpt>
      <trkpt lat="42.702097557485103607177734375" lon="1.25084691680967807769775390625">
        <ele>2276.800048828125</ele>
        <time>2018-04-30T09:11:24.000Z</time>
      </trkpt>
      <trkpt lat="42.702119350433349609375" lon="1.25088647939264774322509765625">
        <ele>2275.60009765625</ele>
        <time>2018-04-30T09:11:25.000Z</time>
      </trkpt>
      <trkpt lat="42.70211063325405120849609375" lon="1.25096728093922138214111328125">
        <ele>2274</ele>
        <time>2018-04-30T09:11:26.000Z</time>
      </trkpt>
      <trkpt lat="42.70213284529745578765869140625" lon="1.2510461546480655670166015625">
        <ele>2272.60009765625</ele>
        <time>2018-04-30T09:11:27.000Z</time>
      </trkpt>
      <trkpt lat="42.70213049836456775665283203125" lon="1.25113223679363727569580078125">
        <ele>2269.199951171875</ele>
        <time>2018-04-30T09:11:28.000Z</time>
      </trkpt>
      <trkpt lat="42.70212144590914249420166015625" lon="1.2512278743088245391845703125">
        <ele>2266</ele>
        <time>2018-04-30T09:11:29.000Z</time>
      </trkpt>
      <trkpt lat="42.70212613977491855621337890625" lon="1.25132518820464611053466796875">
        <ele>2262.199951171875</ele>
        <time>2018-04-30T09:11:30.000Z</time>
      </trkpt>
      <trkpt lat="42.7021064423024654388427734375" lon="1.25141956843435764312744140625">
        <ele>2258.60009765625</ele>
        <time>2018-04-30T09:11:31.000Z</time>
      </trkpt>
      <trkpt lat="42.70209261216223239898681640625" lon="1.25151411630213260650634765625">
        <ele>2254.60009765625</ele>
        <time>2018-04-30T09:11:32.000Z</time>
      </trkpt>
      <trkpt lat="42.70209512673318386077880859375" lon="1.2516164593398571014404296875">
        <ele>2250.60009765625</ele>
        <time>2018-04-30T09:11:33.000Z</time>
      </trkpt>
      <trkpt lat="42.702091522514820098876953125" lon="1.25173003412783145904541015625">
        <ele>2247</ele>
        <time>2018-04-30T09:11:34.000Z</time>
      </trkpt>
      <trkpt lat="42.70209328271448612213134765625" lon="1.25185458920896053314208984375">
        <ele>2241.800048828125</ele>
        <time>2018-04-30T09:11:35.000Z</time>
      </trkpt>
      <trkpt lat="42.70211356692016124725341796875" lon="1.25198920257389545440673828125">
        <ele>2237.199951171875</ele>
        <time>2018-04-30T09:11:36.000Z</time>
      </trkpt>
      <trkpt lat="42.70211071707308292388916015625" lon="1.25212448649108409881591796875">
        <ele>2233.800048828125</ele>
        <time>2018-04-30T09:11:37.000Z</time>
      </trkpt>
      <trkpt lat="42.7020980603992938995361328125" lon="1.2522551603615283966064453125">
        <ele>2231.199951171875</ele>
        <time>2018-04-30T09:11:38.000Z</time>
      </trkpt>
      <trkpt lat="42.70208942703902721405029296875" lon="1.252374015748500823974609375">
        <ele>2228.800048828125</ele>
        <time>2018-04-30T09:11:39.000Z</time>
      </trkpt>
      <trkpt lat="42.7021114714443683624267578125" lon="1.25246076844632625579833984375">
        <ele>2228.199951171875</ele>
        <time>2018-04-30T09:11:40.000Z</time>
      </trkpt>
      <trkpt lat="42.7021248824894428253173828125" lon="1.25255070626735687255859375">
        <ele>2229.199951171875</ele>
        <time>2018-04-30T09:11:41.000Z</time>
      </trkpt>
      <trkpt lat="42.70217768847942352294921875" lon="1.2528301589190959930419921875">
        <ele>2227.199951171875</ele>
        <time>2018-04-30T09:11:45.000Z</time>
      </trkpt>
      <trkpt lat="42.70221867598593235015869140625" lon="1.252952031791210174560546875">
        <ele>2225.800048828125</ele>
        <time>2018-04-30T09:11:48.000Z</time>
      </trkpt>
      <trkpt lat="42.70229034125804901123046875" lon="1.25322938896715641021728515625">
        <ele>2223.60009765625</ele>
        <time>2018-04-30T09:11:53.000Z</time>
      </trkpt>
      <trkpt lat="42.70226930268108844757080078125" lon="1.2532204203307628631591796875">
        <ele>2224</ele>
        <time>2018-04-30T09:12:55.000Z</time>
      </trkpt>
      <trkpt lat="42.7022881619632244110107421875" lon="1.25322519801557064056396484375">
        <ele>2224.199951171875</ele>
        <time>2018-04-30T09:13:47.000Z</time>
      </trkpt>
      <trkpt lat="42.70225547254085540771484375" lon="1.253217570483684539794921875">
        <ele>2224.60009765625</ele>
        <time>2018-04-30T09:14:23.000Z</time>
      </trkpt>
      <trkpt lat="42.7022422291338443756103515625" lon="1.25322838313877582550048828125">
        <ele>2224.199951171875</ele>
        <time>2018-04-30T09:14:49.000Z</time>
      </trkpt>
      <trkpt lat="42.7022740803658962249755859375" lon="1.2532267905771732330322265625">
        <ele>2224</ele>
        <time>2018-04-30T09:15:13.000Z</time>
      </trkpt>
      <trkpt lat="42.70239620469510555267333984375" lon="1.25332024879753589630126953125">
        <ele>2226.199951171875</ele>
        <time>2018-04-30T09:15:42.000Z</time>
      </trkpt>
      <trkpt lat="42.70255227573215961456298828125" lon="1.25336802564561367034912109375">
        <ele>2229.39990234375</ele>
        <time>2018-04-30T09:16:00.000Z</time>
      </trkpt>
      <trkpt lat="42.702703066170215606689453125" lon="1.25348738394677639007568359375">
        <ele>2231.800048828125</ele>
        <time>2018-04-30T09:16:20.000Z</time>
      </trkpt>
      <trkpt lat="42.70271035842597484588623046875" lon="1.25349082052707672119140625">
        <ele>2231.800048828125</ele>
        <time>2018-04-30T09:16:21.000Z</time>
      </trkpt>
      <trkpt lat="42.7027179859578609466552734375" lon="1.253495179116725921630859375">
        <ele>2232</ele>
        <time>2018-04-30T09:16:22.000Z</time>
      </trkpt>
      <trkpt lat="42.70272561348974704742431640625" lon="1.253497190773487091064453125">
        <ele>2232.199951171875</ele>
        <time>2018-04-30T09:16:23.000Z</time>
      </trkpt>
      <trkpt lat="42.70273114554584026336669921875" lon="1.2535022199153900146484375">
        <ele>2232.39990234375</ele>
        <time>2018-04-30T09:16:24.000Z</time>
      </trkpt>
      <trkpt lat="42.7027397789061069488525390625" lon="1.253506243228912353515625">
        <ele>2232.60009765625</ele>
        <time>2018-04-30T09:16:25.000Z</time>
      </trkpt>
      <trkpt lat="42.70278361625969409942626953125" lon="1.25353180803358554840087890625">
        <ele>2234.60009765625</ele>
        <time>2018-04-30T09:16:33.000Z</time>
      </trkpt>
      <trkpt lat="42.702792249619960784912109375" lon="1.25353465788066387176513671875">
        <ele>2235</ele>
        <time>2018-04-30T09:16:34.000Z</time>
      </trkpt>
      <trkpt lat="42.7028933353722095489501953125" lon="1.2535665929317474365234375">
        <ele>2238.199951171875</ele>
        <time>2018-04-30T09:16:47.000Z</time>
      </trkpt>
      <trkpt lat="42.70296935923397541046142578125" lon="1.2535882182419300079345703125">
        <ele>2241.199951171875</ele>
        <time>2018-04-30T09:17:00.000Z</time>
      </trkpt>
      <trkpt lat="42.7031038887798786163330078125" lon="1.25364596955478191375732421875">
        <ele>2244</ele>
        <time>2018-04-30T09:17:20.000Z</time>
      </trkpt>
      <trkpt lat="42.7031297050416469573974609375" lon="1.25367178581655025482177734375">
        <ele>2244.800048828125</ele>
        <time>2018-04-30T09:17:25.000Z</time>
      </trkpt>
      <trkpt lat="42.70319868810474872589111328125" lon="1.2537263520061969757080078125">
        <ele>2246.800048828125</ele>
        <time>2018-04-30T09:18:41.000Z</time>
      </trkpt>
      <trkpt lat="42.70320740528404712677001953125" lon="1.25375711359083652496337890625">
        <ele>2246</ele>
        <time>2018-04-30T09:18:52.000Z</time>
      </trkpt>
      <trkpt lat="42.70324110053479671478271484375" lon="1.2537947483360767364501953125">
        <ele>2245.800048828125</ele>
        <time>2018-04-30T09:18:58.000Z</time>
      </trkpt>
      <trkpt lat="42.703244872391223907470703125" lon="1.2538034655153751373291015625">
        <ele>2245.800048828125</ele>
        <time>2018-04-30T09:18:59.000Z</time>
      </trkpt>
      <trkpt lat="42.7033942379057407379150390625" lon="1.25395928509533405303955078125">
        <ele>2245.800048828125</ele>
        <time>2018-04-30T09:19:17.000Z</time>
      </trkpt>
      <trkpt lat="42.7035208046436309814453125" lon="1.2541434355080127716064453125">
        <ele>2245.60009765625</ele>
        <time>2018-04-30T09:19:34.000Z</time>
      </trkpt>
      <trkpt lat="42.70349808968603610992431640625" lon="1.254350133240222930908203125">
        <ele>2247.39990234375</ele>
        <time>2018-04-30T09:19:51.000Z</time>
      </trkpt>
      <trkpt lat="42.70349171943962574005126953125" lon="1.25435943715274333953857421875">
        <ele>2247.60009765625</ele>
        <time>2018-04-30T09:19:52.000Z</time>
      </trkpt>
      <trkpt lat="42.70348249934613704681396484375" lon="1.25438927672803401947021484375">
        <ele>2248.39990234375</ele>
        <time>2018-04-30T09:19:55.000Z</time>
      </trkpt>
      <trkpt lat="42.70347998477518558502197265625" lon="1.25440101139247417449951171875">
        <ele>2248.60009765625</ele>
        <time>2018-04-30T09:19:56.000Z</time>
      </trkpt>
      <trkpt lat="42.70346917212009429931640625" lon="1.25448382459580898284912109375">
        <ele>2249.800048828125</ele>
        <time>2018-04-30T09:20:03.000Z</time>
      </trkpt>
      <trkpt lat="42.7034669928252696990966796875" lon="1.254494301974773406982421875">
        <ele>2250</ele>
        <time>2018-04-30T09:20:04.000Z</time>
      </trkpt>
      <trkpt lat="42.7034612931311130523681640625" lon="1.25454233027994632720947265625">
        <ele>2251</ele>
        <time>2018-04-30T09:20:09.000Z</time>
      </trkpt>
      <trkpt lat="42.70346120931208133697509765625" lon="1.25455473549664020538330078125">
        <ele>2251.39990234375</ele>
        <time>2018-04-30T09:20:10.000Z</time>
      </trkpt>
      <trkpt lat="42.703456766903400421142578125" lon="1.25457636080682277679443359375">
        <ele>2252.199951171875</ele>
        <time>2018-04-30T09:20:12.000Z</time>
      </trkpt>
      <trkpt lat="42.70345718599855899810791015625" lon="1.25458742491900920867919921875">
        <ele>2252.39990234375</ele>
        <time>2018-04-30T09:20:13.000Z</time>
      </trkpt>
      <trkpt lat="42.70345366559922695159912109375" lon="1.2545977346599102020263671875">
        <ele>2252.39990234375</ele>
        <time>2018-04-30T09:20:14.000Z</time>
      </trkpt>
      <trkpt lat="42.70339398644864559173583984375" lon="1.2548180110752582550048828125">
        <ele>2255.39990234375</ele>
        <time>2018-04-30T09:20:35.000Z</time>
      </trkpt>
      <trkpt lat="42.70336590707302093505859375" lon="1.25507994554936885833740234375">
        <ele>2258</ele>
        <time>2018-04-30T09:20:56.000Z</time>
      </trkpt>
      <trkpt lat="42.70334688015282154083251953125" lon="1.25513903796672821044921875">
        <ele>2258.60009765625</ele>
        <time>2018-04-30T09:21:01.000Z</time>
      </trkpt>
      <trkpt lat="42.703344784677028656005859375" lon="1.25515437684953212738037109375">
        <ele>2258.800048828125</ele>
        <time>2018-04-30T09:21:02.000Z</time>
      </trkpt>
      <trkpt lat="42.703222744166851043701171875" lon="1.25534699298441410064697265625">
        <ele>2259.199951171875</ele>
        <time>2018-04-30T09:21:20.000Z</time>
      </trkpt>
      <trkpt lat="42.70318611524999141693115234375" lon="1.2553826160728931427001953125">
        <ele>2258.800048828125</ele>
        <time>2018-04-30T09:21:24.000Z</time>
      </trkpt>
      <trkpt lat="42.70317940972745418548583984375" lon="1.25539057888090610504150390625">
        <ele>2259</ele>
        <time>2018-04-30T09:21:25.000Z</time>
      </trkpt>
      <trkpt lat="42.7030810900032520294189453125" lon="1.25560750253498554229736328125">
        <ele>2262.199951171875</ele>
        <time>2018-04-30T09:21:47.000Z</time>
      </trkpt>
      <trkpt lat="42.7029868774116039276123046875" lon="1.25582844950258731842041015625">
        <ele>2264.60009765625</ele>
        <time>2018-04-30T09:22:09.000Z</time>
      </trkpt>
      <trkpt lat="42.7029025554656982421875" lon="1.25605006702244281768798828125">
        <ele>2267.800048828125</ele>
        <time>2018-04-30T09:22:31.000Z</time>
      </trkpt>
      <trkpt lat="42.702831141650676727294921875" lon="1.25626246444880962371826171875">
        <ele>2270.800048828125</ele>
        <time>2018-04-30T09:22:51.000Z</time>
      </trkpt>
      <trkpt lat="42.70279593765735626220703125" lon="1.25636019743978977203369140625">
        <ele>2272.39990234375</ele>
        <time>2018-04-30T09:23:01.000Z</time>
      </trkpt>
      <trkpt lat="42.70279048942029476165771484375" lon="1.25638090074062347412109375">
        <ele>2272.60009765625</ele>
        <time>2018-04-30T09:23:03.000Z</time>
      </trkpt>
      <trkpt lat="42.7027241885662078857421875" lon="1.2565493769943714141845703125">
        <ele>2275.800048828125</ele>
        <time>2018-04-30T09:23:21.000Z</time>
      </trkpt>
      <trkpt lat="42.7026410400867462158203125" lon="1.256780214607715606689453125">
        <ele>2277.39990234375</ele>
        <time>2018-04-30T09:23:46.000Z</time>
      </trkpt>
      <trkpt lat="42.70263927988708019256591796875" lon="1.25683980993926525115966796875">
        <ele>2278.60009765625</ele>
        <time>2018-04-30T09:24:05.000Z</time>
      </trkpt>
      <trkpt lat="42.702634334564208984375" lon="1.25691172666847705841064453125">
        <ele>2276.800048828125</ele>
        <time>2018-04-30T09:24:11.000Z</time>
      </trkpt>
      <trkpt lat="42.702622599899768829345703125" lon="1.25694910995662212371826171875">
        <ele>2276.39990234375</ele>
        <time>2018-04-30T09:24:45.000Z</time>
      </trkpt>
      <trkpt lat="42.70264430902898311614990234375" lon="1.25695564784109592437744140625">
        <ele>2276.199951171875</ele>
        <time>2018-04-30T09:24:57.000Z</time>
      </trkpt>
      <trkpt lat="42.7026432193815708160400390625" lon="1.256955564022064208984375">
        <ele>2275.800048828125</ele>
        <time>2018-04-30T09:25:07.000Z</time>
      </trkpt>
      <trkpt lat="42.70263106562197208404541015625" lon="1.2569540552794933319091796875">
        <ele>2276</ele>
        <time>2018-04-30T09:25:19.000Z</time>
      </trkpt>
      <trkpt lat="42.70263969898223876953125" lon="1.25696453265845775604248046875">
        <ele>2277.800048828125</ele>
        <time>2018-04-30T09:25:44.000Z</time>
      </trkpt>
      <trkpt lat="42.70264011807739734649658203125" lon="1.25696294009685516357421875">
        <ele>2277.800048828125</ele>
        <time>2018-04-30T09:25:56.000Z</time>
      </trkpt>
      <trkpt lat="42.70265788771212100982666015625" lon="1.256976686418056488037109375">
        <ele>2277.39990234375</ele>
        <time>2018-04-30T09:27:47.000Z</time>
      </trkpt>
      <trkpt lat="42.70265922881662845611572265625" lon="1.25694072805345058441162109375">
        <ele>2277.60009765625</ele>
        <time>2018-04-30T09:28:57.000Z</time>
      </trkpt>
      <trkpt lat="42.70265000872313976287841796875" lon="1.25694173388183116912841796875">
        <ele>2277.800048828125</ele>
        <time>2018-04-30T09:28:58.000Z</time>
      </trkpt>
      <trkpt lat="42.70263508893549442291259765625" lon="1.256990768015384674072265625">
        <ele>2277</ele>
        <time>2018-04-30T09:29:25.000Z</time>
      </trkpt>
      <trkpt lat="42.70262427628040313720703125" lon="1.2570147402584552764892578125">
        <ele>2276.60009765625</ele>
        <time>2018-04-30T09:29:26.000Z</time>
      </trkpt>
      <trkpt lat="42.70260793156921863555908203125" lon="1.257057823240756988525390625">
        <ele>2276.39990234375</ele>
        <time>2018-04-30T09:29:27.000Z</time>
      </trkpt>
      <trkpt lat="42.70258806645870208740234375" lon="1.2571220286190509796142578125">
        <ele>2275.800048828125</ele>
        <time>2018-04-30T09:29:28.000Z</time>
      </trkpt>
      <trkpt lat="42.70257993601262569427490234375" lon="1.25719184987246990203857421875">
        <ele>2274.39990234375</ele>
        <time>2018-04-30T09:29:29.000Z</time>
      </trkpt>
      <trkpt lat="42.70257021300494670867919921875" lon="1.25726091675460338592529296875">
        <ele>2273.199951171875</ele>
        <time>2018-04-30T09:29:30.000Z</time>
      </trkpt>
      <trkpt lat="42.7025449834764003753662109375" lon="1.257338114082813262939453125">
        <ele>2272.199951171875</ele>
        <time>2018-04-30T09:29:31.000Z</time>
      </trkpt>
      <trkpt lat="42.7025285549461841583251953125" lon="1.25743442215025424957275390625">
        <ele>2270.199951171875</ele>
        <time>2018-04-30T09:29:32.000Z</time>
      </trkpt>
      <trkpt lat="42.7024876512587070465087890625" lon="1.25754506327211856842041015625">
        <ele>2266.800048828125</ele>
        <time>2018-04-30T09:29:33.000Z</time>
      </trkpt>
      <trkpt lat="42.70244012586772441864013671875" lon="1.2576527707278728485107421875">
        <ele>2264.39990234375</ele>
        <time>2018-04-30T09:29:34.000Z</time>
      </trkpt>
      <trkpt lat="42.7024055086076259613037109375" lon="1.2577669322490692138671875">
        <ele>2261.800048828125</ele>
        <time>2018-04-30T09:29:35.000Z</time>
      </trkpt>
      <trkpt lat="42.70236301235854625701904296875" lon="1.25787782482802867889404296875">
        <ele>2259</ele>
        <time>2018-04-30T09:29:36.000Z</time>
      </trkpt>
      <trkpt lat="42.70231992937624454498291015625" lon="1.25798243097960948944091796875">
        <ele>2256.800048828125</ele>
        <time>2018-04-30T09:29:37.000Z</time>
      </trkpt>
      <trkpt lat="42.70230710506439208984375" lon="1.25808678567409515380859375">
        <ele>2256</ele>
        <time>2018-04-30T09:29:38.000Z</time>
      </trkpt>
      <trkpt lat="42.702304422855377197265625" lon="1.25820404849946498870849609375">
        <ele>2254.800048828125</ele>
        <time>2018-04-30T09:29:39.000Z</time>
      </trkpt>
      <trkpt lat="42.70231087692081928253173828125" lon="1.25832156278192996978759765625">
        <ele>2252.800048828125</ele>
        <time>2018-04-30T09:29:40.000Z</time>
      </trkpt>
      <trkpt lat="42.702336274087429046630859375" lon="1.25843304209411144256591796875">
        <ele>2250.60009765625</ele>
        <time>2018-04-30T09:29:41.000Z</time>
      </trkpt>
      <trkpt lat="42.70234490744769573211669921875" lon="1.2585452757775783538818359375">
        <ele>2247.199951171875</ele>
        <time>2018-04-30T09:29:42.000Z</time>
      </trkpt>
      <trkpt lat="42.70233132876455783843994140625" lon="1.25865130685269832611083984375">
        <ele>2246</ele>
        <time>2018-04-30T09:29:43.000Z</time>
      </trkpt>
      <trkpt lat="42.70231783390045166015625" lon="1.25873948447406291961669921875">
        <ele>2245.199951171875</ele>
        <time>2018-04-30T09:29:44.000Z</time>
      </trkpt>
      <trkpt lat="42.70232680253684520721435546875" lon="1.258805952966213226318359375">
        <ele>2245</ele>
        <time>2018-04-30T09:29:45.000Z</time>
      </trkpt>
      <trkpt lat="42.7023408003151416778564453125" lon="1.25887946225702762603759765625">
        <ele>2244</ele>
        <time>2018-04-30T09:29:46.000Z</time>
      </trkpt>
      <trkpt lat="42.7023870684206485748291015625" lon="1.25904290936887264251708984375">
        <ele>2240.800048828125</ele>
        <time>2018-04-30T09:29:48.000Z</time>
      </trkpt>
      <trkpt lat="42.7024387009441852569580078125" lon="1.25914382748305797576904296875">
        <ele>2238.199951171875</ele>
        <time>2018-04-30T09:29:50.000Z</time>
      </trkpt>
      <trkpt lat="42.70249092020094394683837890625" lon="1.2591276504099369049072265625">
        <ele>2235.199951171875</ele>
        <time>2018-04-30T09:30:15.000Z</time>
      </trkpt>
      <trkpt lat="42.70253299735486507415771484375" lon="1.25913326628506183624267578125">
        <ele>2235.39990234375</ele>
        <time>2018-04-30T09:30:51.000Z</time>
      </trkpt>
      <trkpt lat="42.70255453884601593017578125" lon="1.25914801843464374542236328125">
        <ele>2235.60009765625</ele>
        <time>2018-04-30T09:30:58.000Z</time>
      </trkpt>
      <trkpt lat="42.70256518386304378509521484375" lon="1.25915958546102046966552734375">
        <ele>2235.60009765625</ele>
        <time>2018-04-30T09:30:59.000Z</time>
      </trkpt>
      <trkpt lat="42.702586390078067779541015625" lon="1.25917282886803150177001953125">
        <ele>2235.60009765625</ele>
        <time>2018-04-30T09:31:00.000Z</time>
      </trkpt>
      <trkpt lat="42.70260239951312541961669921875" lon="1.259192191064357757568359375">
        <ele>2235.39990234375</ele>
        <time>2018-04-30T09:31:01.000Z</time>
      </trkpt>
      <trkpt lat="42.702623941004276275634765625" lon="1.2592141516506671905517578125">
        <ele>2235</ele>
        <time>2018-04-30T09:31:02.000Z</time>
      </trkpt>
      <trkpt lat="42.70265285857021808624267578125" lon="1.25923384912312030792236328125">
        <ele>2234.800048828125</ele>
        <time>2018-04-30T09:31:03.000Z</time>
      </trkpt>
      <trkpt lat="42.70268571563065052032470703125" lon="1.25925220549106597900390625">
        <ele>2234.39990234375</ele>
        <time>2018-04-30T09:31:04.000Z</time>
      </trkpt>
      <trkpt lat="42.70271949470043182373046875" lon="1.25927408225834369659423828125">
        <ele>2234.199951171875</ele>
        <time>2018-04-30T09:31:05.000Z</time>
      </trkpt>
      <trkpt lat="42.70275570452213287353515625" lon="1.25930107198655605316162109375">
        <ele>2233.39990234375</ele>
        <time>2018-04-30T09:31:06.000Z</time>
      </trkpt>
      <trkpt lat="42.70279015414416790008544921875" lon="1.2593355216085910797119140625">
        <ele>2232.39990234375</ele>
        <time>2018-04-30T09:31:07.000Z</time>
      </trkpt>
      <trkpt lat="42.70277607254683971405029296875" lon="1.259390003979206085205078125">
        <ele>2231.39990234375</ele>
        <time>2018-04-30T09:31:08.000Z</time>
      </trkpt>
      <trkpt lat="42.70277003757655620574951171875" lon="1.25945228151977062225341796875">
        <ele>2230</ele>
        <time>2018-04-30T09:31:09.000Z</time>
      </trkpt>
      <trkpt lat="42.702770791947841644287109375" lon="1.25952989794313907623291015625">
        <ele>2227.60009765625</ele>
        <time>2018-04-30T09:31:10.000Z</time>
      </trkpt>
      <trkpt lat="42.70274857990443706512451171875" lon="1.25960416160523891448974609375">
        <ele>2224.800048828125</ele>
        <time>2018-04-30T09:31:11.000Z</time>
      </trkpt>
      <trkpt lat="42.70273181609809398651123046875" lon="1.25968194566667079925537109375">
        <ele>2222</ele>
        <time>2018-04-30T09:31:12.000Z</time>
      </trkpt>
      <trkpt lat="42.70276132039725780487060546875" lon="1.25976425595581531524658203125">
        <ele>2218.60009765625</ele>
        <time>2018-04-30T09:31:13.000Z</time>
      </trkpt>
      <trkpt lat="42.70279887132346630096435546875" lon="1.25982896424829959869384765625">
        <ele>2215.39990234375</ele>
        <time>2018-04-30T09:31:14.000Z</time>
      </trkpt>
      <trkpt lat="42.70282820798456668853759765625" lon="1.25987003557384014129638671875">
        <ele>2213.199951171875</ele>
        <time>2018-04-30T09:31:15.000Z</time>
      </trkpt>
      <trkpt lat="42.70285486243665218353271484375" lon="1.259937845170497894287109375">
        <ele>2211.60009765625</ele>
        <time>2018-04-30T09:31:17.000Z</time>
      </trkpt>
      <trkpt lat="42.70285855047404766082763671875" lon="1.25999392010271549224853515625">
        <ele>2211.39990234375</ele>
        <time>2018-04-30T09:31:18.000Z</time>
      </trkpt>
      <trkpt lat="42.7028582990169525146484375" lon="1.260391138494014739990234375">
        <ele>2209.39990234375</ele>
        <time>2018-04-30T09:31:22.000Z</time>
      </trkpt>
      <trkpt lat="42.70284564234316349029541015625" lon="1.26056171022355556488037109375">
        <ele>2205.800048828125</ele>
        <time>2018-04-30T09:31:24.000Z</time>
      </trkpt>
      <trkpt lat="42.702840529382228851318359375" lon="1.26067637465894222259521484375">
        <ele>2205</ele>
        <time>2018-04-30T09:31:26.000Z</time>
      </trkpt>
      <trkpt lat="42.70279887132346630096435546875" lon="1.26094400882720947265625">
        <ele>2202.800048828125</ele>
        <time>2018-04-30T09:31:31.000Z</time>
      </trkpt>
      <trkpt lat="42.7027468197047710418701171875" lon="1.26126511953771114349365234375">
        <ele>2199.800048828125</ele>
        <time>2018-04-30T09:31:35.000Z</time>
      </trkpt>
      <trkpt lat="42.702688984572887420654296875" lon="1.2614618428051471710205078125">
        <ele>2196.60009765625</ele>
        <time>2018-04-30T09:31:37.000Z</time>
      </trkpt>
      <trkpt lat="42.70262050442397594451904296875" lon="1.261549182236194610595703125">
        <ele>2195.60009765625</ele>
        <time>2018-04-30T09:31:38.000Z</time>
      </trkpt>
      <trkpt lat="42.7024102024734020233154296875" lon="1.26176551915705204010009765625">
        <ele>2192.60009765625</ele>
        <time>2018-04-30T09:31:41.000Z</time>
      </trkpt>
      <trkpt lat="42.70219839178025722503662109375" lon="1.26196668483316898345947265625">
        <ele>2190.39990234375</ele>
        <time>2018-04-30T09:31:45.000Z</time>
      </trkpt>
      <trkpt lat="42.7021574042737483978271484375" lon="1.26200641505420207977294921875">
        <ele>2190.199951171875</ele>
        <time>2018-04-30T09:31:46.000Z</time>
      </trkpt>
      <trkpt lat="42.702025808393955230712890625" lon="1.26211621798574924468994140625">
        <ele>2189</ele>
        <time>2018-04-30T09:31:53.000Z</time>
      </trkpt>
      <trkpt lat="42.70200275816023349761962890625" lon="1.2620814330875873565673828125">
        <ele>2187.39990234375</ele>
        <time>2018-04-30T09:32:12.000Z</time>
      </trkpt>
      <trkpt lat="42.70201901905238628387451171875" lon="1.26206106506288051605224609375">
        <ele>2187.60009765625</ele>
        <time>2018-04-30T09:32:58.000Z</time>
      </trkpt>
      <trkpt lat="42.70201147533953189849853515625" lon="1.26206718385219573974609375">
        <ele>2187.60009765625</ele>
        <time>2018-04-30T09:32:59.000Z</time>
      </trkpt>
      <trkpt lat="42.7020266465842723846435546875" lon="1.26209375448524951934814453125">
        <ele>2187.199951171875</ele>
        <time>2018-04-30T09:33:14.000Z</time>
      </trkpt>
      <trkpt lat="42.70203460939228534698486328125" lon="1.2620844505727291107177734375">
        <ele>2187.39990234375</ele>
        <time>2018-04-30T09:33:18.000Z</time>
      </trkpt>
      <trkpt lat="42.702063024044036865234375" lon="1.2620938383042812347412109375">
        <ele>2187.60009765625</ele>
        <time>2018-04-30T09:34:01.000Z</time>
      </trkpt>
      <trkpt lat="42.7020226232707500457763671875" lon="1.2620401941239833831787109375">
        <ele>2187.60009765625</ele>
        <time>2018-04-30T09:35:28.000Z</time>
      </trkpt>
      <trkpt lat="42.70205774344503879547119140625" lon="1.26211655326187610626220703125">
        <ele>2186.39990234375</ele>
        <time>2018-04-30T09:36:59.000Z</time>
      </trkpt>
      <trkpt lat="42.702055312693119049072265625" lon="1.2621193192899227142333984375">
        <ele>2186.199951171875</ele>
        <time>2018-04-30T09:37:10.000Z</time>
      </trkpt>
      <trkpt lat="42.7020313404500484466552734375" lon="1.2620867975056171417236328125">
        <ele>2186.39990234375</ele>
        <time>2018-04-30T09:37:20.000Z</time>
      </trkpt>
      <trkpt lat="42.70204181782901287078857421875" lon="1.2620790861546993255615234375">
        <ele>2186.199951171875</ele>
        <time>2018-04-30T09:38:11.000Z</time>
      </trkpt>
      <trkpt lat="42.70206294022500514984130859375" lon="1.26208864152431488037109375">
        <ele>2186.800048828125</ele>
        <time>2018-04-30T09:38:35.000Z</time>
      </trkpt>
      <trkpt lat="42.70207065157592296600341796875" lon="1.26209559850394725799560546875">
        <ele>2186.800048828125</ele>
        <time>2018-04-30T09:38:36.000Z</time>
      </trkpt>
      <trkpt lat="42.702017091214656829833984375" lon="1.26214186660945415496826171875">
        <ele>2187</ele>
        <time>2018-04-30T09:39:03.000Z</time>
      </trkpt>
      <trkpt lat="42.70199932157993316650390625" lon="1.26214991323649883270263671875">
        <ele>2187.60009765625</ele>
        <time>2018-04-30T09:39:20.000Z</time>
      </trkpt>
      <trkpt lat="42.701954059302806854248046875" lon="1.2621753104031085968017578125">
        <ele>2188.199951171875</ele>
        <time>2018-04-30T09:39:30.000Z</time>
      </trkpt>
      <trkpt lat="42.7019659616053104400634765625" lon="1.26215309835970401763916015625">
        <ele>2187</ele>
        <time>2018-04-30T09:39:39.000Z</time>
      </trkpt>
      <trkpt lat="42.70193897187709808349609375" lon="1.262168772518634796142578125">
        <ele>2186.199951171875</ele>
        <time>2018-04-30T09:39:42.000Z</time>
      </trkpt>
      <trkpt lat="42.70184668712317943572998046875" lon="1.2623121030628681182861328125">
        <ele>2188.60009765625</ele>
        <time>2018-04-30T09:39:57.000Z</time>
      </trkpt>
      <trkpt lat="42.70173755474388599395751953125" lon="1.2624341435730457305908203125">
        <ele>2191.199951171875</ele>
        <time>2018-04-30T09:40:13.000Z</time>
      </trkpt>
      <trkpt lat="42.70167619921267032623291015625" lon="1.262525506317615509033203125">
        <ele>2194.199951171875</ele>
        <time>2018-04-30T09:40:24.000Z</time>
      </trkpt>
      <trkpt lat="42.70160277374088764190673828125" lon="1.26260572113096714019775390625">
        <ele>2197.39990234375</ele>
        <time>2018-04-30T09:40:37.000Z</time>
      </trkpt>
      <trkpt lat="42.70153236575424671173095703125" lon="1.2627043761312961578369140625">
        <ele>2199.800048828125</ele>
        <time>2018-04-30T09:41:03.000Z</time>
      </trkpt>
      <trkpt lat="42.70148341543972492218017578125" lon="1.2627638876438140869140625">
        <ele>2201.39990234375</ele>
        <time>2018-04-30T09:41:20.000Z</time>
      </trkpt>
      <trkpt lat="42.70145055837929248809814453125" lon="1.26284661702811717987060546875">
        <ele>2204.39990234375</ele>
        <time>2018-04-30T09:41:34.000Z</time>
      </trkpt>
      <trkpt lat="42.7015317790210247039794921875" lon="1.26291937194764614105224609375">
        <ele>2207.60009765625</ele>
        <time>2018-04-30T09:41:52.000Z</time>
      </trkpt>
      <trkpt lat="42.7014429308474063873291015625" lon="1.26300771720707416534423828125">
        <ele>2210.800048828125</ele>
        <time>2018-04-30T09:42:08.000Z</time>
      </trkpt>
      <trkpt lat="42.701346874237060546875" lon="1.26302867196500301361083984375">
        <ele>2213.60009765625</ele>
        <time>2018-04-30T09:42:20.000Z</time>
      </trkpt>
      <trkpt lat="42.701351903378963470458984375" lon="1.2631217949092388153076171875">
        <ele>2217</ele>
        <time>2018-04-30T09:42:39.000Z</time>
      </trkpt>
      <trkpt lat="42.70135349594056606292724609375" lon="1.2631325237452983856201171875">
        <ele>2217</ele>
        <time>2018-04-30T09:42:40.000Z</time>
      </trkpt>
      <trkpt lat="42.7013517357409000396728515625" lon="1.26314601860940456390380859375">
        <ele>2217.39990234375</ele>
        <time>2018-04-30T09:42:41.000Z</time>
      </trkpt>
      <trkpt lat="42.70137579180300235748291015625" lon="1.263229586184024810791015625">
        <ele>2220</ele>
        <time>2018-04-30T09:42:52.000Z</time>
      </trkpt>
      <trkpt lat="42.70141552202403545379638671875" lon="1.26334249041974544525146484375">
        <ele>2221.39990234375</ele>
        <time>2018-04-30T09:43:28.000Z</time>
      </trkpt>
      <trkpt lat="42.70138920284807682037353515625" lon="1.26339026726782321929931640625">
        <ele>2222.60009765625</ele>
        <time>2018-04-30T09:43:34.000Z</time>
      </trkpt>
      <trkpt lat="42.701302953064441680908203125" lon="1.263462267816066741943359375">
        <ele>2225.800048828125</ele>
        <time>2018-04-30T09:43:55.000Z</time>
      </trkpt>
      <trkpt lat="42.7012779749929904937744140625" lon="1.263518594205379486083984375">
        <ele>2227.60009765625</ele>
        <time>2018-04-30T09:44:02.000Z</time>
      </trkpt>
      <trkpt lat="42.70125475712120532989501953125" lon="1.26365379430353641510009765625">
        <ele>2230.800048828125</ele>
        <time>2018-04-30T09:44:16.000Z</time>
      </trkpt>
      <trkpt lat="42.70122039131820201873779296875" lon="1.263855881989002227783203125">
        <ele>2233.800048828125</ele>
        <time>2018-04-30T09:44:37.000Z</time>
      </trkpt>
      <trkpt lat="42.70119197666645050048828125" lon="1.26399678178131580352783203125">
        <ele>2234.800048828125</ele>
        <time>2018-04-30T09:45:02.000Z</time>
      </trkpt>
      <trkpt lat="42.70118527114391326904296875" lon="1.26401069574058055877685546875">
        <ele>2234.60009765625</ele>
        <time>2018-04-30T09:45:03.000Z</time>
      </trkpt>
      <trkpt lat="42.70118351094424724578857421875" lon="1.26402745954692363739013671875">
        <ele>2234.39990234375</ele>
        <time>2018-04-30T09:45:04.000Z</time>
      </trkpt>
      <trkpt lat="42.701083011925220489501953125" lon="1.26423784531652927398681640625">
        <ele>2235.800048828125</ele>
        <time>2018-04-30T09:45:23.000Z</time>
      </trkpt>
      <trkpt lat="42.70106968469917774200439453125" lon="1.2644075788557529449462890625">
        <ele>2238.39990234375</ele>
        <time>2018-04-30T09:45:43.000Z</time>
      </trkpt>
      <trkpt lat="42.7010758034884929656982421875" lon="1.26445728354156017303466796875">
        <ele>2240</ele>
        <time>2018-04-30T09:46:05.000Z</time>
      </trkpt>
      <trkpt lat="42.70112919621169567108154296875" lon="1.2645551003515720367431640625">
        <ele>2240.800048828125</ele>
        <time>2018-04-30T09:47:22.000Z</time>
      </trkpt>
      <trkpt lat="42.7011723630130290985107421875" lon="1.26478602178394794464111328125">
        <ele>2243</ele>
        <time>2018-04-30T09:47:46.000Z</time>
      </trkpt>
      <trkpt lat="42.70118669606745243072509765625" lon="1.264909990131855010986328125">
        <ele>2246.199951171875</ele>
        <time>2018-04-30T09:48:00.000Z</time>
      </trkpt>
      <trkpt lat="42.70120614208281040191650390625" lon="1.2650201283395290374755859375">
        <ele>2249.199951171875</ele>
        <time>2018-04-30T09:48:14.000Z</time>
      </trkpt>
      <trkpt lat="42.70125475712120532989501953125" lon="1.2650060467422008514404296875">
        <ele>2251</ele>
        <time>2018-04-30T09:48:23.000Z</time>
      </trkpt>
      <trkpt lat="42.701351232826709747314453125" lon="1.2649426795542240142822265625">
        <ele>2254.199951171875</ele>
        <time>2018-04-30T09:48:38.000Z</time>
      </trkpt>
      <trkpt lat="42.7014278434216976165771484375" lon="1.2648752890527248382568359375">
        <ele>2257.199951171875</ele>
        <time>2018-04-30T09:48:52.000Z</time>
      </trkpt>
      <trkpt lat="42.70153119228780269622802734375" lon="1.2647406756877899169921875">
        <ele>2260.39990234375</ele>
        <time>2018-04-30T09:49:12.000Z</time>
      </trkpt>
      <trkpt lat="42.70165993832051753997802734375" lon="1.26462358050048351287841796875">
        <ele>2263.60009765625</ele>
        <time>2018-04-30T09:49:35.000Z</time>
      </trkpt>
      <trkpt lat="42.70168860442936420440673828125" lon="1.26460765488445758819580078125">
        <ele>2265.800048828125</ele>
        <time>2018-04-30T09:49:40.000Z</time>
      </trkpt>
      <trkpt lat="42.70176705904304981231689453125" lon="1.26455434598028659820556640625">
        <ele>2269</ele>
        <time>2018-04-30T09:49:55.000Z</time>
      </trkpt>
      <trkpt lat="42.7018580026924610137939453125" lon="1.2645564414560794830322265625">
        <ele>2272.199951171875</ele>
        <time>2018-04-30T09:50:10.000Z</time>
      </trkpt>
      <trkpt lat="42.70193369127810001373291015625" lon="1.2646369077265262603759765625">
        <ele>2275.199951171875</ele>
        <time>2018-04-30T09:50:27.000Z</time>
      </trkpt>
      <trkpt lat="42.7019958011806011199951171875" lon="1.26471309922635555267333984375">
        <ele>2278.199951171875</ele>
        <time>2018-04-30T09:50:40.000Z</time>
      </trkpt>
      <trkpt lat="42.70205640234053134918212890625" lon="1.26479825936257839202880859375">
        <ele>2281.199951171875</ele>
        <time>2018-04-30T09:50:56.000Z</time>
      </trkpt>
      <trkpt lat="42.70210736431181430816650390625" lon="1.26487503759562969207763671875">
        <ele>2283.800048828125</ele>
        <time>2018-04-30T09:51:08.000Z</time>
      </trkpt>
      <trkpt lat="42.70225840620696544647216796875" lon="1.2649570964276790618896484375">
        <ele>2286.800048828125</ele>
        <time>2018-04-30T09:51:33.000Z</time>
      </trkpt>
      <trkpt lat="42.70237038843333721160888671875" lon="1.2649391591548919677734375">
        <ele>2289.800048828125</ele>
        <time>2018-04-30T09:51:52.000Z</time>
      </trkpt>
      <trkpt lat="42.70243677310645580291748046875" lon="1.26493739895522594451904296875">
        <ele>2291.800048828125</ele>
        <time>2018-04-30T09:52:01.000Z</time>
      </trkpt>
      <trkpt lat="42.70260139368474483489990234375" lon="1.2649353034794330596923828125">
        <ele>2294.800048828125</ele>
        <time>2018-04-30T09:52:23.000Z</time>
      </trkpt>
      <trkpt lat="42.70270616747438907623291015625" lon="1.264907307922840118408203125">
        <ele>2297.800048828125</ele>
        <time>2018-04-30T09:52:38.000Z</time>
      </trkpt>
      <trkpt lat="42.7028127014636993408203125" lon="1.26489163376390933990478515625">
        <ele>2301</ele>
        <time>2018-04-30T09:52:57.000Z</time>
      </trkpt>
      <trkpt lat="42.70293583162128925323486328125" lon="1.264891214668750762939453125">
        <ele>2304</ele>
        <time>2018-04-30T09:53:21.000Z</time>
      </trkpt>
      <trkpt lat="42.70306893624365329742431640625" lon="1.2649148516356945037841796875">
        <ele>2307.199951171875</ele>
        <time>2018-04-30T09:53:41.000Z</time>
      </trkpt>
      <trkpt lat="42.703177146613597869873046875" lon="1.26488350331783294677734375">
        <ele>2309.199951171875</ele>
        <time>2018-04-30T09:53:56.000Z</time>
      </trkpt>
      <trkpt lat="42.70318963564932346343994140625" lon="1.2648816592991352081298828125">
        <ele>2309.199951171875</ele>
        <time>2018-04-30T09:53:57.000Z</time>
      </trkpt>
      <trkpt lat="42.7033405937254428863525390625" lon="1.264818124473094940185546875">
        <ele>2312.39990234375</ele>
        <time>2018-04-30T09:54:17.000Z</time>
      </trkpt>
      <trkpt lat="42.7034468762576580047607421875" lon="1.26477613113820552825927734375">
        <ele>2315.39990234375</ele>
        <time>2018-04-30T09:54:35.000Z</time>
      </trkpt>
      <trkpt lat="42.7035288512706756591796875" lon="1.2646950781345367431640625">
        <ele>2317.39990234375</ele>
        <time>2018-04-30T09:54:50.000Z</time>
      </trkpt>
      <trkpt lat="42.70361862145364284515380859375" lon="1.26468141563236713409423828125">
        <ele>2320.39990234375</ele>
        <time>2018-04-30T09:55:04.000Z</time>
      </trkpt>
      <trkpt lat="42.70370596088469028472900390625" lon="1.2646875344216823577880859375">
        <ele>2323.39990234375</ele>
        <time>2018-04-30T09:55:16.000Z</time>
      </trkpt>
      <trkpt lat="42.7037563361227512359619140625" lon="1.26471527852118015289306640625">
        <ele>2326.199951171875</ele>
        <time>2018-04-30T09:55:23.000Z</time>
      </trkpt>
      <trkpt lat="42.70383085124194622039794921875" lon="1.2648994289338588714599609375">
        <ele>2329</ele>
        <time>2018-04-30T09:55:58.000Z</time>
      </trkpt>
      <trkpt lat="42.70396261475980281829833984375" lon="1.265021301805973052978515625">
        <ele>2332.199951171875</ele>
        <time>2018-04-30T09:56:22.000Z</time>
      </trkpt>
      <trkpt lat="42.7040731720626354217529296875" lon="1.2651000916957855224609375">
        <ele>2335.39990234375</ele>
        <time>2018-04-30T09:56:38.000Z</time>
      </trkpt>
      <trkpt lat="42.70427224226295948028564453125" lon="1.26513537950813770294189453125">
        <ele>2337</ele>
        <time>2018-04-30T09:57:18.000Z</time>
      </trkpt>
      <trkpt lat="42.704455219209194183349609375" lon="1.26521836034953594207763671875">
        <ele>2339.39990234375</ele>
        <time>2018-04-30T09:57:40.000Z</time>
      </trkpt>
      <trkpt lat="42.7046258747577667236328125" lon="1.26523487269878387451171875">
        <ele>2342.39990234375</ele>
        <time>2018-04-30T09:58:01.000Z</time>
      </trkpt>
      <trkpt lat="42.70473777316510677337646484375" lon="1.2651438452303409576416015625">
        <ele>2345.60009765625</ele>
        <time>2018-04-30T09:58:21.000Z</time>
      </trkpt>
      <trkpt lat="42.70476459525525569915771484375" lon="1.2650613673031330108642578125">
        <ele>2345.60009765625</ele>
        <time>2018-04-30T09:58:54.000Z</time>
      </trkpt>
      <trkpt lat="42.7047725580632686614990234375" lon="1.26504938118159770965576171875">
        <ele>2345.800048828125</ele>
        <time>2018-04-30T09:58:55.000Z</time>
      </trkpt>
      <trkpt lat="42.70482025109231472015380859375" lon="1.264966987073421478271484375">
        <ele>2345.800048828125</ele>
        <time>2018-04-30T09:59:01.000Z</time>
      </trkpt>
      <trkpt lat="42.70482947118580341339111328125" lon="1.264953911304473876953125">
        <ele>2345.800048828125</ele>
        <time>2018-04-30T09:59:02.000Z</time>
      </trkpt>
      <trkpt lat="42.70497732795774936676025390625" lon="1.26477780751883983612060546875">
        <ele>2347.199951171875</ele>
        <time>2018-04-30T09:59:20.000Z</time>
      </trkpt>
      <trkpt lat="42.705141864717006683349609375" lon="1.26463414169847965240478515625">
        <ele>2346</ele>
        <time>2018-04-30T09:59:38.000Z</time>
      </trkpt>
      <trkpt lat="42.70530958659946918487548828125" lon="1.26458267681300640106201171875">
        <ele>2349</ele>
        <time>2018-04-30T10:00:02.000Z</time>
      </trkpt>
      <trkpt lat="42.70544034428894519805908203125" lon="1.26463900320231914520263671875">
        <ele>2352.199951171875</ele>
        <time>2018-04-30T10:00:23.000Z</time>
      </trkpt>
      <trkpt lat="42.70550572313368320465087890625" lon="1.26465911976993083953857421875">
        <ele>2355.199951171875</ele>
        <time>2018-04-30T10:00:34.000Z</time>
      </trkpt>
      <trkpt lat="42.70558887161314487457275390625" lon="1.26470672897994518280029296875">
        <ele>2358.39990234375</ele>
        <time>2018-04-30T10:00:49.000Z</time>
      </trkpt>
      <trkpt lat="42.70569565705955028533935546875" lon="1.26472181640565395355224609375">
        <ele>2360.60009765625</ele>
        <time>2018-04-30T10:01:05.000Z</time>
      </trkpt>
      <trkpt lat="42.70573991350829601287841796875" lon="1.26474000513553619384765625">
        <ele>2361.199951171875</ele>
        <time>2018-04-30T10:01:13.000Z</time>
      </trkpt>
      <trkpt lat="42.70578257739543914794921875" lon="1.26475618220865726470947265625">
        <ele>2364.199951171875</ele>
        <time>2018-04-30T10:01:20.000Z</time>
      </trkpt>
      <trkpt lat="42.7058571763336658477783203125" lon="1.26482273451983928680419921875">
        <ele>2367.199951171875</ele>
        <time>2018-04-30T10:01:35.000Z</time>
      </trkpt>
      <trkpt lat="42.7059104852378368377685546875" lon="1.2649121694266796112060546875">
        <ele>2370.60009765625</ele>
        <time>2018-04-30T10:01:49.000Z</time>
      </trkpt>
      <trkpt lat="42.70594342611730098724365234375" lon="1.26500428654253482818603515625">
        <ele>2373.199951171875</ele>
        <time>2018-04-30T10:02:00.000Z</time>
      </trkpt>
      <trkpt lat="42.70602456294000148773193359375" lon="1.26514007337391376495361328125">
        <ele>2376.199951171875</ele>
        <time>2018-04-30T10:02:21.000Z</time>
      </trkpt>
      <trkpt lat="42.7060851640999317169189453125" lon="1.265178881585597991943359375">
        <ele>2379.39990234375</ele>
        <time>2018-04-30T10:02:33.000Z</time>
      </trkpt>
      <trkpt lat="42.706123553216457366943359375" lon="1.2652073800563812255859375">
        <ele>2380.199951171875</ele>
        <time>2018-04-30T10:02:39.000Z</time>
      </trkpt>
      <trkpt lat="42.70626663230359554290771484375" lon="1.2652940489351749420166015625">
        <ele>2383.39990234375</ele>
        <time>2018-04-30T10:03:00.000Z</time>
      </trkpt>
      <trkpt lat="42.70636989735066890716552734375" lon="1.26545808278024196624755859375">
        <ele>2386.39990234375</ele>
        <time>2018-04-30T10:03:25.000Z</time>
      </trkpt>
      <trkpt lat="42.706431336700916290283203125" lon="1.2655880860984325408935546875">
        <ele>2387.800048828125</ele>
        <time>2018-04-30T10:03:40.000Z</time>
      </trkpt>
      <trkpt lat="42.70651976577937602996826171875" lon="1.265699565410614013671875">
        <ele>2391</ele>
        <time>2018-04-30T10:03:55.000Z</time>
      </trkpt>
      <trkpt lat="42.706586234271526336669921875" lon="1.2658247910439968109130859375">
        <ele>2394.39990234375</ele>
        <time>2018-04-30T10:04:13.000Z</time>
      </trkpt>
      <trkpt lat="42.7066353522241115570068359375" lon="1.26596485264599323272705078125">
        <ele>2397.60009765625</ele>
        <time>2018-04-30T10:04:32.000Z</time>
      </trkpt>
      <trkpt lat="42.706684805452823638916015625" lon="1.26611505635082721710205078125">
        <ele>2399</ele>
        <time>2018-04-30T10:04:48.000Z</time>
      </trkpt>
      <trkpt lat="42.7066876552999019622802734375" lon="1.26612595282495021820068359375">
        <ele>2399</ele>
        <time>2018-04-30T10:04:49.000Z</time>
      </trkpt>
      <trkpt lat="42.70671866834163665771484375" lon="1.26614145934581756591796875">
        <ele>2398.60009765625</ele>
        <time>2018-04-30T10:05:13.000Z</time>
      </trkpt>
      <trkpt lat="42.70670467056334018707275390625" lon="1.26610927283763885498046875">
        <ele>2398.60009765625</ele>
        <time>2018-04-30T10:05:22.000Z</time>
      </trkpt>
      <trkpt lat="42.70673744380474090576171875" lon="1.26609980128705501556396484375">
        <ele>2398.199951171875</ele>
        <time>2018-04-30T10:05:56.000Z</time>
      </trkpt>
      <trkpt lat="42.7067141421139240264892578125" lon="1.26612578518688678741455078125">
        <ele>2398.39990234375</ele>
        <time>2018-04-30T10:06:00.000Z</time>
      </trkpt>
      <trkpt lat="42.7067121304571628570556640625" lon="1.2661818601191043853759765625">
        <ele>2398.60009765625</ele>
        <time>2018-04-30T10:06:09.000Z</time>
      </trkpt>
      <trkpt lat="42.70671305246651172637939453125" lon="1.26619468443095684051513671875">
        <ele>2398.800048828125</ele>
        <time>2018-04-30T10:06:10.000Z</time>
      </trkpt>
      <trkpt lat="42.706714309751987457275390625" lon="1.26620675437152385711669921875">
        <ele>2398.800048828125</ele>
        <time>2018-04-30T10:06:11.000Z</time>
      </trkpt>
      <trkpt lat="42.70676787011325359344482421875" lon="1.266500540077686309814453125">
        <ele>2397.60009765625</ele>
        <time>2018-04-30T10:06:26.000Z</time>
      </trkpt>
      <trkpt lat="42.7068298123776912689208984375" lon="1.26667521893978118896484375">
        <ele>2394.199951171875</ele>
        <time>2018-04-30T10:06:31.000Z</time>
      </trkpt>
      <trkpt lat="42.7068425528705120086669921875" lon="1.26670715399086475372314453125">
        <ele>2393.39990234375</ele>
        <time>2018-04-30T10:06:33.000Z</time>
      </trkpt>
      <trkpt lat="42.706844396889209747314453125" lon="1.26674629747867584228515625">
        <ele>2393.39990234375</ele>
        <time>2018-04-30T10:06:36.000Z</time>
      </trkpt>
      <trkpt lat="42.70684540271759033203125" lon="1.266756691038608551025390625">
        <ele>2393.39990234375</ele>
        <time>2018-04-30T10:06:37.000Z</time>
      </trkpt>
      <trkpt lat="42.70684481598436832427978515625" lon="1.26676783896982669830322265625">
        <ele>2393.39990234375</ele>
        <time>2018-04-30T10:06:38.000Z</time>
      </trkpt>
      <trkpt lat="42.7068630047142505645751953125" lon="1.267013847827911376953125">
        <ele>2395.800048828125</ele>
        <time>2018-04-30T10:06:59.000Z</time>
      </trkpt>
      <trkpt lat="42.7068459056317806243896484375" lon="1.2671752832829952239990234375">
        <ele>2398.800048828125</ele>
        <time>2018-04-30T10:07:15.000Z</time>
      </trkpt>
      <trkpt lat="42.7068348415195941925048828125" lon="1.26720705069601535797119140625">
        <ele>2399.39990234375</ele>
        <time>2018-04-30T10:08:09.000Z</time>
      </trkpt>
      <trkpt lat="42.70683123730123043060302734375" lon="1.267182491719722747802734375">
        <ele>2401.60009765625</ele>
        <time>2018-04-30T10:08:39.000Z</time>
      </trkpt>
      <trkpt lat="42.7068338356912136077880859375" lon="1.2672118283808231353759765625">
        <ele>2401.60009765625</ele>
        <time>2018-04-30T10:08:50.000Z</time>
      </trkpt>
      <trkpt lat="42.70682168193161487579345703125" lon="1.26728785224258899688720703125">
        <ele>2401.39990234375</ele>
        <time>2018-04-30T10:08:58.000Z</time>
      </trkpt>
      <trkpt lat="42.706812210381031036376953125" lon="1.26738105900585651397705078125">
        <ele>2404.60009765625</ele>
        <time>2018-04-30T10:09:11.000Z</time>
      </trkpt>
      <trkpt lat="42.70681321620941162109375" lon="1.26746320165693759918212890625">
        <ele>2407.60009765625</ele>
        <time>2018-04-30T10:09:22.000Z</time>
      </trkpt>
      <trkpt lat="42.70678706467151641845703125" lon="1.26756931655108928680419921875">
        <ele>2410.800048828125</ele>
        <time>2018-04-30T10:09:33.000Z</time>
      </trkpt>
      <trkpt lat="42.706770636141300201416015625" lon="1.26770091243088245391845703125">
        <ele>2414</ele>
        <time>2018-04-30T10:09:49.000Z</time>
      </trkpt>
      <trkpt lat="42.70676954649388790130615234375" lon="1.26770711503922939300537109375">
        <ele>2414.199951171875</ele>
        <time>2018-04-30T10:09:50.000Z</time>
      </trkpt>
      <trkpt lat="42.70675848238170146942138671875" lon="1.2679437361657619476318359375">
        <ele>2417.199951171875</ele>
        <time>2018-04-30T10:10:19.000Z</time>
      </trkpt>
      <trkpt lat="42.70671355538070201873779296875" lon="1.26811263151466846466064453125">
        <ele>2420.39990234375</ele>
        <time>2018-04-30T10:10:36.000Z</time>
      </trkpt>
      <trkpt lat="42.70669427700340747833251953125" lon="1.2681677006185054779052734375">
        <ele>2421.60009765625</ele>
        <time>2018-04-30T10:10:42.000Z</time>
      </trkpt>
      <trkpt lat="42.70669855177402496337890625" lon="1.2682917527854442596435546875">
        <ele>2424</ele>
        <time>2018-04-30T10:10:56.000Z</time>
      </trkpt>
      <trkpt lat="42.706696875393390655517578125" lon="1.2683977000415325164794921875">
        <ele>2425.39990234375</ele>
        <time>2018-04-30T10:11:07.000Z</time>
      </trkpt>
      <trkpt lat="42.7067459933459758758544921875" lon="1.26864069141447544097900390625">
        <ele>2428.39990234375</ele>
        <time>2018-04-30T10:11:34.000Z</time>
      </trkpt>
      <trkpt lat="42.7067555487155914306640625" lon="1.26881604082882404327392578125">
        <ele>2431.60009765625</ele>
        <time>2018-04-30T10:11:51.000Z</time>
      </trkpt>
      <trkpt lat="42.70676837302744388580322265625" lon="1.26903464086353778839111328125">
        <ele>2434.800048828125</ele>
        <time>2018-04-30T10:12:15.000Z</time>
      </trkpt>
      <trkpt lat="42.7067855559289455413818359375" lon="1.26918685622513294219970703125">
        <ele>2437.800048828125</ele>
        <time>2018-04-30T10:12:33.000Z</time>
      </trkpt>
      <trkpt lat="42.7068130485713481903076171875" lon="1.2694119103252887725830078125">
        <ele>2441</ele>
        <time>2018-04-30T10:12:57.000Z</time>
      </trkpt>
      <trkpt lat="42.70679150708019733428955078125" lon="1.26959103159606456756591796875">
        <ele>2443.60009765625</ele>
        <time>2018-04-30T10:13:15.000Z</time>
      </trkpt>
      <trkpt lat="42.70675353705883026123046875" lon="1.26970502547919750213623046875">
        <ele>2446.60009765625</ele>
        <time>2018-04-30T10:13:28.000Z</time>
      </trkpt>
      <trkpt lat="42.706745825707912445068359375" lon="1.269738636910915374755859375">
        <ele>2447.199951171875</ele>
        <time>2018-04-30T10:13:31.000Z</time>
      </trkpt>
      <trkpt lat="42.70669327117502689361572265625" lon="1.26998514868319034576416015625">
        <ele>2450</ele>
        <time>2018-04-30T10:13:54.000Z</time>
      </trkpt>
      <trkpt lat="42.70663090981543064117431640625" lon="1.270222105085849761962890625">
        <ele>2452</ele>
        <time>2018-04-30T10:14:16.000Z</time>
      </trkpt>
      <trkpt lat="42.70659168250858783721923828125" lon="1.270336098968982696533203125">
        <ele>2453</ele>
        <time>2018-04-30T10:14:28.000Z</time>
      </trkpt>
      <trkpt lat="42.7065461687743663787841796875" lon="1.27047264017164707183837890625">
        <ele>2456</ele>
        <time>2018-04-30T10:14:44.000Z</time>
      </trkpt>
      <trkpt lat="42.70649109967052936553955078125" lon="1.27068503759801387786865234375">
        <ele>2458.60009765625</ele>
        <time>2018-04-30T10:15:08.000Z</time>
      </trkpt>
      <trkpt lat="42.7064465917646884918212890625" lon="1.27081118524074554443359375">
        <ele>2461.199951171875</ele>
        <time>2018-04-30T10:15:23.000Z</time>
      </trkpt>
      <trkpt lat="42.70638649351894855499267578125" lon="1.270998604595661163330078125">
        <ele>2464.39990234375</ele>
        <time>2018-04-30T10:15:45.000Z</time>
      </trkpt>
      <trkpt lat="42.70634718239307403564453125" lon="1.271173954010009765625">
        <ele>2467</ele>
        <time>2018-04-30T10:16:05.000Z</time>
      </trkpt>
      <trkpt lat="42.7063097991049289703369140625" lon="1.27132440917193889617919921875">
        <ele>2469.800048828125</ele>
        <time>2018-04-30T10:16:21.000Z</time>
      </trkpt>
      <trkpt lat="42.70623662509024143218994140625" lon="1.2715251557528972625732421875">
        <ele>2472.800048828125</ele>
        <time>2018-04-30T10:16:41.000Z</time>
      </trkpt>
      <trkpt lat="42.70617091096937656402587890625" lon="1.2717595137655735015869140625">
        <ele>2475.199951171875</ele>
        <time>2018-04-30T10:17:03.000Z</time>
      </trkpt>
      <trkpt lat="42.7061052806675434112548828125" lon="1.27200552262365818023681640625">
        <ele>2477.60009765625</ele>
        <time>2018-04-30T10:17:24.000Z</time>
      </trkpt>
      <trkpt lat="42.70606177859008312225341796875" lon="1.2722567282617092132568359375">
        <ele>2477.39990234375</ele>
        <time>2018-04-30T10:17:43.000Z</time>
      </trkpt>
      <trkpt lat="42.7060045301914215087890625" lon="1.27250240184366703033447265625">
        <ele>2478.800048828125</ele>
        <time>2018-04-30T10:18:03.000Z</time>
      </trkpt>
      <trkpt lat="42.7059647999703884124755859375" lon="1.27275385893881320953369140625">
        <ele>2480.199951171875</ele>
        <time>2018-04-30T10:18:23.000Z</time>
      </trkpt>
      <trkpt lat="42.70593420602381229400634765625" lon="1.27300548367202281951904296875">
        <ele>2480.800048828125</ele>
        <time>2018-04-30T10:18:43.000Z</time>
      </trkpt>
      <trkpt lat="42.7059148438274860382080078125" lon="1.2732665799558162689208984375">
        <ele>2483.199951171875</ele>
        <time>2018-04-30T10:19:05.000Z</time>
      </trkpt>
      <trkpt lat="42.70589816384017467498779296875" lon="1.273364983499050140380859375">
        <ele>2483.199951171875</ele>
        <time>2018-04-30T10:19:14.000Z</time>
      </trkpt>
      <trkpt lat="42.70589799620211124420166015625" lon="1.27337537705898284912109375">
        <ele>2482.800048828125</ele>
        <time>2018-04-30T10:19:15.000Z</time>
      </trkpt>
      <trkpt lat="42.70589129067957401275634765625" lon="1.273487024009227752685546875">
        <ele>2485.60009765625</ele>
        <time>2018-04-30T10:19:26.000Z</time>
      </trkpt>
      <trkpt lat="42.7058851718902587890625" lon="1.27351694740355014801025390625">
        <ele>2486</ele>
        <time>2018-04-30T10:19:29.000Z</time>
      </trkpt>
      <trkpt lat="42.70587779581546783447265625" lon="1.27360596321523189544677734375">
        <ele>2488</ele>
        <time>2018-04-30T10:19:38.000Z</time>
      </trkpt>
      <trkpt lat="42.70585675723850727081298828125" lon="1.27380008809268474578857421875">
        <ele>2491.199951171875</ele>
        <time>2018-04-30T10:20:02.000Z</time>
      </trkpt>
      <trkpt lat="42.7058585174381732940673828125" lon="1.27380444668233394622802734375">
        <ele>2492.199951171875</ele>
        <time>2018-04-30T10:20:04.000Z</time>
      </trkpt>
      <trkpt lat="42.70586379803717136383056640625" lon="1.27388927154242992401123046875">
        <ele>2492.39990234375</ele>
        <time>2018-04-30T10:20:13.000Z</time>
      </trkpt>
      <trkpt lat="42.7058253251016139984130859375" lon="1.27414860762655735015869140625">
        <ele>2495</ele>
        <time>2018-04-30T10:20:37.000Z</time>
      </trkpt>
      <trkpt lat="42.70580931566655635833740234375" lon="1.27440827898681163787841796875">
        <ele>2496.60009765625</ele>
        <time>2018-04-30T10:21:01.000Z</time>
      </trkpt>
      <trkpt lat="42.70581048913300037384033203125" lon="1.274464689195156097412109375">
        <ele>2497.800048828125</ele>
        <time>2018-04-30T10:21:07.000Z</time>
      </trkpt>
      <trkpt lat="42.70579339005053043365478515625" lon="1.27463526092469692230224609375">
        <ele>2500.800048828125</ele>
        <time>2018-04-30T10:21:26.000Z</time>
      </trkpt>
      <trkpt lat="42.70578928291797637939453125" lon="1.27467767335474491119384765625">
        <ele>2501.39990234375</ele>
        <time>2018-04-30T10:21:30.000Z</time>
      </trkpt>
      <trkpt lat="42.705773524940013885498046875" lon="1.2748648412525653839111328125">
        <ele>2504.60009765625</ele>
        <time>2018-04-30T10:21:51.000Z</time>
      </trkpt>
      <trkpt lat="42.70576137118041515350341796875" lon="1.27504295669496059417724609375">
        <ele>2507.800048828125</ele>
        <time>2018-04-30T10:22:18.000Z</time>
      </trkpt>
      <trkpt lat="42.7057693339884281158447265625" lon="1.27520053647458553314208984375">
        <ele>2510.800048828125</ele>
        <time>2018-04-30T10:22:36.000Z</time>
      </trkpt>
      <trkpt lat="42.705776207149028778076171875" lon="1.27533615566790103912353515625">
        <ele>2513.800048828125</ele>
        <time>2018-04-30T10:22:53.000Z</time>
      </trkpt>
      <trkpt lat="42.7057844214141368865966796875" lon="1.27539533190429210662841796875">
        <ele>2515</ele>
        <time>2018-04-30T10:22:59.000Z</time>
      </trkpt>
      <trkpt lat="42.70577830262482166290283203125" lon="1.27550664357841014862060546875">
        <ele>2517.800048828125</ele>
        <time>2018-04-30T10:23:13.000Z</time>
      </trkpt>
      <trkpt lat="42.705731950700283050537109375" lon="1.275528855621814727783203125">
        <ele>2520.800048828125</ele>
        <time>2018-04-30T10:23:27.000Z</time>
      </trkpt>
      <trkpt lat="42.70572432316839694976806640625" lon="1.2756540812551975250244140625">
        <ele>2523.800048828125</ele>
        <time>2018-04-30T10:23:43.000Z</time>
      </trkpt>
      <trkpt lat="42.70572734065353870391845703125" lon="1.27574217505753040313720703125">
        <ele>2524.800048828125</ele>
        <time>2018-04-30T10:24:01.000Z</time>
      </trkpt>
      <trkpt lat="42.70572851411998271942138671875" lon="1.2757536582648754119873046875">
        <ele>2525.39990234375</ele>
        <time>2018-04-30T10:24:02.000Z</time>
      </trkpt>
      <trkpt lat="42.7057284303009510040283203125" lon="1.2757643871009349822998046875">
        <ele>2525.60009765625</ele>
        <time>2018-04-30T10:24:03.000Z</time>
      </trkpt>
      <trkpt lat="42.70572516135871410369873046875" lon="1.2757757864892482757568359375">
        <ele>2525.800048828125</ele>
        <time>2018-04-30T10:24:04.000Z</time>
      </trkpt>
      <trkpt lat="42.7057539112865924835205078125" lon="1.275793723762035369873046875">
        <ele>2526.199951171875</ele>
        <time>2018-04-30T10:24:26.000Z</time>
      </trkpt>
      <trkpt lat="42.70574108697474002838134765625" lon="1.2758477032184600830078125">
        <ele>2527.800048828125</ele>
        <time>2018-04-30T10:24:32.000Z</time>
      </trkpt>
      <trkpt lat="42.7057354710996150970458984375" lon="1.27589874900877475738525390625">
        <ele>2528.800048828125</ele>
        <time>2018-04-30T10:24:37.000Z</time>
      </trkpt>
      <trkpt lat="42.70571242086589336395263671875" lon="1.27602447755634784698486328125">
        <ele>2532</ele>
        <time>2018-04-30T10:24:50.000Z</time>
      </trkpt>
      <trkpt lat="42.7057264186441898345947265625" lon="1.27614517696201801300048828125">
        <ele>2535.199951171875</ele>
        <time>2018-04-30T10:25:08.000Z</time>
      </trkpt>
      <trkpt lat="42.7056848444044589996337890625" lon="1.276163198053836822509765625">
        <ele>2535</ele>
        <time>2018-04-30T10:25:40.000Z</time>
      </trkpt>
      <trkpt lat="42.7057309448719024658203125" lon="1.27613478340208530426025390625">
        <ele>2534.60009765625</ele>
        <time>2018-04-30T10:26:16.000Z</time>
      </trkpt>
      <trkpt lat="42.70577411167323589324951171875" lon="1.27611701376736164093017578125">
        <ele>2534.39990234375</ele>
        <time>2018-04-30T10:27:28.000Z</time>
      </trkpt>
      <trkpt lat="42.70577981136739253997802734375" lon="1.27609421499073505401611328125">
        <ele>2534.39990234375</ele>
        <time>2018-04-30T10:28:02.000Z</time>
      </trkpt>
      <trkpt lat="42.70578299649059772491455078125" lon="1.27618876285851001739501953125">
        <ele>2535.199951171875</ele>
        <time>2018-04-30T10:28:23.000Z</time>
      </trkpt>
      <trkpt lat="42.7057765424251556396484375" lon="1.2762713246047496795654296875">
        <ele>2537.199951171875</ele>
        <time>2018-04-30T10:29:43.000Z</time>
      </trkpt>
      <trkpt lat="42.70578333176672458648681640625" lon="1.27627358771860599517822265625">
        <ele>2537.39990234375</ele>
        <time>2018-04-30T10:30:12.000Z</time>
      </trkpt>
      <trkpt lat="42.7057689987123012542724609375" lon="1.27628213725984096527099609375">
        <ele>2537.199951171875</ele>
        <time>2018-04-30T10:31:57.000Z</time>
      </trkpt>
      <trkpt lat="42.7057622931897640228271484375" lon="1.27649771980941295623779296875">
        <ele>2540.199951171875</ele>
        <time>2018-04-30T10:33:10.000Z</time>
      </trkpt>
      <trkpt lat="42.705761454999446868896484375" lon="1.27668865956366062164306640625">
        <ele>2543.39990234375</ele>
        <time>2018-04-30T10:33:28.000Z</time>
      </trkpt>
      <trkpt lat="42.7057740278542041778564453125" lon="1.27694497816264629364013671875">
        <ele>2545.60009765625</ele>
        <time>2018-04-30T10:33:54.000Z</time>
      </trkpt>
      <trkpt lat="42.70574594847857952117919921875" lon="1.27718470059335231781005859375">
        <ele>2548.60009765625</ele>
        <time>2018-04-30T10:34:17.000Z</time>
      </trkpt>
      <trkpt lat="42.70574293099343776702880859375" lon="1.2773428671061992645263671875">
        <ele>2551.800048828125</ele>
        <time>2018-04-30T10:34:34.000Z</time>
      </trkpt>
      <trkpt lat="42.70574561320245265960693359375" lon="1.277519725263118743896484375">
        <ele>2554.800048828125</ele>
        <time>2018-04-30T10:34:52.000Z</time>
      </trkpt>
      <trkpt lat="42.7057562582194805145263671875" lon="1.27772868610918521881103515625">
        <ele>2558</ele>
        <time>2018-04-30T10:35:12.000Z</time>
      </trkpt>
      <trkpt lat="42.705750726163387298583984375" lon="1.27797997556626796722412109375">
        <ele>2559.800048828125</ele>
        <time>2018-04-30T10:35:35.000Z</time>
      </trkpt>
      <trkpt lat="42.7057502232491970062255859375" lon="1.27817384898662567138671875">
        <ele>2562.199951171875</ele>
        <time>2018-04-30T10:35:55.000Z</time>
      </trkpt>
      <trkpt lat="42.70576380193233489990234375" lon="1.27841281704604625701904296875">
        <ele>2565</ele>
        <time>2018-04-30T10:36:20.000Z</time>
      </trkpt>
      <trkpt lat="42.7057002671062946319580078125" lon="1.27860107459127902984619140625">
        <ele>2568.199951171875</ele>
        <time>2018-04-30T10:36:40.000Z</time>
      </trkpt>
      <trkpt lat="42.70567134954035282135009765625" lon="1.278718002140522003173828125">
        <ele>2570.800048828125</ele>
        <time>2018-04-30T10:36:55.000Z</time>
      </trkpt>
      <trkpt lat="42.70567352883517742156982421875" lon="1.2789002247154712677001953125">
        <ele>2573.800048828125</ele>
        <time>2018-04-30T10:37:15.000Z</time>
      </trkpt>
      <trkpt lat="42.7056687511503696441650390625" lon="1.2790504284203052520751953125">
        <ele>2576.60009765625</ele>
        <time>2018-04-30T10:37:32.000Z</time>
      </trkpt>
      <trkpt lat="42.7056774683296680450439453125" lon="1.2792138755321502685546875">
        <ele>2579.60009765625</ele>
        <time>2018-04-30T10:37:50.000Z</time>
      </trkpt>
      <trkpt lat="42.7056818269193172454833984375" lon="1.279310770332813262939453125">
        <ele>2581.199951171875</ele>
        <time>2018-04-30T10:38:00.000Z</time>
      </trkpt>
      <trkpt lat="42.70569062791764736175537109375" lon="1.279367767274379730224609375">
        <ele>2582</ele>
        <time>2018-04-30T10:38:06.000Z</time>
      </trkpt>
      <trkpt lat="42.705704458057880401611328125" lon="1.2795768119394779205322265625">
        <ele>2585.199951171875</ele>
        <time>2018-04-30T10:38:29.000Z</time>
      </trkpt>
      <trkpt lat="42.7056962437927722930908203125" lon="1.27972559072077274322509765625">
        <ele>2588.199951171875</ele>
        <time>2018-04-30T10:38:48.000Z</time>
      </trkpt>
      <trkpt lat="42.70566732622683048248291015625" lon="1.2798602879047393798828125">
        <ele>2591.199951171875</ele>
        <time>2018-04-30T10:39:06.000Z</time>
      </trkpt>
      <trkpt lat="42.70565894432365894317626953125" lon="1.27997587434947490692138671875">
        <ele>2594.39990234375</ele>
        <time>2018-04-30T10:39:31.000Z</time>
      </trkpt>
      <trkpt lat="42.705636732280254364013671875" lon="1.2800398282706737518310546875">
        <ele>2597.60009765625</ele>
        <time>2018-04-30T10:39:47.000Z</time>
      </trkpt>
      <trkpt lat="42.705635391175746917724609375" lon="1.28004594705998897552490234375">
        <ele>2600.60009765625</ele>
        <time>2018-04-30T10:39:57.000Z</time>
      </trkpt>
      <trkpt lat="42.70560152828693389892578125" lon="1.2801202945411205291748046875">
        <ele>2600.39990234375</ele>
        <time>2018-04-30T10:40:07.000Z</time>
      </trkpt>
      <trkpt lat="42.7056318707764148712158203125" lon="1.28026823513209819793701171875">
        <ele>2603.60009765625</ele>
        <time>2018-04-30T10:40:31.000Z</time>
      </trkpt>
      <trkpt lat="42.7056412585079669952392578125" lon="1.28027443774044513702392578125">
        <ele>2603.800048828125</ele>
        <time>2018-04-30T10:40:32.000Z</time>
      </trkpt>
      <trkpt lat="42.70565005950629711151123046875" lon="1.28027762286365032196044921875">
        <ele>2603.800048828125</ele>
        <time>2018-04-30T10:40:33.000Z</time>
      </trkpt>
      <trkpt lat="42.7056600339710712432861328125" lon="1.2802808918058872222900390625">
        <ele>2604</ele>
        <time>2018-04-30T10:40:34.000Z</time>
      </trkpt>
      <trkpt lat="42.7057539112865924835205078125" lon="1.280352137982845306396484375">
        <ele>2607</ele>
        <time>2018-04-30T10:40:53.000Z</time>
      </trkpt>
      <trkpt lat="42.705884166061878204345703125" lon="1.28037996590137481689453125">
        <ele>2608.800048828125</ele>
        <time>2018-04-30T10:41:13.000Z</time>
      </trkpt>
      <trkpt lat="42.70595164038240909576416015625" lon="1.28035825677216053009033203125">
        <ele>2610.60009765625</ele>
        <time>2018-04-30T10:41:25.000Z</time>
      </trkpt>
      <trkpt lat="42.70601618103682994842529296875" lon="1.28034031949937343597412109375">
        <ele>2612.199951171875</ele>
        <time>2018-04-30T10:41:36.000Z</time>
      </trkpt>
      <trkpt lat="42.706090696156024932861328125" lon="1.28030997700989246368408203125">
        <ele>2614.800048828125</ele>
        <time>2018-04-30T10:41:47.000Z</time>
      </trkpt>
      <trkpt lat="42.706110142171382904052734375" lon="1.2803020142018795013427734375">
        <ele>2615.199951171875</ele>
        <time>2018-04-30T10:41:50.000Z</time>
      </trkpt>
      <trkpt lat="42.7061730064451694488525390625" lon="1.28034467808902263641357421875">
        <ele>2618.199951171875</ele>
        <time>2018-04-30T10:42:01.000Z</time>
      </trkpt>
      <trkpt lat="42.706189937889575958251953125" lon="1.280492953956127166748046875">
        <ele>2621.39990234375</ele>
        <time>2018-04-30T10:42:19.000Z</time>
      </trkpt>
      <trkpt lat="42.7062056958675384521484375" lon="1.2806104682385921478271484375">
        <ele>2624.60009765625</ele>
        <time>2018-04-30T10:42:47.000Z</time>
      </trkpt>
      <trkpt lat="42.7062065340578556060791015625" lon="1.28062362782657146453857421875">
        <ele>2624.60009765625</ele>
        <time>2018-04-30T10:43:17.000Z</time>
      </trkpt>
      <trkpt lat="42.70620410330593585968017578125" lon="1.280617006123065948486328125">
        <ele>2624.800048828125</ele>
        <time>2018-04-30T10:43:43.000Z</time>
      </trkpt>
      <trkpt lat="42.7062507905066013336181640625" lon="1.280768215656280517578125">
        <ele>2627.800048828125</ele>
        <time>2018-04-30T10:44:08.000Z</time>
      </trkpt>
      <trkpt lat="42.70627551712095737457275390625" lon="1.28089654259383678436279296875">
        <ele>2631</ele>
        <time>2018-04-30T10:44:23.000Z</time>
      </trkpt>
      <trkpt lat="42.706327736377716064453125" lon="1.281009614467620849609375">
        <ele>2634</ele>
        <time>2018-04-30T10:44:39.000Z</time>
      </trkpt>
      <trkpt lat="42.70640484988689422607421875" lon="1.28104674629867076873779296875">
        <ele>2637</ele>
        <time>2018-04-30T10:44:54.000Z</time>
      </trkpt>
      <trkpt lat="42.70651389844715595245361328125" lon="1.28113810904324054718017578125">
        <ele>2640.199951171875</ele>
        <time>2018-04-30T10:45:14.000Z</time>
      </trkpt>
      <trkpt lat="42.70652580074965953826904296875" lon="1.28115923143923282623291015625">
        <ele>2640.800048828125</ele>
        <time>2018-04-30T10:45:17.000Z</time>
      </trkpt>
      <trkpt lat="42.706644572317600250244140625" lon="1.28130071796476840972900390625">
        <ele>2643</ele>
        <time>2018-04-30T10:45:38.000Z</time>
      </trkpt>
      <trkpt lat="42.70664951764047145843505859375" lon="1.28130943514406681060791015625">
        <ele>2643.199951171875</ele>
        <time>2018-04-30T10:45:39.000Z</time>
      </trkpt>
      <trkpt lat="42.7066819556057453155517578125" lon="1.281334497034549713134765625">
        <ele>2643.60009765625</ele>
        <time>2018-04-30T10:46:59.000Z</time>
      </trkpt>
      <trkpt lat="42.70672914572060108184814453125" lon="1.28131228499114513397216796875">
        <ele>2645.199951171875</ele>
        <time>2018-04-30T10:47:07.000Z</time>
      </trkpt>
      <trkpt lat="42.70676116459071636199951171875" lon="1.281278170645236968994140625">
        <ele>2646</ele>
        <time>2018-04-30T10:47:13.000Z</time>
      </trkpt>
      <trkpt lat="42.70682184956967830657958984375" lon="1.2811826169490814208984375">
        <ele>2649.199951171875</ele>
        <time>2018-04-30T10:47:30.000Z</time>
      </trkpt>
      <trkpt lat="42.70690239965915679931640625" lon="1.2810687907040119171142578125">
        <ele>2652.39990234375</ele>
        <time>2018-04-30T10:47:48.000Z</time>
      </trkpt>
      <trkpt lat="42.7069176547229290008544921875" lon="1.28103685565292835235595703125">
        <ele>2652.800048828125</ele>
        <time>2018-04-30T10:47:52.000Z</time>
      </trkpt>
      <trkpt lat="42.7069810219109058380126953125" lon="1.28091531805694103240966796875">
        <ele>2655.60009765625</ele>
        <time>2018-04-30T10:48:12.000Z</time>
      </trkpt>
      <trkpt lat="42.70700390450656414031982421875" lon="1.28091380931437015533447265625">
        <ele>2657.800048828125</ele>
        <time>2018-04-30T10:48:26.000Z</time>
      </trkpt>
      <trkpt lat="42.70706123672425746917724609375" lon="1.281038112938404083251953125">
        <ele>2661</ele>
        <time>2018-04-30T10:48:48.000Z</time>
      </trkpt>
      <trkpt lat="42.70714572630822658538818359375" lon="1.28099762834608554840087890625">
        <ele>2663</ele>
        <time>2018-04-30T10:49:17.000Z</time>
      </trkpt>
      <trkpt lat="42.7071932516992092132568359375" lon="1.280936188995838165283203125">
        <ele>2666.60009765625</ele>
        <time>2018-04-30T10:49:29.000Z</time>
      </trkpt>
      <trkpt lat="42.70720020867884159088134765625" lon="1.280924789607524871826171875">
        <ele>2667.199951171875</ele>
        <time>2018-04-30T10:49:31.000Z</time>
      </trkpt>
      <trkpt lat="42.707240022718906402587890625" lon="1.280869133770465850830078125">
        <ele>2667.60009765625</ele>
        <time>2018-04-30T10:49:41.000Z</time>
      </trkpt>
      <trkpt lat="42.707303054630756378173828125" lon="1.2807952053844928741455078125">
        <ele>2671.39990234375</ele>
        <time>2018-04-30T10:49:56.000Z</time>
      </trkpt>
      <trkpt lat="42.707304060459136962890625" lon="1.28079302608966827392578125">
        <ele>2674.39990234375</ele>
        <time>2018-04-30T10:50:15.000Z</time>
      </trkpt>
      <trkpt lat="42.7073085866868495941162109375" lon="1.28078103996813297271728515625">
        <ele>2671.199951171875</ele>
        <time>2018-04-30T10:50:18.000Z</time>
      </trkpt>
      <trkpt lat="42.70731269381940364837646484375" lon="1.2807774357497692108154296875">
        <ele>2671</ele>
        <time>2018-04-30T10:50:19.000Z</time>
      </trkpt>
      <trkpt lat="42.707363069057464599609375" lon="1.280761174857616424560546875">
        <ele>2674</ele>
        <time>2018-04-30T10:50:40.000Z</time>
      </trkpt>
      <trkpt lat="42.707416377961635589599609375" lon="1.280853711068630218505859375">
        <ele>2677.199951171875</ele>
        <time>2018-04-30T10:50:55.000Z</time>
      </trkpt>
      <trkpt lat="42.70743607543408870697021484375" lon="1.28091632388532161712646484375">
        <ele>2678.800048828125</ele>
        <time>2018-04-30T10:51:03.000Z</time>
      </trkpt>
      <trkpt lat="42.7074557729065418243408203125" lon="1.2810070998966693878173828125">
        <ele>2682</ele>
        <time>2018-04-30T10:51:16.000Z</time>
      </trkpt>
      <trkpt lat="42.707509584724903106689453125" lon="1.2811184115707874298095703125">
        <ele>2685.199951171875</ele>
        <time>2018-04-30T10:51:45.000Z</time>
      </trkpt>
      <trkpt lat="42.7075620554387569427490234375" lon="1.28102294169366359710693359375">
        <ele>2688.39990234375</ele>
        <time>2018-04-30T10:51:59.000Z</time>
      </trkpt>
      <trkpt lat="42.707681916654109954833984375" lon="1.280869133770465850830078125">
        <ele>2691.39990234375</ele>
        <time>2018-04-30T10:52:28.000Z</time>
      </trkpt>
      <trkpt lat="42.70775576122105121612548828125" lon="1.28077332861721515655517578125">
        <ele>2694.60009765625</ele>
        <time>2018-04-30T10:52:49.000Z</time>
      </trkpt>
      <trkpt lat="42.70776615478098392486572265625" lon="1.28076025284826755523681640625">
        <ele>2696</ele>
        <time>2018-04-30T10:52:52.000Z</time>
      </trkpt>
      <trkpt lat="42.707775793969631195068359375" lon="1.2807668745517730712890625">
        <ele>2694.199951171875</ele>
        <time>2018-04-30T10:52:55.000Z</time>
      </trkpt>
      <trkpt lat="42.70779423415660858154296875" lon="1.2808129750192165374755859375">
        <ele>2695.800048828125</ele>
        <time>2018-04-30T10:53:20.000Z</time>
      </trkpt>
      <trkpt lat="42.70777923054993152618408203125" lon="1.2808176688849925994873046875">
        <ele>2699.199951171875</ele>
        <time>2018-04-30T10:54:03.000Z</time>
      </trkpt>
      <trkpt lat="42.70778886973857879638671875" lon="1.2807995639741420745849609375">
        <ele>2696.199951171875</ele>
        <time>2018-04-30T10:54:28.000Z</time>
      </trkpt>
      <trkpt lat="42.70780362188816070556640625" lon="1.28086854703724384307861328125">
        <ele>2699.60009765625</ele>
        <time>2018-04-30T10:54:52.000Z</time>
      </trkpt>
      <trkpt lat="42.70784310065209865570068359375" lon="1.28105076961219310760498046875">
        <ele>2702.39990234375</ele>
        <time>2018-04-30T10:55:18.000Z</time>
      </trkpt>
      <trkpt lat="42.707856595516204833984375" lon="1.28108228556811809539794921875">
        <ele>2703.199951171875</ele>
        <time>2018-04-30T10:55:22.000Z</time>
      </trkpt>
      <trkpt lat="42.70787528716027736663818359375" lon="1.2811274640262126922607421875">
        <ele>2704.800048828125</ele>
        <time>2018-04-30T10:55:29.000Z</time>
      </trkpt>
      <trkpt lat="42.7078886143863201141357421875" lon="1.281175576150417327880859375">
        <ele>2706</ele>
        <time>2018-04-30T10:55:55.000Z</time>
      </trkpt>
      <trkpt lat="42.7079496346414089202880859375" lon="1.28100768662989139556884765625">
        <ele>2708.60009765625</ele>
        <time>2018-04-30T10:56:22.000Z</time>
      </trkpt>
      <trkpt lat="42.70798475481569766998291015625" lon="1.28093727864325046539306640625">
        <ele>2711.199951171875</ele>
        <time>2018-04-30T10:56:32.000Z</time>
      </trkpt>
      <trkpt lat="42.708067484200000762939453125" lon="1.2808119691908359527587890625">
        <ele>2713.199951171875</ele>
        <time>2018-04-30T10:57:09.000Z</time>
      </trkpt>
      <trkpt lat="42.70812339149415493011474609375" lon="1.28070853650569915771484375">
        <ele>2716.199951171875</ele>
        <time>2018-04-30T10:57:24.000Z</time>
      </trkpt>
      <trkpt lat="42.708185501396656036376953125" lon="1.280588842928409576416015625">
        <ele>2719.199951171875</ele>
        <time>2018-04-30T10:57:42.000Z</time>
      </trkpt>
      <trkpt lat="42.70822514779865741729736328125" lon="1.28061197698116302490234375">
        <ele>2722.39990234375</ele>
        <time>2018-04-30T10:58:08.000Z</time>
      </trkpt>
      <trkpt lat="42.70824392326176166534423828125" lon="1.28075547516345977783203125">
        <ele>2725.60009765625</ele>
        <time>2018-04-30T10:58:41.000Z</time>
      </trkpt>
      <trkpt lat="42.7083036862313747406005859375" lon="1.28071113489568233489990234375">
        <ele>2728.800048828125</ele>
        <time>2018-04-30T10:59:14.000Z</time>
      </trkpt>
      <trkpt lat="42.70835489965975284576416015625" lon="1.28062714822590351104736328125">
        <ele>2731.800048828125</ele>
        <time>2018-04-30T10:59:27.000Z</time>
      </trkpt>
      <trkpt lat="42.70843603648245334625244140625" lon="1.2805424071848392486572265625">
        <ele>2735</ele>
        <time>2018-04-30T10:59:47.000Z</time>
      </trkpt>
      <trkpt lat="42.70850644446909427642822265625" lon="1.28046420402824878692626953125">
        <ele>2737.39990234375</ele>
        <time>2018-04-30T11:00:20.000Z</time>
      </trkpt>
      <trkpt lat="42.708544246852397918701171875" lon="1.28051483072340488433837890625">
        <ele>2740.60009765625</ele>
        <time>2018-04-30T11:00:57.000Z</time>
      </trkpt>
      <trkpt lat="42.708558999001979827880859375" lon="1.2806852348148822784423828125">
        <ele>2743.800048828125</ele>
        <time>2018-04-30T11:01:17.000Z</time>
      </trkpt>
      <trkpt lat="42.708577103912830352783203125" lon="1.2808739952743053436279296875">
        <ele>2747</ele>
        <time>2018-04-30T11:01:40.000Z</time>
      </trkpt>
      <trkpt lat="42.7085973881185054779052734375" lon="1.28102696500718593597412109375">
        <ele>2750</ele>
        <time>2018-04-30T11:02:04.000Z</time>
      </trkpt>
      <trkpt lat="42.70862630568444728851318359375" lon="1.28097273409366607666015625">
        <ele>2750.199951171875</ele>
        <time>2018-04-30T11:02:28.000Z</time>
      </trkpt>
      <trkpt lat="42.70868749357759952545166015625" lon="1.28088916651904582977294921875">
        <ele>2753.199951171875</ele>
        <time>2018-04-30T11:02:43.000Z</time>
      </trkpt>
      <trkpt lat="42.70877416245639324188232421875" lon="1.2808106280863285064697265625">
        <ele>2756.199951171875</ele>
        <time>2018-04-30T11:03:10.000Z</time>
      </trkpt>
      <trkpt lat="42.708842642605304718017578125" lon="1.280731000006198883056640625">
        <ele>2759.39990234375</ele>
        <time>2018-04-30T11:03:25.000Z</time>
      </trkpt>
      <trkpt lat="42.708850689232349395751953125" lon="1.2807348556816577911376953125">
        <ele>2760.60009765625</ele>
        <time>2018-04-30T11:03:33.000Z</time>
      </trkpt>
      <trkpt lat="42.7088428102433681488037109375" lon="1.2809034995734691619873046875">
        <ele>2761.60009765625</ele>
        <time>2018-04-30T11:05:09.000Z</time>
      </trkpt>
      <trkpt lat="42.7089095301926136016845703125" lon="1.28085161559283733367919921875">
        <ele>2764.800048828125</ele>
        <time>2018-04-30T11:05:37.000Z</time>
      </trkpt>
      <trkpt lat="42.70899175666272640228271484375" lon="1.2807874940335750579833984375">
        <ele>2768</ele>
        <time>2018-04-30T11:05:55.000Z</time>
      </trkpt>
      <trkpt lat="42.709028385579586029052734375" lon="1.2807646952569484710693359375">
        <ele>2769.60009765625</ele>
        <time>2018-04-30T11:06:01.000Z</time>
      </trkpt>
      <trkpt lat="42.7090013958513736724853515625" lon="1.28094993531703948974609375">
        <ele>2772.800048828125</ele>
        <time>2018-04-30T11:06:37.000Z</time>
      </trkpt>
      <trkpt lat="42.7089819498360157012939453125" lon="1.281013302505016326904296875">
        <ele>2775.800048828125</ele>
        <time>2018-04-30T11:06:50.000Z</time>
      </trkpt>
      <trkpt lat="42.70910558290779590606689453125" lon="1.28087005577981472015380859375">
        <ele>2778.199951171875</ele>
        <time>2018-04-30T11:07:30.000Z</time>
      </trkpt>
      <trkpt lat="42.709113545715808868408203125" lon="1.28086217679083347320556640625">
        <ele>2778.39990234375</ele>
        <time>2018-04-30T11:07:32.000Z</time>
      </trkpt>
      <trkpt lat="42.7091515995562076568603515625" lon="1.28088765777647495269775390625">
        <ele>2781.39990234375</ele>
        <time>2018-04-30T11:08:14.000Z</time>
      </trkpt>
      <trkpt lat="42.70913374610245227813720703125" lon="1.2809544615447521209716796875">
        <ele>2782.60009765625</ele>
        <time>2018-04-30T11:09:13.000Z</time>
      </trkpt>
      <trkpt lat="42.70915470086038112640380859375" lon="1.2809826247394084930419921875">
        <ele>2785.60009765625</ele>
        <time>2018-04-30T11:09:59.000Z</time>
      </trkpt>
      <trkpt lat="42.70921488292515277862548828125" lon="1.28096695058047771453857421875">
        <ele>2788.800048828125</ele>
        <time>2018-04-30T11:10:14.000Z</time>
      </trkpt>
      <trkpt lat="42.709272801876068115234375" lon="1.2809112109243869781494140625">
        <ele>2790</ele>
        <time>2018-04-30T11:11:03.000Z</time>
      </trkpt>
      <trkpt lat="42.70926634781062602996826171875" lon="1.2809009850025177001953125">
        <ele>2790</ele>
        <time>2018-04-30T11:11:19.000Z</time>
      </trkpt>
      <trkpt lat="42.70926131866872310638427734375" lon="1.2809051759541034698486328125">
        <ele>2790.60009765625</ele>
        <time>2018-04-30T11:11:34.000Z</time>
      </trkpt>
      <trkpt lat="42.709275819361209869384765625" lon="1.28092738799750804901123046875">
        <ele>2790</ele>
        <time>2018-04-30T11:11:54.000Z</time>
      </trkpt>
      <trkpt lat="42.70926232449710369110107421875" lon="1.2809189222753047943115234375">
        <ele>2790.39990234375</ele>
        <time>2018-04-30T11:14:29.000Z</time>
      </trkpt>
      <trkpt lat="42.7092753164470195770263671875" lon="1.28092738799750804901123046875">
        <ele>2789.60009765625</ele>
        <time>2018-04-30T11:15:13.000Z</time>
      </trkpt>
      <trkpt lat="42.70926542580127716064453125" lon="1.2809262983500957489013671875">
        <ele>2789.800048828125</ele>
        <time>2018-04-30T11:16:04.000Z</time>
      </trkpt>
      <trkpt lat="42.709266431629657745361328125" lon="1.28095521591603755950927734375">
        <ele>2789</ele>
        <time>2018-04-30T11:17:08.000Z</time>
      </trkpt>
      <trkpt lat="42.70926115103065967559814453125" lon="1.280930824577808380126953125">
        <ele>2789.39990234375</ele>
        <time>2018-04-30T11:17:15.000Z</time>
      </trkpt>
      <trkpt lat="42.70927011966705322265625" lon="1.280956305563449859619140625">
        <ele>2788.60009765625</ele>
        <time>2018-04-30T11:17:50.000Z</time>
      </trkpt>
      <trkpt lat="42.70926282741129398345947265625" lon="1.280950605869293212890625">
        <ele>2788.60009765625</ele>
        <time>2018-04-30T11:17:52.000Z</time>
      </trkpt>
      <trkpt lat="42.70925830118358135223388671875" lon="1.28089318983256816864013671875">
        <ele>2789</ele>
        <time>2018-04-30T11:19:40.000Z</time>
      </trkpt>
      <trkpt lat="42.70925511606037616729736328125" lon="1.28090701997280120849609375">
        <ele>2789.39990234375</ele>
        <time>2018-04-30T11:21:18.000Z</time>
      </trkpt>
      <trkpt lat="42.70925662480294704437255859375" lon="1.28091095946729183197021484375">
        <ele>2789.39990234375</ele>
        <time>2018-04-30T11:21:43.000Z</time>
      </trkpt>
      <trkpt lat="42.7092454768717288970947265625" lon="1.28106049261987209320068359375">
        <ele>2792.39990234375</ele>
        <time>2018-04-30T11:22:08.000Z</time>
      </trkpt>
      <trkpt lat="42.70923851989209651947021484375" lon="1.281168870627880096435546875">
        <ele>2795.60009765625</ele>
        <time>2018-04-30T11:22:25.000Z</time>
      </trkpt>
      <trkpt lat="42.7092555351555347442626953125" lon="1.28124271519482135772705078125">
        <ele>2798.60009765625</ele>
        <time>2018-04-30T11:22:42.000Z</time>
      </trkpt>
      <trkpt lat="42.70926903001964092254638671875" lon="1.2813024781644344329833984375">
        <ele>2802</ele>
        <time>2018-04-30T11:22:58.000Z</time>
      </trkpt>
      <trkpt lat="42.7092634141445159912109375" lon="1.28130801022052764892578125">
        <ele>2800.39990234375</ele>
        <time>2018-04-30T11:23:06.000Z</time>
      </trkpt>
      <trkpt lat="42.70927841775119304656982421875" lon="1.28134849481284618377685546875">
        <ele>2803.60009765625</ele>
        <time>2018-04-30T11:23:17.000Z</time>
      </trkpt>
      <trkpt lat="42.70928747020661830902099609375" lon="1.28142259083688259124755859375">
        <ele>2806.800048828125</ele>
        <time>2018-04-30T11:23:29.000Z</time>
      </trkpt>
      <trkpt lat="42.70930138416588306427001953125" lon="1.2814939208328723907470703125">
        <ele>2810</ele>
        <time>2018-04-30T11:23:41.000Z</time>
      </trkpt>
      <trkpt lat="42.7092947624623775482177734375" lon="1.281547062098979949951171875">
        <ele>2813.60009765625</ele>
        <time>2018-04-30T11:23:54.000Z</time>
      </trkpt>
      <trkpt lat="42.70929534919559955596923828125" lon="1.28155745565891265869140625">
        <ele>2814</ele>
        <time>2018-04-30T11:23:55.000Z</time>
      </trkpt>
      <trkpt lat="42.709315381944179534912109375" lon="1.28164638765156269073486328125">
        <ele>2817</ele>
        <time>2018-04-30T11:24:07.000Z</time>
      </trkpt>
      <trkpt lat="42.709303982555866241455078125" lon="1.281716711819171905517578125">
        <ele>2816.800048828125</ele>
        <time>2018-04-30T11:24:57.000Z</time>
      </trkpt>
      <trkpt lat="42.709312699735164642333984375" lon="1.28168544732034206390380859375">
        <ele>2814.800048828125</ele>
        <time>2018-04-30T11:25:11.000Z</time>
      </trkpt>
      <trkpt lat="42.70931613631546497344970703125" lon="1.28167220391333103179931640625">
        <ele>2814.800048828125</ele>
        <time>2018-04-30T11:25:12.000Z</time>
      </trkpt>
      <trkpt lat="42.7093262784183025360107421875" lon="1.281653009355068206787109375">
        <ele>2815</ele>
        <time>2018-04-30T11:25:14.000Z</time>
      </trkpt>
      <trkpt lat="42.709332816302776336669921875" lon="1.2816437892615795135498046875">
        <ele>2815.39990234375</ele>
        <time>2018-04-30T11:25:15.000Z</time>
      </trkpt>
      <trkpt lat="42.70938134752213954925537109375" lon="1.2816042266786098480224609375">
        <ele>2818.39990234375</ele>
        <time>2018-04-30T11:25:26.000Z</time>
      </trkpt>
      <trkpt lat="42.7094010449945926666259765625" lon="1.28158050589263439178466796875">
        <ele>2819</ele>
        <time>2018-04-30T11:25:30.000Z</time>
      </trkpt>
      <trkpt lat="42.709479667246341705322265625" lon="1.28146651200950145721435546875">
        <ele>2822.199951171875</ele>
        <time>2018-04-30T11:25:58.000Z</time>
      </trkpt>
      <trkpt lat="42.70951529033482074737548828125" lon="1.2815002910792827606201171875">
        <ele>2825.199951171875</ele>
        <time>2018-04-30T11:26:12.000Z</time>
      </trkpt>
      <trkpt lat="42.70958460867404937744140625" lon="1.2814888916909694671630859375">
        <ele>2828.199951171875</ele>
        <time>2018-04-30T11:26:29.000Z</time>
      </trkpt>
      <trkpt lat="42.70966012962162494659423828125" lon="1.2814213335514068603515625">
        <ele>2831.199951171875</ele>
        <time>2018-04-30T11:26:50.000Z</time>
      </trkpt>
      <trkpt lat="42.70967873744666576385498046875" lon="1.28140901215374469757080078125">
        <ele>2832.199951171875</ele>
        <time>2018-04-30T11:26:53.000Z</time>
      </trkpt>
      <trkpt lat="42.70976104773581027984619140625" lon="1.2813393585383892059326171875">
        <ele>2835.39990234375</ele>
        <time>2018-04-30T11:27:15.000Z</time>
      </trkpt>
      <trkpt lat="42.70981418900191783905029296875" lon="1.2812612392008304595947265625">
        <ele>2838.39990234375</ele>
        <time>2018-04-30T11:27:28.000Z</time>
      </trkpt>
      <trkpt lat="42.70983397029340267181396484375" lon="1.2812335789203643798828125">
        <ele>2841.60009765625</ele>
        <time>2018-04-30T11:28:02.000Z</time>
      </trkpt>
      <trkpt lat="42.709872610867023468017578125" lon="1.281206421554088592529296875">
        <ele>2842.39990234375</ele>
        <time>2018-04-30T11:28:19.000Z</time>
      </trkpt>
      <trkpt lat="42.70992265082895755767822265625" lon="1.28116174601018428802490234375">
        <ele>2842.60009765625</ele>
        <time>2018-04-30T11:28:27.000Z</time>
      </trkpt>
      <trkpt lat="42.71001418121159076690673828125" lon="1.2810409627854824066162109375">
        <ele>2845.60009765625</ele>
        <time>2018-04-30T11:28:50.000Z</time>
      </trkpt>
      <trkpt lat="42.710050642490386962890625" lon="1.281006596982479095458984375">
        <ele>2848.800048828125</ele>
        <time>2018-04-30T11:29:04.000Z</time>
      </trkpt>
      <trkpt lat="42.7100528217852115631103515625" lon="1.28095270134508609771728515625">
        <ele>2852</ele>
        <time>2018-04-30T11:29:37.000Z</time>
      </trkpt>
      <trkpt lat="42.710051648318767547607421875" lon="1.28094515763223171234130859375">
        <ele>2852.800048828125</ele>
        <time>2018-04-30T11:29:40.000Z</time>
      </trkpt>
      <trkpt lat="42.7100518159568309783935546875" lon="1.28094549290835857391357421875">
        <ele>2851.39990234375</ele>
        <time>2018-04-30T11:29:43.000Z</time>
      </trkpt>
      <trkpt lat="42.71005801856517791748046875" lon="1.28093007020652294158935546875">
        <ele>2849.60009765625</ele>
        <time>2018-04-30T11:29:50.000Z</time>
      </trkpt>
      <trkpt lat="42.71009582094848155975341796875" lon="1.28087257035076618194580078125">
        <ele>2850</ele>
        <time>2018-04-30T11:30:34.000Z</time>
      </trkpt>
      <trkpt lat="42.71017746068537235260009765625" lon="1.28078321926295757293701171875">
        <ele>2853</ele>
        <time>2018-04-30T11:31:05.000Z</time>
      </trkpt>
      <trkpt lat="42.710240744054317474365234375" lon="1.28068515099585056304931640625">
        <ele>2855.199951171875</ele>
        <time>2018-04-30T11:31:37.000Z</time>
      </trkpt>
      <trkpt lat="42.710259519517421722412109375" lon="1.2806909345090389251708984375">
        <ele>2858.199951171875</ele>
        <time>2018-04-30T11:31:41.000Z</time>
      </trkpt>
      <trkpt lat="42.7102834917604923248291015625" lon="1.28067827783524990081787109375">
        <ele>2862</ele>
        <time>2018-04-30T11:32:02.000Z</time>
      </trkpt>
      <trkpt lat="42.7102915383875370025634765625" lon="1.28067542798817157745361328125">
        <ele>2862.60009765625</ele>
        <time>2018-04-30T11:32:04.000Z</time>
      </trkpt>
      <trkpt lat="42.710397653281688690185546875" lon="1.28053880296647548675537109375">
        <ele>2864.39990234375</ele>
        <time>2018-04-30T11:32:31.000Z</time>
      </trkpt>
      <trkpt lat="42.7104306779801845550537109375" lon="1.28049303777515888214111328125">
        <ele>2865.39990234375</ele>
        <time>2018-04-30T11:32:38.000Z</time>
      </trkpt>
      <trkpt lat="42.71045305766165256500244140625" lon="1.2804341129958629608154296875">
        <ele>2864</ele>
        <time>2018-04-30T11:32:45.000Z</time>
      </trkpt>
      <trkpt lat="42.7104564942419528961181640625" lon="1.2804250605404376983642578125">
        <ele>2864.199951171875</ele>
        <time>2018-04-30T11:32:46.000Z</time>
      </trkpt>
      <trkpt lat="42.710461355745792388916015625" lon="1.28041424788534641265869140625">
        <ele>2864.60009765625</ele>
        <time>2018-04-30T11:32:47.000Z</time>
      </trkpt>
      <trkpt lat="42.7104782871901988983154296875" lon="1.28036999143660068511962890625">
        <ele>2865.800048828125</ele>
        <time>2018-04-30T11:32:52.000Z</time>
      </trkpt>
      <trkpt lat="42.71048390306532382965087890625" lon="1.28035976551473140716552734375">
        <ele>2865.800048828125</ele>
        <time>2018-04-30T11:32:53.000Z</time>
      </trkpt>
      <trkpt lat="42.71049345843493938446044921875" lon="1.28034316934645175933837890625">
        <ele>2865.39990234375</ele>
        <time>2018-04-30T11:32:55.000Z</time>
      </trkpt>
      <trkpt lat="42.71050603128969669342041015625" lon="1.2803147546947002410888671875">
        <ele>2864.800048828125</ele>
        <time>2018-04-30T11:32:58.000Z</time>
      </trkpt>
      <trkpt lat="42.71051994524896144866943359375" lon="1.280287094414234161376953125">
        <ele>2865</ele>
        <time>2018-04-30T11:33:01.000Z</time>
      </trkpt>
      <trkpt lat="42.71052564494311809539794921875" lon="1.2802785448729991912841796875">
        <ele>2864.800048828125</ele>
        <time>2018-04-30T11:33:02.000Z</time>
      </trkpt>
      <trkpt lat="42.71054727025330066680908203125" lon="1.28024317324161529541015625">
        <ele>2864.39990234375</ele>
        <time>2018-04-30T11:33:07.000Z</time>
      </trkpt>
      <trkpt lat="42.710587419569492340087890625" lon="1.280155666172504425048828125">
        <ele>2863.199951171875</ele>
        <time>2018-04-30T11:33:16.000Z</time>
      </trkpt>
      <trkpt lat="42.71061533130705356597900390625" lon="1.28010378219187259674072265625">
        <ele>2862.800048828125</ele>
        <time>2018-04-30T11:33:22.000Z</time>
      </trkpt>
      <trkpt lat="42.710624970495700836181640625" lon="1.28007863648235797882080078125">
        <ele>2861.60009765625</ele>
        <time>2018-04-30T11:33:25.000Z</time>
      </trkpt>
      <trkpt lat="42.7106325142085552215576171875" lon="1.28006036393344402313232421875">
        <ele>2862.199951171875</ele>
        <time>2018-04-30T11:33:27.000Z</time>
      </trkpt>
      <trkpt lat="42.7106388844549655914306640625" lon="1.2800448574125766754150390625">
        <ele>2862</ele>
        <time>2018-04-30T11:33:29.000Z</time>
      </trkpt>
      <trkpt lat="42.71065070293843746185302734375" lon="1.280020885169506072998046875">
        <ele>2861.60009765625</ele>
        <time>2018-04-30T11:33:32.000Z</time>
      </trkpt>
      <trkpt lat="42.71065749228000640869140625" lon="1.2800046242773532867431640625">
        <ele>2861</ele>
        <time>2018-04-30T11:33:34.000Z</time>
      </trkpt>
      <trkpt lat="42.7106707356870174407958984375" lon="1.27997654490172863006591796875">
        <ele>2860.60009765625</ele>
        <time>2018-04-30T11:33:37.000Z</time>
      </trkpt>
      <trkpt lat="42.7107756771147251129150390625" lon="1.2797558493912220001220703125">
        <ele>2858.800048828125</ele>
        <time>2018-04-30T11:34:00.000Z</time>
      </trkpt>
      <trkpt lat="42.71082513034343719482421875" lon="1.2796626426279544830322265625">
        <ele>2857.60009765625</ele>
        <time>2018-04-30T11:34:09.000Z</time>
      </trkpt>
      <trkpt lat="42.71083342842757701873779296875" lon="1.2796324677765369415283203125">
        <ele>2856.39990234375</ele>
        <time>2018-04-30T11:34:12.000Z</time>
      </trkpt>
      <trkpt lat="42.71083854138851165771484375" lon="1.279620230197906494140625">
        <ele>2856.39990234375</ele>
        <time>2018-04-30T11:34:13.000Z</time>
      </trkpt>
      <trkpt lat="42.71094691939651966094970703125" lon="1.279432475566864013671875">
        <ele>2854.60009765625</ele>
        <time>2018-04-30T11:34:31.000Z</time>
      </trkpt>
      <trkpt lat="42.7109503559768199920654296875" lon="1.27942216582596302032470703125">
        <ele>2854.39990234375</ele>
        <time>2018-04-30T11:34:32.000Z</time>
      </trkpt>
      <trkpt lat="42.71095521748065948486328125" lon="1.27941059879958629608154296875">
        <ele>2854.199951171875</ele>
        <time>2018-04-30T11:34:33.000Z</time>
      </trkpt>
      <trkpt lat="42.7109614200890064239501953125" lon="1.27939903177320957183837890625">
        <ele>2854.39990234375</ele>
        <time>2018-04-30T11:34:34.000Z</time>
      </trkpt>
      <trkpt lat="42.710987068712711334228515625" lon="1.27932342700660228729248046875">
        <ele>2855</ele>
        <time>2018-04-30T11:34:40.000Z</time>
      </trkpt>
      <trkpt lat="42.71099385805428028106689453125" lon="1.27930917777121067047119140625">
        <ele>2855</ele>
        <time>2018-04-30T11:34:41.000Z</time>
      </trkpt>
      <trkpt lat="42.71099947392940521240234375" lon="1.2792943418025970458984375">
        <ele>2855</ele>
        <time>2018-04-30T11:34:42.000Z</time>
      </trkpt>
      <trkpt lat="42.71100559271872043609619140625" lon="1.27928084693849086761474609375">
        <ele>2855</ele>
        <time>2018-04-30T11:34:43.000Z</time>
      </trkpt>
      <trkpt lat="42.71101129241287708282470703125" lon="1.2792690284550189971923828125">
        <ele>2854.800048828125</ele>
        <time>2018-04-30T11:34:44.000Z</time>
      </trkpt>
      <trkpt lat="42.711018584668636322021484375" lon="1.2792582996189594268798828125">
        <ele>2854.60009765625</ele>
        <time>2018-04-30T11:34:45.000Z</time>
      </trkpt>
      <trkpt lat="42.7110274694859981536865234375" lon="1.27924698404967784881591796875">
        <ele>2854.60009765625</ele>
        <time>2018-04-30T11:34:46.000Z</time>
      </trkpt>
      <trkpt lat="42.711034677922725677490234375" lon="1.27923776395618915557861328125">
        <ele>2854.60009765625</ele>
        <time>2018-04-30T11:34:47.000Z</time>
      </trkpt>
      <trkpt lat="42.71114624105393886566162109375" lon="1.27903240732848644256591796875">
        <ele>2855.199951171875</ele>
        <time>2018-04-30T11:35:07.000Z</time>
      </trkpt>
      <trkpt lat="42.71120457910001277923583984375" lon="1.27890340983867645263671875">
        <ele>2851.60009765625</ele>
        <time>2018-04-30T11:35:24.000Z</time>
      </trkpt>
      <trkpt lat="42.71121832542121410369873046875" lon="1.27887667156755924224853515625">
        <ele>2851.60009765625</ele>
        <time>2018-04-30T11:35:27.000Z</time>
      </trkpt>
      <trkpt lat="42.7112645097076892852783203125" lon="1.2787614203989505767822265625">
        <ele>2854.60009765625</ele>
        <time>2018-04-30T11:35:40.000Z</time>
      </trkpt>
      <trkpt lat="42.711324356496334075927734375" lon="1.2786688841879367828369140625">
        <ele>2857.60009765625</ele>
        <time>2018-04-30T11:35:52.000Z</time>
      </trkpt>
      <trkpt lat="42.7113758213818073272705078125" lon="1.2785446643829345703125">
        <ele>2859.800048828125</ele>
        <time>2018-04-30T11:36:06.000Z</time>
      </trkpt>
      <trkpt lat="42.71142938174307346343994140625" lon="1.27842924557626247406005859375">
        <ele>2862</ele>
        <time>2018-04-30T11:36:27.000Z</time>
      </trkpt>
      <trkpt lat="42.7114492468535900115966796875" lon="1.27840158529579639434814453125">
        <ele>2863.800048828125</ele>
        <time>2018-04-30T11:36:33.000Z</time>
      </trkpt>
      <trkpt lat="42.71145905368030071258544921875" lon="1.278389431536197662353515625">
        <ele>2864.800048828125</ele>
        <time>2018-04-30T11:36:35.000Z</time>
      </trkpt>
      <trkpt lat="42.711557708680629730224609375" lon="1.27825423143804073333740234375">
        <ele>2868</ele>
        <time>2018-04-30T11:37:09.000Z</time>
      </trkpt>
      <trkpt lat="42.71159299649298191070556640625" lon="1.27824316732585430145263671875">
        <ele>2871.39990234375</ele>
        <time>2018-04-30T11:37:25.000Z</time>
      </trkpt>
      <trkpt lat="42.711632810533046722412109375" lon="1.2782491184771060943603515625">
        <ele>2874.39990234375</ele>
        <time>2018-04-30T11:37:59.000Z</time>
      </trkpt>
      <trkpt lat="42.71168234758079051971435546875" lon="1.2782306782901287078857421875">
        <ele>2877.800048828125</ele>
        <time>2018-04-30T11:38:11.000Z</time>
      </trkpt>
      <trkpt lat="42.71175510250031948089599609375" lon="1.27820595167577266693115234375">
        <ele>2880.800048828125</ele>
        <time>2018-04-30T11:38:26.000Z</time>
      </trkpt>
      <trkpt lat="42.711764238774776458740234375" lon="1.27813956700265407562255859375">
        <ele>2883.800048828125</ele>
        <time>2018-04-30T11:39:02.000Z</time>
      </trkpt>
      <trkpt lat="42.71183892153203487396240234375" lon="1.27798634581267833709716796875">
        <ele>2887</ele>
        <time>2018-04-30T11:39:29.000Z</time>
      </trkpt>
      <trkpt lat="42.71186423487961292266845703125" lon="1.27794762142002582550048828125">
        <ele>2889.60009765625</ele>
        <time>2018-04-30T11:39:37.000Z</time>
      </trkpt>
      <trkpt lat="42.7119162864983081817626953125" lon="1.2778541631996631622314453125">
        <ele>2890.39990234375</ele>
        <time>2018-04-30T11:40:02.000Z</time>
      </trkpt>
      <trkpt lat="42.71195006556808948516845703125" lon="1.27780462615191936492919921875">
        <ele>2893.60009765625</ele>
        <time>2018-04-30T11:40:26.000Z</time>
      </trkpt>
      <trkpt lat="42.71195660345256328582763671875" lon="1.27775751985609531402587890625">
        <ele>2895.60009765625</ele>
        <time>2018-04-30T11:41:37.000Z</time>
      </trkpt>
      <trkpt lat="42.7119551785290241241455078125" lon="1.2777562625706195831298828125">
        <ele>2892.39990234375</ele>
        <time>2018-04-30T11:42:02.000Z</time>
      </trkpt>
      <trkpt lat="42.7119571901857852935791015625" lon="1.2777547538280487060546875">
        <ele>2895.199951171875</ele>
        <time>2018-04-30T11:42:05.000Z</time>
      </trkpt>
      <trkpt lat="42.71197177469730377197265625" lon="1.277767159044742584228515625">
        <ele>2895</ele>
        <time>2018-04-30T11:42:54.000Z</time>
      </trkpt>
      <trkpt lat="42.711962051689624786376953125" lon="1.27776741050183773040771484375">
        <ele>2894.60009765625</ele>
        <time>2018-04-30T11:43:43.000Z</time>
      </trkpt>
      <trkpt lat="42.71196263842284679412841796875" lon="1.27772415988147258758544921875">
        <ele>2895</ele>
        <time>2018-04-30T11:45:11.000Z</time>
      </trkpt>
      <trkpt lat="42.7119628898799419403076171875" lon="1.27772382460534572601318359375">
        <ele>2896.800048828125</ele>
        <time>2018-04-30T11:45:16.000Z</time>
      </trkpt>
      <trkpt lat="42.711964733898639678955078125" lon="1.2776348926126956939697265625">
        <ele>2895.39990234375</ele>
        <time>2018-04-30T11:45:29.000Z</time>
      </trkpt>
      <trkpt lat="42.711968086659908294677734375" lon="1.2775926478207111358642578125">
        <ele>2894.800048828125</ele>
        <time>2018-04-30T11:45:33.000Z</time>
      </trkpt>
      <trkpt lat="42.71198191680014133453369140625" lon="1.27760547213256359100341796875">
        <ele>2894.199951171875</ele>
        <time>2018-04-30T11:46:58.000Z</time>
      </trkpt>
      <trkpt lat="42.71198124624788761138916015625" lon="1.27761972136795520782470703125">
        <ele>2894</ele>
        <time>2018-04-30T11:46:59.000Z</time>
      </trkpt>
      <trkpt lat="42.71197940222918987274169921875" lon="1.277633719146251678466796875">
        <ele>2894.39990234375</ele>
        <time>2018-04-30T11:47:00.000Z</time>
      </trkpt>
      <trkpt lat="42.71196506917476654052734375" lon="1.27769717015326023101806640625">
        <ele>2895.800048828125</ele>
        <time>2018-04-30T11:47:07.000Z</time>
      </trkpt>
      <trkpt lat="42.71196800284087657928466796875" lon="1.277617625892162322998046875">
        <ele>2892.800048828125</ele>
        <time>2018-04-30T11:49:50.000Z</time>
      </trkpt>
      <trkpt lat="42.7119967527687549591064453125" lon="1.2775919772684574127197265625">
        <ele>2895.39990234375</ele>
        <time>2018-04-30T11:52:14.000Z</time>
      </trkpt>
      <trkpt lat="42.71197688765823841094970703125" lon="1.277651824057102203369140625">
        <ele>2895.60009765625</ele>
        <time>2018-04-30T11:52:21.000Z</time>
      </trkpt>
      <trkpt lat="42.71196280606091022491455078125" lon="1.2776818312704563140869140625">
        <ele>2897.800048828125</ele>
        <time>2018-04-30T11:52:27.000Z</time>
      </trkpt>
      <trkpt lat="42.71196431480348110198974609375" lon="1.27770387567579746246337890625">
        <ele>2898</ele>
        <time>2018-04-30T11:53:39.000Z</time>
      </trkpt>
      <trkpt lat="42.71195174194872379302978515625" lon="1.27770052291452884674072265625">
        <ele>2897</ele>
        <time>2018-04-30T11:54:13.000Z</time>
      </trkpt>
      <trkpt lat="42.71196263842284679412841796875" lon="1.27771192230284214019775390625">
        <ele>2897.800048828125</ele>
        <time>2018-04-30T11:56:03.000Z</time>
      </trkpt>
      <trkpt lat="42.71195123903453350067138671875" lon="1.2777508981525897979736328125">
        <ele>2894.800048828125</ele>
        <time>2018-04-30T11:58:16.000Z</time>
      </trkpt>
      <trkpt lat="42.711965404450893402099609375" lon="1.2777601182460784912109375">
        <ele>2896.60009765625</ele>
        <time>2018-04-30T11:59:04.000Z</time>
      </trkpt>
      <trkpt lat="42.71198141388595104217529296875" lon="1.27770706079900264739990234375">
        <ele>2897.800048828125</ele>
        <time>2018-04-30T12:00:03.000Z</time>
      </trkpt>
      <trkpt lat="42.711975462734699249267578125" lon="1.2776985950767993927001953125">
        <ele>2894.800048828125</ele>
        <time>2018-04-30T12:00:33.000Z</time>
      </trkpt>
      <trkpt lat="42.71196951158344745635986328125" lon="1.2776979245245456695556640625">
        <ele>2896.39990234375</ele>
        <time>2018-04-30T12:01:38.000Z</time>
      </trkpt>
      <trkpt lat="42.711968086659908294677734375" lon="1.2777037918567657470703125">
        <ele>2894.800048828125</ele>
        <time>2018-04-30T12:01:49.000Z</time>
      </trkpt>
      <trkpt lat="42.71197051741182804107666015625" lon="1.27767235971987247467041015625">
        <ele>2895.39990234375</ele>
        <time>2018-04-30T12:03:43.000Z</time>
      </trkpt>
      <trkpt lat="42.71197387017309665679931640625" lon="1.2777064740657806396484375">
        <ele>2892.800048828125</ele>
        <time>2018-04-30T12:04:45.000Z</time>
      </trkpt>
      <trkpt lat="42.71197487600147724151611328125" lon="1.277704797685146331787109375">
        <ele>2895</ele>
        <time>2018-04-30T12:04:49.000Z</time>
      </trkpt>
      <trkpt lat="42.71196515299379825592041015625" lon="1.27768560312688350677490234375">
        <ele>2891.800048828125</ele>
        <time>2018-04-30T12:05:32.000Z</time>
      </trkpt>
      <trkpt lat="42.71196465007960796356201171875" lon="1.27768543548882007598876953125">
        <ele>2891.60009765625</ele>
        <time>2018-04-30T12:05:33.000Z</time>
      </trkpt>
      <trkpt lat="42.71196397952735424041748046875" lon="1.27767495810985565185546875">
        <ele>2894.800048828125</ele>
        <time>2018-04-30T12:05:49.000Z</time>
      </trkpt>
      <trkpt lat="42.71196414716541767120361328125" lon="1.2776757963001728057861328125">
        <ele>2892.39990234375</ele>
        <time>2018-04-30T12:05:53.000Z</time>
      </trkpt>
      <trkpt lat="42.7119649015367031097412109375" lon="1.27769499085843563079833984375">
        <ele>2895.39990234375</ele>
        <time>2018-04-30T12:05:58.000Z</time>
      </trkpt>
      <trkpt lat="42.7119659073650836944580078125" lon="1.27770178020000457763671875">
        <ele>2893.39990234375</ele>
        <time>2018-04-30T12:06:46.000Z</time>
      </trkpt>
      <trkpt lat="42.7119590342044830322265625" lon="1.27769507467746734619140625">
        <ele>2895.800048828125</ele>
        <time>2018-04-30T12:07:06.000Z</time>
      </trkpt>
      <trkpt lat="42.71196280606091022491455078125" lon="1.277698092162609100341796875">
        <ele>2894.199951171875</ele>
        <time>2018-04-30T12:07:11.000Z</time>
      </trkpt>
      <trkpt lat="42.71196934394538402557373046875" lon="1.277692727744579315185546875">
        <ele>2895</ele>
        <time>2018-04-30T12:07:41.000Z</time>
      </trkpt>
      <trkpt lat="42.71198962815105915069580078125" lon="1.2775634787976741790771484375">
        <ele>2894.800048828125</ele>
        <time>2018-04-30T12:07:57.000Z</time>
      </trkpt>
      <trkpt lat="42.71200974471867084503173828125" lon="1.27750891260802745819091796875">
        <ele>2893.39990234375</ele>
        <time>2018-04-30T12:09:15.000Z</time>
      </trkpt>
      <trkpt lat="42.71201661787927150726318359375" lon="1.27750254236161708831787109375">
        <ele>2890.199951171875</ele>
        <time>2018-04-30T12:12:16.000Z</time>
      </trkpt>
      <trkpt lat="42.71201510913670063018798828125" lon="1.27750069834291934967041015625">
        <ele>2891.800048828125</ele>
        <time>2018-04-30T12:12:22.000Z</time>
      </trkpt>
      <trkpt lat="42.71201737225055694580078125" lon="1.27750069834291934967041015625">
        <ele>2893.60009765625</ele>
        <time>2018-04-30T12:12:36.000Z</time>
      </trkpt>
      <trkpt lat="42.71202231757342815399169921875" lon="1.2774913944303989410400390625">
        <ele>2892</ele>
        <time>2018-04-30T12:13:48.000Z</time>
      </trkpt>
      <trkpt lat="42.712003290653228759765625" lon="1.2775745429098606109619140625">
        <ele>2892</ele>
        <time>2018-04-30T12:15:44.000Z</time>
      </trkpt>
      <trkpt lat="42.7120034582912921905517578125" lon="1.277585439383983612060546875">
        <ele>2891.800048828125</ele>
        <time>2018-04-30T12:15:45.000Z</time>
      </trkpt>
      <trkpt lat="42.7119964174926280975341796875" lon="1.27761268056929111480712890625">
        <ele>2892.199951171875</ele>
        <time>2018-04-30T12:15:48.000Z</time>
      </trkpt>
      <trkpt lat="42.71199163980782032012939453125" lon="1.277625001966953277587890625">
        <ele>2892.199951171875</ele>
        <time>2018-04-30T12:15:49.000Z</time>
      </trkpt>
      <trkpt lat="42.7119873650372028350830078125" lon="1.27763715572655200958251953125">
        <ele>2892.199951171875</ele>
        <time>2018-04-30T12:15:50.000Z</time>
      </trkpt>
      <trkpt lat="42.71196263842284679412841796875" lon="1.27763832919299602508544921875">
        <ele>2893.199951171875</ele>
        <time>2018-04-30T12:16:25.000Z</time>
      </trkpt>
      <trkpt lat="42.71199432201683521270751953125" lon="1.2775262631475925445556640625">
        <ele>2893</ele>
        <time>2018-04-30T12:17:55.000Z</time>
      </trkpt>
      <trkpt lat="42.7119840122759342193603515625" lon="1.2775108404457569122314453125">
        <ele>2892.800048828125</ele>
        <time>2018-04-30T12:19:09.000Z</time>
      </trkpt>
      <trkpt lat="42.711990885436534881591796875" lon="1.2774950824677944183349609375">
        <ele>2891.199951171875</ele>
        <time>2018-04-30T12:19:21.000Z</time>
      </trkpt>
      <trkpt lat="42.71199130453169345855712890625" lon="1.27751075662672519683837890625">
        <ele>2890.199951171875</ele>
        <time>2018-04-30T12:20:54.000Z</time>
      </trkpt>
      <trkpt lat="42.71198920905590057373046875" lon="1.277514360845088958740234375">
        <ele>2891.800048828125</ele>
        <time>2018-04-30T12:21:00.000Z</time>
      </trkpt>
      <trkpt lat="42.7119907177984714508056640625" lon="1.27751427702605724334716796875">
        <ele>2890.199951171875</ele>
        <time>2018-04-30T12:21:07.000Z</time>
      </trkpt>
      <trkpt lat="42.7119987644255161285400390625" lon="1.27750623039901256561279296875">
        <ele>2890.60009765625</ele>
        <time>2018-04-30T12:22:13.000Z</time>
      </trkpt>
      <trkpt lat="42.712011672556400299072265625" lon="1.2774843536317348480224609375">
        <ele>2891.800048828125</ele>
        <time>2018-04-30T12:23:36.000Z</time>
      </trkpt>
      <trkpt lat="42.71202810108661651611328125" lon="1.27751494757831096649169921875">
        <ele>2888.800048828125</ele>
        <time>2018-04-30T12:24:31.000Z</time>
      </trkpt>
      <trkpt lat="42.7120678313076496124267578125" lon="1.27749868668615818023681640625">
        <ele>2886.39990234375</ele>
        <time>2018-04-30T12:25:24.000Z</time>
      </trkpt>
      <trkpt lat="42.71211502142250537872314453125" lon="1.277479492127895355224609375">
        <ele>2883.199951171875</ele>
        <time>2018-04-30T12:26:01.000Z</time>
      </trkpt>
      <trkpt lat="42.71215475164353847503662109375" lon="1.27747404389083385467529296875">
        <ele>2880.199951171875</ele>
        <time>2018-04-30T12:26:28.000Z</time>
      </trkpt>
      <trkpt lat="42.712208814918994903564453125" lon="1.277468763291835784912109375">
        <ele>2877.199951171875</ele>
        <time>2018-04-30T12:26:52.000Z</time>
      </trkpt>
      <trkpt lat="42.71224938333034515380859375" lon="1.2775007821619510650634765625">
        <ele>2875.800048828125</ele>
        <time>2018-04-30T12:27:41.000Z</time>
      </trkpt>
      <trkpt lat="42.71223706193268299102783203125" lon="1.27751109190285205841064453125">
        <ele>2875.800048828125</ele>
        <time>2018-04-30T12:29:02.000Z</time>
      </trkpt>
      <trkpt lat="42.71224276162683963775634765625" lon="1.277504973113536834716796875">
        <ele>2875.39990234375</ele>
        <time>2018-04-30T12:32:01.000Z</time>
      </trkpt>
      <trkpt lat="42.7122482098639011383056640625" lon="1.27751377411186695098876953125">
        <ele>2875.39990234375</ele>
        <time>2018-04-30T12:34:39.000Z</time>
      </trkpt>
      <trkpt lat="42.71223924122750759124755859375" lon="1.2775061465799808502197265625">
        <ele>2875</ele>
        <time>2018-04-30T12:35:47.000Z</time>
      </trkpt>
      <trkpt lat="42.71223731338977813720703125" lon="1.27750555984675884246826171875">
        <ele>2874</ele>
        <time>2018-04-30T12:42:02.000Z</time>
      </trkpt>
      <trkpt lat="42.712252400815486907958984375" lon="1.2775091640651226043701171875">
        <ele>2873.800048828125</ele>
        <time>2018-04-30T12:43:15.000Z</time>
      </trkpt>
      <trkpt lat="42.7122361399233341217041015625" lon="1.27751293592154979705810546875">
        <ele>2874.39990234375</ele>
        <time>2018-04-30T12:43:56.000Z</time>
      </trkpt>
      <trkpt lat="42.7122438512742519378662109375" lon="1.277507655322551727294921875">
        <ele>2874.60009765625</ele>
        <time>2018-04-30T12:44:56.000Z</time>
      </trkpt>
      <trkpt lat="42.71225600503385066986083984375" lon="1.27751461230218410491943359375">
        <ele>2874.800048828125</ele>
        <time>2018-04-30T12:46:16.000Z</time>
      </trkpt>
      <trkpt lat="42.7122700028121471405029296875" lon="1.27751804888248443603515625">
        <ele>2874.800048828125</ele>
        <time>2018-04-30T12:50:06.000Z</time>
      </trkpt>
      <trkpt lat="42.7122485451400279998779296875" lon="1.27753841690719127655029296875">
        <ele>2875</ele>
        <time>2018-04-30T12:51:21.000Z</time>
      </trkpt>
      <trkpt lat="42.712233960628509521484375" lon="1.27758250571787357330322265625">
        <ele>2871.800048828125</ele>
        <time>2018-04-30T12:51:34.000Z</time>
      </trkpt>
      <trkpt lat="42.7122012712061405181884765625" lon="1.277644447982311248779296875">
        <ele>2870.199951171875</ele>
        <time>2018-04-30T12:51:49.000Z</time>
      </trkpt>
      <trkpt lat="42.7122140116989612579345703125" lon="1.277673281729221343994140625">
        <ele>2867.60009765625</ele>
        <time>2018-04-30T12:51:52.000Z</time>
      </trkpt>
      <trkpt lat="42.71221895702183246612548828125" lon="1.27768971025943756103515625">
        <ele>2867</ele>
        <time>2018-04-30T12:51:53.000Z</time>
      </trkpt>
      <trkpt lat="42.7122217230498790740966796875" lon="1.27770655788481235504150390625">
        <ele>2866.199951171875</ele>
        <time>2018-04-30T12:51:54.000Z</time>
      </trkpt>
      <trkpt lat="42.71221409551799297332763671875" lon="1.27774494700133800506591796875">
        <ele>2863.199951171875</ele>
        <time>2018-04-30T12:52:02.000Z</time>
      </trkpt>
      <trkpt lat="42.71219766698777675628662109375" lon="1.277794651687145233154296875">
        <ele>2862.60009765625</ele>
        <time>2018-04-30T12:52:10.000Z</time>
      </trkpt>
      <trkpt lat="42.712198086082935333251953125" lon="1.27781032584607601165771484375">
        <ele>2862.199951171875</ele>
        <time>2018-04-30T12:52:11.000Z</time>
      </trkpt>
      <trkpt lat="42.712196409702301025390625" lon="1.2778223119676113128662109375">
        <ele>2861</ele>
        <time>2018-04-30T12:52:12.000Z</time>
      </trkpt>
      <trkpt lat="42.7122136764228343963623046875" lon="1.2778337113559246063232421875">
        <ele>2858</ele>
        <time>2018-04-30T12:52:17.000Z</time>
      </trkpt>
      <trkpt lat="42.712195403873920440673828125" lon="1.27790001221001148223876953125">
        <ele>2855</ele>
        <time>2018-04-30T12:52:30.000Z</time>
      </trkpt>
      <trkpt lat="42.71219263784587383270263671875" lon="1.2779205478727817535400390625">
        <ele>2854.39990234375</ele>
        <time>2018-04-30T12:52:31.000Z</time>
      </trkpt>
      <trkpt lat="42.71219146437942981719970703125" lon="1.2779366411268711090087890625">
        <ele>2854</ele>
        <time>2018-04-30T12:52:32.000Z</time>
      </trkpt>
      <trkpt lat="42.71218157373368740081787109375" lon="1.27795533277094364166259765625">
        <ele>2851</ele>
        <time>2018-04-30T12:52:36.000Z</time>
      </trkpt>
      <trkpt lat="42.71218660287559032440185546875" lon="1.2779745273292064666748046875">
        <ele>2850.60009765625</ele>
        <time>2018-04-30T12:52:38.000Z</time>
      </trkpt>
      <trkpt lat="42.7121828310191631317138671875" lon="1.27799321897327899932861328125">
        <ele>2850.199951171875</ele>
        <time>2018-04-30T12:52:39.000Z</time>
      </trkpt>
      <trkpt lat="42.71217972971498966217041015625" lon="1.27800947986543178558349609375">
        <ele>2849.39990234375</ele>
        <time>2018-04-30T12:52:40.000Z</time>
      </trkpt>
      <trkpt lat="42.71217696368694305419921875" lon="1.27801962196826934814453125">
        <ele>2848.39990234375</ele>
        <time>2018-04-30T12:52:41.000Z</time>
      </trkpt>
      <trkpt lat="42.712180316448211669921875" lon="1.27802657894790172576904296875">
        <ele>2847.800048828125</ele>
        <time>2018-04-30T12:52:42.000Z</time>
      </trkpt>
      <trkpt lat="42.7121791429817676544189453125" lon="1.27803378738462924957275390625">
        <ele>2847.39990234375</ele>
        <time>2018-04-30T12:52:43.000Z</time>
      </trkpt>
      <trkpt lat="42.7122079767286777496337890625" lon="1.2780593521893024444580078125">
        <ele>2847.199951171875</ele>
        <time>2018-04-30T12:52:57.000Z</time>
      </trkpt>
      <trkpt lat="42.71221962757408618927001953125" lon="1.27814761362969875335693359375">
        <ele>2844</ele>
        <time>2018-04-30T12:53:10.000Z</time>
      </trkpt>
      <trkpt lat="42.712210826575756072998046875" lon="1.2781777046620845794677734375">
        <ele>2843.39990234375</ele>
        <time>2018-04-30T12:53:11.000Z</time>
      </trkpt>
      <trkpt lat="42.71220101974904537200927734375" lon="1.27820058725774288177490234375">
        <ele>2842.199951171875</ele>
        <time>2018-04-30T12:53:12.000Z</time>
      </trkpt>
      <trkpt lat="42.7121999301016330718994140625" lon="1.27820410765707492828369140625">
        <ele>2841</ele>
        <time>2018-04-30T12:53:13.000Z</time>
      </trkpt>
      <trkpt lat="42.7122022770345211029052734375" lon="1.2782095558941364288330078125">
        <ele>2840.199951171875</ele>
        <time>2018-04-30T12:53:14.000Z</time>
      </trkpt>
      <trkpt lat="42.7122009359300136566162109375" lon="1.27824853174388408660888671875">
        <ele>2839.800048828125</ele>
        <time>2018-04-30T12:53:32.000Z</time>
      </trkpt>
      <trkpt lat="42.712199427187442779541015625" lon="1.2783369608223438262939453125">
        <ele>2839</ele>
        <time>2018-04-30T12:53:39.000Z</time>
      </trkpt>
      <trkpt lat="42.7122042886912822723388671875" lon="1.2783832289278507232666015625">
        <ele>2836.800048828125</ele>
        <time>2018-04-30T12:53:41.000Z</time>
      </trkpt>
      <trkpt lat="42.71219112910330295562744140625" lon="1.27840745262801647186279296875">
        <ele>2835.800048828125</ele>
        <time>2018-04-30T12:53:42.000Z</time>
      </trkpt>
      <trkpt lat="42.712185680866241455078125" lon="1.2784201093018054962158203125">
        <ele>2834.199951171875</ele>
        <time>2018-04-30T12:53:43.000Z</time>
      </trkpt>
      <trkpt lat="42.71218475885689258575439453125" lon="1.2784368731081485748291015625">
        <ele>2832.800048828125</ele>
        <time>2018-04-30T12:53:44.000Z</time>
      </trkpt>
      <trkpt lat="42.71219297312200069427490234375" lon="1.27846931107342243194580078125">
        <ele>2831.800048828125</ele>
        <time>2018-04-30T12:53:45.000Z</time>
      </trkpt>
      <trkpt lat="42.71219967864453792572021484375" lon="1.278484649956226348876953125">
        <ele>2830.199951171875</ele>
        <time>2018-04-30T12:53:46.000Z</time>
      </trkpt>
      <trkpt lat="42.7122032828629016876220703125" lon="1.27849412150681018829345703125">
        <ele>2829</ele>
        <time>2018-04-30T12:53:47.000Z</time>
      </trkpt>
      <trkpt lat="42.71219414658844470977783203125" lon="1.27848071046173572540283203125">
        <ele>2826.800048828125</ele>
        <time>2018-04-30T12:53:51.000Z</time>
      </trkpt>
      <trkpt lat="42.712175957858562469482421875" lon="1.27850233577191829681396484375">
        <ele>2824.199951171875</ele>
        <time>2018-04-30T12:55:01.000Z</time>
      </trkpt>
      <trkpt lat="42.71216430701315402984619140625" lon="1.27852882258594036102294921875">
        <ele>2823.60009765625</ele>
        <time>2018-04-30T12:55:02.000Z</time>
      </trkpt>
      <trkpt lat="42.71215927787125110626220703125" lon="1.278556399047374725341796875">
        <ele>2822.199951171875</ele>
        <time>2018-04-30T12:55:03.000Z</time>
      </trkpt>
      <trkpt lat="42.7121593616902828216552734375" lon="1.27859386615455150604248046875">
        <ele>2821</ele>
        <time>2018-04-30T12:55:04.000Z</time>
      </trkpt>
      <trkpt lat="42.71216782741248607635498046875" lon="1.2786237895488739013671875">
        <ele>2819.39990234375</ele>
        <time>2018-04-30T12:55:05.000Z</time>
      </trkpt>
      <trkpt lat="42.7121747843921184539794921875" lon="1.2786611728370189666748046875">
        <ele>2817.800048828125</ele>
        <time>2018-04-30T12:55:06.000Z</time>
      </trkpt>
      <trkpt lat="42.71215609274804592132568359375" lon="1.2786987237632274627685546875">
        <ele>2816.60009765625</ele>
        <time>2018-04-30T12:55:07.000Z</time>
      </trkpt>
      <trkpt lat="42.7121441066265106201171875" lon="1.27872579731047153472900390625">
        <ele>2814.199951171875</ele>
        <time>2018-04-30T12:55:08.000Z</time>
      </trkpt>
      <trkpt lat="42.7121419273316860198974609375" lon="1.27876284532248973846435546875">
        <ele>2812.39990234375</ele>
        <time>2018-04-30T12:55:09.000Z</time>
      </trkpt>
      <trkpt lat="42.7121358923614025115966796875" lon="1.27879385836422443389892578125">
        <ele>2810.199951171875</ele>
        <time>2018-04-30T12:55:10.000Z</time>
      </trkpt>
      <trkpt lat="42.71213815547525882720947265625" lon="1.2787919305264949798583984375">
        <ele>2808.60009765625</ele>
        <time>2018-04-30T12:55:11.000Z</time>
      </trkpt>
      <trkpt lat="42.7121295221149921417236328125" lon="1.27877105958759784698486328125">
        <ele>2807</ele>
        <time>2018-04-30T12:55:13.000Z</time>
      </trkpt>
      <trkpt lat="42.71213471889495849609375" lon="1.27877826802432537078857421875">
        <ele>2806.199951171875</ele>
        <time>2018-04-30T12:55:14.000Z</time>
      </trkpt>
      <trkpt lat="42.7121311984956264495849609375" lon="1.27873845398426055908203125">
        <ele>2804.60009765625</ele>
        <time>2018-04-30T12:55:37.000Z</time>
      </trkpt>
      <trkpt lat="42.712140418589115142822265625" lon="1.27871590666472911834716796875">
        <ele>2804.39990234375</ele>
        <time>2018-04-30T12:55:53.000Z</time>
      </trkpt>
      <trkpt lat="42.7121368981897830963134765625" lon="1.2786722369492053985595703125">
        <ele>2804.199951171875</ele>
        <time>2018-04-30T12:56:17.000Z</time>
      </trkpt>
      <trkpt lat="42.7121570147573947906494140625" lon="1.278705261647701263427734375">
        <ele>2803.800048828125</ele>
        <time>2018-04-30T12:56:30.000Z</time>
      </trkpt>
      <trkpt lat="42.71215156652033329010009765625" lon="1.27872998826205730438232421875">
        <ele>2803.39990234375</ele>
        <time>2018-04-30T12:56:31.000Z</time>
      </trkpt>
      <trkpt lat="42.71212256513535976409912109375" lon="1.27879436127841472625732421875">
        <ele>2802.39990234375</ele>
        <time>2018-04-30T12:56:32.000Z</time>
      </trkpt>
      <trkpt lat="42.71213312633335590362548828125" lon="1.27883107401430606842041015625">
        <ele>2801.199951171875</ele>
        <time>2018-04-30T12:56:33.000Z</time>
      </trkpt>
      <trkpt lat="42.7121352218091487884521484375" lon="1.2788915075361728668212890625">
        <ele>2799</ele>
        <time>2018-04-30T12:56:34.000Z</time>
      </trkpt>
      <trkpt lat="42.7121248282492160797119140625" lon="1.2789397872984409332275390625">
        <ele>2796.60009765625</ele>
        <time>2018-04-30T12:56:35.000Z</time>
      </trkpt>
      <trkpt lat="42.71213530562818050384521484375" lon="1.27899460494518280029296875">
        <ele>2794</ele>
        <time>2018-04-30T12:56:36.000Z</time>
      </trkpt>
      <trkpt lat="42.71214804612100124359130859375" lon="1.2790584750473499298095703125">
        <ele>2791.39990234375</ele>
        <time>2018-04-30T12:56:37.000Z</time>
      </trkpt>
      <trkpt lat="42.71214871667325496673583984375" lon="1.2791144661605358123779296875">
        <ele>2788.39990234375</ele>
        <time>2018-04-30T12:56:38.000Z</time>
      </trkpt>
      <trkpt lat="42.71214905194938182830810546875" lon="1.27916852943599224090576171875">
        <ele>2785.60009765625</ele>
        <time>2018-04-30T12:56:39.000Z</time>
      </trkpt>
      <trkpt lat="42.71215542219579219818115234375" lon="1.27923575229942798614501953125">
        <ele>2782.60009765625</ele>
        <time>2018-04-30T12:56:40.000Z</time>
      </trkpt>
      <trkpt lat="42.71214921958744525909423828125" lon="1.2792924977838993072509765625">
        <ele>2779.800048828125</ele>
        <time>2018-04-30T12:56:41.000Z</time>
      </trkpt>
      <trkpt lat="42.7121441066265106201171875" lon="1.27935678698122501373291015625">
        <ele>2777</ele>
        <time>2018-04-30T12:56:42.000Z</time>
      </trkpt>
      <trkpt lat="42.7121508121490478515625" lon="1.27942350693047046661376953125">
        <ele>2774</ele>
        <time>2018-04-30T12:56:43.000Z</time>
      </trkpt>
      <trkpt lat="42.71214569918811321258544921875" lon="1.27948653884232044219970703125">
        <ele>2772.39990234375</ele>
        <time>2018-04-30T12:56:44.000Z</time>
      </trkpt>
      <trkpt lat="42.71215416491031646728515625" lon="1.27954940311610698699951171875">
        <ele>2768.60009765625</ele>
        <time>2018-04-30T12:56:45.000Z</time>
      </trkpt>
      <trkpt lat="42.71217889152467250823974609375" lon="1.279580332338809967041015625">
        <ele>2765.39990234375</ele>
        <time>2018-04-30T12:56:46.000Z</time>
      </trkpt>
      <trkpt lat="42.71219397895038127899169921875" lon="1.2795731239020824432373046875">
        <ele>2762.39990234375</ele>
        <time>2018-04-30T12:56:47.000Z</time>
      </trkpt>
      <trkpt lat="42.71220252849161624908447265625" lon="1.2796237505972385406494140625">
        <ele>2759.60009765625</ele>
        <time>2018-04-30T12:56:48.000Z</time>
      </trkpt>
      <trkpt lat="42.7122173644602298736572265625" lon="1.27968049608170986175537109375">
        <ele>2756.199951171875</ele>
        <time>2018-04-30T12:56:49.000Z</time>
      </trkpt>
      <trkpt lat="42.7122264169156551361083984375" lon="1.2797139398753643035888671875">
        <ele>2753</ele>
        <time>2018-04-30T12:56:50.000Z</time>
      </trkpt>
      <trkpt lat="42.7122398279607295989990234375" lon="1.27980119548738002777099609375">
        <ele>2750.39990234375</ele>
        <time>2018-04-30T12:56:51.000Z</time>
      </trkpt>
      <trkpt lat="42.71223035641014575958251953125" lon="1.27988702617585659027099609375">
        <ele>2747.199951171875</ele>
        <time>2018-04-30T12:56:52.000Z</time>
      </trkpt>
      <trkpt lat="42.71222683601081371307373046875" lon="1.27995072863996028900146484375">
        <ele>2744.199951171875</ele>
        <time>2018-04-30T12:56:53.000Z</time>
      </trkpt>
      <trkpt lat="42.7122297696769237518310546875" lon="1.28002985380589962005615234375">
        <ele>2740.60009765625</ele>
        <time>2018-04-30T12:56:54.000Z</time>
      </trkpt>
      <trkpt lat="42.7122151851654052734375" lon="1.28008584491908550262451171875">
        <ele>2738.199951171875</ele>
        <time>2018-04-30T12:56:55.000Z</time>
      </trkpt>
      <trkpt lat="42.7121892012655735015869140625" lon="1.280129514634609222412109375">
        <ele>2734.199951171875</ele>
        <time>2018-04-30T12:56:56.000Z</time>
      </trkpt>
      <trkpt lat="42.712175957858562469482421875" lon="1.280189864337444305419921875">
        <ele>2731.60009765625</ele>
        <time>2018-04-30T12:56:57.000Z</time>
      </trkpt>
      <trkpt lat="42.71216782741248607635498046875" lon="1.28025147132575511932373046875">
        <ele>2728.800048828125</ele>
        <time>2018-04-30T12:56:58.000Z</time>
      </trkpt>
      <trkpt lat="42.7121762931346893310546875" lon="1.28032623790204524993896484375">
        <ele>2726.199951171875</ele>
        <time>2018-04-30T12:56:59.000Z</time>
      </trkpt>
      <trkpt lat="42.71218542940914630889892578125" lon="1.28040083684027194976806640625">
        <ele>2722.800048828125</ele>
        <time>2018-04-30T12:57:00.000Z</time>
      </trkpt>
      <trkpt lat="42.712183333933353424072265625" lon="1.28047208301723003387451171875">
        <ele>2720</ele>
        <time>2018-04-30T12:57:01.000Z</time>
      </trkpt>
      <trkpt lat="42.71219230256974697113037109375" lon="1.28054299391806125640869140625">
        <ele>2718</ele>
        <time>2018-04-30T12:57:02.000Z</time>
      </trkpt>
      <trkpt lat="42.7122059650719165802001953125" lon="1.280615665018558502197265625">
        <ele>2714.800048828125</ele>
        <time>2018-04-30T12:57:03.000Z</time>
      </trkpt>
      <trkpt lat="42.7122089825570583343505859375" lon="1.28068841993808746337890625">
        <ele>2712.39990234375</ele>
        <time>2018-04-30T12:57:04.000Z</time>
      </trkpt>
      <trkpt lat="42.71222314797341823577880859375" lon="1.2807559780776500701904296875">
        <ele>2710.199951171875</ele>
        <time>2018-04-30T12:57:05.000Z</time>
      </trkpt>
      <trkpt lat="42.7122136764228343963623046875" lon="1.2808136455714702606201171875">
        <ele>2708.60009765625</ele>
        <time>2018-04-30T12:57:06.000Z</time>
      </trkpt>
      <trkpt lat="42.71219096146523952484130859375" lon="1.28086351789534091949462890625">
        <ele>2706</ele>
        <time>2018-04-30T12:57:07.000Z</time>
      </trkpt>
      <trkpt lat="42.71218710578978061676025390625" lon="1.28090190701186656951904296875">
        <ele>2704.39990234375</ele>
        <time>2018-04-30T12:57:08.000Z</time>
      </trkpt>
      <trkpt lat="42.71218727342784404754638671875" lon="1.2809117138385772705078125">
        <ele>2701.199951171875</ele>
        <time>2018-04-30T12:57:11.000Z</time>
      </trkpt>
      <trkpt lat="42.71221853792667388916015625" lon="1.2808837182819843292236328125">
        <ele>2700</ele>
        <time>2018-04-30T12:57:50.000Z</time>
      </trkpt>
      <trkpt lat="42.71222834475338459014892578125" lon="1.28094716928899288177490234375">
        <ele>2698.199951171875</ele>
        <time>2018-04-30T12:59:50.000Z</time>
      </trkpt>
      <trkpt lat="42.7122116647660732269287109375" lon="1.28099276684224605560302734375">
        <ele>2697.39990234375</ele>
        <time>2018-04-30T12:59:51.000Z</time>
      </trkpt>
      <trkpt lat="42.71220789290964603424072265625" lon="1.28104557283222675323486328125">
        <ele>2696</ele>
        <time>2018-04-30T12:59:52.000Z</time>
      </trkpt>
      <trkpt lat="42.7122046239674091339111328125" lon="1.28111816011369228363037109375">
        <ele>2692.800048828125</ele>
        <time>2018-04-30T12:59:53.000Z</time>
      </trkpt>
      <trkpt lat="42.71218341775238513946533203125" lon="1.28117331303656101226806640625">
        <ele>2690.800048828125</ele>
        <time>2018-04-30T12:59:54.000Z</time>
      </trkpt>
      <trkpt lat="42.71214905194938182830810546875" lon="1.28122108988463878631591796875">
        <ele>2689</ele>
        <time>2018-04-30T12:59:55.000Z</time>
      </trkpt>
      <trkpt lat="42.71214611828327178955078125" lon="1.2812813557684421539306640625">
        <ele>2687.199951171875</ele>
        <time>2018-04-30T12:59:56.000Z</time>
      </trkpt>
      <trkpt lat="42.7121385745704174041748046875" lon="1.28134287893772125244140625">
        <ele>2684.39990234375</ele>
        <time>2018-04-30T12:59:57.000Z</time>
      </trkpt>
      <trkpt lat="42.71211250685155391693115234375" lon="1.28139291889965534210205078125">
        <ele>2682</ele>
        <time>2018-04-30T12:59:58.000Z</time>
      </trkpt>
      <trkpt lat="42.71209440194070339202880859375" lon="1.2814446352422237396240234375">
        <ele>2679.60009765625</ele>
        <time>2018-04-30T12:59:59.000Z</time>
      </trkpt>
      <trkpt lat="42.71207344718277454376220703125" lon="1.28149987198412418365478515625">
        <ele>2677</ele>
        <time>2018-04-30T13:00:00.000Z</time>
      </trkpt>
      <trkpt lat="42.71204109303653240203857421875" lon="1.28153960220515727996826171875">
        <ele>2674.800048828125</ele>
        <time>2018-04-30T13:00:01.000Z</time>
      </trkpt>
      <trkpt lat="42.7120151929557323455810546875" lon="1.28157396800816059112548828125">
        <ele>2673.199951171875</ele>
        <time>2018-04-30T13:00:02.000Z</time>
      </trkpt>
      <trkpt lat="42.71201712079346179962158203125" lon="1.281616799533367156982421875">
        <ele>2670</ele>
        <time>2018-04-30T13:00:03.000Z</time>
      </trkpt>
      <trkpt lat="42.71203421987593173980712890625" lon="1.28166315145790576934814453125">
        <ele>2668.199951171875</ele>
        <time>2018-04-30T13:00:04.000Z</time>
      </trkpt>
      <trkpt lat="42.71205089986324310302734375" lon="1.28172014839947223663330078125">
        <ele>2666.800048828125</ele>
        <time>2018-04-30T13:00:05.000Z</time>
      </trkpt>
      <trkpt lat="42.712063975632190704345703125" lon="1.28178921528160572052001953125">
        <ele>2666</ele>
        <time>2018-04-30T13:00:06.000Z</time>
      </trkpt>
      <trkpt lat="42.71207260899245738983154296875" lon="1.28187219612300395965576171875">
        <ele>2665.199951171875</ele>
        <time>2018-04-30T13:00:07.000Z</time>
      </trkpt>
      <trkpt lat="42.71208568476140499114990234375" lon="1.28204301930963993072509765625">
        <ele>2662.39990234375</ele>
        <time>2018-04-30T13:00:09.000Z</time>
      </trkpt>
      <trkpt lat="42.71210378967225551605224609375" lon="1.28219624049961566925048828125">
        <ele>2659.39990234375</ele>
        <time>2018-04-30T13:00:11.000Z</time>
      </trkpt>
      <trkpt lat="42.71210898645222187042236328125" lon="1.28227469511330127716064453125">
        <ele>2658.39990234375</ele>
        <time>2018-04-30T13:00:12.000Z</time>
      </trkpt>
      <trkpt lat="42.71211384795606136322021484375" lon="1.28235901705920696258544921875">
        <ele>2657.60009765625</ele>
        <time>2018-04-30T13:00:13.000Z</time>
      </trkpt>
      <trkpt lat="42.71212826482951641082763671875" lon="1.28262899816036224365234375">
        <ele>2654</ele>
        <time>2018-04-30T13:00:16.000Z</time>
      </trkpt>
      <trkpt lat="42.71212541498243808746337890625" lon="1.282946169376373291015625">
        <ele>2649.199951171875</ele>
        <time>2018-04-30T13:00:19.000Z</time>
      </trkpt>
      <trkpt lat="42.71211401559412479400634765625" lon="1.28314406611025333404541015625">
        <ele>2645.199951171875</ele>
        <time>2018-04-30T13:00:21.000Z</time>
      </trkpt>
      <trkpt lat="42.712099514901638031005859375" lon="1.2832913361489772796630859375">
        <ele>2643.60009765625</ele>
        <time>2018-04-30T13:00:23.000Z</time>
      </trkpt>
      <trkpt lat="42.7120859362185001373291015625" lon="1.2834361754357814788818359375">
        <ele>2641.800048828125</ele>
        <time>2018-04-30T13:00:26.000Z</time>
      </trkpt>
      <trkpt lat="42.71207034587860107421875" lon="1.2834804318845272064208984375">
        <ele>2641.39990234375</ele>
        <time>2018-04-30T13:00:27.000Z</time>
      </trkpt>
      <trkpt lat="42.7120540849864482879638671875" lon="1.2835337407886981964111328125">
        <ele>2640.60009765625</ele>
        <time>2018-04-30T13:00:28.000Z</time>
      </trkpt>
      <trkpt lat="42.71204645745456218719482421875" lon="1.283592917025089263916015625">
        <ele>2640</ele>
        <time>2018-04-30T13:00:29.000Z</time>
      </trkpt>
      <trkpt lat="42.7120475471019744873046875" lon="1.28363591618835926055908203125">
        <ele>2638.800048828125</ele>
        <time>2018-04-30T13:00:30.000Z</time>
      </trkpt>
      <trkpt lat="42.71204176358878612518310546875" lon="1.28367237746715545654296875">
        <ele>2637.800048828125</ele>
        <time>2018-04-30T13:00:31.000Z</time>
      </trkpt>
      <trkpt lat="42.71202147938311100006103515625" lon="1.28371554426848888397216796875">
        <ele>2637.39990234375</ele>
        <time>2018-04-30T13:00:32.000Z</time>
      </trkpt>
      <trkpt lat="42.71198610775172710418701171875" lon="1.2837603874504566192626953125">
        <ele>2637</ele>
        <time>2018-04-30T13:00:33.000Z</time>
      </trkpt>
      <trkpt lat="42.7118385024368762969970703125" lon="1.28392978571355342864990234375">
        <ele>2633.800048828125</ele>
        <time>2018-04-30T13:00:36.000Z</time>
      </trkpt>
      <trkpt lat="42.711797766387462615966796875" lon="1.284002959728240966796875">
        <ele>2631.199951171875</ele>
        <time>2018-04-30T13:00:37.000Z</time>
      </trkpt>
      <trkpt lat="42.71176834590733051300048828125" lon="1.284076385200023651123046875">
        <ele>2630</ele>
        <time>2018-04-30T13:00:38.000Z</time>
      </trkpt>
      <trkpt lat="42.711754180490970611572265625" lon="1.28413966856896877288818359375">
        <ele>2629.39990234375</ele>
        <time>2018-04-30T13:00:39.000Z</time>
      </trkpt>
      <trkpt lat="42.711690478026866912841796875" lon="1.2844654731452465057373046875">
        <ele>2628</ele>
        <time>2018-04-30T13:00:44.000Z</time>
      </trkpt>
      <trkpt lat="42.7116329781711101531982421875" lon="1.2847244739532470703125">
        <ele>2625.39990234375</ele>
        <time>2018-04-30T13:00:50.000Z</time>
      </trkpt>
      <trkpt lat="42.71161311306059360504150390625" lon="1.284979283809661865234375">
        <ele>2621.60009765625</ele>
        <time>2018-04-30T13:00:56.000Z</time>
      </trkpt>
      <trkpt lat="42.711611352860927581787109375" lon="1.28507626242935657501220703125">
        <ele>2620.60009765625</ele>
        <time>2018-04-30T13:00:58.000Z</time>
      </trkpt>
      <trkpt lat="42.71160221658647060394287109375" lon="1.28536082804203033447265625">
        <ele>2619.60009765625</ele>
        <time>2018-04-30T13:01:04.000Z</time>
      </trkpt>
      <trkpt lat="42.711616046726703643798828125" lon="1.28557984717190265655517578125">
        <ele>2617</ele>
        <time>2018-04-30T13:01:09.000Z</time>
      </trkpt>
      <trkpt lat="42.71165820769965648651123046875" lon="1.2858572043478488922119140625">
        <ele>2615.199951171875</ele>
        <time>2018-04-30T13:01:17.000Z</time>
      </trkpt>
      <trkpt lat="42.711689472198486328125" lon="1.2861157022416591644287109375">
        <ele>2614.60009765625</ele>
        <time>2018-04-30T13:01:26.000Z</time>
      </trkpt>
      <trkpt lat="42.71168419159948825836181640625" lon="1.2861420214176177978515625">
        <ele>2614.39990234375</ele>
        <time>2018-04-30T13:01:27.000Z</time>
      </trkpt>
      <trkpt lat="42.71169483661651611328125" lon="1.28603531979024410247802734375">
        <ele>2613.800048828125</ele>
        <time>2018-04-30T13:02:55.000Z</time>
      </trkpt>
      <trkpt lat="42.7116976864635944366455078125" lon="1.28606985323131084442138671875">
        <ele>2613.39990234375</ele>
        <time>2018-04-30T13:02:57.000Z</time>
      </trkpt>
      <trkpt lat="42.711695842444896697998046875" lon="1.28608292900025844573974609375">
        <ele>2613.39990234375</ele>
        <time>2018-04-30T13:02:58.000Z</time>
      </trkpt>
      <trkpt lat="42.711679078638553619384765625" lon="1.2863024510443210601806640625">
        <ele>2613</ele>
        <time>2018-04-30T13:04:07.000Z</time>
      </trkpt>
      <trkpt lat="42.71174621768295764923095703125" lon="1.28653957508504390716552734375">
        <ele>2612.199951171875</ele>
        <time>2018-04-30T13:04:28.000Z</time>
      </trkpt>
      <trkpt lat="42.71175384521484375" lon="1.28655575215816497802734375">
        <ele>2613.199951171875</ele>
        <time>2018-04-30T13:05:27.000Z</time>
      </trkpt>
      <trkpt lat="42.7117372490465641021728515625" lon="1.2865512259304523468017578125">
        <ele>2612.800048828125</ele>
        <time>2018-04-30T13:05:28.000Z</time>
      </trkpt>
      <trkpt lat="42.71171051077544689178466796875" lon="1.28654770553112030029296875">
        <ele>2612.199951171875</ele>
        <time>2018-04-30T13:05:29.000Z</time>
      </trkpt>
      <trkpt lat="42.71168234758079051971435546875" lon="1.286566816270351409912109375">
        <ele>2611.60009765625</ele>
        <time>2018-04-30T13:05:30.000Z</time>
      </trkpt>
      <trkpt lat="42.71166290156543254852294921875" lon="1.286594979465007781982421875">
        <ele>2611.199951171875</ele>
        <time>2018-04-30T13:05:31.000Z</time>
      </trkpt>
      <trkpt lat="42.711654603481292724609375" lon="1.28662289120256900787353515625">
        <ele>2610.800048828125</ele>
        <time>2018-04-30T13:05:32.000Z</time>
      </trkpt>
      <trkpt lat="42.7116527594625949859619140625" lon="1.2866350449621677398681640625">
        <ele>2610.39990234375</ele>
        <time>2018-04-30T13:05:33.000Z</time>
      </trkpt>
      <trkpt lat="42.71155058406293392181396484375" lon="1.286814920604228973388671875">
        <ele>2607.800048828125</ele>
        <time>2018-04-30T13:05:57.000Z</time>
      </trkpt>
      <trkpt lat="42.711507417261600494384765625" lon="1.2868608534336090087890625">
        <ele>2607.199951171875</ele>
        <time>2018-04-30T13:05:58.000Z</time>
      </trkpt>
      <trkpt lat="42.71148336119949817657470703125" lon="1.2869225442409515380859375">
        <ele>2606</ele>
        <time>2018-04-30T13:05:59.000Z</time>
      </trkpt>
      <trkpt lat="42.71145989187061786651611328125" lon="1.28699622116982936859130859375">
        <ele>2604.39990234375</ele>
        <time>2018-04-30T13:06:00.000Z</time>
      </trkpt>
      <trkpt lat="42.71142887882888317108154296875" lon="1.28705673851072788238525390625">
        <ele>2602.800048828125</ele>
        <time>2018-04-30T13:06:01.000Z</time>
      </trkpt>
      <trkpt lat="42.711401470005512237548828125" lon="1.28711189143359661102294921875">
        <ele>2601.199951171875</ele>
        <time>2018-04-30T13:06:02.000Z</time>
      </trkpt>
      <trkpt lat="42.71139107644557952880859375" lon="1.2871812097728252410888671875">
        <ele>2599.60009765625</ele>
        <time>2018-04-30T13:06:03.000Z</time>
      </trkpt>
      <trkpt lat="42.71137707866728305816650390625" lon="1.28724013455212116241455078125">
        <ele>2598</ele>
        <time>2018-04-30T13:06:04.000Z</time>
      </trkpt>
      <trkpt lat="42.71135880611836910247802734375" lon="1.287307105958461761474609375">
        <ele>2596.60009765625</ele>
        <time>2018-04-30T13:06:05.000Z</time>
      </trkpt>
      <trkpt lat="42.7113614045083522796630859375" lon="1.287380196154117584228515625">
        <ele>2594.800048828125</ele>
        <time>2018-04-30T13:06:06.000Z</time>
      </trkpt>
      <trkpt lat="42.7113386057317256927490234375" lon="1.2874534539878368377685546875">
        <ele>2592.39990234375</ele>
        <time>2018-04-30T13:06:07.000Z</time>
      </trkpt>
      <trkpt lat="42.71129996515810489654541015625" lon="1.287513636052608489990234375">
        <ele>2590.199951171875</ele>
        <time>2018-04-30T13:06:08.000Z</time>
      </trkpt>
      <trkpt lat="42.711277417838573455810546875" lon="1.28757943399250507354736328125">
        <ele>2588.60009765625</ele>
        <time>2018-04-30T13:06:09.000Z</time>
      </trkpt>
      <trkpt lat="42.7112715505063533782958984375" lon="1.28765956498682498931884765625">
        <ele>2586</ele>
        <time>2018-04-30T13:06:10.000Z</time>
      </trkpt>
      <trkpt lat="42.71125252358615398406982421875" lon="1.287730894982814788818359375">
        <ele>2583.199951171875</ele>
        <time>2018-04-30T13:06:11.000Z</time>
      </trkpt>
      <trkpt lat="42.7112363465130329132080078125" lon="1.28780323080718517303466796875">
        <ele>2581</ele>
        <time>2018-04-30T13:06:12.000Z</time>
      </trkpt>
      <trkpt lat="42.71122721023857593536376953125" lon="1.28789090551435947418212890625">
        <ele>2579</ele>
        <time>2018-04-30T13:06:13.000Z</time>
      </trkpt>
      <trkpt lat="42.7112106978893280029296875" lon="1.28798461519181728363037109375">
        <ele>2576.199951171875</ele>
        <time>2018-04-30T13:06:14.000Z</time>
      </trkpt>
      <trkpt lat="42.71120994351804256439208984375" lon="1.2880812585353851318359375">
        <ele>2574</ele>
        <time>2018-04-30T13:06:15.000Z</time>
      </trkpt>
      <trkpt lat="42.7112101949751377105712890625" lon="1.28817848861217498779296875">
        <ele>2571.199951171875</ele>
        <time>2018-04-30T13:06:16.000Z</time>
      </trkpt>
      <trkpt lat="42.71120022051036357879638671875" lon="1.2882797420024871826171875">
        <ele>2569.199951171875</ele>
        <time>2018-04-30T13:06:17.000Z</time>
      </trkpt>
      <trkpt lat="42.71121178753674030303955078125" lon="1.28838577307760715484619140625">
        <ele>2567.199951171875</ele>
        <time>2018-04-30T13:06:18.000Z</time>
      </trkpt>
      <trkpt lat="42.71123391576111316680908203125" lon="1.28849205560982227325439453125">
        <ele>2565</ele>
        <time>2018-04-30T13:06:19.000Z</time>
      </trkpt>
      <trkpt lat="42.71123190410435199737548828125" lon="1.288593225181102752685546875">
        <ele>2563</ele>
        <time>2018-04-30T13:06:20.000Z</time>
      </trkpt>
      <trkpt lat="42.7112081833183765411376953125" lon="1.28868483938276767730712890625">
        <ele>2561.39990234375</ele>
        <time>2018-04-30T13:06:21.000Z</time>
      </trkpt>
      <trkpt lat="42.71118412725627422332763671875" lon="1.28877469338476657867431640625">
        <ele>2559.800048828125</ele>
        <time>2018-04-30T13:06:22.000Z</time>
      </trkpt>
      <trkpt lat="42.71119334734976291656494140625" lon="1.2888751924037933349609375">
        <ele>2557.800048828125</ele>
        <time>2018-04-30T13:06:23.000Z</time>
      </trkpt>
      <trkpt lat="42.7112080156803131103515625" lon="1.288968063890933990478515625">
        <ele>2555.800048828125</ele>
        <time>2018-04-30T13:06:24.000Z</time>
      </trkpt>
      <trkpt lat="42.711205668747425079345703125" lon="1.28905833698809146881103515625">
        <ele>2553.199951171875</ele>
        <time>2018-04-30T13:06:25.000Z</time>
      </trkpt>
      <trkpt lat="42.71119502373039722442626953125" lon="1.289143078029155731201171875">
        <ele>2552</ele>
        <time>2018-04-30T13:06:26.000Z</time>
      </trkpt>
      <trkpt lat="42.71119552664458751678466796875" lon="1.2892273999750614166259765625">
        <ele>2550.800048828125</ele>
        <time>2018-04-30T13:06:27.000Z</time>
      </trkpt>
      <trkpt lat="42.71120860241353511810302734375" lon="1.28930099308490753173828125">
        <ele>2549.60009765625</ele>
        <time>2018-04-30T13:06:28.000Z</time>
      </trkpt>
      <trkpt lat="42.71122737787663936614990234375" lon="1.2893641926348209381103515625">
        <ele>2549.199951171875</ele>
        <time>2018-04-30T13:06:29.000Z</time>
      </trkpt>
      <trkpt lat="42.7112453989684581756591796875" lon="1.2894215248525142669677734375">
        <ele>2549</ele>
        <time>2018-04-30T13:06:30.000Z</time>
      </trkpt>
      <trkpt lat="42.711261995136737823486328125" lon="1.2894748337566852569580078125">
        <ele>2548.800048828125</ele>
        <time>2018-04-30T13:06:31.000Z</time>
      </trkpt>
      <trkpt lat="42.711312286555767059326171875" lon="1.28970466554164886474609375">
        <ele>2545</ele>
        <time>2018-04-30T13:06:36.000Z</time>
      </trkpt>
      <trkpt lat="42.7113275416195392608642578125" lon="1.2897494249045848846435546875">
        <ele>2544.199951171875</ele>
        <time>2018-04-30T13:06:38.000Z</time>
      </trkpt>
      <trkpt lat="42.7113365940749645233154296875" lon="1.28974850289523601531982421875">
        <ele>2543</ele>
        <time>2018-04-30T13:08:25.000Z</time>
      </trkpt>
      <trkpt lat="42.71131706424057483673095703125" lon="1.28979342989623546600341796875">
        <ele>2543</ele>
        <time>2018-04-30T13:08:29.000Z</time>
      </trkpt>
      <trkpt lat="42.71129728294909000396728515625" lon="1.289823688566684722900390625">
        <ele>2542.199951171875</ele>
        <time>2018-04-30T13:08:30.000Z</time>
      </trkpt>
      <trkpt lat="42.71123684942722320556640625" lon="1.2898855470120906829833984375">
        <ele>2540.60009765625</ele>
        <time>2018-04-30T13:08:31.000Z</time>
      </trkpt>
      <trkpt lat="42.7111253701150417327880859375" lon="1.29001202993094921112060546875">
        <ele>2538.199951171875</ele>
        <time>2018-04-30T13:08:33.000Z</time>
      </trkpt>
      <trkpt lat="42.7111082710325717926025390625" lon="1.29008076153695583343505859375">
        <ele>2537.199951171875</ele>
        <time>2018-04-30T13:08:34.000Z</time>
      </trkpt>
      <trkpt lat="42.71109335124492645263671875" lon="1.29015988670289516448974609375">
        <ele>2535.800048828125</ele>
        <time>2018-04-30T13:08:35.000Z</time>
      </trkpt>
      <trkpt lat="42.7110707201063632965087890625" lon="1.29032065160572528839111328125">
        <ele>2532.60009765625</ele>
        <time>2018-04-30T13:08:37.000Z</time>
      </trkpt>
      <trkpt lat="42.711081616580486297607421875" lon="1.290394999086856842041015625">
        <ele>2530.199951171875</ele>
        <time>2018-04-30T13:08:38.000Z</time>
      </trkpt>
      <trkpt lat="42.711089663207530975341796875" lon="1.2904759682714939117431640625">
        <ele>2527.39990234375</ele>
        <time>2018-04-30T13:08:39.000Z</time>
      </trkpt>
      <trkpt lat="42.71110651083290576934814453125" lon="1.29056992940604686737060546875">
        <ele>2524</ele>
        <time>2018-04-30T13:08:40.000Z</time>
      </trkpt>
      <trkpt lat="42.71112176589667797088623046875" lon="1.2906657345592975616455078125">
        <ele>2520.39990234375</ele>
        <time>2018-04-30T13:08:41.000Z</time>
      </trkpt>
      <trkpt lat="42.7111354283988475799560546875" lon="1.2907653115689754486083984375">
        <ele>2516.800048828125</ele>
        <time>2018-04-30T13:08:42.000Z</time>
      </trkpt>
      <trkpt lat="42.71116887219250202178955078125" lon="1.2908548302948474884033203125">
        <ele>2514.60009765625</ele>
        <time>2018-04-30T13:08:43.000Z</time>
      </trkpt>
      <trkpt lat="42.7111920900642871856689453125" lon="1.29094728268682956695556640625">
        <ele>2509.60009765625</ele>
        <time>2018-04-30T13:08:44.000Z</time>
      </trkpt>
      <trkpt lat="42.7112165652215480804443359375" lon="1.2910553254187107086181640625">
        <ele>2505.800048828125</ele>
        <time>2018-04-30T13:08:45.000Z</time>
      </trkpt>
      <trkpt lat="42.7112643420696258544921875" lon="1.2911532260477542877197265625">
        <ele>2501.800048828125</ele>
        <time>2018-04-30T13:08:46.000Z</time>
      </trkpt>
      <trkpt lat="42.71132661961019039154052734375" lon="1.29122120328247547149658203125">
        <ele>2498</ele>
        <time>2018-04-30T13:08:47.000Z</time>
      </trkpt>
      <trkpt lat="42.71136668510735034942626953125" lon="1.291307620704174041748046875">
        <ele>2494.800048828125</ele>
        <time>2018-04-30T13:08:48.000Z</time>
      </trkpt>
      <trkpt lat="42.71140390075743198394775390625" lon="1.291402168571949005126953125">
        <ele>2492.39990234375</ele>
        <time>2018-04-30T13:08:49.000Z</time>
      </trkpt>
      <trkpt lat="42.71143742837011814117431640625" lon="1.29148489795625209808349609375">
        <ele>2490</ele>
        <time>2018-04-30T13:08:50.000Z</time>
      </trkpt>
      <trkpt lat="42.711480595171451568603515625" lon="1.2915438227355480194091796875">
        <ele>2488.199951171875</ele>
        <time>2018-04-30T13:08:51.000Z</time>
      </trkpt>
      <trkpt lat="42.7115082554519176483154296875" lon="1.2916083633899688720703125">
        <ele>2487.199951171875</ele>
        <time>2018-04-30T13:08:52.000Z</time>
      </trkpt>
      <trkpt lat="42.711512781679630279541015625" lon="1.2916316650807857513427734375">
        <ele>2486.60009765625</ele>
        <time>2018-04-30T13:08:53.000Z</time>
      </trkpt>
      <trkpt lat="42.71152292378246784210205078125" lon="1.2916387058794498443603515625">
        <ele>2484.39990234375</ele>
        <time>2018-04-30T13:08:57.000Z</time>
      </trkpt>
      <trkpt lat="42.7115727961063385009765625" lon="1.2915837205946445465087890625">
        <ele>2483.800048828125</ele>
        <time>2018-04-30T13:10:40.000Z</time>
      </trkpt>
      <trkpt lat="42.711587883532047271728515625" lon="1.2915672920644283294677734375">
        <ele>2483.800048828125</ele>
        <time>2018-04-30T13:11:36.000Z</time>
      </trkpt>
      <trkpt lat="42.711548320949077606201171875" lon="1.291667036712169647216796875">
        <ele>2482</ele>
        <time>2018-04-30T13:12:21.000Z</time>
      </trkpt>
      <trkpt lat="42.711525857448577880859375" lon="1.29174180328845977783203125">
        <ele>2480.39990234375</ele>
        <time>2018-04-30T13:12:22.000Z</time>
      </trkpt>
      <trkpt lat="42.7114971913397312164306640625" lon="1.29180843941867351531982421875">
        <ele>2478</ele>
        <time>2018-04-30T13:12:23.000Z</time>
      </trkpt>
      <trkpt lat="42.7114797569811344146728515625" lon="1.29188722930848598480224609375">
        <ele>2475.199951171875</ele>
        <time>2018-04-30T13:12:24.000Z</time>
      </trkpt>
      <trkpt lat="42.71145972423255443572998046875" lon="1.2919706292450428009033203125">
        <ele>2471.60009765625</ele>
        <time>2018-04-30T13:12:25.000Z</time>
      </trkpt>
      <trkpt lat="42.71143122576177120208740234375" lon="1.2920635007321834564208984375">
        <ele>2467.800048828125</ele>
        <time>2018-04-30T13:12:26.000Z</time>
      </trkpt>
      <trkpt lat="42.71141521632671356201171875" lon="1.29217724315822124481201171875">
        <ele>2462.800048828125</ele>
        <time>2018-04-30T13:12:27.000Z</time>
      </trkpt>
      <trkpt lat="42.7113942615687847137451171875" lon="1.2922975234687328338623046875">
        <ele>2458</ele>
        <time>2018-04-30T13:12:28.000Z</time>
      </trkpt>
      <trkpt lat="42.7113662660121917724609375" lon="1.29242668859660625457763671875">
        <ele>2454</ele>
        <time>2018-04-30T13:12:29.000Z</time>
      </trkpt>
      <trkpt lat="42.71134187467396259307861328125" lon="1.29256767220795154571533203125">
        <ele>2449.199951171875</ele>
        <time>2018-04-30T13:12:30.000Z</time>
      </trkpt>
      <trkpt lat="42.71131874062120914459228515625" lon="1.29270731471478939056396484375">
        <ele>2444.800048828125</ele>
        <time>2018-04-30T13:12:31.000Z</time>
      </trkpt>
      <trkpt lat="42.7112911641597747802734375" lon="1.2929469533264636993408203125">
        <ele>2440.800048828125</ele>
        <time>2018-04-30T13:12:33.000Z</time>
      </trkpt>
      <trkpt lat="42.711291499435901641845703125" lon="1.29305633716285228729248046875">
        <ele>2437.199951171875</ele>
        <time>2018-04-30T13:12:34.000Z</time>
      </trkpt>
      <trkpt lat="42.71130164153873920440673828125" lon="1.2931628711521625518798828125">
        <ele>2435</ele>
        <time>2018-04-30T13:12:35.000Z</time>
      </trkpt>
      <trkpt lat="42.711312286555767059326171875" lon="1.29326202906668186187744140625">
        <ele>2432.199951171875</ele>
        <time>2018-04-30T13:12:36.000Z</time>
      </trkpt>
      <trkpt lat="42.7113260328769683837890625" lon="1.29334886558353900909423828125">
        <ele>2429.39990234375</ele>
        <time>2018-04-30T13:12:37.000Z</time>
      </trkpt>
      <trkpt lat="42.7113577164709568023681640625" lon="1.2934186868369579315185546875">
        <ele>2426.800048828125</ele>
        <time>2018-04-30T13:12:38.000Z</time>
      </trkpt>
      <trkpt lat="42.71140021272003650665283203125" lon="1.2934807129204273223876953125">
        <ele>2423.800048828125</ele>
        <time>2018-04-30T13:12:39.000Z</time>
      </trkpt>
      <trkpt lat="42.71143977530300617218017578125" lon="1.29353628493845462799072265625">
        <ele>2421.199951171875</ele>
        <time>2018-04-30T13:12:40.000Z</time>
      </trkpt>
      <trkpt lat="42.7114666812121868133544921875" lon="1.293553970754146575927734375">
        <ele>2419.39990234375</ele>
        <time>2018-04-30T13:12:41.000Z</time>
      </trkpt>
      <trkpt lat="42.71149291656911373138427734375" lon="1.29355355165898799896240234375">
        <ele>2416.60009765625</ele>
        <time>2018-04-30T13:12:45.000Z</time>
      </trkpt>
      <trkpt lat="42.7115191519260406494140625" lon="1.2935682199895381927490234375">
        <ele>2416.199951171875</ele>
        <time>2018-04-30T13:12:49.000Z</time>
      </trkpt>
      <trkpt lat="42.71153097040951251983642578125" lon="1.29357467405498027801513671875">
        <ele>2416</ele>
        <time>2018-04-30T13:12:50.000Z</time>
      </trkpt>
      <trkpt lat="42.71157992072403430938720703125" lon="1.2935839779675006866455078125">
        <ele>2415.800048828125</ele>
        <time>2018-04-30T13:14:25.000Z</time>
      </trkpt>
      <trkpt lat="42.71158813498914241790771484375" lon="1.29362362436950206756591796875">
        <ele>2415.199951171875</ele>
        <time>2018-04-30T13:14:26.000Z</time>
      </trkpt>
      <trkpt lat="42.71157321520149707794189453125" lon="1.29366871900856494903564453125">
        <ele>2414</ele>
        <time>2018-04-30T13:14:27.000Z</time>
      </trkpt>
      <trkpt lat="42.7115659229457378387451171875" lon="1.293712221086025238037109375">
        <ele>2411.800048828125</ele>
        <time>2018-04-30T13:14:28.000Z</time>
      </trkpt>
      <trkpt lat="42.71158008836209774017333984375" lon="1.293761841952800750732421875">
        <ele>2409.39990234375</ele>
        <time>2018-04-30T13:14:29.000Z</time>
      </trkpt>
      <trkpt lat="42.7115890569984912872314453125" lon="1.2938106246292591094970703125">
        <ele>2407</ele>
        <time>2018-04-30T13:14:30.000Z</time>
      </trkpt>
      <trkpt lat="42.71156944334506988525390625" lon="1.2938654422760009765625">
        <ele>2404.39990234375</ele>
        <time>2018-04-30T13:14:31.000Z</time>
      </trkpt>
      <trkpt lat="42.71158746443688869476318359375" lon="1.29391212947666645050048828125">
        <ele>2401.800048828125</ele>
        <time>2018-04-30T13:14:32.000Z</time>
      </trkpt>
      <trkpt lat="42.71159936673939228057861328125" lon="1.29395521245896816253662109375">
        <ele>2400</ele>
        <time>2018-04-30T13:14:33.000Z</time>
      </trkpt>
      <trkpt lat="42.71158914081752300262451171875" lon="1.29400198347866535186767578125">
        <ele>2396.199951171875</ele>
        <time>2018-04-30T13:14:34.000Z</time>
      </trkpt>
      <trkpt lat="42.7115548588335514068603515625" lon="1.29408060573041439056396484375">
        <ele>2391.199951171875</ele>
        <time>2018-04-30T13:14:36.000Z</time>
      </trkpt>
      <trkpt lat="42.711555026471614837646484375" lon="1.29410759545862674713134765625">
        <ele>2389.39990234375</ele>
        <time>2018-04-30T13:14:37.000Z</time>
      </trkpt>
      <trkpt lat="42.71156265400350093841552734375" lon="1.29413022659718990325927734375">
        <ele>2386.199951171875</ele>
        <time>2018-04-30T13:14:40.000Z</time>
      </trkpt>
      <trkpt lat="42.71156852133572101593017578125" lon="1.294145397841930389404296875">
        <ele>2385.800048828125</ele>
        <time>2018-04-30T13:14:41.000Z</time>
      </trkpt>
      <trkpt lat="42.71156500093638896942138671875" lon="1.29416744224727153778076171875">
        <ele>2385.60009765625</ele>
        <time>2018-04-30T13:14:42.000Z</time>
      </trkpt>
      <trkpt lat="42.71154773421585559844970703125" lon="1.29419376142323017120361328125">
        <ele>2384.800048828125</ele>
        <time>2018-04-30T13:14:43.000Z</time>
      </trkpt>
      <trkpt lat="42.7115406095981597900390625" lon="1.29422276280820369720458984375">
        <ele>2383.60009765625</ele>
        <time>2018-04-30T13:14:44.000Z</time>
      </trkpt>
      <trkpt lat="42.71154119633138179779052734375" lon="1.2942558713257312774658203125">
        <ele>2382.199951171875</ele>
        <time>2018-04-30T13:14:45.000Z</time>
      </trkpt>
      <trkpt lat="42.7115567028522491455078125" lon="1.2942702881991863250732421875">
        <ele>2380.39990234375</ele>
        <time>2018-04-30T13:14:46.000Z</time>
      </trkpt>
      <trkpt lat="42.71157170645892620086669921875" lon="1.29428143613040447235107421875">
        <ele>2378.800048828125</ele>
        <time>2018-04-30T13:14:47.000Z</time>
      </trkpt>
      <trkpt lat="42.71157120354473590850830078125" lon="1.2943054921925067901611328125">
        <ele>2377.39990234375</ele>
        <time>2018-04-30T13:14:48.000Z</time>
      </trkpt>
      <trkpt lat="42.711554355919361114501953125" lon="1.29433549940586090087890625">
        <ele>2376</ele>
        <time>2018-04-30T13:14:49.000Z</time>
      </trkpt>
      <trkpt lat="42.71153382025659084320068359375" lon="1.2943514250218868255615234375">
        <ele>2374.39990234375</ele>
        <time>2018-04-30T13:14:50.000Z</time>
      </trkpt>
      <trkpt lat="42.71154689602553844451904296875" lon="1.29437698982656002044677734375">
        <ele>2373</ele>
        <time>2018-04-30T13:14:51.000Z</time>
      </trkpt>
      <trkpt lat="42.71156215108931064605712890625" lon="1.2944032251834869384765625">
        <ele>2371.60009765625</ele>
        <time>2018-04-30T13:14:52.000Z</time>
      </trkpt>
      <trkpt lat="42.71158914081752300262451171875" lon="1.2944168038666248321533203125">
        <ele>2370</ele>
        <time>2018-04-30T13:14:53.000Z</time>
      </trkpt>
      <trkpt lat="42.711606323719024658203125" lon="1.29442862235009670257568359375">
        <ele>2368.199951171875</ele>
        <time>2018-04-30T13:14:54.000Z</time>
      </trkpt>
      <trkpt lat="42.7115930803120136260986328125" lon="1.2944526784121990203857421875">
        <ele>2367.39990234375</ele>
        <time>2018-04-30T13:14:55.000Z</time>
      </trkpt>
      <trkpt lat="42.7115618996322154998779296875" lon="1.2944704480469226837158203125">
        <ele>2365.60009765625</ele>
        <time>2018-04-30T13:14:56.000Z</time>
      </trkpt>
      <trkpt lat="42.71152694709599018096923828125" lon="1.29448511637747287750244140625">
        <ele>2363.60009765625</ele>
        <time>2018-04-30T13:14:57.000Z</time>
      </trkpt>
      <trkpt lat="42.7113315649330615997314453125" lon="1.2946035526692867279052734375">
        <ele>2360.199951171875</ele>
        <time>2018-04-30T13:15:02.000Z</time>
      </trkpt>
      <trkpt lat="42.7111776731908321380615234375" lon="1.2947705201804637908935546875">
        <ele>2357</ele>
        <time>2018-04-30T13:15:07.000Z</time>
      </trkpt>
      <trkpt lat="42.71108689717948436737060546875" lon="1.294920556247234344482421875">
        <ele>2353.60009765625</ele>
        <time>2018-04-30T13:15:12.000Z</time>
      </trkpt>
      <trkpt lat="42.71105102263391017913818359375" lon="1.29494427703320980072021484375">
        <ele>2350.60009765625</ele>
        <time>2018-04-30T13:15:35.000Z</time>
      </trkpt>
      <trkpt lat="42.7110935188829898834228515625" lon="1.294951401650905609130859375">
        <ele>2350.800048828125</ele>
        <time>2018-04-30T13:16:27.000Z</time>
      </trkpt>
      <trkpt lat="42.71106443367898464202880859375" lon="1.29500479437410831451416015625">
        <ele>2351.199951171875</ele>
        <time>2018-04-30T13:16:55.000Z</time>
      </trkpt>
      <trkpt lat="42.71105253137648105621337890625" lon="1.29502482712268829345703125">
        <ele>2351</ele>
        <time>2018-04-30T13:16:56.000Z</time>
      </trkpt>
      <trkpt lat="42.7110338397324085235595703125" lon="1.295042932033538818359375">
        <ele>2351</ele>
        <time>2018-04-30T13:16:57.000Z</time>
      </trkpt>
      <trkpt lat="42.71101481281220912933349609375" lon="1.29506430588662624359130859375">
        <ele>2350.800048828125</ele>
        <time>2018-04-30T13:16:58.000Z</time>
      </trkpt>
      <trkpt lat="42.7109932713210582733154296875" lon="1.29508827812969684600830078125">
        <ele>2350.39990234375</ele>
        <time>2018-04-30T13:16:59.000Z</time>
      </trkpt>
      <trkpt lat="42.71096787415444850921630859375" lon="1.29511493258178234100341796875">
        <ele>2350.199951171875</ele>
        <time>2018-04-30T13:17:00.000Z</time>
      </trkpt>
      <trkpt lat="42.710810042917728424072265625" lon="1.29528927616775035858154296875">
        <ele>2347.60009765625</ele>
        <time>2018-04-30T13:17:05.000Z</time>
      </trkpt>
      <trkpt lat="42.71068674512207508087158203125" lon="1.29540109075605869293212890625">
        <ele>2345.800048828125</ele>
        <time>2018-04-30T13:17:08.000Z</time>
      </trkpt>
      <trkpt lat="42.7104997448623180389404296875" lon="1.2955431640148162841796875">
        <ele>2342.60009765625</ele>
        <time>2018-04-30T13:17:12.000Z</time>
      </trkpt>
      <trkpt lat="42.7103250660002231597900390625" lon="1.295690350234508514404296875">
        <ele>2339.60009765625</ele>
        <time>2018-04-30T13:17:16.000Z</time>
      </trkpt>
      <trkpt lat="42.71028089337050914764404296875" lon="1.29574122838675975799560546875">
        <ele>2338.800048828125</ele>
        <time>2018-04-30T13:17:17.000Z</time>
      </trkpt>
      <trkpt lat="42.71017963998019695281982421875" lon="1.29584834910929203033447265625">
        <ele>2336.800048828125</ele>
        <time>2018-04-30T13:17:19.000Z</time>
      </trkpt>
      <trkpt lat="42.71012281067669391632080078125" lon="1.295890174806118011474609375">
        <ele>2336.199951171875</ele>
        <time>2018-04-30T13:17:20.000Z</time>
      </trkpt>
      <trkpt lat="42.70994327031075954437255859375" lon="1.2960308231413364410400390625">
        <ele>2332.199951171875</ele>
        <time>2018-04-30T13:17:23.000Z</time>
      </trkpt>
      <trkpt lat="42.7098939009010791778564453125" lon="1.29608966410160064697265625">
        <ele>2331</ele>
        <time>2018-04-30T13:17:24.000Z</time>
      </trkpt>
      <trkpt lat="42.709845788776874542236328125" lon="1.2961511872708797454833984375">
        <ele>2330</ele>
        <time>2018-04-30T13:17:25.000Z</time>
      </trkpt>
      <trkpt lat="42.70967085845768451690673828125" lon="1.29636861383914947509765625">
        <ele>2326</ele>
        <time>2018-04-30T13:17:29.000Z</time>
      </trkpt>
      <trkpt lat="42.70950556732714176177978515625" lon="1.2965538538992404937744140625">
        <ele>2322.39990234375</ele>
        <time>2018-04-30T13:17:32.000Z</time>
      </trkpt>
      <trkpt lat="42.70936944521963596343994140625" lon="1.29676935262978076934814453125">
        <ele>2319</ele>
        <time>2018-04-30T13:17:35.000Z</time>
      </trkpt>
      <trkpt lat="42.709220163524150848388671875" lon="1.29706439562141895294189453125">
        <ele>2315.39990234375</ele>
        <time>2018-04-30T13:17:39.000Z</time>
      </trkpt>
      <trkpt lat="42.70910843275487422943115234375" lon="1.29730730317533016204833984375">
        <ele>2311.800048828125</ele>
        <time>2018-04-30T13:17:42.000Z</time>
      </trkpt>
      <trkpt lat="42.708978764712810516357421875" lon="1.29759781993925571441650390625">
        <ele>2307.199951171875</ele>
        <time>2018-04-30T13:17:45.000Z</time>
      </trkpt>
      <trkpt lat="42.70887893624603748321533203125" lon="1.2977578304708003997802734375">
        <ele>2305</ele>
        <time>2018-04-30T13:17:49.000Z</time>
      </trkpt>
      <trkpt lat="42.70870844833552837371826171875" lon="1.297872327268123626708984375">
        <ele>2302.800048828125</ele>
        <time>2018-04-30T13:18:00.000Z</time>
      </trkpt>
      <trkpt lat="42.70864457823336124420166015625" lon="1.29789856262505054473876953125">
        <ele>2301.39990234375</ele>
        <time>2018-04-30T13:18:12.000Z</time>
      </trkpt>
      <trkpt lat="42.70861440338194370269775390625" lon="1.2979060225188732147216796875">
        <ele>2301.39990234375</ele>
        <time>2018-04-30T13:18:13.000Z</time>
      </trkpt>
      <trkpt lat="42.70859495736658573150634765625" lon="1.2979107163846492767333984375">
        <ele>2301</ele>
        <time>2018-04-30T13:18:14.000Z</time>
      </trkpt>
      <trkpt lat="42.70857341587543487548828125" lon="1.29791348241269588470458984375">
        <ele>2300.60009765625</ele>
        <time>2018-04-30T13:18:15.000Z</time>
      </trkpt>
      <trkpt lat="42.7085514552891254425048828125" lon="1.29791314713656902313232421875">
        <ele>2300.199951171875</ele>
        <time>2018-04-30T13:18:16.000Z</time>
      </trkpt>
      <trkpt lat="42.708532847464084625244140625" lon="1.29791230894625186920166015625">
        <ele>2299.800048828125</ele>
        <time>2018-04-30T13:18:17.000Z</time>
      </trkpt>
      <trkpt lat="42.708532176911830902099609375" lon="1.29788339138031005859375">
        <ele>2298.800048828125</ele>
        <time>2018-04-30T13:19:40.000Z</time>
      </trkpt>
      <trkpt lat="42.708530835807323455810546875" lon="1.297936700284481048583984375">
        <ele>2299</ele>
        <time>2018-04-30T13:20:21.000Z</time>
      </trkpt>
      <trkpt lat="42.7085470966994762420654296875" lon="1.297953128814697265625">
        <ele>2299</ele>
        <time>2018-04-30T13:20:22.000Z</time>
      </trkpt>
      <trkpt lat="42.70855640061199665069580078125" lon="1.29796545021235942840576171875">
        <ele>2298.60009765625</ele>
        <time>2018-04-30T13:20:23.000Z</time>
      </trkpt>
      <trkpt lat="42.70856712944805622100830078125" lon="1.2979767657816410064697265625">
        <ele>2297.199951171875</ele>
        <time>2018-04-30T13:20:24.000Z</time>
      </trkpt>
      <trkpt lat="42.70858204923570156097412109375" lon="1.29798456095159053802490234375">
        <ele>2294.60009765625</ele>
        <time>2018-04-30T13:20:27.000Z</time>
      </trkpt>
      <trkpt lat="42.708544246852397918701171875" lon="1.2979791127145290374755859375">
        <ele>2293.800048828125</ele>
        <time>2018-04-30T13:21:23.000Z</time>
      </trkpt>
      <trkpt lat="42.708564363420009613037109375" lon="1.29799864254891872406005859375">
        <ele>2293.800048828125</ele>
        <time>2018-04-30T13:21:57.000Z</time>
      </trkpt>
      <trkpt lat="42.70857618190348148345947265625" lon="1.29801146686077117919921875">
        <ele>2293.800048828125</ele>
        <time>2018-04-30T13:21:58.000Z</time>
      </trkpt>
      <trkpt lat="42.708586156368255615234375" lon="1.298033259809017181396484375">
        <ele>2293.39990234375</ele>
        <time>2018-04-30T13:21:59.000Z</time>
      </trkpt>
      <trkpt lat="42.7085719071328639984130859375" lon="1.298068799078464508056640625">
        <ele>2292.800048828125</ele>
        <time>2018-04-30T13:22:00.000Z</time>
      </trkpt>
      <trkpt lat="42.70854684524238109588623046875" lon="1.2981071881949901580810546875">
        <ele>2291.800048828125</ele>
        <time>2018-04-30T13:22:01.000Z</time>
      </trkpt>
      <trkpt lat="42.7085491083562374114990234375" lon="1.29815161228179931640625">
        <ele>2290.199951171875</ele>
        <time>2018-04-30T13:22:02.000Z</time>
      </trkpt>
      <trkpt lat="42.70856964401900768280029296875" lon="1.2982060946524143218994140625">
        <ele>2288.199951171875</ele>
        <time>2018-04-30T13:22:03.000Z</time>
      </trkpt>
      <trkpt lat="42.7085695601999759674072265625" lon="1.29826853983104228973388671875">
        <ele>2286.60009765625</ele>
        <time>2018-04-30T13:22:04.000Z</time>
      </trkpt>
      <trkpt lat="42.70854215137660503387451171875" lon="1.29832503385841846466064453125">
        <ele>2285.60009765625</ele>
        <time>2018-04-30T13:22:05.000Z</time>
      </trkpt>
      <trkpt lat="42.7085400559008121490478515625" lon="1.2983824498951435089111328125">
        <ele>2282.39990234375</ele>
        <time>2018-04-30T13:22:06.000Z</time>
      </trkpt>
      <trkpt lat="42.70856134593486785888671875" lon="1.2984478287398815155029296875">
        <ele>2279.199951171875</ele>
        <time>2018-04-30T13:22:07.000Z</time>
      </trkpt>
      <trkpt lat="42.70855371840298175811767578125" lon="1.29851915873587131500244140625">
        <ele>2276.60009765625</ele>
        <time>2018-04-30T13:22:08.000Z</time>
      </trkpt>
      <trkpt lat="42.7085263095796108245849609375" lon="1.29856240935623645782470703125">
        <ele>2274.800048828125</ele>
        <time>2018-04-30T13:22:09.000Z</time>
      </trkpt>
      <trkpt lat="42.7085078693926334381103515625" lon="1.29859660752117633819580078125">
        <ele>2272.39990234375</ele>
        <time>2018-04-30T13:22:10.000Z</time>
      </trkpt>
      <trkpt lat="42.70851734094321727752685546875" lon="1.29861253313720226287841796875">
        <ele>2270.199951171875</ele>
        <time>2018-04-30T13:22:11.000Z</time>
      </trkpt>
      <trkpt lat="42.7085343562066555023193359375" lon="1.29861219786107540130615234375">
        <ele>2268.800048828125</ele>
        <time>2018-04-30T13:22:12.000Z</time>
      </trkpt>
      <trkpt lat="42.70854366011917591094970703125" lon="1.2986054085195064544677734375">
        <ele>2267.199951171875</ele>
        <time>2018-04-30T13:22:15.000Z</time>
      </trkpt>
      <trkpt lat="42.70856394432485103607177734375" lon="1.29863600246608257293701171875">
        <ele>2267.199951171875</ele>
        <time>2018-04-30T13:22:19.000Z</time>
      </trkpt>
      <trkpt lat="42.708574421703815460205078125" lon="1.29867539741098880767822265625">
        <ele>2266.800048828125</ele>
        <time>2018-04-30T13:22:20.000Z</time>
      </trkpt>
      <trkpt lat="42.7085742540657520294189453125" lon="1.29872384481132030487060546875">
        <ele>2266.199951171875</ele>
        <time>2018-04-30T13:22:21.000Z</time>
      </trkpt>
      <trkpt lat="42.7085544727742671966552734375" lon="1.29877313040196895599365234375">
        <ele>2264.800048828125</ele>
        <time>2018-04-30T13:22:22.000Z</time>
      </trkpt>
      <trkpt lat="42.70854013971984386444091796875" lon="1.2988266907632350921630859375">
        <ele>2263.39990234375</ele>
        <time>2018-04-30T13:22:23.000Z</time>
      </trkpt>
      <trkpt lat="42.7085231244564056396484375" lon="1.29890522919595241546630859375">
        <ele>2261.800048828125</ele>
        <time>2018-04-30T13:22:24.000Z</time>
      </trkpt>
      <trkpt lat="42.7084897644817829132080078125" lon="1.2990084104239940643310546875">
        <ele>2259.800048828125</ele>
        <time>2018-04-30T13:22:25.000Z</time>
      </trkpt>
      <trkpt lat="42.70840602926909923553466796875" lon="1.299220807850360870361328125">
        <ele>2256</ele>
        <time>2018-04-30T13:22:27.000Z</time>
      </trkpt>
      <trkpt lat="42.70827778615057468414306640625" lon="1.29949078895151615142822265625">
        <ele>2253.800048828125</ele>
        <time>2018-04-30T13:22:31.000Z</time>
      </trkpt>
      <trkpt lat="42.70818910561501979827880859375" lon="1.29971735179424285888671875">
        <ele>2252.39990234375</ele>
        <time>2018-04-30T13:22:42.000Z</time>
      </trkpt>
      <trkpt lat="42.7081826515495777130126953125" lon="1.2997300922870635986328125">
        <ele>2252.39990234375</ele>
        <time>2018-04-30T13:22:43.000Z</time>
      </trkpt>
      <trkpt lat="42.70817653276026248931884765625" lon="1.29977409727871417999267578125">
        <ele>2252.39990234375</ele>
        <time>2018-04-30T13:22:49.000Z</time>
      </trkpt>
      <trkpt lat="42.70817485637962818145751953125" lon="1.2998174317181110382080078125">
        <ele>2252.39990234375</ele>
        <time>2018-04-30T13:22:53.000Z</time>
      </trkpt>
      <trkpt lat="42.70817167125642299652099609375" lon="1.29982841201126575469970703125">
        <ele>2252.199951171875</ele>
        <time>2018-04-30T13:22:54.000Z</time>
      </trkpt>
      <trkpt lat="42.70814753137528896331787109375" lon="1.29988993518054485321044921875">
        <ele>2252.60009765625</ele>
        <time>2018-04-30T13:24:26.000Z</time>
      </trkpt>
      <trkpt lat="42.7080418355762958526611328125" lon="1.300123371183872222900390625">
        <ele>2252.60009765625</ele>
        <time>2018-04-30T13:24:43.000Z</time>
      </trkpt>
      <trkpt lat="42.7079462818801403045654296875" lon="1.30034632980823516845703125">
        <ele>2252.60009765625</ele>
        <time>2018-04-30T13:24:58.000Z</time>
      </trkpt>
      <trkpt lat="42.7078463695943355560302734375" lon="1.30057255737483501434326171875">
        <ele>2252.199951171875</ele>
        <time>2018-04-30T13:25:13.000Z</time>
      </trkpt>
      <trkpt lat="42.70779146812856197357177734375" lon="1.30067783407866954803466796875">
        <ele>2252.199951171875</ele>
        <time>2018-04-30T13:25:20.000Z</time>
      </trkpt>
      <trkpt lat="42.707775793969631195068359375" lon="1.3007246889173984527587890625">
        <ele>2252.199951171875</ele>
        <time>2018-04-30T13:25:26.000Z</time>
      </trkpt>
      <trkpt lat="42.7077695913612842559814453125" lon="1.3007374294102191925048828125">
        <ele>2252.199951171875</ele>
        <time>2018-04-30T13:25:27.000Z</time>
      </trkpt>
      <trkpt lat="42.70775995217263698577880859375" lon="1.3007528521120548248291015625">
        <ele>2252.199951171875</ele>
        <time>2018-04-30T13:25:28.000Z</time>
      </trkpt>
      <trkpt lat="42.7077508158981800079345703125" lon="1.30076752044260501861572265625">
        <ele>2252.199951171875</ele>
        <time>2018-04-30T13:25:29.000Z</time>
      </trkpt>
      <trkpt lat="42.7077400870621204376220703125" lon="1.30078294314444065093994140625">
        <ele>2252.199951171875</ele>
        <time>2018-04-30T13:25:30.000Z</time>
      </trkpt>
      <trkpt lat="42.70773078314960002899169921875" lon="1.3008014671504497528076171875">
        <ele>2252.39990234375</ele>
        <time>2018-04-30T13:25:31.000Z</time>
      </trkpt>
      <trkpt lat="42.70772458054125308990478515625" lon="1.30081445910036563873291015625">
        <ele>2252.199951171875</ele>
        <time>2018-04-30T13:25:32.000Z</time>
      </trkpt>
      <trkpt lat="42.70771636627614498138427734375" lon="1.3008266128599643707275390625">
        <ele>2252.199951171875</ele>
        <time>2018-04-30T13:25:33.000Z</time>
      </trkpt>
      <trkpt lat="42.70771083422005176544189453125" lon="1.3008410297334194183349609375">
        <ele>2252.199951171875</ele>
        <time>2018-04-30T13:25:34.000Z</time>
      </trkpt>
      <trkpt lat="42.70767848007380962371826171875" lon="1.300919316709041595458984375">
        <ele>2252</ele>
        <time>2018-04-30T13:25:41.000Z</time>
      </trkpt>
      <trkpt lat="42.707674205303192138671875" lon="1.3009332306683063507080078125">
        <ele>2252.199951171875</ele>
        <time>2018-04-30T13:25:42.000Z</time>
      </trkpt>
      <trkpt lat="42.707667835056781768798828125" lon="1.30094940774142742156982421875">
        <ele>2252.199951171875</ele>
        <time>2018-04-30T13:25:43.000Z</time>
      </trkpt>
      <trkpt lat="42.70766423083841800689697265625" lon="1.30096332170069217681884765625">
        <ele>2252.199951171875</ele>
        <time>2018-04-30T13:25:44.000Z</time>
      </trkpt>
      <trkpt lat="42.7076602913439273834228515625" lon="1.30097262561321258544921875">
        <ele>2252.199951171875</ele>
        <time>2018-04-30T13:25:45.000Z</time>
      </trkpt>
      <trkpt lat="42.707655429840087890625" lon="1.3009838573634624481201171875">
        <ele>2252.199951171875</ele>
        <time>2018-04-30T13:25:46.000Z</time>
      </trkpt>
      <trkpt lat="42.70764998160302639007568359375" lon="1.3009987771511077880859375">
        <ele>2252.39990234375</ele>
        <time>2018-04-30T13:25:47.000Z</time>
      </trkpt>
      <trkpt lat="42.707545123994350433349609375" lon="1.3012131862342357635498046875">
        <ele>2252.199951171875</ele>
        <time>2018-04-30T13:26:01.000Z</time>
      </trkpt>
      <trkpt lat="42.7075369097292423248291015625" lon="1.30122668109834194183349609375">
        <ele>2252.199951171875</ele>
        <time>2018-04-30T13:26:02.000Z</time>
      </trkpt>
      <trkpt lat="42.70752961747348308563232421875" lon="1.3012413494288921356201171875">
        <ele>2252.199951171875</ele>
        <time>2018-04-30T13:26:03.000Z</time>
      </trkpt>
      <trkpt lat="42.70752131938934326171875" lon="1.3012581132352352142333984375">
        <ele>2252.199951171875</ele>
        <time>2018-04-30T13:26:04.000Z</time>
      </trkpt>
      <trkpt lat="42.707513608038425445556640625" lon="1.30127227865159511566162109375">
        <ele>2252.39990234375</ele>
        <time>2018-04-30T13:26:05.000Z</time>
      </trkpt>
      <trkpt lat="42.70750480704009532928466796875" lon="1.3012876175343990325927734375">
        <ele>2252.39990234375</ele>
        <time>2018-04-30T13:26:06.000Z</time>
      </trkpt>
      <trkpt lat="42.70749961026012897491455078125" lon="1.301303543150424957275390625">
        <ele>2252.39990234375</ele>
        <time>2018-04-30T13:26:07.000Z</time>
      </trkpt>
      <trkpt lat="42.7074958384037017822265625" lon="1.30131720565259456634521484375">
        <ele>2252.39990234375</ele>
        <time>2018-04-30T13:26:08.000Z</time>
      </trkpt>
      <trkpt lat="42.707475721836090087890625" lon="1.301365233957767486572265625">
        <ele>2252.39990234375</ele>
        <time>2018-04-30T13:26:11.000Z</time>
      </trkpt>
      <trkpt lat="42.7074668370187282562255859375" lon="1.30138426087796688079833984375">
        <ele>2252.39990234375</ele>
        <time>2018-04-30T13:26:13.000Z</time>
      </trkpt>
      <trkpt lat="42.707443870604038238525390625" lon="1.30142323672771453857421875">
        <ele>2252.199951171875</ele>
        <time>2018-04-30T13:26:22.000Z</time>
      </trkpt>
      <trkpt lat="42.7074373327195644378662109375" lon="1.3014378212392330169677734375">
        <ele>2252.39990234375</ele>
        <time>2018-04-30T13:26:23.000Z</time>
      </trkpt>
      <trkpt lat="42.7073657512664794921875" lon="1.30158257670700550079345703125">
        <ele>2252.39990234375</ele>
        <time>2018-04-30T13:26:33.000Z</time>
      </trkpt>
      <trkpt lat="42.70735426805913448333740234375" lon="1.3015970773994922637939453125">
        <ele>2252.199951171875</ele>
        <time>2018-04-30T13:26:34.000Z</time>
      </trkpt>
      <trkpt lat="42.7073444612324237823486328125" lon="1.30161107517778873443603515625">
        <ele>2252.199951171875</ele>
        <time>2018-04-30T13:26:35.000Z</time>
      </trkpt>
      <trkpt lat="42.70733783952891826629638671875" lon="1.301626078784465789794921875">
        <ele>2252.39990234375</ele>
        <time>2018-04-30T13:26:36.000Z</time>
      </trkpt>
      <trkpt lat="42.70733096636831760406494140625" lon="1.30163848400115966796875">
        <ele>2252.39990234375</ele>
        <time>2018-04-30T13:26:37.000Z</time>
      </trkpt>
      <trkpt lat="42.70721781067550182342529296875" lon="1.3018595986068248748779296875">
        <ele>2252.199951171875</ele>
        <time>2018-04-30T13:26:53.000Z</time>
      </trkpt>
      <trkpt lat="42.70719769410789012908935546875" lon="1.3020394742488861083984375">
        <ele>2252.39990234375</ele>
        <time>2018-04-30T13:27:04.000Z</time>
      </trkpt>
      <trkpt lat="42.7071989513933658599853515625" lon="1.30205699242651462554931640625">
        <ele>2252.60009765625</ele>
        <time>2018-04-30T13:27:05.000Z</time>
      </trkpt>
      <trkpt lat="42.70719853229820728302001953125" lon="1.30207291804254055023193359375">
        <ele>2252.60009765625</ele>
        <time>2018-04-30T13:27:06.000Z</time>
      </trkpt>
      <trkpt lat="42.707195766270160675048828125" lon="1.30208632908761501312255859375">
        <ele>2252.60009765625</ele>
        <time>2018-04-30T13:27:07.000Z</time>
      </trkpt>
      <trkpt lat="42.70719434134662151336669921875" lon="1.302106194198131561279296875">
        <ele>2252.60009765625</ele>
        <time>2018-04-30T13:27:08.000Z</time>
      </trkpt>
      <trkpt lat="42.70719484426081180572509765625" lon="1.3021258078515529632568359375">
        <ele>2252.800048828125</ele>
        <time>2018-04-30T13:27:09.000Z</time>
      </trkpt>
      <trkpt lat="42.707195766270160675048828125" lon="1.30214148201048374176025390625">
        <ele>2252.800048828125</ele>
        <time>2018-04-30T13:27:10.000Z</time>
      </trkpt>
      <trkpt lat="42.70707850344479084014892578125" lon="1.3023506104946136474609375">
        <ele>2252.199951171875</ele>
        <time>2018-04-30T13:27:23.000Z</time>
      </trkpt>
      <trkpt lat="42.7070584706962108612060546875" lon="1.30237785167992115020751953125">
        <ele>2252.199951171875</ele>
        <time>2018-04-30T13:27:26.000Z</time>
      </trkpt>
      <trkpt lat="42.7070490829646587371826171875" lon="1.302387155592441558837890625">
        <ele>2252.39990234375</ele>
        <time>2018-04-30T13:27:27.000Z</time>
      </trkpt>
      <trkpt lat="42.70692897029221057891845703125" lon="1.30253945477306842803955078125">
        <ele>2252.60009765625</ele>
        <time>2018-04-30T13:27:41.000Z</time>
      </trkpt>
      <trkpt lat="42.70692125894129276275634765625" lon="1.30255169235169887542724609375">
        <ele>2252.800048828125</ele>
        <time>2018-04-30T13:27:42.000Z</time>
      </trkpt>
      <trkpt lat="42.70691304467618465423583984375" lon="1.30256745032966136932373046875">
        <ele>2252.800048828125</ele>
        <time>2018-04-30T13:27:43.000Z</time>
      </trkpt>
      <trkpt lat="42.7069032378494739532470703125" lon="1.30258186720311641693115234375">
        <ele>2252.800048828125</ele>
        <time>2018-04-30T13:27:44.000Z</time>
      </trkpt>
      <trkpt lat="42.7068908326327800750732421875" lon="1.30259796045720577239990234375">
        <ele>2252.800048828125</ele>
        <time>2018-04-30T13:27:45.000Z</time>
      </trkpt>
      <trkpt lat="42.706877924501895904541015625" lon="1.30261455662548542022705078125">
        <ele>2252.800048828125</ele>
        <time>2018-04-30T13:27:46.000Z</time>
      </trkpt>
      <trkpt lat="42.70686945877969264984130859375" lon="1.30263014696538448333740234375">
        <ele>2252.60009765625</ele>
        <time>2018-04-30T13:27:47.000Z</time>
      </trkpt>
      <trkpt lat="42.70686258561909198760986328125" lon="1.3026456534862518310546875">
        <ele>2252.60009765625</ele>
        <time>2018-04-30T13:27:48.000Z</time>
      </trkpt>
      <trkpt lat="42.70681229420006275177001953125" lon="1.30276207812130451202392578125">
        <ele>2253</ele>
        <time>2018-04-30T13:27:57.000Z</time>
      </trkpt>
      <trkpt lat="42.706713639199733734130859375" lon="1.3029660098254680633544921875">
        <ele>2252.800048828125</ele>
        <time>2018-04-30T13:28:13.000Z</time>
      </trkpt>
      <trkpt lat="42.70668924786150455474853515625" lon="1.3030184805393218994140625">
        <ele>2252.60009765625</ele>
        <time>2018-04-30T13:28:17.000Z</time>
      </trkpt>
      <trkpt lat="42.7066802792251110076904296875" lon="1.30303331650793552398681640625">
        <ele>2252.60009765625</ele>
        <time>2018-04-30T13:28:18.000Z</time>
      </trkpt>
      <trkpt lat="42.70667315460741519927978515625" lon="1.3030484877526760101318359375">
        <ele>2252.800048828125</ele>
        <time>2018-04-30T13:28:19.000Z</time>
      </trkpt>
      <trkpt lat="42.70666728727519512176513671875" lon="1.30306114442646503448486328125">
        <ele>2252.800048828125</ele>
        <time>2018-04-30T13:28:20.000Z</time>
      </trkpt>
      <trkpt lat="42.7066576480865478515625" lon="1.303073465824127197265625">
        <ele>2252.800048828125</ele>
        <time>2018-04-30T13:28:21.000Z</time>
      </trkpt>
      <trkpt lat="42.70664733834564685821533203125" lon="1.3030882179737091064453125">
        <ele>2252.800048828125</ele>
        <time>2018-04-30T13:28:22.000Z</time>
      </trkpt>
      <trkpt lat="42.7066350169479846954345703125" lon="1.30310188047587871551513671875">
        <ele>2252.800048828125</ele>
        <time>2018-04-30T13:28:23.000Z</time>
      </trkpt>
      <trkpt lat="42.70646897144615650177001953125" lon="1.30323649384081363677978515625">
        <ele>2252.800048828125</ele>
        <time>2018-04-30T13:28:36.000Z</time>
      </trkpt>
      <trkpt lat="42.70632966421544551849365234375" lon="1.30341033451259136199951171875">
        <ele>2253</ele>
        <time>2018-04-30T13:28:51.000Z</time>
      </trkpt>
      <trkpt lat="42.70623846910893917083740234375" lon="1.30357428453862667083740234375">
        <ele>2253.199951171875</ele>
        <time>2018-04-30T13:29:02.000Z</time>
      </trkpt>
      <trkpt lat="42.70623193122446537017822265625" lon="1.3035856001079082489013671875">
        <ele>2253.199951171875</ele>
        <time>2018-04-30T13:29:03.000Z</time>
      </trkpt>
      <trkpt lat="42.70622606389224529266357421875" lon="1.30359842441976070404052734375">
        <ele>2253.199951171875</ele>
        <time>2018-04-30T13:29:04.000Z</time>
      </trkpt>
      <trkpt lat="42.70621499978005886077880859375" lon="1.3036114163696765899658203125">
        <ele>2253</ele>
        <time>2018-04-30T13:29:05.000Z</time>
      </trkpt>
      <trkpt lat="42.70620527677237987518310546875" lon="1.30362440831959247589111328125">
        <ele>2252.800048828125</ele>
        <time>2018-04-30T13:29:06.000Z</time>
      </trkpt>
      <trkpt lat="42.70619831979274749755859375" lon="1.30363496951758861541748046875">
        <ele>2252.39990234375</ele>
        <time>2018-04-30T13:29:07.000Z</time>
      </trkpt>
      <trkpt lat="42.7061046101152896881103515625" lon="1.30385222844779491424560546875">
        <ele>2252.800048828125</ele>
        <time>2018-04-30T13:29:24.000Z</time>
      </trkpt>
      <trkpt lat="42.7060637064278125762939453125" lon="1.30391408689320087432861328125">
        <ele>2252.39990234375</ele>
        <time>2018-04-30T13:29:29.000Z</time>
      </trkpt>
      <trkpt lat="42.7059202082455158233642578125" lon="1.3040777854621410369873046875">
        <ele>2252.60009765625</ele>
        <time>2018-04-30T13:29:44.000Z</time>
      </trkpt>
      <trkpt lat="42.70577453076839447021484375" lon="1.30426478572189807891845703125">
        <ele>2252.800048828125</ele>
        <time>2018-04-30T13:30:00.000Z</time>
      </trkpt>
      <trkpt lat="42.70574762485921382904052734375" lon="1.30430267192423343658447265625">
        <ele>2252.800048828125</ele>
        <time>2018-04-30T13:30:03.000Z</time>
      </trkpt>
      <trkpt lat="42.70562432706356048583984375" lon="1.30451456643640995025634765625">
        <ele>2253</ele>
        <time>2018-04-30T13:30:18.000Z</time>
      </trkpt>
      <trkpt lat="42.70550102926790714263916015625" lon="1.304736435413360595703125">
        <ele>2252.800048828125</ele>
        <time>2018-04-30T13:30:33.000Z</time>
      </trkpt>
      <trkpt lat="42.7053924836218357086181640625" lon="1.3049558736383914947509765625">
        <ele>2252.800048828125</ele>
        <time>2018-04-30T13:30:47.000Z</time>
      </trkpt>
      <trkpt lat="42.70530304871499538421630859375" lon="1.3051751442253589630126953125">
        <ele>2252.800048828125</ele>
        <time>2018-04-30T13:31:01.000Z</time>
      </trkpt>
      <trkpt lat="42.7052774839103221893310546875" lon="1.30523792468011379241943359375">
        <ele>2252.800048828125</ele>
        <time>2018-04-30T13:31:05.000Z</time>
      </trkpt>
      <trkpt lat="42.70527237094938755035400390625" lon="1.30524882115423679351806640625">
        <ele>2252.800048828125</ele>
        <time>2018-04-30T13:31:06.000Z</time>
      </trkpt>
      <trkpt lat="42.7052657492458820343017578125" lon="1.30526055581867694854736328125">
        <ele>2253</ele>
        <time>2018-04-30T13:31:07.000Z</time>
      </trkpt>
      <trkpt lat="42.7052590437233448028564453125" lon="1.30527514033019542694091796875">
        <ele>2253</ele>
        <time>2018-04-30T13:31:08.000Z</time>
      </trkpt>
      <trkpt lat="42.7052540145814418792724609375" lon="1.30528964102268218994140625">
        <ele>2252.800048828125</ele>
        <time>2018-04-30T13:31:09.000Z</time>
      </trkpt>
      <trkpt lat="42.705248482525348663330078125" lon="1.30530112423002719879150390625">
        <ele>2252.800048828125</ele>
        <time>2018-04-30T13:31:10.000Z</time>
      </trkpt>
      <trkpt lat="42.70518067292869091033935546875" lon="1.30551821552217006683349609375">
        <ele>2253</ele>
        <time>2018-04-30T13:31:23.000Z</time>
      </trkpt>
      <trkpt lat="42.705088555812835693359375" lon="1.30574134178459644317626953125">
        <ele>2252.60009765625</ele>
        <time>2018-04-30T13:31:38.000Z</time>
      </trkpt>
      <trkpt lat="42.7050290443003177642822265625" lon="1.30586891435086727142333984375">
        <ele>2252.800048828125</ele>
        <time>2018-04-30T13:31:47.000Z</time>
      </trkpt>
      <trkpt lat="42.70497330464422702789306640625" lon="1.30606337450444698333740234375">
        <ele>2252.800048828125</ele>
        <time>2018-04-30T13:31:59.000Z</time>
      </trkpt>
      <trkpt lat="42.704970538616180419921875" lon="1.30608097650110721588134765625">
        <ele>2252.60009765625</ele>
        <time>2018-04-30T13:32:00.000Z</time>
      </trkpt>
      <trkpt lat="42.70496928133070468902587890625" lon="1.306099332869052886962890625">
        <ele>2252.60009765625</ele>
        <time>2018-04-30T13:32:01.000Z</time>
      </trkpt>
      <trkpt lat="42.70496525801718235015869140625" lon="1.30611869506537914276123046875">
        <ele>2252.60009765625</ele>
        <time>2018-04-30T13:32:02.000Z</time>
      </trkpt>
      <trkpt lat="42.7049626596271991729736328125" lon="1.3061325252056121826171875">
        <ele>2252.60009765625</ele>
        <time>2018-04-30T13:32:03.000Z</time>
      </trkpt>
      <trkpt lat="42.704964168369770050048828125" lon="1.30614392459392547607421875">
        <ele>2252.60009765625</ele>
        <time>2018-04-30T13:32:04.000Z</time>
      </trkpt>
      <trkpt lat="42.704960145056247711181640625" lon="1.30615993402898311614990234375">
        <ele>2252.60009765625</ele>
        <time>2018-04-30T13:32:05.000Z</time>
      </trkpt>
      <trkpt lat="42.70495184697210788726806640625" lon="1.30617401562631130218505859375">
        <ele>2252.60009765625</ele>
        <time>2018-04-30T13:32:06.000Z</time>
      </trkpt>
      <trkpt lat="42.70488881506025791168212890625" lon="1.30629136227071285247802734375">
        <ele>2255.800048828125</ele>
        <time>2018-04-30T13:32:34.000Z</time>
      </trkpt>
      <trkpt lat="42.70491127856075763702392578125" lon="1.30642597563564777374267578125">
        <ele>2258.800048828125</ele>
        <time>2018-04-30T13:33:25.000Z</time>
      </trkpt>
      <trkpt lat="42.70489686168730258941650390625" lon="1.30649537779390811920166015625">
        <ele>2260.800048828125</ele>
        <time>2018-04-30T13:33:55.000Z</time>
      </trkpt>
      <trkpt lat="42.7049073390662670135498046875" lon="1.30650409497320652008056640625">
        <ele>2261</ele>
        <time>2018-04-30T13:33:59.000Z</time>
      </trkpt>
      <trkpt lat="42.7049257792532444000244140625" lon="1.30652102641761302947998046875">
        <ele>2261.199951171875</ele>
        <time>2018-04-30T13:34:10.000Z</time>
      </trkpt>
      <trkpt lat="42.70493055693805217742919921875" lon="1.3065202720463275909423828125">
        <ele>2260.800048828125</ele>
        <time>2018-04-30T13:34:14.000Z</time>
      </trkpt>
      <trkpt lat="42.70493390969932079315185546875" lon="1.30655975081026554107666015625">
        <ele>2261.39990234375</ele>
        <time>2018-04-30T13:35:10.000Z</time>
      </trkpt>
      <trkpt lat="42.70493256859481334686279296875" lon="1.30657031200826168060302734375">
        <ele>2261.60009765625</ele>
        <time>2018-04-30T13:35:12.000Z</time>
      </trkpt>
      <trkpt lat="42.70496182143688201904296875" lon="1.30659311078488826751708984375">
        <ele>2262.60009765625</ele>
        <time>2018-04-30T13:35:16.000Z</time>
      </trkpt>
      <trkpt lat="42.704965509474277496337890625" lon="1.30660031922161579132080078125">
        <ele>2262.800048828125</ele>
        <time>2018-04-30T13:35:17.000Z</time>
      </trkpt>
      <trkpt lat="42.70497079007327556610107421875" lon="1.306610293686389923095703125">
        <ele>2263</ele>
        <time>2018-04-30T13:35:18.000Z</time>
      </trkpt>
      <trkpt lat="42.70497296936810016632080078125" lon="1.3066201843321323394775390625">
        <ele>2263.199951171875</ele>
        <time>2018-04-30T13:35:19.000Z</time>
      </trkpt>
      <trkpt lat="42.70498755387961864471435546875" lon="1.306722946465015411376953125">
        <ele>2265</ele>
        <time>2018-04-30T13:35:32.000Z</time>
      </trkpt>
      <trkpt lat="42.704988978803157806396484375" lon="1.306822858750820159912109375">
        <ele>2265.800048828125</ele>
        <time>2018-04-30T13:35:45.000Z</time>
      </trkpt>
      <trkpt lat="42.70497263409197330474853515625" lon="1.30693224258720874786376953125">
        <ele>2266.60009765625</ele>
        <time>2018-04-30T13:36:02.000Z</time>
      </trkpt>
      <trkpt lat="42.70496559329330921173095703125" lon="1.306942887604236602783203125">
        <ele>2266.60009765625</ele>
        <time>2018-04-30T13:36:03.000Z</time>
      </trkpt>
      <trkpt lat="42.70494363270699977874755859375" lon="1.30699695087969303131103515625">
        <ele>2266</ele>
        <time>2018-04-30T13:36:19.000Z</time>
      </trkpt>
      <trkpt lat="42.70493944175541400909423828125" lon="1.3069908320903778076171875">
        <ele>2266.199951171875</ele>
        <time>2018-04-30T13:36:33.000Z</time>
      </trkpt>
      <trkpt lat="42.704927958548069000244140625" lon="1.3069559633731842041015625">
        <ele>2266.39990234375</ele>
        <time>2018-04-30T13:36:38.000Z</time>
      </trkpt>
      <trkpt lat="42.70492770709097385406494140625" lon="1.3069420494139194488525390625">
        <ele>2266.800048828125</ele>
        <time>2018-04-30T13:36:39.000Z</time>
      </trkpt>
      <trkpt lat="42.7048657648265361785888671875" lon="1.3067977130413055419921875">
        <ele>2267</ele>
        <time>2018-04-30T13:36:50.000Z</time>
      </trkpt>
      <trkpt lat="42.704804241657257080078125" lon="1.30673007108271121978759765625">
        <ele>2266</ele>
        <time>2018-04-30T13:37:00.000Z</time>
      </trkpt>
      <trkpt lat="42.7047557942569255828857421875" lon="1.30672085098922252655029296875">
        <ele>2266</ele>
        <time>2018-04-30T13:37:13.000Z</time>
      </trkpt>
      <trkpt lat="42.704733498394489288330078125" lon="1.306729651987552642822265625">
        <ele>2268</ele>
        <time>2018-04-30T13:37:32.000Z</time>
      </trkpt>
      <trkpt lat="42.70467348396778106689453125" lon="1.30671984516084194183349609375">
        <ele>2268.800048828125</ele>
        <time>2018-04-30T13:37:43.000Z</time>
      </trkpt>
      <trkpt lat="42.70466418005526065826416015625" lon="1.3067257963120937347412109375">
        <ele>2268.800048828125</ele>
        <time>2018-04-30T13:37:44.000Z</time>
      </trkpt>
      <trkpt lat="42.704656384885311126708984375" lon="1.30673225037753582000732421875">
        <ele>2268.800048828125</ele>
        <time>2018-04-30T13:37:45.000Z</time>
      </trkpt>
      <trkpt lat="42.70461045205593109130859375" lon="1.30676141940057277679443359375">
        <ele>2269.199951171875</ele>
        <time>2018-04-30T13:37:52.000Z</time>
      </trkpt>
      <trkpt lat="42.70456275902688503265380859375" lon="1.3067574799060821533203125">
        <ele>2270.60009765625</ele>
        <time>2018-04-30T13:37:58.000Z</time>
      </trkpt>
      <trkpt lat="42.70453610457479953765869140625" lon="1.30675706081092357635498046875">
        <ele>2271.199951171875</ele>
        <time>2018-04-30T13:38:04.000Z</time>
      </trkpt>
      <trkpt lat="42.7045247890055179595947265625" lon="1.30675773136317729949951171875">
        <ele>2271.199951171875</ele>
        <time>2018-04-30T13:38:05.000Z</time>
      </trkpt>
      <trkpt lat="42.70451330579817295074462890625" lon="1.30675471387803554534912109375">
        <ele>2271</ele>
        <time>2018-04-30T13:38:06.000Z</time>
      </trkpt>
      <trkpt lat="42.704504169523715972900390625" lon="1.30674867890775203704833984375">
        <ele>2270.199951171875</ele>
        <time>2018-04-30T13:38:07.000Z</time>
      </trkpt>
      <trkpt lat="42.7044661156833171844482421875" lon="1.3067217729985713958740234375">
        <ele>2268.39990234375</ele>
        <time>2018-04-30T13:38:24.000Z</time>
      </trkpt>
      <trkpt lat="42.704412974417209625244140625" lon="1.30671280436217784881591796875">
        <ele>2268.39990234375</ele>
        <time>2018-04-30T13:38:44.000Z</time>
      </trkpt>
      <trkpt lat="42.7043558098375797271728515625" lon="1.30670987069606781005859375">
        <ele>2268.199951171875</ele>
        <time>2018-04-30T13:39:14.000Z</time>
      </trkpt>
      <trkpt lat="42.704170234501361846923828125" lon="1.3067221082746982574462890625">
        <ele>2269.39990234375</ele>
        <time>2018-04-30T13:39:39.000Z</time>
      </trkpt>
      <trkpt lat="42.70411767996847629547119140625" lon="1.30670048296451568603515625">
        <ele>2268.199951171875</ele>
        <time>2018-04-30T13:39:47.000Z</time>
      </trkpt>
      <trkpt lat="42.70403939299285411834716796875" lon="1.30664021708071231842041015625">
        <ele>2264.800048828125</ele>
        <time>2018-04-30T13:40:12.000Z</time>
      </trkpt>
      <trkpt lat="42.70402698777616024017333984375" lon="1.3066302426159381866455078125">
        <ele>2264.199951171875</ele>
        <time>2018-04-30T13:40:14.000Z</time>
      </trkpt>
      <trkpt lat="42.7040201984345912933349609375" lon="1.30662362091243267059326171875">
        <ele>2263.800048828125</ele>
        <time>2018-04-30T13:40:15.000Z</time>
      </trkpt>
      <trkpt lat="42.70401298999786376953125" lon="1.3066168315708637237548828125">
        <ele>2263.60009765625</ele>
        <time>2018-04-30T13:40:16.000Z</time>
      </trkpt>
      <trkpt lat="42.704005278646945953369140625" lon="1.306609623134136199951171875">
        <ele>2263.39990234375</ele>
        <time>2018-04-30T13:40:17.000Z</time>
      </trkpt>
      <trkpt lat="42.70399915985763072967529296875" lon="1.30660031922161579132080078125">
        <ele>2262.800048828125</ele>
        <time>2018-04-30T13:40:18.000Z</time>
      </trkpt>
      <trkpt lat="42.70398424006998538970947265625" lon="1.30654432810842990875244140625">
        <ele>2263.199951171875</ele>
        <time>2018-04-30T13:40:24.000Z</time>
      </trkpt>
      <trkpt lat="42.704784460365772247314453125" lon="1.3031795807182788848876953125">
        <ele>2236.39990234375</ele>
        <time>2018-05-01T06:54:24.000Z</time>
      </trkpt>
      <trkpt lat="42.7047842927277088165283203125" lon="1.30317279137670993804931640625">
        <ele>2255.800048828125</ele>
        <time>2018-05-01T06:54:25.000Z</time>
      </trkpt>
      <trkpt lat="42.704783789813518524169921875" lon="1.3031673431396484375">
        <ele>2255.800048828125</ele>
        <time>2018-05-01T06:54:26.000Z</time>
      </trkpt>
      <trkpt lat="42.70478479564189910888671875" lon="1.3031349889934062957763671875">
        <ele>2237.199951171875</ele>
        <time>2018-05-01T06:54:29.000Z</time>
      </trkpt>
      <trkpt lat="42.7047863043844699859619140625" lon="1.3031229190528392791748046875">
        <ele>2237.199951171875</ele>
        <time>2018-05-01T06:54:30.000Z</time>
      </trkpt>
      <trkpt lat="42.704789824783802032470703125" lon="1.3031123578548431396484375">
        <ele>2237</ele>
        <time>2018-05-01T06:54:31.000Z</time>
      </trkpt>
      <trkpt lat="42.70479292608797550201416015625" lon="1.3031024672091007232666015625">
        <ele>2237</ele>
        <time>2018-05-01T06:54:32.000Z</time>
      </trkpt>
      <trkpt lat="42.70484355278313159942626953125" lon="1.3028691150248050689697265625">
        <ele>2239.60009765625</ele>
        <time>2018-05-01T06:54:54.000Z</time>
      </trkpt>
      <trkpt lat="42.7048798464238643646240234375" lon="1.302648000419139862060546875">
        <ele>2242.800048828125</ele>
        <time>2018-05-01T06:55:14.000Z</time>
      </trkpt>
      <trkpt lat="42.7049505896866321563720703125" lon="1.30241657607257366180419921875">
        <ele>2245.800048828125</ele>
        <time>2018-05-01T06:55:38.000Z</time>
      </trkpt>
      <trkpt lat="42.70502376370131969451904296875" lon="1.30217718891799449920654296875">
        <ele>2247.800048828125</ele>
        <time>2018-05-01T06:56:00.000Z</time>
      </trkpt>
      <trkpt lat="42.70508226938545703887939453125" lon="1.30195506848394870758056640625">
        <ele>2250.60009765625</ele>
        <time>2018-05-01T06:56:24.000Z</time>
      </trkpt>
      <trkpt lat="42.7051758952438831329345703125" lon="1.30176044069230556488037109375">
        <ele>2253.60009765625</ele>
        <time>2018-05-01T06:56:47.000Z</time>
      </trkpt>
      <trkpt lat="42.70527605898678302764892578125" lon="1.3015796430408954620361328125">
        <ele>2256.60009765625</ele>
        <time>2018-05-01T06:57:10.000Z</time>
      </trkpt>
      <trkpt lat="42.70539022050797939300537109375" lon="1.30137202329933643341064453125">
        <ele>2259.800048828125</ele>
        <time>2018-05-01T06:57:33.000Z</time>
      </trkpt>
      <trkpt lat="42.70550019107758998870849609375" lon="1.301172114908695220947265625">
        <ele>2262.199951171875</ele>
        <time>2018-05-01T06:57:56.000Z</time>
      </trkpt>
      <trkpt lat="42.70563798956573009490966796875" lon="1.30099684931337833404541015625">
        <ele>2265</ele>
        <time>2018-05-01T06:58:24.000Z</time>
      </trkpt>
      <trkpt lat="42.70571795292198657989501953125" lon="1.300881765782833099365234375">
        <ele>2268.199951171875</ele>
        <time>2018-05-01T06:58:40.000Z</time>
      </trkpt>
      <trkpt lat="42.70578819327056407928466796875" lon="1.30071915686130523681640625">
        <ele>2271.39990234375</ele>
        <time>2018-05-01T06:59:00.000Z</time>
      </trkpt>
      <trkpt lat="42.70587620325386524200439453125" lon="1.30055285990238189697265625">
        <ele>2274.39990234375</ele>
        <time>2018-05-01T06:59:21.000Z</time>
      </trkpt>
      <trkpt lat="42.7059669792652130126953125" lon="1.30036233924329280853271484375">
        <ele>2277.60009765625</ele>
        <time>2018-05-01T06:59:43.000Z</time>
      </trkpt>
      <trkpt lat="42.7059926278889179229736328125" lon="1.30027282051742076873779296875">
        <ele>2278.800048828125</ele>
        <time>2018-05-01T07:00:25.000Z</time>
      </trkpt>
      <trkpt lat="42.70595557987689971923828125" lon="1.30016536451876163482666015625">
        <ele>2279.800048828125</ele>
        <time>2018-05-01T07:01:47.000Z</time>
      </trkpt>
      <trkpt lat="42.7059319429099559783935546875" lon="1.29998951219022274017333984375">
        <ele>2283</ele>
        <time>2018-05-01T07:02:20.000Z</time>
      </trkpt>
      <trkpt lat="42.70590738393366336822509765625" lon="1.29987266846001148223876953125">
        <ele>2286.199951171875</ele>
        <time>2018-05-01T07:02:36.000Z</time>
      </trkpt>
      <trkpt lat="42.70586363039910793304443359375" lon="1.2998160906136035919189453125">
        <ele>2289.199951171875</ele>
        <time>2018-05-01T07:02:51.000Z</time>
      </trkpt>
      <trkpt lat="42.70579255186021327972412109375" lon="1.299891360104084014892578125">
        <ele>2290.60009765625</ele>
        <time>2018-05-01T07:03:12.000Z</time>
      </trkpt>
      <trkpt lat="42.70568861626088619232177734375" lon="1.3000063598155975341796875">
        <ele>2293.800048828125</ele>
        <time>2018-05-01T07:03:32.000Z</time>
      </trkpt>
      <trkpt lat="42.70562524907290935516357421875" lon="1.30007148720324039459228515625">
        <ele>2296.800048828125</ele>
        <time>2018-05-01T07:03:46.000Z</time>
      </trkpt>
      <trkpt lat="42.70553313195705413818359375" lon="1.3001305796205997467041015625">
        <ele>2299.39990234375</ele>
        <time>2018-05-01T07:04:04.000Z</time>
      </trkpt>
      <trkpt lat="42.705440260469913482666015625" lon="1.30017743445932865142822265625">
        <ele>2301.60009765625</ele>
        <time>2018-05-01T07:04:18.000Z</time>
      </trkpt>
      <trkpt lat="42.705324590206146240234375" lon="1.30017600953578948974609375">
        <ele>2304.800048828125</ele>
        <time>2018-05-01T07:04:39.000Z</time>
      </trkpt>
      <trkpt lat="42.705231718719005584716796875" lon="1.30015589296817779541015625">
        <ele>2307.800048828125</ele>
        <time>2018-05-01T07:04:58.000Z</time>
      </trkpt>
      <trkpt lat="42.7051128633320331573486328125" lon="1.30009897984564304351806640625">
        <ele>2310.800048828125</ele>
        <time>2018-05-01T07:05:20.000Z</time>
      </trkpt>
      <trkpt lat="42.7051443792879581451416015625" lon="1.29998649470508098602294921875">
        <ele>2314</ele>
        <time>2018-05-01T07:05:44.000Z</time>
      </trkpt>
      <trkpt lat="42.70518402568995952606201171875" lon="1.29986160434782505035400390625">
        <ele>2317</ele>
        <time>2018-05-01T07:06:00.000Z</time>
      </trkpt>
      <trkpt lat="42.7051889710128307342529296875" lon="1.2997362948954105377197265625">
        <ele>2320</ele>
        <time>2018-05-01T07:06:18.000Z</time>
      </trkpt>
      <trkpt lat="42.70514932461082935333251953125" lon="1.29958785139024257659912109375">
        <ele>2323</ele>
        <time>2018-05-01T07:06:36.000Z</time>
      </trkpt>
      <trkpt lat="42.705146558582782745361328125" lon="1.29956253804266452789306640625">
        <ele>2323.199951171875</ele>
        <time>2018-05-01T07:06:38.000Z</time>
      </trkpt>
      <trkpt lat="42.70510934293270111083984375" lon="1.29937008954584598541259765625">
        <ele>2326.199951171875</ele>
        <time>2018-05-01T07:06:59.000Z</time>
      </trkpt>
      <trkpt lat="42.7050907351076602935791015625" lon="1.29919297993183135986328125">
        <ele>2329.60009765625</ele>
        <time>2018-05-01T07:07:20.000Z</time>
      </trkpt>
      <trkpt lat="42.70504136569797992706298828125" lon="1.2991802394390106201171875">
        <ele>2332.60009765625</ele>
        <time>2018-05-01T07:07:35.000Z</time>
      </trkpt>
      <trkpt lat="42.7049505896866321563720703125" lon="1.2991884537041187286376953125">
        <ele>2335.60009765625</ele>
        <time>2018-05-01T07:07:52.000Z</time>
      </trkpt>
      <trkpt lat="42.704936675727367401123046875" lon="1.29899877123534679412841796875">
        <ele>2338.60009765625</ele>
        <time>2018-05-01T07:08:16.000Z</time>
      </trkpt>
      <trkpt lat="42.70490172319114208221435546875" lon="1.298810429871082305908203125">
        <ele>2341.60009765625</ele>
        <time>2018-05-01T07:08:39.000Z</time>
      </trkpt>
      <trkpt lat="42.70486970432102680206298828125" lon="1.29856173880398273468017578125">
        <ele>2344.60009765625</ele>
        <time>2018-05-01T07:09:05.000Z</time>
      </trkpt>
      <trkpt lat="42.70484489388763904571533203125" lon="1.29834481514990329742431640625">
        <ele>2347.60009765625</ele>
        <time>2018-05-01T07:09:27.000Z</time>
      </trkpt>
      <trkpt lat="42.70483843982219696044921875" lon="1.2982030771672725677490234375">
        <ele>2349.39990234375</ele>
        <time>2018-05-01T07:09:39.000Z</time>
      </trkpt>
      <trkpt lat="42.70483919419348239898681640625" lon="1.29819243215024471282958984375">
        <ele>2349.60009765625</ele>
        <time>2018-05-01T07:09:40.000Z</time>
      </trkpt>
      <trkpt lat="42.7048329077661037445068359375" lon="1.2981900013983249664306640625">
        <ele>2350</ele>
        <time>2018-05-01T07:11:03.000Z</time>
      </trkpt>
      <trkpt lat="42.70480466075241565704345703125" lon="1.29809855483472347259521484375">
        <ele>2351.199951171875</ele>
        <time>2018-05-01T07:11:41.000Z</time>
      </trkpt>
      <trkpt lat="42.704800553619861602783203125" lon="1.29808682017028331756591796875">
        <ele>2351.39990234375</ele>
        <time>2018-05-01T07:11:42.000Z</time>
      </trkpt>
      <trkpt lat="42.70475051365792751312255859375" lon="1.29783586598932743072509765625">
        <ele>2353.800048828125</ele>
        <time>2018-05-01T07:12:05.000Z</time>
      </trkpt>
      <trkpt lat="42.70469971932470798492431640625" lon="1.29759010858833789825439453125">
        <ele>2355.800048828125</ele>
        <time>2018-05-01T07:12:27.000Z</time>
      </trkpt>
      <trkpt lat="42.70467390306293964385986328125" lon="1.2973424233496189117431640625">
        <ele>2358.39990234375</ele>
        <time>2018-05-01T07:12:49.000Z</time>
      </trkpt>
      <trkpt lat="42.70466811954975128173828125" lon="1.2972622923552989959716796875">
        <ele>2359.199951171875</ele>
        <time>2018-05-01T07:12:55.000Z</time>
      </trkpt>
      <trkpt lat="42.70462654531002044677734375" lon="1.29701410420238971710205078125">
        <ele>2361</ele>
        <time>2018-05-01T07:13:16.000Z</time>
      </trkpt>
      <trkpt lat="42.70457600243389606475830078125" lon="1.2967724539339542388916015625">
        <ele>2363.39990234375</ele>
        <time>2018-05-01T07:13:38.000Z</time>
      </trkpt>
      <trkpt lat="42.70454817451536655426025390625" lon="1.2966267764568328857421875">
        <ele>2366.39990234375</ele>
        <time>2018-05-01T07:13:56.000Z</time>
      </trkpt>
      <trkpt lat="42.70450458861887454986572265625" lon="1.2964800931513309478759765625">
        <ele>2369.39990234375</ele>
        <time>2018-05-01T07:14:17.000Z</time>
      </trkpt>
      <trkpt lat="42.704484052956104278564453125" lon="1.29641018807888031005859375">
        <ele>2371</ele>
        <time>2018-05-01T07:14:25.000Z</time>
      </trkpt>
      <trkpt lat="42.70448044873774051666259765625" lon="1.29639920778572559356689453125">
        <ele>2371</ele>
        <time>2018-05-01T07:14:26.000Z</time>
      </trkpt>
      <trkpt lat="42.70443971268832683563232421875" lon="1.29626995883882045745849609375">
        <ele>2374.199951171875</ele>
        <time>2018-05-01T07:14:46.000Z</time>
      </trkpt>
      <trkpt lat="42.70439185202121734619140625" lon="1.296069882810115814208984375">
        <ele>2377.199951171875</ele>
        <time>2018-05-01T07:15:11.000Z</time>
      </trkpt>
      <trkpt lat="42.704351954162120819091796875" lon="1.2959288991987705230712890625">
        <ele>2380.39990234375</ele>
        <time>2018-05-01T07:15:30.000Z</time>
      </trkpt>
      <trkpt lat="42.70432211458683013916015625" lon="1.29581079818308353424072265625">
        <ele>2383.39990234375</ele>
        <time>2018-05-01T07:15:48.000Z</time>
      </trkpt>
      <trkpt lat="42.704276852309703826904296875" lon="1.2956995703279972076416015625">
        <ele>2386.60009765625</ele>
        <time>2018-05-01T07:16:32.000Z</time>
      </trkpt>
      <trkpt lat="42.70425447262823581695556640625" lon="1.29563930444419384002685546875">
        <ele>2387.800048828125</ele>
        <time>2018-05-01T07:16:40.000Z</time>
      </trkpt>
      <trkpt lat="42.70419009961187839508056640625" lon="1.2955795414745807647705078125">
        <ele>2391</ele>
        <time>2018-05-01T07:16:55.000Z</time>
      </trkpt>
      <trkpt lat="42.7041402272880077362060546875" lon="1.29550360143184661865234375">
        <ele>2393.199951171875</ele>
        <time>2018-05-01T07:18:24.000Z</time>
      </trkpt>
      <trkpt lat="42.70405481569468975067138671875" lon="1.295361109077930450439453125">
        <ele>2395.60009765625</ele>
        <time>2018-05-01T07:19:51.000Z</time>
      </trkpt>
      <trkpt lat="42.7040212042629718780517578125" lon="1.29532565362751483917236328125">
        <ele>2396</ele>
        <time>2018-05-01T07:23:05.000Z</time>
      </trkpt>
      <trkpt lat="42.70398474298417568206787109375" lon="1.2953126616775989532470703125">
        <ele>2398</ele>
        <time>2018-05-01T07:24:22.000Z</time>
      </trkpt>
      <trkpt lat="42.70393411628901958465576171875" lon="1.2954226322472095489501953125">
        <ele>2401.199951171875</ele>
        <time>2018-05-01T07:24:45.000Z</time>
      </trkpt>
      <trkpt lat="42.7038830704987049102783203125" lon="1.29555732943117618560791015625">
        <ele>2404.199951171875</ele>
        <time>2018-05-01T07:25:03.000Z</time>
      </trkpt>
      <trkpt lat="42.70381450653076171875" lon="1.2956807948648929595947265625">
        <ele>2407.199951171875</ele>
        <time>2018-05-01T07:25:27.000Z</time>
      </trkpt>
      <trkpt lat="42.7037523128092288970947265625" lon="1.29570183344185352325439453125">
        <ele>2410.39990234375</ele>
        <time>2018-05-01T07:25:48.000Z</time>
      </trkpt>
      <trkpt lat="42.70376714877784252166748046875" lon="1.295688338577747344970703125">
        <ele>2409.800048828125</ele>
        <time>2018-05-01T07:26:06.000Z</time>
      </trkpt>
      <trkpt lat="42.70370730198919773101806640625" lon="1.29579789005219936370849609375">
        <ele>2412.800048828125</ele>
        <time>2018-05-01T07:26:23.000Z</time>
      </trkpt>
      <trkpt lat="42.703648544847965240478515625" lon="1.29588003270328044891357421875">
        <ele>2416</ele>
        <time>2018-05-01T07:26:35.000Z</time>
      </trkpt>
      <trkpt lat="42.70363454706966876983642578125" lon="1.29590651951730251312255859375">
        <ele>2417</ele>
        <time>2018-05-01T07:26:49.000Z</time>
      </trkpt>
      <trkpt lat="42.70355089567601680755615234375" lon="1.295824460685253143310546875">
        <ele>2420.199951171875</ele>
        <time>2018-05-01T07:27:27.000Z</time>
      </trkpt>
      <trkpt lat="42.703539915382862091064453125" lon="1.2958095408976078033447265625">
        <ele>2420.60009765625</ele>
        <time>2018-05-01T07:27:29.000Z</time>
      </trkpt>
      <trkpt lat="42.70347394980490207672119140625" lon="1.2957569025456905364990234375">
        <ele>2423.60009765625</ele>
        <time>2018-05-01T07:27:41.000Z</time>
      </trkpt>
      <trkpt lat="42.70343455485999584197998046875" lon="1.29583225585520267486572265625">
        <ele>2426.800048828125</ele>
        <time>2018-05-01T07:28:23.000Z</time>
      </trkpt>
      <trkpt lat="42.7034264244139194488525390625" lon="1.2958417274057865142822265625">
        <ele>2427</ele>
        <time>2018-05-01T07:28:24.000Z</time>
      </trkpt>
      <trkpt lat="42.7033570222556591033935546875" lon="1.29592395387589931488037109375">
        <ele>2430</ele>
        <time>2018-05-01T07:28:38.000Z</time>
      </trkpt>
      <trkpt lat="42.7033204771578311920166015625" lon="1.295824460685253143310546875">
        <ele>2433.199951171875</ele>
        <time>2018-05-01T07:28:56.000Z</time>
      </trkpt>
      <trkpt lat="42.7032876200973987579345703125" lon="1.29571013152599334716796875">
        <ele>2436.199951171875</ele>
        <time>2018-05-01T07:29:10.000Z</time>
      </trkpt>
      <trkpt lat="42.7032601274549961090087890625" lon="1.2956294976174831390380859375">
        <ele>2439.39990234375</ele>
        <time>2018-05-01T07:29:21.000Z</time>
      </trkpt>
      <trkpt lat="42.7032561041414737701416015625" lon="1.295625306665897369384765625">
        <ele>2440.800048828125</ele>
        <time>2018-05-01T07:29:24.000Z</time>
      </trkpt>
      <trkpt lat="42.70320170558989048004150390625" lon="1.29566185176372528076171875">
        <ele>2444</ele>
        <time>2018-05-01T07:29:36.000Z</time>
      </trkpt>
      <trkpt lat="42.70311067812144756317138671875" lon="1.29564869217574596405029296875">
        <ele>2446.800048828125</ele>
        <time>2018-05-01T07:29:53.000Z</time>
      </trkpt>
      <trkpt lat="42.7029709517955780029296875" lon="1.29550284706056118011474609375">
        <ele>2449.800048828125</ele>
        <time>2018-05-01T07:30:45.000Z</time>
      </trkpt>
      <trkpt lat="42.7028235979378223419189453125" lon="1.29535784013569355010986328125">
        <ele>2451.800048828125</ele>
        <time>2018-05-01T07:31:04.000Z</time>
      </trkpt>
      <trkpt lat="42.70263475365936756134033203125" lon="1.295321881771087646484375">
        <ele>2454.60009765625</ele>
        <time>2018-05-01T07:31:30.000Z</time>
      </trkpt>
      <trkpt lat="42.70254137925803661346435546875" lon="1.2952241487801074981689453125">
        <ele>2457.60009765625</ele>
        <time>2018-05-01T07:31:48.000Z</time>
      </trkpt>
      <trkpt lat="42.7025070972740650177001953125" lon="1.2951876036822795867919921875">
        <ele>2458.60009765625</ele>
        <time>2018-05-01T07:31:54.000Z</time>
      </trkpt>
      <trkpt lat="42.70242034457623958587646484375" lon="1.295087523758411407470703125">
        <ele>2461.60009765625</ele>
        <time>2018-05-01T07:32:11.000Z</time>
      </trkpt>
      <trkpt lat="42.7023277245461940765380859375" lon="1.2949928082525730133056640625">
        <ele>2464.60009765625</ele>
        <time>2018-05-01T07:32:32.000Z</time>
      </trkpt>
      <trkpt lat="42.70222689025104045867919921875" lon="1.29487370140850543975830078125">
        <ele>2467.800048828125</ele>
        <time>2018-05-01T07:32:54.000Z</time>
      </trkpt>
      <trkpt lat="42.70216503180563449859619140625" lon="1.29476842470467090606689453125">
        <ele>2471</ele>
        <time>2018-05-01T07:33:13.000Z</time>
      </trkpt>
      <trkpt lat="42.702127061784267425537109375" lon="1.2946568615734577178955078125">
        <ele>2474.199951171875</ele>
        <time>2018-05-01T07:33:29.000Z</time>
      </trkpt>
      <trkpt lat="42.70207442343235015869140625" lon="1.294546388089656829833984375">
        <ele>2477.199951171875</ele>
        <time>2018-05-01T07:34:00.000Z</time>
      </trkpt>
      <trkpt lat="42.7020222879946231842041015625" lon="1.29441638477146625518798828125">
        <ele>2480.39990234375</ele>
        <time>2018-05-01T07:34:16.000Z</time>
      </trkpt>
      <trkpt lat="42.70197593607008457183837890625" lon="1.294298954308032989501953125">
        <ele>2483.60009765625</ele>
        <time>2018-05-01T07:34:31.000Z</time>
      </trkpt>
      <trkpt lat="42.70193922333419322967529296875" lon="1.29421236924827098846435546875">
        <ele>2486.800048828125</ele>
        <time>2018-05-01T07:34:45.000Z</time>
      </trkpt>
      <trkpt lat="42.7018833160400390625" lon="1.29414162598550319671630859375">
        <ele>2490</ele>
        <time>2018-05-01T07:34:59.000Z</time>
      </trkpt>
      <trkpt lat="42.70181466825306415557861328125" lon="1.2940711341798305511474609375">
        <ele>2493</ele>
        <time>2018-05-01T07:35:14.000Z</time>
      </trkpt>
      <trkpt lat="42.70178181119263172149658203125" lon="1.2940550409257411956787109375">
        <ele>2493.800048828125</ele>
        <time>2018-05-01T07:35:19.000Z</time>
      </trkpt>
      <trkpt lat="42.70167150534689426422119140625" lon="1.29401707090437412261962890625">
        <ele>2497</ele>
        <time>2018-05-01T07:35:39.000Z</time>
      </trkpt>
      <trkpt lat="42.70167418755590915679931640625" lon="1.29403953440487384796142578125">
        <ele>2497.39990234375</ele>
        <time>2018-05-01T07:38:13.000Z</time>
      </trkpt>
      <trkpt lat="42.701536975800991058349609375" lon="1.29399511031806468963623046875">
        <ele>2500.199951171875</ele>
        <time>2018-05-01T07:39:19.000Z</time>
      </trkpt>
      <trkpt lat="42.701526582241058349609375" lon="1.29399494268000125885009765625">
        <ele>2500.39990234375</ele>
        <time>2018-05-01T07:39:20.000Z</time>
      </trkpt>
      <trkpt lat="42.70138450898230075836181640625" lon="1.29398547112941741943359375">
        <ele>2503.39990234375</ele>
        <time>2018-05-01T07:39:40.000Z</time>
      </trkpt>
      <trkpt lat="42.7012328803539276123046875" lon="1.2939065136015415191650390625">
        <ele>2506.60009765625</ele>
        <time>2018-05-01T07:40:07.000Z</time>
      </trkpt>
      <trkpt lat="42.70112500526010990142822265625" lon="1.29387960769236087799072265625">
        <ele>2509.60009765625</ele>
        <time>2018-05-01T07:40:26.000Z</time>
      </trkpt>
      <trkpt lat="42.7010489813983440399169921875" lon="1.2938642688095569610595703125">
        <ele>2512.800048828125</ele>
        <time>2018-05-01T07:40:42.000Z</time>
      </trkpt>
      <trkpt lat="42.70096801221370697021484375" lon="1.29383862018585205078125">
        <ele>2516</ele>
        <time>2018-05-01T07:40:59.000Z</time>
      </trkpt>
      <trkpt lat="42.70083532668650150299072265625" lon="1.29378371872007846832275390625">
        <ele>2519</ele>
        <time>2018-05-01T07:41:22.000Z</time>
      </trkpt>
      <trkpt lat="42.70073273219168186187744140625" lon="1.2937368638813495635986328125">
        <ele>2522.199951171875</ele>
        <time>2018-05-01T07:41:41.000Z</time>
      </trkpt>
      <trkpt lat="42.70060298033058643341064453125" lon="1.293662600219249725341796875">
        <ele>2525.199951171875</ele>
        <time>2018-05-01T07:42:06.000Z</time>
      </trkpt>
      <trkpt lat="42.70050105638802051544189453125" lon="1.2936349399387836456298828125">
        <ele>2528.199951171875</ele>
        <time>2018-05-01T07:42:25.000Z</time>
      </trkpt>
      <trkpt lat="42.70038463175296783447265625" lon="1.29363418556749820709228515625">
        <ele>2531.199951171875</ele>
        <time>2018-05-01T07:42:47.000Z</time>
      </trkpt>
      <trkpt lat="42.70024574361741542816162109375" lon="1.2935960479080677032470703125">
        <ele>2534.199951171875</ele>
        <time>2018-05-01T07:43:10.000Z</time>
      </trkpt>
      <trkpt lat="42.70006637088954448699951171875" lon="1.29357735626399517059326171875">
        <ele>2537.39990234375</ele>
        <time>2018-05-01T07:43:38.000Z</time>
      </trkpt>
      <trkpt lat="42.6999402232468128204345703125" lon="1.293575428426265716552734375">
        <ele>2540.39990234375</ele>
        <time>2018-05-01T07:44:01.000Z</time>
      </trkpt>
      <trkpt lat="42.69983871839940547943115234375" lon="1.2935744225978851318359375">
        <ele>2543.60009765625</ele>
        <time>2018-05-01T07:44:20.000Z</time>
      </trkpt>
      <trkpt lat="42.699729502201080322265625" lon="1.29359881393611431121826171875">
        <ele>2546.60009765625</ele>
        <time>2018-05-01T07:44:40.000Z</time>
      </trkpt>
      <trkpt lat="42.69962011836469173431396484375" lon="1.29363535903394222259521484375">
        <ele>2549.800048828125</ele>
        <time>2018-05-01T07:45:00.000Z</time>
      </trkpt>
      <trkpt lat="42.69953361712396144866943359375" lon="1.2936657853424549102783203125">
        <ele>2552.800048828125</ele>
        <time>2018-05-01T07:45:20.000Z</time>
      </trkpt>
      <trkpt lat="42.69942834042012691497802734375" lon="1.29371247254312038421630859375">
        <ele>2555.800048828125</ele>
        <time>2018-05-01T07:45:40.000Z</time>
      </trkpt>
      <trkpt lat="42.699366398155689239501953125" lon="1.29371532239019870758056640625">
        <ele>2559</ele>
        <time>2018-05-01T07:45:52.000Z</time>
      </trkpt>
      <trkpt lat="42.69926958717405796051025390625" lon="1.29373158328235149383544921875">
        <ele>2562</ele>
        <time>2018-05-01T07:46:10.000Z</time>
      </trkpt>
      <trkpt lat="42.69916498102247714996337890625" lon="1.29370526410639286041259765625">
        <ele>2565</ele>
        <time>2018-05-01T07:46:34.000Z</time>
      </trkpt>
      <trkpt lat="42.69908669404685497283935546875" lon="1.29370526410639286041259765625">
        <ele>2568.199951171875</ele>
        <time>2018-05-01T07:46:52.000Z</time>
      </trkpt>
      <trkpt lat="42.69898745231330394744873046875" lon="1.2936822138726711273193359375">
        <ele>2571.199951171875</ele>
        <time>2018-05-01T07:47:12.000Z</time>
      </trkpt>
      <trkpt lat="42.69889458082616329193115234375" lon="1.29366620443761348724365234375">
        <ele>2574.60009765625</ele>
        <time>2018-05-01T07:47:30.000Z</time>
      </trkpt>
      <trkpt lat="42.698828279972076416015625" lon="1.29366352222859859466552734375">
        <ele>2577.800048828125</ele>
        <time>2018-05-01T07:47:44.000Z</time>
      </trkpt>
      <trkpt lat="42.69875518977642059326171875" lon="1.29366251640021800994873046875">
        <ele>2580.800048828125</ele>
        <time>2018-05-01T07:47:59.000Z</time>
      </trkpt>
      <trkpt lat="42.698669694364070892333984375" lon="1.2936889193952083587646484375">
        <ele>2583.800048828125</ele>
        <time>2018-05-01T07:48:15.000Z</time>
      </trkpt>
      <trkpt lat="42.69848085008561611175537109375" lon="1.29365212284028530120849609375">
        <ele>2586.60009765625</ele>
        <time>2018-05-01T07:48:42.000Z</time>
      </trkpt>
      <trkpt lat="42.69843726418912410736083984375" lon="1.29363854415714740753173828125">
        <ele>2586.60009765625</ele>
        <time>2018-05-01T07:48:47.000Z</time>
      </trkpt>
      <trkpt lat="42.6983741484582424163818359375" lon="1.2936128117144107818603515625">
        <ele>2587</ele>
        <time>2018-05-01T07:48:54.000Z</time>
      </trkpt>
      <trkpt lat="42.69836517982184886932373046875" lon="1.29360803402960300445556640625">
        <ele>2587.199951171875</ele>
        <time>2018-05-01T07:48:55.000Z</time>
      </trkpt>
      <trkpt lat="42.69820910878479480743408203125" lon="1.2934699840843677520751953125">
        <ele>2588.199951171875</ele>
        <time>2018-05-01T07:49:16.000Z</time>
      </trkpt>
      <trkpt lat="42.69810852594673633575439453125" lon="1.293267644941806793212890625">
        <ele>2585.60009765625</ele>
        <time>2018-05-01T07:49:34.000Z</time>
      </trkpt>
      <trkpt lat="42.6980169117450714111328125" lon="1.2930428422987461090087890625">
        <ele>2585.39990234375</ele>
        <time>2018-05-01T07:49:48.000Z</time>
      </trkpt>
      <trkpt lat="42.69792026840150356292724609375" lon="1.29283019341528415679931640625">
        <ele>2582.800048828125</ele>
        <time>2018-05-01T07:50:02.000Z</time>
      </trkpt>
      <trkpt lat="42.69781867973506450653076171875" lon="1.2926482222974300384521484375">
        <ele>2582.199951171875</ele>
        <time>2018-05-01T07:50:17.000Z</time>
      </trkpt>
      <trkpt lat="42.6978102140128612518310546875" lon="1.2926421873271465301513671875">
        <ele>2582</ele>
        <time>2018-05-01T07:50:18.000Z</time>
      </trkpt>
      <trkpt lat="42.697773836553096771240234375" lon="1.292595081031322479248046875">
        <ele>2582</ele>
        <time>2018-05-01T07:51:44.000Z</time>
      </trkpt>
      <trkpt lat="42.69767367281019687652587890625" lon="1.29240472801029682159423828125">
        <ele>2583.60009765625</ele>
        <time>2018-05-01T07:52:17.000Z</time>
      </trkpt>
      <trkpt lat="42.69756160676479339599609375" lon="1.29219233058393001556396484375">
        <ele>2583.199951171875</ele>
        <time>2018-05-01T07:52:42.000Z</time>
      </trkpt>
      <trkpt lat="42.697543837130069732666015625" lon="1.29213809967041015625">
        <ele>2583.39990234375</ele>
        <time>2018-05-01T07:52:53.000Z</time>
      </trkpt>
      <trkpt lat="42.6975393109023571014404296875" lon="1.29212276078760623931884765625">
        <ele>2583.199951171875</ele>
        <time>2018-05-01T07:52:54.000Z</time>
      </trkpt>
      <trkpt lat="42.69753671251237392425537109375" lon="1.2921094335615634918212890625">
        <ele>2583</ele>
        <time>2018-05-01T07:52:55.000Z</time>
      </trkpt>
      <trkpt lat="42.69753403030335903167724609375" lon="1.292095519602298736572265625">
        <ele>2583.199951171875</ele>
        <time>2018-05-01T07:52:56.000Z</time>
      </trkpt>
      <trkpt lat="42.69753168337047100067138671875" lon="1.29208202473819255828857421875">
        <ele>2583.39990234375</ele>
        <time>2018-05-01T07:52:57.000Z</time>
      </trkpt>
      <trkpt lat="42.69752950407564640045166015625" lon="1.29206928424537181854248046875">
        <ele>2583.800048828125</ele>
        <time>2018-05-01T07:52:58.000Z</time>
      </trkpt>
      <trkpt lat="42.69751424901187419891357421875" lon="1.29201765172183513641357421875">
        <ele>2584</ele>
        <time>2018-05-01T07:53:02.000Z</time>
      </trkpt>
      <trkpt lat="42.69750930368900299072265625" lon="1.29200558178126811981201171875">
        <ele>2584</ele>
        <time>2018-05-01T07:53:03.000Z</time>
      </trkpt>
      <trkpt lat="42.69743864424526691436767578125" lon="1.291785053908824920654296875">
        <ele>2584.800048828125</ele>
        <time>2018-05-01T07:53:20.000Z</time>
      </trkpt>
      <trkpt lat="42.69740059040486812591552734375" lon="1.29169276915490627288818359375">
        <ele>2587.800048828125</ele>
        <time>2018-05-01T07:53:33.000Z</time>
      </trkpt>
      <trkpt lat="42.69731123931705951690673828125" lon="1.2914677150547504425048828125">
        <ele>2590</ele>
        <time>2018-05-01T07:54:03.000Z</time>
      </trkpt>
      <trkpt lat="42.69728776998817920684814453125" lon="1.29141247831284999847412109375">
        <ele>2591.199951171875</ele>
        <time>2018-05-01T07:54:10.000Z</time>
      </trkpt>
      <trkpt lat="42.69726379774510860443115234375" lon="1.29126562736928462982177734375">
        <ele>2594.199951171875</ele>
        <time>2018-05-01T07:54:25.000Z</time>
      </trkpt>
      <trkpt lat="42.697232030332088470458984375" lon="1.29101215861737728118896484375">
        <ele>2595.199951171875</ele>
        <time>2018-05-01T07:54:50.000Z</time>
      </trkpt>
      <trkpt lat="42.6972157694399356842041015625" lon="1.290940828621387481689453125">
        <ele>2596</ele>
        <time>2018-05-01T07:54:57.000Z</time>
      </trkpt>
      <trkpt lat="42.69719540141522884368896484375" lon="1.29073957912623882293701171875">
        <ele>2599.199951171875</ele>
        <time>2018-05-01T07:55:20.000Z</time>
      </trkpt>
      <trkpt lat="42.69719540141522884368896484375" lon="1.2907264195382595062255859375">
        <ele>2599.39990234375</ele>
        <time>2018-05-01T07:55:21.000Z</time>
      </trkpt>
      <trkpt lat="42.697173692286014556884765625" lon="1.2905302830040454864501953125">
        <ele>2602.39990234375</ele>
        <time>2018-05-01T07:55:44.000Z</time>
      </trkpt>
      <trkpt lat="42.6971371471881866455078125" lon="1.29036842845380306243896484375">
        <ele>2605.39990234375</ele>
        <time>2018-05-01T07:56:06.000Z</time>
      </trkpt>
      <trkpt lat="42.6971235685050487518310546875" lon="1.290188133716583251953125">
        <ele>2608.60009765625</ele>
        <time>2018-05-01T07:56:28.000Z</time>
      </trkpt>
      <trkpt lat="42.69710252992808818817138671875" lon="1.29009425640106201171875">
        <ele>2611.60009765625</ele>
        <time>2018-05-01T07:56:45.000Z</time>
      </trkpt>
      <trkpt lat="42.6970229856669902801513671875" lon="1.29006030969321727752685546875">
        <ele>2614.800048828125</ele>
        <time>2018-05-01T07:57:00.000Z</time>
      </trkpt>
      <trkpt lat="42.6969639770686626434326171875" lon="1.28990692086517810821533203125">
        <ele>2617.800048828125</ele>
        <time>2018-05-01T07:57:24.000Z</time>
      </trkpt>
      <trkpt lat="42.69696347415447235107421875" lon="1.28989183343946933746337890625">
        <ele>2618.199951171875</ele>
        <time>2018-05-01T07:57:25.000Z</time>
      </trkpt>
      <trkpt lat="42.6969609595835208892822265625" lon="1.28987037576735019683837890625">
        <ele>2618.39990234375</ele>
        <time>2018-05-01T07:57:27.000Z</time>
      </trkpt>
      <trkpt lat="42.69697914831340312957763671875" lon="1.28970726393163204193115234375">
        <ele>2621.60009765625</ele>
        <time>2018-05-01T07:57:49.000Z</time>
      </trkpt>
      <trkpt lat="42.69698954187333583831787109375" lon="1.2896454893052577972412109375">
        <ele>2624.800048828125</ele>
        <time>2018-05-01T07:58:45.000Z</time>
      </trkpt>
      <trkpt lat="42.6969713531434535980224609375" lon="1.28962227143347263336181640625">
        <ele>2624</ele>
        <time>2018-05-01T07:59:47.000Z</time>
      </trkpt>
      <trkpt lat="42.69699390046298503875732421875" lon="1.2895911745727062225341796875">
        <ele>2624.800048828125</ele>
        <time>2018-05-01T08:00:00.000Z</time>
      </trkpt>
      <trkpt lat="42.69705827347934246063232421875" lon="1.2894979678094387054443359375">
        <ele>2625.199951171875</ele>
        <time>2018-05-01T08:00:17.000Z</time>
      </trkpt>
      <trkpt lat="42.69706950522959232330322265625" lon="1.28947877325117588043212890625">
        <ele>2624.60009765625</ele>
        <time>2018-05-01T08:00:19.000Z</time>
      </trkpt>
      <trkpt lat="42.69707973115146160125732421875" lon="1.28947055898606777191162109375">
        <ele>2624.39990234375</ele>
        <time>2018-05-01T08:00:20.000Z</time>
      </trkpt>
      <trkpt lat="42.69708610139787197113037109375" lon="1.28946192562580108642578125">
        <ele>2624.39990234375</ele>
        <time>2018-05-01T08:00:21.000Z</time>
      </trkpt>
      <trkpt lat="42.6970970816910266876220703125" lon="1.289454214274883270263671875">
        <ele>2624.39990234375</ele>
        <time>2018-05-01T08:00:22.000Z</time>
      </trkpt>
      <trkpt lat="42.69711175002157688140869140625" lon="1.28944843076169490814208984375">
        <ele>2624.39990234375</ele>
        <time>2018-05-01T08:00:23.000Z</time>
      </trkpt>
      <trkpt lat="42.6971225626766681671142578125" lon="1.28944373689591884613037109375">
        <ele>2624.199951171875</ele>
        <time>2018-05-01T08:00:24.000Z</time>
      </trkpt>
      <trkpt lat="42.6971316151320934295654296875" lon="1.28944105468690395355224609375">
        <ele>2624.199951171875</ele>
        <time>2018-05-01T08:00:25.000Z</time>
      </trkpt>
      <trkpt lat="42.69714192487299442291259765625" lon="1.28943778574466705322265625">
        <ele>2624.39990234375</ele>
        <time>2018-05-01T08:00:26.000Z</time>
      </trkpt>
      <trkpt lat="42.697294391691684722900390625" lon="1.2892964668571949005126953125">
        <ele>2625.199951171875</ele>
        <time>2018-05-01T08:00:50.000Z</time>
      </trkpt>
      <trkpt lat="42.69744015298783779144287109375" lon="1.28914902918040752410888671875">
        <ele>2627</ele>
        <time>2018-05-01T08:01:19.000Z</time>
      </trkpt>
      <trkpt lat="42.69756160676479339599609375" lon="1.28900921903550624847412109375">
        <ele>2627.39990234375</ele>
        <time>2018-05-01T08:02:15.000Z</time>
      </trkpt>
      <trkpt lat="42.6975989900529384613037109375" lon="1.28897099755704402923583984375">
        <ele>2627</ele>
        <time>2018-05-01T08:02:19.000Z</time>
      </trkpt>
      <trkpt lat="42.69771608524024486541748046875" lon="1.28887049853801727294921875">
        <ele>2625</ele>
        <time>2018-05-01T08:02:30.000Z</time>
      </trkpt>
      <trkpt lat="42.6977210305631160736083984375" lon="1.2888653017580509185791015625">
        <ele>2625.199951171875</ele>
        <time>2018-05-01T08:02:31.000Z</time>
      </trkpt>
      <trkpt lat="42.6978655345737934112548828125" lon="1.28875642083585262298583984375">
        <ele>2622</ele>
        <time>2018-05-01T08:02:44.000Z</time>
      </trkpt>
      <trkpt lat="42.69800257869064807891845703125" lon="1.288575790822505950927734375">
        <ele>2620.60009765625</ele>
        <time>2018-05-01T08:03:03.000Z</time>
      </trkpt>
      <trkpt lat="42.6981414668262004852294921875" lon="1.28841058351099491119384765625">
        <ele>2623.39990234375</ele>
        <time>2018-05-01T08:03:21.000Z</time>
      </trkpt>
      <trkpt lat="42.6982551254332065582275390625" lon="1.28824546001851558685302734375">
        <ele>2624</ele>
        <time>2018-05-01T08:03:39.000Z</time>
      </trkpt>
      <trkpt lat="42.69826124422252178192138671875" lon="1.28823858685791492462158203125">
        <ele>2623.800048828125</ele>
        <time>2018-05-01T08:03:40.000Z</time>
      </trkpt>
      <trkpt lat="42.698267363011837005615234375" lon="1.288231797516345977783203125">
        <ele>2623.800048828125</ele>
        <time>2018-05-01T08:03:41.000Z</time>
      </trkpt>
      <trkpt lat="42.69827373325824737548828125" lon="1.28822400234639644622802734375">
        <ele>2623.800048828125</ele>
        <time>2018-05-01T08:03:42.000Z</time>
      </trkpt>
      <trkpt lat="42.69828052259981632232666015625" lon="1.28821880556643009185791015625">
        <ele>2623.60009765625</ele>
        <time>2018-05-01T08:03:43.000Z</time>
      </trkpt>
      <trkpt lat="42.69830483011901378631591796875" lon="1.28818041644990444183349609375">
        <ele>2623</ele>
        <time>2018-05-01T08:03:49.000Z</time>
      </trkpt>
      <trkpt lat="42.698369286954402923583984375" lon="1.2879456393420696258544921875">
        <ele>2622</ele>
        <time>2018-05-01T08:04:08.000Z</time>
      </trkpt>
      <trkpt lat="42.6984381861984729766845703125" lon="1.28777925856411457061767578125">
        <ele>2623</ele>
        <time>2018-05-01T08:04:20.000Z</time>
      </trkpt>
      <trkpt lat="42.69844212569296360015869140625" lon="1.28776299767196178436279296875">
        <ele>2622.800048828125</ele>
        <time>2018-05-01T08:04:21.000Z</time>
      </trkpt>
      <trkpt lat="42.69844832830131053924560546875" lon="1.28773785196244716644287109375">
        <ele>2622.60009765625</ele>
        <time>2018-05-01T08:04:22.000Z</time>
      </trkpt>
      <trkpt lat="42.698457129299640655517578125" lon="1.2877072580158710479736328125">
        <ele>2622.199951171875</ele>
        <time>2018-05-01T08:04:23.000Z</time>
      </trkpt>
      <trkpt lat="42.698465846478939056396484375" lon="1.2876747362315654754638671875">
        <ele>2621.800048828125</ele>
        <time>2018-05-01T08:04:24.000Z</time>
      </trkpt>
      <trkpt lat="42.69855829887092113494873046875" lon="1.287437193095684051513671875">
        <ele>2619.800048828125</ele>
        <time>2018-05-01T08:04:38.000Z</time>
      </trkpt>
      <trkpt lat="42.69867162220180034637451171875" lon="1.287220604717731475830078125">
        <ele>2617.800048828125</ele>
        <time>2018-05-01T08:04:55.000Z</time>
      </trkpt>
      <trkpt lat="42.69873415119946002960205078125" lon="1.28710091114044189453125">
        <ele>2616.800048828125</ele>
        <time>2018-05-01T08:05:08.000Z</time>
      </trkpt>
      <trkpt lat="42.69885099492967128753662109375" lon="1.28691793419420719146728515625">
        <ele>2616.199951171875</ele>
        <time>2018-05-01T08:05:28.000Z</time>
      </trkpt>
      <trkpt lat="42.69887681119143962860107421875" lon="1.2868298403918743133544921875">
        <ele>2618.60009765625</ele>
        <time>2018-05-01T08:05:37.000Z</time>
      </trkpt>
      <trkpt lat="42.6988790743052959442138671875" lon="1.2868177704513072967529296875">
        <ele>2618.39990234375</ele>
        <time>2018-05-01T08:05:38.000Z</time>
      </trkpt>
      <trkpt lat="42.698880918323993682861328125" lon="1.2868046946823596954345703125">
        <ele>2618</ele>
        <time>2018-05-01T08:05:39.000Z</time>
      </trkpt>
      <trkpt lat="42.69888586364686489105224609375" lon="1.28678952343761920928955078125">
        <ele>2617.800048828125</ele>
        <time>2018-05-01T08:05:40.000Z</time>
      </trkpt>
      <trkpt lat="42.69889374263584613800048828125" lon="1.28677242435514926910400390625">
        <ele>2616.800048828125</ele>
        <time>2018-05-01T08:05:41.000Z</time>
      </trkpt>
      <trkpt lat="42.69900061190128326416015625" lon="1.28655231557786464691162109375">
        <ele>2615.199951171875</ele>
        <time>2018-05-01T08:06:00.000Z</time>
      </trkpt>
      <trkpt lat="42.6990879513323307037353515625" lon="1.28639691509306430816650390625">
        <ele>2617.39990234375</ele>
        <time>2018-05-01T08:06:16.000Z</time>
      </trkpt>
      <trkpt lat="42.69916783086955547332763671875" lon="1.286159120500087738037109375">
        <ele>2618.800048828125</ele>
        <time>2018-05-01T08:06:38.000Z</time>
      </trkpt>
      <trkpt lat="42.6992160268127918243408203125" lon="1.28594328649342060089111328125">
        <ele>2618.800048828125</ele>
        <time>2018-05-01T08:07:07.000Z</time>
      </trkpt>
      <trkpt lat="42.6992679946124553680419921875" lon="1.28572820685803890228271484375">
        <ele>2617.39990234375</ele>
        <time>2018-05-01T08:08:13.000Z</time>
      </trkpt>
      <trkpt lat="42.699368409812450408935546875" lon="1.28551480360329151153564453125">
        <ele>2616.800048828125</ele>
        <time>2018-05-01T08:08:30.000Z</time>
      </trkpt>
      <trkpt lat="42.699480392038822174072265625" lon="1.28531632013618946075439453125">
        <ele>2617</ele>
        <time>2018-05-01T08:08:50.000Z</time>
      </trkpt>
      <trkpt lat="42.699560187757015228271484375" lon="1.28511699847877025604248046875">
        <ele>2619</ele>
        <time>2018-05-01T08:09:25.000Z</time>
      </trkpt>
      <trkpt lat="42.69952573813498020172119140625" lon="1.28499747253954410552978515625">
        <ele>2622</ele>
        <time>2018-05-01T08:09:39.000Z</time>
      </trkpt>
      <trkpt lat="42.69952632486820220947265625" lon="1.2849154137074947357177734375">
        <ele>2623.199951171875</ele>
        <time>2018-05-01T08:09:47.000Z</time>
      </trkpt>
      <trkpt lat="42.69961525686085224151611328125" lon="1.28486202098429203033447265625">
        <ele>2623</ele>
        <time>2018-05-01T08:11:50.000Z</time>
      </trkpt>
      <trkpt lat="42.69966202788054943084716796875" lon="1.28481742925941944122314453125">
        <ele>2624.39990234375</ele>
        <time>2018-05-01T08:11:57.000Z</time>
      </trkpt>
      <trkpt lat="42.69971198402345180511474609375" lon="1.28470678813755512237548828125">
        <ele>2627.60009765625</ele>
        <time>2018-05-01T08:12:12.000Z</time>
      </trkpt>
      <trkpt lat="42.69974467344582080841064453125" lon="1.28458692692220211029052734375">
        <ele>2629.60009765625</ele>
        <time>2018-05-01T08:12:25.000Z</time>
      </trkpt>
      <trkpt lat="42.69976981915533542633056640625" lon="1.284439824521541595458984375">
        <ele>2631.800048828125</ele>
        <time>2018-05-01T08:12:42.000Z</time>
      </trkpt>
      <trkpt lat="42.6997844874858856201171875" lon="1.28439514897763729095458984375">
        <ele>2632.800048828125</ele>
        <time>2018-05-01T08:12:47.000Z</time>
      </trkpt>
      <trkpt lat="42.6998517103493213653564453125" lon="1.28420479595661163330078125">
        <ele>2636.199951171875</ele>
        <time>2018-05-01T08:13:11.000Z</time>
      </trkpt>
      <trkpt lat="42.6999120600521564483642578125" lon="1.2841080687940120697021484375">
        <ele>2639.39990234375</ele>
        <time>2018-05-01T08:13:27.000Z</time>
      </trkpt>
      <trkpt lat="42.69996796734631061553955078125" lon="1.28398208878934383392333984375">
        <ele>2642.39990234375</ele>
        <time>2018-05-01T08:13:45.000Z</time>
      </trkpt>
      <trkpt lat="42.6999955438077449798583984375" lon="1.28385334275662899017333984375">
        <ele>2645.60009765625</ele>
        <time>2018-05-01T08:14:04.000Z</time>
      </trkpt>
      <trkpt lat="42.70001490600407123565673828125" lon="1.28374203108251094818115234375">
        <ele>2648.60009765625</ele>
        <time>2018-05-01T08:14:22.000Z</time>
      </trkpt>
      <trkpt lat="42.70003301091492176055908203125" lon="1.28360037691891193389892578125">
        <ele>2651.800048828125</ele>
        <time>2018-05-01T08:14:45.000Z</time>
      </trkpt>
      <trkpt lat="42.70007341168820858001708984375" lon="1.28347934223711490631103515625">
        <ele>2654.800048828125</ele>
        <time>2018-05-01T08:15:05.000Z</time>
      </trkpt>
      <trkpt lat="42.70005094818770885467529296875" lon="1.28336451016366481781005859375">
        <ele>2658</ele>
        <time>2018-05-01T08:15:22.000Z</time>
      </trkpt>
      <trkpt lat="42.7000394649803638458251953125" lon="1.28320156596601009368896484375">
        <ele>2661</ele>
        <time>2018-05-01T08:15:43.000Z</time>
      </trkpt>
      <trkpt lat="42.70010408945381641387939453125" lon="1.2831753306090831756591796875">
        <ele>2662.39990234375</ele>
        <time>2018-05-01T08:15:54.000Z</time>
      </trkpt>
      <trkpt lat="42.7001564763486385345458984375" lon="1.28316602669656276702880859375">
        <ele>2663.60009765625</ele>
        <time>2018-05-01T08:16:02.000Z</time>
      </trkpt>
      <trkpt lat="42.7002651058137416839599609375" lon="1.28315127454698085784912109375">
        <ele>2666.800048828125</ele>
        <time>2018-05-01T08:16:19.000Z</time>
      </trkpt>
      <trkpt lat="42.70030793733894824981689453125" lon="1.28308723680675029754638671875">
        <ele>2670.39990234375</ele>
        <time>2018-05-01T08:16:29.000Z</time>
      </trkpt>
      <trkpt lat="42.70031095482409000396728515625" lon="1.28308229148387908935546875">
        <ele>2670.39990234375</ele>
        <time>2018-05-01T08:16:30.000Z</time>
      </trkpt>
      <trkpt lat="42.70037935115396976470947265625" lon="1.28302906639873981475830078125">
        <ele>2670.60009765625</ele>
        <time>2018-05-01T08:16:44.000Z</time>
      </trkpt>
      <trkpt lat="42.70042343996465206146240234375" lon="1.282969973981380462646484375">
        <ele>2671.199951171875</ele>
        <time>2018-05-01T08:16:54.000Z</time>
      </trkpt>
      <trkpt lat="42.70044498145580291748046875" lon="1.28293535672128200531005859375">
        <ele>2671.60009765625</ele>
        <time>2018-05-01T08:16:59.000Z</time>
      </trkpt>
      <trkpt lat="42.7004578895866870880126953125" lon="1.28292672336101531982421875">
        <ele>2672</ele>
        <time>2018-05-01T08:17:01.000Z</time>
      </trkpt>
      <trkpt lat="42.70048110745847225189208984375" lon="1.28291741944849491119384765625">
        <ele>2672.800048828125</ele>
        <time>2018-05-01T08:17:04.000Z</time>
      </trkpt>
      <trkpt lat="42.70053273998200893402099609375" lon="1.2829101271927356719970703125">
        <ele>2674</ele>
        <time>2018-05-01T08:17:11.000Z</time>
      </trkpt>
      <trkpt lat="42.7006536908447742462158203125" lon="1.28289126791059970855712890625">
        <ele>2677.199951171875</ele>
        <time>2018-05-01T08:17:36.000Z</time>
      </trkpt>
      <trkpt lat="42.7008193172514438629150390625" lon="1.282818429172039031982421875">
        <ele>2679.60009765625</ele>
        <time>2018-05-01T08:18:34.000Z</time>
      </trkpt>
      <trkpt lat="42.70097631029784679412841796875" lon="1.282725892961025238037109375">
        <ele>2682</ele>
        <time>2018-05-01T08:18:55.000Z</time>
      </trkpt>
      <trkpt lat="42.70098351873457431793212890625" lon="1.282727904617786407470703125">
        <ele>2682.199951171875</ele>
        <time>2018-05-01T08:18:56.000Z</time>
      </trkpt>
      <trkpt lat="42.70105929113924503326416015625" lon="1.28273301757872104644775390625">
        <ele>2685.60009765625</ele>
        <time>2018-05-01T08:19:10.000Z</time>
      </trkpt>
      <trkpt lat="42.7010858617722988128662109375" lon="1.2826905213296413421630859375">
        <ele>2687</ele>
        <time>2018-05-01T08:19:16.000Z</time>
      </trkpt>
      <trkpt lat="42.7011975087225437164306640625" lon="1.282729916274547576904296875">
        <ele>2689.39990234375</ele>
        <time>2018-05-01T08:19:35.000Z</time>
      </trkpt>
      <trkpt lat="42.701328098773956298828125" lon="1.2826633639633655548095703125">
        <ele>2692.39990234375</ele>
        <time>2018-05-01T08:20:00.000Z</time>
      </trkpt>
      <trkpt lat="42.701333463191986083984375" lon="1.28265447914600372314453125">
        <ele>2692.800048828125</ele>
        <time>2018-05-01T08:20:01.000Z</time>
      </trkpt>
      <trkpt lat="42.70141032524406909942626953125" lon="1.2826605141162872314453125">
        <ele>2695.800048828125</ele>
        <time>2018-05-01T08:20:15.000Z</time>
      </trkpt>
      <trkpt lat="42.70151375792920589447021484375" lon="1.282776854932308197021484375">
        <ele>2699</ele>
        <time>2018-05-01T08:20:39.000Z</time>
      </trkpt>
      <trkpt lat="42.70155114121735095977783203125" lon="1.2827706523239612579345703125">
        <ele>2702.39990234375</ele>
        <time>2018-05-01T08:20:54.000Z</time>
      </trkpt>
      <trkpt lat="42.701647281646728515625" lon="1.2826217897236347198486328125">
        <ele>2705.39990234375</ele>
        <time>2018-05-01T08:21:39.000Z</time>
      </trkpt>
      <trkpt lat="42.70171022973954677581787109375" lon="1.2825252301990985870361328125">
        <ele>2708.60009765625</ele>
        <time>2018-05-01T08:21:53.000Z</time>
      </trkpt>
      <trkpt lat="42.70178047008812427520751953125" lon="1.28246244974434375762939453125">
        <ele>2710.60009765625</ele>
        <time>2018-05-01T08:22:04.000Z</time>
      </trkpt>
      <trkpt lat="42.7017886005342006683349609375" lon="1.282464377582073211669921875">
        <ele>2711</ele>
        <time>2018-05-01T08:22:05.000Z</time>
      </trkpt>
      <trkpt lat="42.7018764428794384002685546875" lon="1.2825800478458404541015625">
        <ele>2714.199951171875</ele>
        <time>2018-05-01T08:22:28.000Z</time>
      </trkpt>
      <trkpt lat="42.70192061550915241241455078125" lon="1.28258868120610713958740234375">
        <ele>2717.199951171875</ele>
        <time>2018-05-01T08:22:40.000Z</time>
      </trkpt>
      <trkpt lat="42.7019552327692508697509765625" lon="1.2824484519660472869873046875">
        <ele>2720.39990234375</ele>
        <time>2018-05-01T08:22:57.000Z</time>
      </trkpt>
      <trkpt lat="42.70197945646941661834716796875" lon="1.28238919191062450408935546875">
        <ele>2722.199951171875</ele>
        <time>2018-05-01T08:23:05.000Z</time>
      </trkpt>
      <trkpt lat="42.702061347663402557373046875" lon="1.2823270820081233978271484375">
        <ele>2725.39990234375</ele>
        <time>2018-05-01T08:23:25.000Z</time>
      </trkpt>
      <trkpt lat="42.70218037068843841552734375" lon="1.2823904491961002349853515625">
        <ele>2728.199951171875</ele>
        <time>2018-05-01T08:23:50.000Z</time>
      </trkpt>
      <trkpt lat="42.702279947698116302490234375" lon="1.282424814999103546142578125">
        <ele>2731.39990234375</ele>
        <time>2018-05-01T08:24:06.000Z</time>
      </trkpt>
      <trkpt lat="42.70236519165337085723876953125" lon="1.28242858685553073883056640625">
        <ele>2734.60009765625</ele>
        <time>2018-05-01T08:24:17.000Z</time>
      </trkpt>
      <trkpt lat="42.7024226076900959014892578125" lon="1.28242649137973785400390625">
        <ele>2737.60009765625</ele>
        <time>2018-05-01T08:24:25.000Z</time>
      </trkpt>
      <trkpt lat="42.70244565792381763458251953125" lon="1.28243009559810161590576171875">
        <ele>2740.39990234375</ele>
        <time>2018-05-01T08:24:29.000Z</time>
      </trkpt>
      <trkpt lat="42.702530734241008758544921875" lon="1.28239170648157596588134765625">
        <ele>2743.800048828125</ele>
        <time>2018-05-01T08:24:46.000Z</time>
      </trkpt>
      <trkpt lat="42.702538110315799713134765625" lon="1.28224502317607402801513671875">
        <ele>2743.60009765625</ele>
        <time>2018-05-01T08:27:01.000Z</time>
      </trkpt>
      <trkpt lat="42.70254020579159259796142578125" lon="1.28222641535103321075439453125">
        <ele>2743.39990234375</ele>
        <time>2018-05-01T08:27:02.000Z</time>
      </trkpt>
      <trkpt lat="42.7026194147765636444091796875" lon="1.2820677459239959716796875">
        <ele>2743.199951171875</ele>
        <time>2018-05-01T08:27:16.000Z</time>
      </trkpt>
      <trkpt lat="42.7026509307324886322021484375" lon="1.28203564323484897613525390625">
        <ele>2744</ele>
        <time>2018-05-01T08:27:21.000Z</time>
      </trkpt>
      <trkpt lat="42.70272578112781047821044921875" lon="1.282044611871242523193359375">
        <ele>2745.199951171875</ele>
        <time>2018-05-01T08:28:24.000Z</time>
      </trkpt>
      <trkpt lat="42.70274757407605648040771484375" lon="1.28200865350663661956787109375">
        <ele>2745.60009765625</ele>
        <time>2018-05-01T08:28:32.000Z</time>
      </trkpt>
      <trkpt lat="42.7028824388980865478515625" lon="1.28190622664988040924072265625">
        <ele>2747.800048828125</ele>
        <time>2018-05-01T08:29:09.000Z</time>
      </trkpt>
      <trkpt lat="42.70292275585234165191650390625" lon="1.2818939052522182464599609375">
        <ele>2751.199951171875</ele>
        <time>2018-05-01T08:29:28.000Z</time>
      </trkpt>
      <trkpt lat="42.7029318921267986297607421875" lon="1.28189767710864543914794921875">
        <ele>2754.39990234375</ele>
        <time>2018-05-01T08:29:34.000Z</time>
      </trkpt>
      <trkpt lat="42.7029214985668659210205078125" lon="1.2819066457450389862060546875">
        <ele>2751.39990234375</ele>
        <time>2018-05-01T08:29:59.000Z</time>
      </trkpt>
      <trkpt lat="42.7029027231037616729736328125" lon="1.281908489763736724853515625">
        <ele>2750.60009765625</ele>
        <time>2018-05-01T08:32:59.000Z</time>
      </trkpt>
      <trkpt lat="42.7029064111411571502685546875" lon="1.28187261521816253662109375">
        <ele>2754</ele>
        <time>2018-05-01T08:33:55.000Z</time>
      </trkpt>
      <trkpt lat="42.70289341919124126434326171875" lon="1.2818939052522182464599609375">
        <ele>2752.39990234375</ele>
        <time>2018-05-01T08:34:07.000Z</time>
      </trkpt>
      <trkpt lat="42.70290565676987171173095703125" lon="1.281903795897960662841796875">
        <ele>2751.800048828125</ele>
        <time>2018-05-01T08:34:38.000Z</time>
      </trkpt>
      <trkpt lat="42.70289811305701732635498046875" lon="1.28190253861248493194580078125">
        <ele>2752.800048828125</ele>
        <time>2018-05-01T08:34:47.000Z</time>
      </trkpt>
      <trkpt lat="42.7028997056186199188232421875" lon="1.28190220333635807037353515625">
        <ele>2753</ele>
        <time>2018-05-01T08:34:59.000Z</time>
      </trkpt>
      <trkpt lat="42.7029047347605228424072265625" lon="1.281903125345706939697265625">
        <ele>2751.60009765625</ele>
        <time>2018-05-01T08:35:13.000Z</time>
      </trkpt>
      <trkpt lat="42.70289115607738494873046875" lon="1.28189214505255222320556640625">
        <ele>2752</ele>
        <time>2018-05-01T08:35:58.000Z</time>
      </trkpt>
      <trkpt lat="42.7029012143611907958984375" lon="1.28190672956407070159912109375">
        <ele>2751.39990234375</ele>
        <time>2018-05-01T08:36:38.000Z</time>
      </trkpt>
      <trkpt lat="42.7028966881334781646728515625" lon="1.28190102986991405487060546875">
        <ele>2750.60009765625</ele>
        <time>2018-05-01T08:37:35.000Z</time>
      </trkpt>
      <trkpt lat="42.70289425738155841827392578125" lon="1.28191041760146617889404296875">
        <ele>2751.199951171875</ele>
        <time>2018-05-01T08:38:35.000Z</time>
      </trkpt>
      <trkpt lat="42.7028846181929111480712890625" lon="1.281882338225841522216796875">
        <ele>2749.199951171875</ele>
        <time>2018-05-01T08:40:59.000Z</time>
      </trkpt>
      <trkpt lat="42.70284824073314666748046875" lon="1.2819160334765911102294921875">
        <ele>2746</ele>
        <time>2018-05-01T08:41:25.000Z</time>
      </trkpt>
      <trkpt lat="42.70282200537621974945068359375" lon="1.281938664615154266357421875">
        <ele>2746</ele>
        <time>2018-05-01T08:41:41.000Z</time>
      </trkpt>
      <trkpt lat="42.70280934870243072509765625" lon="1.281947381794452667236328125">
        <ele>2745.800048828125</ele>
        <time>2018-05-01T08:41:42.000Z</time>
      </trkpt>
      <trkpt lat="42.7027950994670391082763671875" lon="1.2819562666118144989013671875">
        <ele>2745.199951171875</ele>
        <time>2018-05-01T08:41:43.000Z</time>
      </trkpt>
      <trkpt lat="42.70278395153582096099853515625" lon="1.28196288831532001495361328125">
        <ele>2744.800048828125</ele>
        <time>2018-05-01T08:41:44.000Z</time>
      </trkpt>
      <trkpt lat="42.702776491641998291015625" lon="1.2819683365523815155029296875">
        <ele>2744.60009765625</ele>
        <time>2018-05-01T08:41:45.000Z</time>
      </trkpt>
      <trkpt lat="42.702766768634319305419921875" lon="1.2819720245897769927978515625">
        <ele>2744.199951171875</ele>
        <time>2018-05-01T08:41:46.000Z</time>
      </trkpt>
      <trkpt lat="42.70275897346436977386474609375" lon="1.28197462297976016998291015625">
        <ele>2744</ele>
        <time>2018-05-01T08:41:47.000Z</time>
      </trkpt>
      <trkpt lat="42.70274992100894451141357421875" lon="1.28197931684553623199462890625">
        <ele>2743.800048828125</ele>
        <time>2018-05-01T08:41:48.000Z</time>
      </trkpt>
      <trkpt lat="42.702741958200931549072265625" lon="1.2819861061871051788330078125">
        <ele>2743.60009765625</ele>
        <time>2018-05-01T08:41:49.000Z</time>
      </trkpt>
      <trkpt lat="42.70267926156520843505859375" lon="1.28202281892299652099609375">
        <ele>2742</ele>
        <time>2018-05-01T08:43:54.000Z</time>
      </trkpt>
      <trkpt lat="42.70266115665435791015625" lon="1.28200463019311428070068359375">
        <ele>2742.199951171875</ele>
        <time>2018-05-01T08:46:08.000Z</time>
      </trkpt>
      <trkpt lat="42.70268387161195278167724609375" lon="1.281996332108974456787109375">
        <ele>2742.800048828125</ele>
        <time>2018-05-01T08:49:09.000Z</time>
      </trkpt>
      <trkpt lat="42.702658809721469879150390625" lon="1.2819837592542171478271484375">
        <ele>2742.60009765625</ele>
        <time>2018-05-01T08:49:48.000Z</time>
      </trkpt>
      <trkpt lat="42.70263223908841609954833984375" lon="1.281903125345706939697265625">
        <ele>2740.199951171875</ele>
        <time>2018-05-01T08:50:06.000Z</time>
      </trkpt>
      <trkpt lat="42.70263609476387500762939453125" lon="1.2819148600101470947265625">
        <ele>2740.199951171875</ele>
        <time>2018-05-01T08:50:07.000Z</time>
      </trkpt>
      <trkpt lat="42.702640034258365631103515625" lon="1.2819270975887775421142578125">
        <ele>2740.39990234375</ele>
        <time>2018-05-01T08:50:08.000Z</time>
      </trkpt>
      <trkpt lat="42.70264615304768085479736328125" lon="1.28193824551999568939208984375">
        <ele>2740.60009765625</ele>
        <time>2018-05-01T08:50:09.000Z</time>
      </trkpt>
      <trkpt lat="42.70268261432647705078125" lon="1.28200043924152851104736328125">
        <ele>2743.800048828125</ele>
        <time>2018-05-01T08:50:55.000Z</time>
      </trkpt>
      <trkpt lat="42.70266626961529254913330078125" lon="1.28202055580914020538330078125">
        <ele>2743.39990234375</ele>
        <time>2018-05-01T08:52:36.000Z</time>
      </trkpt>
      <trkpt lat="42.7026616595685482025146484375" lon="1.28200806677341461181640625">
        <ele>2742.199951171875</ele>
        <time>2018-05-01T08:54:59.000Z</time>
      </trkpt>
      <trkpt lat="42.7026573009788990020751953125" lon="1.28201234154403209686279296875">
        <ele>2742.199951171875</ele>
        <time>2018-05-01T08:58:24.000Z</time>
      </trkpt>
      <trkpt lat="42.7026678621768951416015625" lon="1.28201183862984180450439453125">
        <ele>2742.39990234375</ele>
        <time>2018-05-01T08:58:25.000Z</time>
      </trkpt>
      <trkpt lat="42.70273902453482151031494140625" lon="1.281941346824169158935546875">
        <ele>2743.199951171875</ele>
        <time>2018-05-01T09:00:37.000Z</time>
      </trkpt>
      <trkpt lat="42.702788896858692169189453125" lon="1.281930617988109588623046875">
        <ele>2743.199951171875</ele>
        <time>2018-05-01T09:00:43.000Z</time>
      </trkpt>
      <trkpt lat="42.70279727876186370849609375" lon="1.28192667849361896514892578125">
        <ele>2743.39990234375</ele>
        <time>2018-05-01T09:00:44.000Z</time>
      </trkpt>
      <trkpt lat="42.70284262485802173614501953125" lon="1.28190974704921245574951171875">
        <ele>2746.39990234375</ele>
        <time>2018-05-01T09:00:57.000Z</time>
      </trkpt>
      <trkpt lat="42.702889144420623779296875" lon="1.28191553056240081787109375">
        <ele>2749.60009765625</ele>
        <time>2018-05-01T09:01:53.000Z</time>
      </trkpt>
      <trkpt lat="42.70291102118790149688720703125" lon="1.28186347894370555877685546875">
        <ele>2750.60009765625</ele>
        <time>2018-05-01T09:02:20.000Z</time>
      </trkpt>
      <trkpt lat="42.70291571505367755889892578125" lon="1.28185358829796314239501953125">
        <ele>2750.60009765625</ele>
        <time>2018-05-01T09:02:21.000Z</time>
      </trkpt>
      <trkpt lat="42.70298461429774761199951171875" lon="1.28172618336975574493408203125">
        <ele>2747.60009765625</ele>
        <time>2018-05-01T09:02:50.000Z</time>
      </trkpt>
      <trkpt lat="42.70307932980358600616455078125" lon="1.2815576232969760894775390625">
        <ele>2746.39990234375</ele>
        <time>2018-05-01T09:04:16.000Z</time>
      </trkpt>
      <trkpt lat="42.703149318695068359375" lon="1.2814815156161785125732421875">
        <ele>2743.39990234375</ele>
        <time>2018-05-01T09:05:29.000Z</time>
      </trkpt>
      <trkpt lat="42.70321193151175975799560546875" lon="1.28141035325825214385986328125">
        <ele>2741.199951171875</ele>
        <time>2018-05-01T09:06:43.000Z</time>
      </trkpt>
      <trkpt lat="42.70328803919255733489990234375" lon="1.28132653422653675079345703125">
        <ele>2741.199951171875</ele>
        <time>2018-05-01T09:08:21.000Z</time>
      </trkpt>
      <trkpt lat="42.70329776220023632049560546875" lon="1.28134011290967464447021484375">
        <ele>2741.199951171875</ele>
        <time>2018-05-01T09:08:33.000Z</time>
      </trkpt>
      <trkpt lat="42.7033008635044097900390625" lon="1.2813282944262027740478515625">
        <ele>2740.800048828125</ele>
        <time>2018-05-01T09:11:35.000Z</time>
      </trkpt>
      <trkpt lat="42.70329348742961883544921875" lon="1.28132670186460018157958984375">
        <ele>2739.60009765625</ele>
        <time>2018-05-01T09:14:06.000Z</time>
      </trkpt>
      <trkpt lat="42.70330161787569522857666015625" lon="1.2813118658959865570068359375">
        <ele>2739.199951171875</ele>
        <time>2018-05-01T09:16:33.000Z</time>
      </trkpt>
      <trkpt lat="42.703323662281036376953125" lon="1.28127423115074634552001953125">
        <ele>2738.199951171875</ele>
        <time>2018-05-01T09:17:04.000Z</time>
      </trkpt>
      <trkpt lat="42.70334579050540924072265625" lon="1.28124673850834369659423828125">
        <ele>2734.800048828125</ele>
        <time>2018-05-01T09:19:03.000Z</time>
      </trkpt>
      <trkpt lat="42.7033724449574947357177734375" lon="1.28114934079349040985107421875">
        <ele>2731.800048828125</ele>
        <time>2018-05-01T09:19:38.000Z</time>
      </trkpt>
      <trkpt lat="42.70339675247669219970703125" lon="1.281097121536731719970703125">
        <ele>2728.60009765625</ele>
        <time>2018-05-01T09:20:44.000Z</time>
      </trkpt>
      <trkpt lat="42.7034282684326171875" lon="1.2810268811881542205810546875">
        <ele>2725.39990234375</ele>
        <time>2018-05-01T09:21:32.000Z</time>
      </trkpt>
      <trkpt lat="42.7034242451190948486328125" lon="1.28100517205893993377685546875">
        <ele>2722.199951171875</ele>
        <time>2018-05-01T09:22:10.000Z</time>
      </trkpt>
      <trkpt lat="42.70345735363662242889404296875" lon="1.28095286898314952850341796875">
        <ele>2719</ele>
        <time>2018-05-01T09:22:34.000Z</time>
      </trkpt>
      <trkpt lat="42.7034894563257694244384765625" lon="1.28084910102188587188720703125">
        <ele>2716</ele>
        <time>2018-05-01T09:23:03.000Z</time>
      </trkpt>
      <trkpt lat="42.70351770333945751190185546875" lon="1.28084306605160236358642578125">
        <ele>2714</ele>
        <time>2018-05-01T09:23:37.000Z</time>
      </trkpt>
      <trkpt lat="42.70353329367935657501220703125" lon="1.2808102928102016448974609375">
        <ele>2711</ele>
        <time>2018-05-01T09:23:52.000Z</time>
      </trkpt>
      <trkpt lat="42.7035474590957164764404296875" lon="1.2807482667267322540283203125">
        <ele>2708</ele>
        <time>2018-05-01T09:24:10.000Z</time>
      </trkpt>
      <trkpt lat="42.70359925925731658935546875" lon="1.280746422708034515380859375">
        <ele>2704.800048828125</ele>
        <time>2018-05-01T09:24:31.000Z</time>
      </trkpt>
      <trkpt lat="42.70364443771541118621826171875" lon="1.280739046633243560791015625">
        <ele>2701.60009765625</ele>
        <time>2018-05-01T09:25:05.000Z</time>
      </trkpt>
      <trkpt lat="42.70369774661958217620849609375" lon="1.28064977936446666717529296875">
        <ele>2698.199951171875</ele>
        <time>2018-05-01T09:25:30.000Z</time>
      </trkpt>
      <trkpt lat="42.70373328588902950286865234375" lon="1.28066369332373142242431640625">
        <ele>2695.199951171875</ele>
        <time>2018-05-01T09:25:47.000Z</time>
      </trkpt>
      <trkpt lat="42.70377896726131439208984375" lon="1.28065765835344791412353515625">
        <ele>2692</ele>
        <time>2018-05-01T09:26:16.000Z</time>
      </trkpt>
      <trkpt lat="42.7038116566836833953857421875" lon="1.280668638646602630615234375">
        <ele>2688.60009765625</ele>
        <time>2018-05-01T09:26:47.000Z</time>
      </trkpt>
      <trkpt lat="42.703860439360141754150390625" lon="1.28070459701120853424072265625">
        <ele>2685.60009765625</ele>
        <time>2018-05-01T09:27:19.000Z</time>
      </trkpt>
      <trkpt lat="42.703880555927753448486328125" lon="1.28071884624660015106201171875">
        <ele>2683.199951171875</ele>
        <time>2018-05-01T09:28:04.000Z</time>
      </trkpt>
      <trkpt lat="42.70387024618685245513916015625" lon="1.2807480990886688232421875">
        <ele>2682.60009765625</ele>
        <time>2018-05-01T09:28:19.000Z</time>
      </trkpt>
      <trkpt lat="42.70387711934745311737060546875" lon="1.28077022731304168701171875">
        <ele>2681.800048828125</ele>
        <time>2018-05-01T09:28:43.000Z</time>
      </trkpt>
      <trkpt lat="42.70387284457683563232421875" lon="1.2807603366672992706298828125">
        <ele>2681.39990234375</ele>
        <time>2018-05-01T09:29:06.000Z</time>
      </trkpt>
      <trkpt lat="42.70387443713843822479248046875" lon="1.280867122113704681396484375">
        <ele>2679.60009765625</ele>
        <time>2018-05-01T09:31:32.000Z</time>
      </trkpt>
      <trkpt lat="42.70386806689202785491943359375" lon="1.2808760069310665130615234375">
        <ele>2679.60009765625</ele>
        <time>2018-05-01T09:31:34.000Z</time>
      </trkpt>
      <trkpt lat="42.70389472134411334991455078125" lon="1.28088598139584064483642578125">
        <ele>2678.800048828125</ele>
        <time>2018-05-01T09:32:12.000Z</time>
      </trkpt>
      <trkpt lat="42.7038911171257495880126953125" lon="1.28092420287430286407470703125">
        <ele>2675.60009765625</ele>
        <time>2018-05-01T09:32:54.000Z</time>
      </trkpt>
      <trkpt lat="42.70395842380821704864501953125" lon="1.28095529973506927490234375">
        <ele>2672.199951171875</ele>
        <time>2018-05-01T09:33:51.000Z</time>
      </trkpt>
      <trkpt lat="42.703996561467647552490234375" lon="1.280962340533733367919921875">
        <ele>2669.199951171875</ele>
        <time>2018-05-01T09:33:58.000Z</time>
      </trkpt>
      <trkpt lat="42.7040289156138896942138671875" lon="1.28097684122622013092041015625">
        <ele>2667.60009765625</ele>
        <time>2018-05-01T09:34:02.000Z</time>
      </trkpt>
      <trkpt lat="42.7040624432265758514404296875" lon="1.28099477849900722503662109375">
        <ele>2664.60009765625</ele>
        <time>2018-05-01T09:34:09.000Z</time>
      </trkpt>
      <trkpt lat="42.70408339798450469970703125" lon="1.2810292281210422515869140625">
        <ele>2662.199951171875</ele>
        <time>2018-05-01T09:36:30.000Z</time>
      </trkpt>
      <trkpt lat="42.704090774059295654296875" lon="1.281007267534732818603515625">
        <ele>2663.39990234375</ele>
        <time>2018-05-01T09:38:36.000Z</time>
      </trkpt>
      <trkpt lat="42.70407359115779399871826171875" lon="1.281023360788822174072265625">
        <ele>2662.39990234375</ele>
        <time>2018-05-01T09:41:18.000Z</time>
      </trkpt>
      <trkpt lat="42.7040771953761577606201171875" lon="1.2810352630913257598876953125">
        <ele>2663.60009765625</ele>
        <time>2018-05-01T09:42:35.000Z</time>
      </trkpt>
      <trkpt lat="42.70407828502357006072998046875" lon="1.281011290848255157470703125">
        <ele>2663</ele>
        <time>2018-05-01T09:45:05.000Z</time>
      </trkpt>
      <trkpt lat="42.70409421063959598541259765625" lon="1.2809997238218784332275390625">
        <ele>2664.39990234375</ele>
        <time>2018-05-01T09:45:18.000Z</time>
      </trkpt>
      <trkpt lat="42.70410929806530475616455078125" lon="1.28100098110735416412353515625">
        <ele>2662.60009765625</ele>
        <time>2018-05-01T09:45:49.000Z</time>
      </trkpt>
      <trkpt lat="42.70412757061421871185302734375" lon="1.2809786014258861541748046875">
        <ele>2662.199951171875</ele>
        <time>2018-05-01T09:45:50.000Z</time>
      </trkpt>
      <trkpt lat="42.7041415683925151824951171875" lon="1.280969716608524322509765625">
        <ele>2661.60009765625</ele>
        <time>2018-05-01T09:45:51.000Z</time>
      </trkpt>
      <trkpt lat="42.70415606908500194549560546875" lon="1.2809832952916622161865234375">
        <ele>2658.39990234375</ele>
        <time>2018-05-01T09:45:58.000Z</time>
      </trkpt>
      <trkpt lat="42.704143412411212921142578125" lon="1.28100668080151081085205078125">
        <ele>2658.60009765625</ele>
        <time>2018-05-01T09:47:12.000Z</time>
      </trkpt>
      <trkpt lat="42.70417417399585247039794921875" lon="1.28099762834608554840087890625">
        <ele>2658.60009765625</ele>
        <time>2018-05-01T09:47:13.000Z</time>
      </trkpt>
      <trkpt lat="42.70419429056346416473388671875" lon="1.28096795640885829925537109375">
        <ele>2658</ele>
        <time>2018-05-01T09:47:14.000Z</time>
      </trkpt>
      <trkpt lat="42.704215161502361297607421875" lon="1.280922107398509979248046875">
        <ele>2656.800048828125</ele>
        <time>2018-05-01T09:47:15.000Z</time>
      </trkpt>
      <trkpt lat="42.70424474962055683135986328125" lon="1.280880533158779144287109375">
        <ele>2655.199951171875</ele>
        <time>2018-05-01T09:47:16.000Z</time>
      </trkpt>
      <trkpt lat="42.70427928306162357330322265625" lon="1.28083166666328907012939453125">
        <ele>2653.39990234375</ele>
        <time>2018-05-01T09:47:17.000Z</time>
      </trkpt>
      <trkpt lat="42.70431431941688060760498046875" lon="1.28077735193073749542236328125">
        <ele>2650.800048828125</ele>
        <time>2018-05-01T09:47:18.000Z</time>
      </trkpt>
      <trkpt lat="42.704354636371135711669921875" lon="1.28074047155678272247314453125">
        <ele>2647.60009765625</ele>
        <time>2018-05-01T09:47:19.000Z</time>
      </trkpt>
      <trkpt lat="42.70439612679183483123779296875" lon="1.28070577047765254974365234375">
        <ele>2644.39990234375</ele>
        <time>2018-05-01T09:47:20.000Z</time>
      </trkpt>
      <trkpt lat="42.70442403852939605712890625" lon="1.2806661240756511688232421875">
        <ele>2641.60009765625</ele>
        <time>2018-05-01T09:47:21.000Z</time>
      </trkpt>
      <trkpt lat="42.704433761537075042724609375" lon="1.2806349433958530426025390625">
        <ele>2639</ele>
        <time>2018-05-01T09:47:22.000Z</time>
      </trkpt>
      <trkpt lat="42.70443216897547245025634765625" lon="1.2806168384850025177001953125">
        <ele>2634.800048828125</ele>
        <time>2018-05-01T09:47:24.000Z</time>
      </trkpt>
      <trkpt lat="42.70445195026695728302001953125" lon="1.28060149960219860076904296875">
        <ele>2632.800048828125</ele>
        <time>2018-05-01T09:47:27.000Z</time>
      </trkpt>
      <trkpt lat="42.70446988753974437713623046875" lon="1.28060284070670604705810546875">
        <ele>2632</ele>
        <time>2018-05-01T09:47:28.000Z</time>
      </trkpt>
      <trkpt lat="42.70449855364859104156494140625" lon="1.28061708994209766387939453125">
        <ele>2630.60009765625</ele>
        <time>2018-05-01T09:47:29.000Z</time>
      </trkpt>
      <trkpt lat="42.70452571101486682891845703125" lon="1.2806413136422634124755859375">
        <ele>2629.199951171875</ele>
        <time>2018-05-01T09:47:30.000Z</time>
      </trkpt>
      <trkpt lat="42.70455739460885524749755859375" lon="1.28065891563892364501953125">
        <ele>2628</ele>
        <time>2018-05-01T09:47:31.000Z</time>
      </trkpt>
      <trkpt lat="42.704596035182476043701171875" lon="1.2806688062846660614013671875">
        <ele>2627.199951171875</ele>
        <time>2018-05-01T09:47:32.000Z</time>
      </trkpt>
      <trkpt lat="42.70462931133806705474853515625" lon="1.28064961172640323638916015625">
        <ele>2626</ele>
        <time>2018-05-01T09:47:33.000Z</time>
      </trkpt>
      <trkpt lat="42.7046542055904865264892578125" lon="1.28059227950870990753173828125">
        <ele>2624.60009765625</ele>
        <time>2018-05-01T09:47:34.000Z</time>
      </trkpt>
      <trkpt lat="42.70468865521252155303955078125" lon="1.28054383210837841033935546875">
        <ele>2622.60009765625</ele>
        <time>2018-05-01T09:47:35.000Z</time>
      </trkpt>
      <trkpt lat="42.70470826886594295501708984375" lon="1.28048096783459186553955078125">
        <ele>2620.199951171875</ele>
        <time>2018-05-01T09:47:36.000Z</time>
      </trkpt>
      <trkpt lat="42.70472310483455657958984375" lon="1.2804025970399379730224609375">
        <ele>2617.39990234375</ele>
        <time>2018-05-01T09:47:37.000Z</time>
      </trkpt>
      <trkpt lat="42.7047397010028362274169921875" lon="1.28035272471606731414794921875">
        <ele>2615.199951171875</ele>
        <time>2018-05-01T09:47:38.000Z</time>
      </trkpt>
      <trkpt lat="42.704751603305339813232421875" lon="1.2803546525537967681884765625">
        <ele>2611.199951171875</ele>
        <time>2018-05-01T09:47:39.000Z</time>
      </trkpt>
      <trkpt lat="42.704750597476959228515625" lon="1.28035155124962329864501953125">
        <ele>2609.800048828125</ele>
        <time>2018-05-01T09:47:42.000Z</time>
      </trkpt>
      <trkpt lat="42.70471983589231967926025390625" lon="1.28030410967767238616943359375">
        <ele>2609.60009765625</ele>
        <time>2018-05-01T09:47:59.000Z</time>
      </trkpt>
      <trkpt lat="42.70472754724323749542236328125" lon="1.280216015875339508056640625">
        <ele>2609.39990234375</ele>
        <time>2018-05-01T09:48:58.000Z</time>
      </trkpt>
      <trkpt lat="42.7047226019203662872314453125" lon="1.2802465260028839111328125">
        <ele>2609.199951171875</ele>
        <time>2018-05-01T09:49:01.000Z</time>
      </trkpt>
      <trkpt lat="42.7047209255397319793701171875" lon="1.28024862147867679595947265625">
        <ele>2609.60009765625</ele>
        <time>2018-05-01T09:49:47.000Z</time>
      </trkpt>
      <trkpt lat="42.70474062301218509674072265625" lon="1.2803130783140659332275390625">
        <ele>2609.60009765625</ele>
        <time>2018-05-01T09:50:02.000Z</time>
      </trkpt>
      <trkpt lat="42.70474179647862911224365234375" lon="1.280321292579174041748046875">
        <ele>2609.800048828125</ele>
        <time>2018-05-01T09:50:04.000Z</time>
      </trkpt>
      <trkpt lat="42.7047668583691120147705078125" lon="1.28034702502191066741943359375">
        <ele>2609.199951171875</ele>
        <time>2018-05-01T09:50:13.000Z</time>
      </trkpt>
      <trkpt lat="42.7047876454889774322509765625" lon="1.28032322041690349578857421875">
        <ele>2609.199951171875</ele>
        <time>2018-05-01T09:50:14.000Z</time>
      </trkpt>
      <trkpt lat="42.70480533130466938018798828125" lon="1.28028248436748981475830078125">
        <ele>2607.800048828125</ele>
        <time>2018-05-01T09:50:15.000Z</time>
      </trkpt>
      <trkpt lat="42.70483843982219696044921875" lon="1.2802316062152385711669921875">
        <ele>2606.60009765625</ele>
        <time>2018-05-01T09:50:16.000Z</time>
      </trkpt>
      <trkpt lat="42.70487842150032520294189453125" lon="1.2801714241504669189453125">
        <ele>2605</ele>
        <time>2018-05-01T09:50:17.000Z</time>
      </trkpt>
      <trkpt lat="42.7049016393721103668212890625" lon="1.280111409723758697509765625">
        <ele>2602.800048828125</ele>
        <time>2018-05-01T09:50:18.000Z</time>
      </trkpt>
      <trkpt lat="42.70492427051067352294921875" lon="1.28005675971508026123046875">
        <ele>2598.60009765625</ele>
        <time>2018-05-01T09:50:19.000Z</time>
      </trkpt>
      <trkpt lat="42.7049515955150127410888671875" lon="1.28004142083227634429931640625">
        <ele>2596</ele>
        <time>2018-05-01T09:50:20.000Z</time>
      </trkpt>
      <trkpt lat="42.7049733884632587432861328125" lon="1.28005131147801876068115234375">
        <ele>2594</ele>
        <time>2018-05-01T09:50:21.000Z</time>
      </trkpt>
      <trkpt lat="42.704982273280620574951171875" lon="1.28006078302860260009765625">
        <ele>2592.800048828125</ele>
        <time>2018-05-01T09:50:22.000Z</time>
      </trkpt>
      <trkpt lat="42.7049938403069972991943359375" lon="1.2800435163080692291259765625">
        <ele>2589.60009765625</ele>
        <time>2018-05-01T09:50:36.000Z</time>
      </trkpt>
      <trkpt lat="42.70504052750766277313232421875" lon="1.28002591431140899658203125">
        <ele>2589.199951171875</ele>
        <time>2018-05-01T09:50:49.000Z</time>
      </trkpt>
      <trkpt lat="42.70505444146692752838134765625" lon="1.2799915485084056854248046875">
        <ele>2588.800048828125</ele>
        <time>2018-05-01T09:50:50.000Z</time>
      </trkpt>
      <trkpt lat="42.7051007933914661407470703125" lon="1.27992055378854274749755859375">
        <ele>2585.39990234375</ele>
        <time>2018-05-01T09:50:52.000Z</time>
      </trkpt>
      <trkpt lat="42.70511579699814319610595703125" lon="1.27987260930240154266357421875">
        <ele>2583.39990234375</ele>
        <time>2018-05-01T09:50:53.000Z</time>
      </trkpt>
      <trkpt lat="42.7051447145640850067138671875" lon="1.27984008751809597015380859375">
        <ele>2581.199951171875</ele>
        <time>2018-05-01T09:50:54.000Z</time>
      </trkpt>
      <trkpt lat="42.70518050529062747955322265625" lon="1.27982902340590953826904296875">
        <ele>2579</ele>
        <time>2018-05-01T09:50:55.000Z</time>
      </trkpt>
      <trkpt lat="42.70519844256341457366943359375" lon="1.2798011116683483123779296875">
        <ele>2577.199951171875</ele>
        <time>2018-05-01T09:50:56.000Z</time>
      </trkpt>
      <trkpt lat="42.70520397461950778961181640625" lon="1.2797649018466472625732421875">
        <ele>2575.39990234375</ele>
        <time>2018-05-01T09:50:57.000Z</time>
      </trkpt>
      <trkpt lat="42.70525292493402957916259765625" lon="1.2798400036990642547607421875">
        <ele>2574</ele>
        <time>2018-05-01T09:50:58.000Z</time>
      </trkpt>
      <trkpt lat="42.70528511144220829010009765625" lon="1.27985249273478984832763671875">
        <ele>2572.39990234375</ele>
        <time>2018-05-01T09:50:59.000Z</time>
      </trkpt>
      <trkpt lat="42.70531428046524524688720703125" lon="1.2798648141324520111083984375">
        <ele>2571.39990234375</ele>
        <time>2018-05-01T09:51:00.000Z</time>
      </trkpt>
      <trkpt lat="42.70532567985355854034423828125" lon="1.27984779886901378631591796875">
        <ele>2570.39990234375</ele>
        <time>2018-05-01T09:51:01.000Z</time>
      </trkpt>
      <trkpt lat="42.70533925853669643402099609375" lon="1.2798353098332881927490234375">
        <ele>2569.39990234375</ele>
        <time>2018-05-01T09:51:02.000Z</time>
      </trkpt>
      <trkpt lat="42.705362141132354736328125" lon="1.27984327264130115509033203125">
        <ele>2568.199951171875</ele>
        <time>2018-05-01T09:51:03.000Z</time>
      </trkpt>
      <trkpt lat="42.70538301207125186920166015625" lon="1.27986255101859569549560546875">
        <ele>2567.199951171875</ele>
        <time>2018-05-01T09:51:04.000Z</time>
      </trkpt>
      <trkpt lat="42.70542659796774387359619140625" lon="1.2798674963414669036865234375">
        <ele>2566.199951171875</ele>
        <time>2018-05-01T09:51:06.000Z</time>
      </trkpt>
      <trkpt lat="42.70543648861348628997802734375" lon="1.27985534258186817169189453125">
        <ele>2565.60009765625</ele>
        <time>2018-05-01T09:51:07.000Z</time>
      </trkpt>
      <trkpt lat="42.70543196238577365875244140625" lon="1.2798617966473102569580078125">
        <ele>2564.199951171875</ele>
        <time>2018-05-01T09:51:09.000Z</time>
      </trkpt>
      <trkpt lat="42.705432884395122528076171875" lon="1.27986431121826171875">
        <ele>2563.800048828125</ele>
        <time>2018-05-01T09:51:10.000Z</time>
      </trkpt>
      <trkpt lat="42.70542257465422153472900390625" lon="1.27987495623528957366943359375">
        <ele>2563.39990234375</ele>
        <time>2018-05-01T09:51:14.000Z</time>
      </trkpt>
      <trkpt lat="42.70543196238577365875244140625" lon="1.27989406697452068328857421875">
        <ele>2563.60009765625</ele>
        <time>2018-05-01T09:52:29.000Z</time>
      </trkpt>
      <trkpt lat="42.70544537343084812164306640625" lon="1.27985668368637561798095703125">
        <ele>2563.39990234375</ele>
        <time>2018-05-01T09:52:30.000Z</time>
      </trkpt>
      <trkpt lat="42.70546012558043003082275390625" lon="1.27979063428938388824462890625">
        <ele>2562.39990234375</ele>
        <time>2018-05-01T09:52:31.000Z</time>
      </trkpt>
      <trkpt lat="42.7054699324071407318115234375" lon="1.27971452660858631134033203125">
        <ele>2561</ele>
        <time>2018-05-01T09:52:32.000Z</time>
      </trkpt>
      <trkpt lat="42.70549264736473560333251953125" lon="1.2796458788216114044189453125">
        <ele>2561</ele>
        <time>2018-05-01T09:52:33.000Z</time>
      </trkpt>
      <trkpt lat="42.7055105008184909820556640625" lon="1.27957396209239959716796875">
        <ele>2558.800048828125</ele>
        <time>2018-05-01T09:52:34.000Z</time>
      </trkpt>
      <trkpt lat="42.7055297791957855224609375" lon="1.2795142829418182373046875">
        <ele>2556.800048828125</ele>
        <time>2018-05-01T09:52:35.000Z</time>
      </trkpt>
      <trkpt lat="42.705574370920658111572265625" lon="1.27947874367237091064453125">
        <ele>2554.800048828125</ele>
        <time>2018-05-01T09:52:36.000Z</time>
      </trkpt>
      <trkpt lat="42.70561602897942066192626953125" lon="1.27945125102996826171875">
        <ele>2553.800048828125</ele>
        <time>2018-05-01T09:52:37.000Z</time>
      </trkpt>
      <trkpt lat="42.70564804784953594207763671875" lon="1.2794192321598529815673828125">
        <ele>2552.60009765625</ele>
        <time>2018-05-01T09:52:38.000Z</time>
      </trkpt>
      <trkpt lat="42.70570152439177036285400390625" lon="1.2793635763227939605712890625">
        <ele>2550.39990234375</ele>
        <time>2018-05-01T09:52:41.000Z</time>
      </trkpt>
      <trkpt lat="42.7057049609720706939697265625" lon="1.27935259602963924407958984375">
        <ele>2550.199951171875</ele>
        <time>2018-05-01T09:52:42.000Z</time>
      </trkpt>
      <trkpt lat="42.70570806227624416351318359375" lon="1.27932024188339710235595703125">
        <ele>2549.800048828125</ele>
        <time>2018-05-01T09:52:45.000Z</time>
      </trkpt>
      <trkpt lat="42.7057116664946079254150390625" lon="1.27930364571511745452880859375">
        <ele>2549.60009765625</ele>
        <time>2018-05-01T09:52:46.000Z</time>
      </trkpt>
      <trkpt lat="42.70571309141814708709716796875" lon="1.27928185276687145233154296875">
        <ele>2549.39990234375</ele>
        <time>2018-05-01T09:52:47.000Z</time>
      </trkpt>
      <trkpt lat="42.70571124739944934844970703125" lon="1.2792539410293102264404296875">
        <ele>2549.39990234375</ele>
        <time>2018-05-01T09:52:48.000Z</time>
      </trkpt>
      <trkpt lat="42.705706469714641571044921875" lon="1.2792120315134525299072265625">
        <ele>2548.800048828125</ele>
        <time>2018-05-01T09:52:49.000Z</time>
      </trkpt>
      <trkpt lat="42.7056989260017871856689453125" lon="1.27915813587605953216552734375">
        <ele>2548</ele>
        <time>2018-05-01T09:52:50.000Z</time>
      </trkpt>
      <trkpt lat="42.70570035092532634735107421875" lon="1.27909979782998561859130859375">
        <ele>2547.39990234375</ele>
        <time>2018-05-01T09:52:51.000Z</time>
      </trkpt>
      <trkpt lat="42.7057116664946079254150390625" lon="1.2790745683014392852783203125">
        <ele>2546.60009765625</ele>
        <time>2018-05-01T09:52:52.000Z</time>
      </trkpt>
      <trkpt lat="42.70569615997374057769775390625" lon="1.27909141592681407928466796875">
        <ele>2545.60009765625</ele>
        <time>2018-05-01T09:53:37.000Z</time>
      </trkpt>
      <trkpt lat="42.70569263957440853118896484375" lon="1.27905897796154022216796875">
        <ele>2545.60009765625</ele>
        <time>2018-05-01T09:53:40.000Z</time>
      </trkpt>
      <trkpt lat="42.70568459294736385345458984375" lon="1.2790195830166339874267578125">
        <ele>2545.800048828125</ele>
        <time>2018-05-01T09:53:41.000Z</time>
      </trkpt>
      <trkpt lat="42.70566917024552822113037109375" lon="1.27898412756621837615966796875">
        <ele>2545.60009765625</ele>
        <time>2018-05-01T09:53:42.000Z</time>
      </trkpt>
      <trkpt lat="42.705638743937015533447265625" lon="1.2789401225745677947998046875">
        <ele>2545.39990234375</ele>
        <time>2018-05-01T09:53:43.000Z</time>
      </trkpt>
      <trkpt lat="42.70560949109494686126708984375" lon="1.27888840623199939727783203125">
        <ele>2544.800048828125</ele>
        <time>2018-05-01T09:53:44.000Z</time>
      </trkpt>
      <trkpt lat="42.7055809088051319122314453125" lon="1.2788402102887630462646484375">
        <ele>2544</ele>
        <time>2018-05-01T09:53:45.000Z</time>
      </trkpt>
      <trkpt lat="42.70555584691464900970458984375" lon="1.278796456754207611083984375">
        <ele>2543.199951171875</ele>
        <time>2018-05-01T09:53:46.000Z</time>
      </trkpt>
      <trkpt lat="42.70551896654069423675537109375" lon="1.2787069380283355712890625">
        <ele>2542.60009765625</ele>
        <time>2018-05-01T09:53:48.000Z</time>
      </trkpt>
      <trkpt lat="42.70546548999845981597900390625" lon="1.27841499634087085723876953125">
        <ele>2539.39990234375</ele>
        <time>2018-05-01T09:53:54.000Z</time>
      </trkpt>
      <trkpt lat="42.70547269843518733978271484375" lon="1.2782963924109935760498046875">
        <ele>2538.199951171875</ele>
        <time>2018-05-01T09:53:56.000Z</time>
      </trkpt>
      <trkpt lat="42.7054734528064727783203125" lon="1.278114505112171173095703125">
        <ele>2535.39990234375</ele>
        <time>2018-05-01T09:53:59.000Z</time>
      </trkpt>
      <trkpt lat="42.70547169260680675506591796875" lon="1.27806521952152252197265625">
        <ele>2534.199951171875</ele>
        <time>2018-05-01T09:54:00.000Z</time>
      </trkpt>
      <trkpt lat="42.7054779790341854095458984375" lon="1.2780211307108402252197265625">
        <ele>2533.800048828125</ele>
        <time>2018-05-01T09:54:01.000Z</time>
      </trkpt>
      <trkpt lat="42.7055034600198268890380859375" lon="1.27787520177662372589111328125">
        <ele>2532.199951171875</ele>
        <time>2018-05-01T09:54:04.000Z</time>
      </trkpt>
      <trkpt lat="42.7055205591022968292236328125" lon="1.2777703441679477691650390625">
        <ele>2531</ele>
        <time>2018-05-01T09:54:06.000Z</time>
      </trkpt>
      <trkpt lat="42.70553338341414928436279296875" lon="1.2777173705399036407470703125">
        <ele>2530.39990234375</ele>
        <time>2018-05-01T09:54:07.000Z</time>
      </trkpt>
      <trkpt lat="42.7055633068084716796875" lon="1.2775282748043537139892578125">
        <ele>2527.199951171875</ele>
        <time>2018-05-01T09:54:11.000Z</time>
      </trkpt>
      <trkpt lat="42.70559121854603290557861328125" lon="1.27726667560636997222900390625">
        <ele>2523.800048828125</ele>
        <time>2018-05-01T09:54:17.000Z</time>
      </trkpt>
      <trkpt lat="42.705606557428836822509765625" lon="1.2771976925432682037353515625">
        <ele>2522.60009765625</ele>
        <time>2018-05-01T09:54:18.000Z</time>
      </trkpt>
      <trkpt lat="42.70561669953167438507080078125" lon="1.27713424153625965118408203125">
        <ele>2521.39990234375</ele>
        <time>2018-05-01T09:54:19.000Z</time>
      </trkpt>
      <trkpt lat="42.7055906318128108978271484375" lon="1.2769301421940326690673828125">
        <ele>2518.39990234375</ele>
        <time>2018-05-01T09:54:24.000Z</time>
      </trkpt>
      <trkpt lat="42.70559012889862060546875" lon="1.27689468674361705780029296875">
        <ele>2518</ele>
        <time>2018-05-01T09:54:25.000Z</time>
      </trkpt>
      <trkpt lat="42.70559105090796947479248046875" lon="1.276698298752307891845703125">
        <ele>2515.39990234375</ele>
        <time>2018-05-01T09:54:29.000Z</time>
      </trkpt>
      <trkpt lat="42.70559557713568210601806640625" lon="1.2766389548778533935546875">
        <ele>2514.800048828125</ele>
        <time>2018-05-01T09:54:30.000Z</time>
      </trkpt>
      <trkpt lat="42.7056110836565494537353515625" lon="1.27645296044647693634033203125">
        <ele>2512</ele>
        <time>2018-05-01T09:54:33.000Z</time>
      </trkpt>
      <trkpt lat="42.705614268779754638671875" lon="1.27639445476233959197998046875">
        <ele>2511.199951171875</ele>
        <time>2018-05-01T09:54:34.000Z</time>
      </trkpt>
      <trkpt lat="42.7056251652538776397705078125" lon="1.276145093142986297607421875">
        <ele>2507.60009765625</ele>
        <time>2018-05-01T09:54:39.000Z</time>
      </trkpt>
      <trkpt lat="42.70562591962516307830810546875" lon="1.27609035931527614593505859375">
        <ele>2506.800048828125</ele>
        <time>2018-05-01T09:54:40.000Z</time>
      </trkpt>
      <trkpt lat="42.70562457852065563201904296875" lon="1.27593277953565120697021484375">
        <ele>2503.199951171875</ele>
        <time>2018-05-01T09:54:44.000Z</time>
      </trkpt>
      <trkpt lat="42.70563078112900257110595703125" lon="1.27589908428490161895751953125">
        <ele>2502.60009765625</ele>
        <time>2018-05-01T09:54:45.000Z</time>
      </trkpt>
      <trkpt lat="42.7056603692471981048583984375" lon="1.2756406702101230621337890625">
        <ele>2498</ele>
        <time>2018-05-01T09:54:50.000Z</time>
      </trkpt>
      <trkpt lat="42.7056633867323398590087890625" lon="1.27558878622949123382568359375">
        <ele>2496.39990234375</ele>
        <time>2018-05-01T09:54:51.000Z</time>
      </trkpt>
      <trkpt lat="42.705667577683925628662109375" lon="1.2755524925887584686279296875">
        <ele>2495.39990234375</ele>
        <time>2018-05-01T09:54:52.000Z</time>
      </trkpt>
      <trkpt lat="42.70568870007991790771484375" lon="1.275502033531665802001953125">
        <ele>2492.60009765625</ele>
        <time>2018-05-01T09:54:56.000Z</time>
      </trkpt>
      <trkpt lat="42.705702446401119232177734375" lon="1.27545400522649288177490234375">
        <ele>2491.800048828125</ele>
        <time>2018-05-01T09:54:57.000Z</time>
      </trkpt>
      <trkpt lat="42.70570881664752960205078125" lon="1.27539734356105327606201171875">
        <ele>2490</ele>
        <time>2018-05-01T09:54:58.000Z</time>
      </trkpt>
      <trkpt lat="42.7057133428752422332763671875" lon="1.27534654922783374786376953125">
        <ele>2489</ele>
        <time>2018-05-01T09:54:59.000Z</time>
      </trkpt>
      <trkpt lat="42.7057183720171451568603515625" lon="1.2753060646355152130126953125">
        <ele>2487.39990234375</ele>
        <time>2018-05-01T09:55:00.000Z</time>
      </trkpt>
      <trkpt lat="42.7057304419577121734619140625" lon="1.27522341907024383544921875">
        <ele>2484.199951171875</ele>
        <time>2018-05-01T09:55:03.000Z</time>
      </trkpt>
      <trkpt lat="42.7057324536144733428955078125" lon="1.27521864138543605804443359375">
        <ele>2482.800048828125</ele>
        <time>2018-05-01T09:55:06.000Z</time>
      </trkpt>
      <trkpt lat="42.70575047470629215240478515625" lon="1.27519165165722370147705078125">
        <ele>2482.800048828125</ele>
        <time>2018-05-01T09:55:19.000Z</time>
      </trkpt>
      <trkpt lat="42.7057626284658908843994140625" lon="1.2751689366996288299560546875">
        <ele>2482.800048828125</ele>
        <time>2018-05-01T09:55:20.000Z</time>
      </trkpt>
      <trkpt lat="42.70577193237841129302978515625" lon="1.27513599582016468048095703125">
        <ele>2482</ele>
        <time>2018-05-01T09:55:21.000Z</time>
      </trkpt>
      <trkpt lat="42.70577587187290191650390625" lon="1.2750886380672454833984375">
        <ele>2480.800048828125</ele>
        <time>2018-05-01T09:55:22.000Z</time>
      </trkpt>
      <trkpt lat="42.7057753689587116241455078125" lon="1.275039352476596832275390625">
        <ele>2479.39990234375</ele>
        <time>2018-05-01T09:55:23.000Z</time>
      </trkpt>
      <trkpt lat="42.705782912671566009521484375" lon="1.2749858759343624114990234375">
        <ele>2478</ele>
        <time>2018-05-01T09:55:24.000Z</time>
      </trkpt>
      <trkpt lat="42.70580462180078029632568359375" lon="1.27494840882718563079833984375">
        <ele>2476.800048828125</ele>
        <time>2018-05-01T09:55:25.000Z</time>
      </trkpt>
      <trkpt lat="42.705839909613132476806640625" lon="1.27492971718311309814453125">
        <ele>2475.60009765625</ele>
        <time>2018-05-01T09:55:26.000Z</time>
      </trkpt>
      <trkpt lat="42.7058581821620464324951171875" lon="1.27489509992301464080810546875">
        <ele>2474</ele>
        <time>2018-05-01T09:55:27.000Z</time>
      </trkpt>
      <trkpt lat="42.70585575141012668609619140625" lon="1.27484112046658992767333984375">
        <ele>2472</ele>
        <time>2018-05-01T09:55:28.000Z</time>
      </trkpt>
      <trkpt lat="42.705846615135669708251953125" lon="1.27478915266692638397216796875">
        <ele>2470.800048828125</ele>
        <time>2018-05-01T09:55:29.000Z</time>
      </trkpt>
      <trkpt lat="42.705840580165386199951171875" lon="1.27474036999046802520751953125">
        <ele>2469.800048828125</ele>
        <time>2018-05-01T09:55:30.000Z</time>
      </trkpt>
      <trkpt lat="42.70583697594702243804931640625" lon="1.27469234168529510498046875">
        <ele>2469</ele>
        <time>2018-05-01T09:55:31.000Z</time>
      </trkpt>
      <trkpt lat="42.70583915524184703826904296875" lon="1.2746405415236949920654296875">
        <ele>2468.800048828125</ele>
        <time>2018-05-01T09:55:32.000Z</time>
      </trkpt>
      <trkpt lat="42.70583798177540302276611328125" lon="1.27458639442920684814453125">
        <ele>2468.800048828125</ele>
        <time>2018-05-01T09:55:33.000Z</time>
      </trkpt>
      <trkpt lat="42.70583798177540302276611328125" lon="1.27453216351568698883056640625">
        <ele>2468.39990234375</ele>
        <time>2018-05-01T09:55:34.000Z</time>
      </trkpt>
      <trkpt lat="42.705842591822147369384765625" lon="1.27447374165058135986328125">
        <ele>2467.800048828125</ele>
        <time>2018-05-01T09:55:35.000Z</time>
      </trkpt>
      <trkpt lat="42.70584770478308200836181640625" lon="1.274411715567111968994140625">
        <ele>2467</ele>
        <time>2018-05-01T09:55:36.000Z</time>
      </trkpt>
      <trkpt lat="42.705861032009124755859375" lon="1.27412681467831134796142578125">
        <ele>2463.39990234375</ele>
        <time>2018-05-01T09:55:40.000Z</time>
      </trkpt>
      <trkpt lat="42.7058623731136322021484375" lon="1.274040900170803070068359375">
        <ele>2460.199951171875</ele>
        <time>2018-05-01T09:55:45.000Z</time>
      </trkpt>
      <trkpt lat="42.7058860100805759429931640625" lon="1.2740050256252288818359375">
        <ele>2460.39990234375</ele>
        <time>2018-05-01T09:56:23.000Z</time>
      </trkpt>
      <trkpt lat="42.70589925348758697509765625" lon="1.2736853398382663726806640625">
        <ele>2458.199951171875</ele>
        <time>2018-05-01T09:56:32.000Z</time>
      </trkpt>
      <trkpt lat="42.7059000916779041290283203125" lon="1.27361870370805263519287109375">
        <ele>2457.39990234375</ele>
        <time>2018-05-01T09:56:33.000Z</time>
      </trkpt>
      <trkpt lat="42.70589883439242839813232421875" lon="1.2735492177307605743408203125">
        <ele>2456.39990234375</ele>
        <time>2018-05-01T09:56:34.000Z</time>
      </trkpt>
      <trkpt lat="42.70589246414601802825927734375" lon="1.27340756356716156005859375">
        <ele>2454</ele>
        <time>2018-05-01T09:56:36.000Z</time>
      </trkpt>
      <trkpt lat="42.70588307641446590423583984375" lon="1.27334729768335819244384765625">
        <ele>2452.800048828125</ele>
        <time>2018-05-01T09:56:37.000Z</time>
      </trkpt>
      <trkpt lat="42.7058809809386730194091796875" lon="1.27330639399588108062744140625">
        <ele>2452.199951171875</ele>
        <time>2018-05-01T09:56:38.000Z</time>
      </trkpt>
      <trkpt lat="42.70588374696671962738037109375" lon="1.27326917834579944610595703125">
        <ele>2451.199951171875</ele>
        <time>2018-05-01T09:56:39.000Z</time>
      </trkpt>
      <trkpt lat="42.70588852465152740478515625" lon="1.2732296995818614959716796875">
        <ele>2450.199951171875</ele>
        <time>2018-05-01T09:56:40.000Z</time>
      </trkpt>
      <trkpt lat="42.70588927902281284332275390625" lon="1.2732129357755184173583984375">
        <ele>2448.199951171875</ele>
        <time>2018-05-01T09:56:44.000Z</time>
      </trkpt>
      <trkpt lat="42.70588609389960765838623046875" lon="1.2731981836259365081787109375">
        <ele>2448.199951171875</ele>
        <time>2018-05-01T09:57:09.000Z</time>
      </trkpt>
      <trkpt lat="42.70589481107890605926513671875" lon="1.2731676734983921051025390625">
        <ele>2448.199951171875</ele>
        <time>2018-05-01T09:57:10.000Z</time>
      </trkpt>
      <trkpt lat="42.7059041149914264678955078125" lon="1.273118890821933746337890625">
        <ele>2448</ele>
        <time>2018-05-01T09:57:11.000Z</time>
      </trkpt>
      <trkpt lat="42.7059627883136272430419921875" lon="1.27285880036652088165283203125">
        <ele>2444.800048828125</ele>
        <time>2018-05-01T09:57:17.000Z</time>
      </trkpt>
      <trkpt lat="42.706038057804107666015625" lon="1.27259544096887111663818359375">
        <ele>2443.199951171875</ele>
        <time>2018-05-01T09:57:30.000Z</time>
      </trkpt>
      <trkpt lat="42.70610251463949680328369140625" lon="1.27231565304100513458251953125">
        <ele>2440.800048828125</ele>
        <time>2018-05-01T09:57:37.000Z</time>
      </trkpt>
      <trkpt lat="42.70620343275368213653564453125" lon="1.272043995559215545654296875">
        <ele>2438.39990234375</ele>
        <time>2018-05-01T09:57:44.000Z</time>
      </trkpt>
      <trkpt lat="42.70629647187888622283935546875" lon="1.271770410239696502685546875">
        <ele>2436</ele>
        <time>2018-05-01T09:57:51.000Z</time>
      </trkpt>
      <trkpt lat="42.70633033476769924163818359375" lon="1.27162900753319263458251953125">
        <ele>2434.800048828125</ele>
        <time>2018-05-01T09:57:58.000Z</time>
      </trkpt>
      <trkpt lat="42.7063302509486675262451171875" lon="1.271608136594295501708984375">
        <ele>2434.800048828125</ele>
        <time>2018-05-01T09:57:59.000Z</time>
      </trkpt>
      <trkpt lat="42.7063357830047607421875" lon="1.27158676274120807647705078125">
        <ele>2434.60009765625</ele>
        <time>2018-05-01T09:58:00.000Z</time>
      </trkpt>
      <trkpt lat="42.706339471042156219482421875" lon="1.27156865783035755157470703125">
        <ele>2434.39990234375</ele>
        <time>2018-05-01T09:58:01.000Z</time>
      </trkpt>
      <trkpt lat="42.706343829631805419921875" lon="1.27155222930014133453369140625">
        <ele>2434.39990234375</ele>
        <time>2018-05-01T09:58:02.000Z</time>
      </trkpt>
      <trkpt lat="42.7063466794788837432861328125" lon="1.27153563313186168670654296875">
        <ele>2434.39990234375</ele>
        <time>2018-05-01T09:58:03.000Z</time>
      </trkpt>
      <trkpt lat="42.70634911023080348968505859375" lon="1.27151769585907459259033203125">
        <ele>2434.39990234375</ele>
        <time>2018-05-01T09:58:04.000Z</time>
      </trkpt>
      <trkpt lat="42.70637333393096923828125" lon="1.27126255072653293609619140625">
        <ele>2432.39990234375</ele>
        <time>2018-05-01T09:58:19.000Z</time>
      </trkpt>
      <trkpt lat="42.70637677051126956939697265625" lon="1.27121326513588428497314453125">
        <ele>2433.199951171875</ele>
        <time>2018-05-01T09:58:24.000Z</time>
      </trkpt>
      <trkpt lat="42.706413902342319488525390625" lon="1.2709256820380687713623046875">
        <ele>2431.60009765625</ele>
        <time>2018-05-01T09:58:34.000Z</time>
      </trkpt>
      <trkpt lat="42.70642555318772792816162109375" lon="1.27062167041003704071044921875">
        <ele>2429.60009765625</ele>
        <time>2018-05-01T09:58:40.000Z</time>
      </trkpt>
      <trkpt lat="42.70643091760575771331787109375" lon="1.27056517638266086578369140625">
        <ele>2429.199951171875</ele>
        <time>2018-05-01T09:58:41.000Z</time>
      </trkpt>
      <trkpt lat="42.70643569529056549072265625" lon="1.27050717361271381378173828125">
        <ele>2428.60009765625</ele>
        <time>2018-05-01T09:58:42.000Z</time>
      </trkpt>
      <trkpt lat="42.70643644966185092926025390625" lon="1.27044632099568843841552734375">
        <ele>2427.800048828125</ele>
        <time>2018-05-01T09:58:43.000Z</time>
      </trkpt>
      <trkpt lat="42.70643142051994800567626953125" lon="1.27038245089352130889892578125">
        <ele>2427</ele>
        <time>2018-05-01T09:58:44.000Z</time>
      </trkpt>
      <trkpt lat="42.7064256370067596435546875" lon="1.2703198380768299102783203125">
        <ele>2426.199951171875</ele>
        <time>2018-05-01T09:58:45.000Z</time>
      </trkpt>
      <trkpt lat="42.706430666148662567138671875" lon="1.270258314907550811767578125">
        <ele>2425.199951171875</ele>
        <time>2018-05-01T09:58:46.000Z</time>
      </trkpt>
      <trkpt lat="42.7064388804137706756591796875" lon="1.2701897509396076202392578125">
        <ele>2423.199951171875</ele>
        <time>2018-05-01T09:58:47.000Z</time>
      </trkpt>
      <trkpt lat="42.70646109245717525482177734375" lon="1.27011892385780811309814453125">
        <ele>2421.60009765625</ele>
        <time>2018-05-01T09:58:48.000Z</time>
      </trkpt>
      <trkpt lat="42.70647433586418628692626953125" lon="1.27005740068852901458740234375">
        <ele>2420</ele>
        <time>2018-05-01T09:58:49.000Z</time>
      </trkpt>
      <trkpt lat="42.70647366531193256378173828125" lon="1.27001280896365642547607421875">
        <ele>2418.800048828125</ele>
        <time>2018-05-01T09:58:50.000Z</time>
      </trkpt>
      <trkpt lat="42.706463523209095001220703125" lon="1.26999906264245510101318359375">
        <ele>2417.60009765625</ele>
        <time>2018-05-01T09:58:51.000Z</time>
      </trkpt>
      <trkpt lat="42.7064968831837177276611328125" lon="1.27002102322876453399658203125">
        <ele>2415.39990234375</ele>
        <time>2018-05-01T09:59:55.000Z</time>
      </trkpt>
      <trkpt lat="42.70650945603847503662109375" lon="1.270027644932270050048828125">
        <ele>2415.199951171875</ele>
        <time>2018-05-01T09:59:56.000Z</time>
      </trkpt>
      <trkpt lat="42.70654809661209583282470703125" lon="1.27001549117267131805419921875">
        <ele>2414.39990234375</ele>
        <time>2018-05-01T10:00:01.000Z</time>
      </trkpt>
      <trkpt lat="42.70656519569456577301025390625" lon="1.27000040374696254730224609375">
        <ele>2414.199951171875</ele>
        <time>2018-05-01T10:00:02.000Z</time>
      </trkpt>
      <trkpt lat="42.7065817080438137054443359375" lon="1.2699790298938751220703125">
        <ele>2414.199951171875</ele>
        <time>2018-05-01T10:00:03.000Z</time>
      </trkpt>
      <trkpt lat="42.70673300139605998992919921875" lon="1.2698306702077388763427734375">
        <ele>2414.800048828125</ele>
        <time>2018-05-01T10:00:23.000Z</time>
      </trkpt>
      <trkpt lat="42.70674171857535839080810546875" lon="1.26982656307518482208251953125">
        <ele>2414.800048828125</ele>
        <time>2018-05-01T10:00:24.000Z</time>
      </trkpt>
      <trkpt lat="42.70679737441241741180419921875" lon="1.26975917257368564605712890625">
        <ele>2414.199951171875</ele>
        <time>2018-05-01T10:01:49.000Z</time>
      </trkpt>
      <trkpt lat="42.7068507671356201171875" lon="1.26970418728888034820556640625">
        <ele>2413.199951171875</ele>
        <time>2018-05-01T10:01:50.000Z</time>
      </trkpt>
      <trkpt lat="42.70696501247584819793701171875" lon="1.2696020118892192840576171875">
        <ele>2409.60009765625</ele>
        <time>2018-05-01T10:01:52.000Z</time>
      </trkpt>
      <trkpt lat="42.7070919983088970184326171875" lon="1.2695386447012424468994140625">
        <ele>2406</ele>
        <time>2018-05-01T10:01:54.000Z</time>
      </trkpt>
      <trkpt lat="42.70715628750622272491455078125" lon="1.26953889615833759307861328125">
        <ele>2404.800048828125</ele>
        <time>2018-05-01T10:01:55.000Z</time>
      </trkpt>
      <trkpt lat="42.70722066052258014678955078125" lon="1.2695624493062496185302734375">
        <ele>2403.60009765625</ele>
        <time>2018-05-01T10:01:56.000Z</time>
      </trkpt>
      <trkpt lat="42.70728218369185924530029296875" lon="1.26958700828254222869873046875">
        <ele>2402</ele>
        <time>2018-05-01T10:01:57.000Z</time>
      </trkpt>
      <trkpt lat="42.70733113400638103485107421875" lon="1.2696184404194355010986328125">
        <ele>2401.199951171875</ele>
        <time>2018-05-01T10:01:58.000Z</time>
      </trkpt>
      <trkpt lat="42.70736415870487689971923828125" lon="1.26965238712728023529052734375">
        <ele>2400</ele>
        <time>2018-05-01T10:01:59.000Z</time>
      </trkpt>
      <trkpt lat="42.7074011228978633880615234375" lon="1.269681639969348907470703125">
        <ele>2398.60009765625</ele>
        <time>2018-05-01T10:02:00.000Z</time>
      </trkpt>
      <trkpt lat="42.70743691362440586090087890625" lon="1.2697161734104156494140625">
        <ele>2396.39990234375</ele>
        <time>2018-05-01T10:02:01.000Z</time>
      </trkpt>
      <trkpt lat="42.70747697912156581878662109375" lon="1.26974928192794322967529296875">
        <ele>2394.60009765625</ele>
        <time>2018-05-01T10:02:02.000Z</time>
      </trkpt>
      <trkpt lat="42.7075117640197277069091796875" lon="1.2697937898337841033935546875">
        <ele>2392.39990234375</ele>
        <time>2018-05-01T10:02:03.000Z</time>
      </trkpt>
      <trkpt lat="42.70754487253725528717041015625" lon="1.26983980648219585418701171875">
        <ele>2390.199951171875</ele>
        <time>2018-05-01T10:02:04.000Z</time>
      </trkpt>
      <trkpt lat="42.70757068879902362823486328125" lon="1.26989009790122509002685546875">
        <ele>2388.60009765625</ele>
        <time>2018-05-01T10:02:05.000Z</time>
      </trkpt>
      <trkpt lat="42.7075996063649654388427734375" lon="1.26993276178836822509765625">
        <ele>2387</ele>
        <time>2018-05-01T10:02:06.000Z</time>
      </trkpt>
      <trkpt lat="42.70763330161571502685546875" lon="1.26996788196265697479248046875">
        <ele>2384.60009765625</ele>
        <time>2018-05-01T10:02:07.000Z</time>
      </trkpt>
      <trkpt lat="42.70764403045177459716796875" lon="1.2699570693075656890869140625">
        <ele>2382.199951171875</ele>
        <time>2018-05-01T10:02:08.000Z</time>
      </trkpt>
      <trkpt lat="42.7076458744704723358154296875" lon="1.26993921585381031036376953125">
        <ele>2380.60009765625</ele>
        <time>2018-05-01T10:02:09.000Z</time>
      </trkpt>
      <trkpt lat="42.707651741802692413330078125" lon="1.26992077566683292388916015625">
        <ele>2378.800048828125</ele>
        <time>2018-05-01T10:02:12.000Z</time>
      </trkpt>
      <trkpt lat="42.707684598863124847412109375" lon="1.26993100158870220184326171875">
        <ele>2378.199951171875</ele>
        <time>2018-05-01T10:02:25.000Z</time>
      </trkpt>
      <trkpt lat="42.7076894603669643402099609375" lon="1.26993368379771709442138671875">
        <ele>2377</ele>
        <time>2018-05-01T10:03:49.000Z</time>
      </trkpt>
      <trkpt lat="42.70768417976796627044677734375" lon="1.27001834101974964141845703125">
        <ele>2377.800048828125</ele>
        <time>2018-05-01T10:04:55.000Z</time>
      </trkpt>
      <trkpt lat="42.70774872042238712310791015625" lon="1.26990485005080699920654296875">
        <ele>2378.39990234375</ele>
        <time>2018-05-01T10:05:49.000Z</time>
      </trkpt>
      <trkpt lat="42.707740254700183868408203125" lon="1.269909627735614776611328125">
        <ele>2378</ele>
        <time>2018-05-01T10:06:10.000Z</time>
      </trkpt>
      <trkpt lat="42.70774595439434051513671875" lon="1.26989915035665035247802734375">
        <ele>2378.39990234375</ele>
        <time>2018-05-01T10:06:52.000Z</time>
      </trkpt>
      <trkpt lat="42.70773279480636119842529296875" lon="1.2698896788060665130615234375">
        <ele>2377.800048828125</ele>
        <time>2018-05-01T10:08:07.000Z</time>
      </trkpt>
      <trkpt lat="42.707700692117214202880859375" lon="1.26990384422242641448974609375">
        <ele>2378.60009765625</ele>
        <time>2018-05-01T10:08:51.000Z</time>
      </trkpt>
      <trkpt lat="42.7077125944197177886962890625" lon="1.2698883377015590667724609375">
        <ele>2379</ele>
        <time>2018-05-01T10:09:21.000Z</time>
      </trkpt>
      <trkpt lat="42.7077265083789825439453125" lon="1.26991960220038890838623046875">
        <ele>2379.199951171875</ele>
        <time>2018-05-01T10:09:51.000Z</time>
      </trkpt>
      <trkpt lat="42.70780068822205066680908203125" lon="1.2698812969028949737548828125">
        <ele>2378.800048828125</ele>
        <time>2018-05-01T10:10:35.000Z</time>
      </trkpt>
      <trkpt lat="42.70779549144208431243896484375" lon="1.26988221891224384307861328125">
        <ele>2378.800048828125</ele>
        <time>2018-05-01T10:10:39.000Z</time>
      </trkpt>
      <trkpt lat="42.70774905569851398468017578125" lon="1.269895546138286590576171875">
        <ele>2378.39990234375</ele>
        <time>2018-05-01T10:10:54.000Z</time>
      </trkpt>
      <trkpt lat="42.7077548392117023468017578125" lon="1.26989462412893772125244140625">
        <ele>2378</ele>
        <time>2018-05-01T10:11:12.000Z</time>
      </trkpt>
      <trkpt lat="42.70774369128048419952392578125" lon="1.26989998854696750640869140625">
        <ele>2378</ele>
        <time>2018-05-01T10:11:24.000Z</time>
      </trkpt>
      <trkpt lat="42.707738243043422698974609375" lon="1.2698972225189208984375">
        <ele>2378.39990234375</ele>
        <time>2018-05-01T10:12:42.000Z</time>
      </trkpt>
      <trkpt lat="42.70773698575794696807861328125" lon="1.26993142068386077880859375">
        <ele>2378.39990234375</ele>
        <time>2018-05-01T10:13:03.000Z</time>
      </trkpt>
      <trkpt lat="42.70772273652255535125732421875" lon="1.26994927413761615753173828125">
        <ele>2378.60009765625</ele>
        <time>2018-05-01T10:13:14.000Z</time>
      </trkpt>
      <trkpt lat="42.7077022008597850799560546875" lon="1.2700221128761768341064453125">
        <ele>2378.60009765625</ele>
        <time>2018-05-01T10:13:28.000Z</time>
      </trkpt>
      <trkpt lat="42.70773514173924922943115234375" lon="1.27003124915063381195068359375">
        <ele>2379.199951171875</ele>
        <time>2018-05-01T10:13:37.000Z</time>
      </trkpt>
      <trkpt lat="42.70775056444108486175537109375" lon="1.27004516310989856719970703125">
        <ele>2379.199951171875</ele>
        <time>2018-05-01T10:13:39.000Z</time>
      </trkpt>
      <trkpt lat="42.70774134434759616851806640625" lon="1.27027600072324275970458984375">
        <ele>2380.39990234375</ele>
        <time>2018-05-01T10:14:02.000Z</time>
      </trkpt>
      <trkpt lat="42.707804627716541290283203125" lon="1.2703288905322551727294921875">
        <ele>2381</ele>
        <time>2018-05-01T10:14:12.000Z</time>
      </trkpt>
      <trkpt lat="42.707856260240077972412109375" lon="1.27048906870186328887939453125">
        <ele>2384.199951171875</ele>
        <time>2018-05-01T10:14:35.000Z</time>
      </trkpt>
      <trkpt lat="42.70791518501937389373779296875" lon="1.27049644477665424346923828125">
        <ele>2387.199951171875</ele>
        <time>2018-05-01T10:14:57.000Z</time>
      </trkpt>
      <trkpt lat="42.7080073021352291107177734375" lon="1.2704251147806644439697265625">
        <ele>2390.39990234375</ele>
        <time>2018-05-01T10:15:18.000Z</time>
      </trkpt>
      <trkpt lat="42.70806639455258846282958984375" lon="1.27035613171756267547607421875">
        <ele>2393.39990234375</ele>
        <time>2018-05-01T10:15:37.000Z</time>
      </trkpt>
      <trkpt lat="42.7080827392637729644775390625" lon="1.27043374814093112945556640625">
        <ele>2394.39990234375</ele>
        <time>2018-05-01T10:15:51.000Z</time>
      </trkpt>
      <trkpt lat="42.7081109024584293365478515625" lon="1.27053835429251194000244140625">
        <ele>2397.199951171875</ele>
        <time>2018-05-01T10:16:04.000Z</time>
      </trkpt>
      <trkpt lat="42.708146609365940093994140625" lon="1.2706470675766468048095703125">
        <ele>2400</ele>
        <time>2018-05-01T10:16:17.000Z</time>
      </trkpt>
      <trkpt lat="42.708170078694820404052734375" lon="1.27075410448014736175537109375">
        <ele>2401.800048828125</ele>
        <time>2018-05-01T10:16:30.000Z</time>
      </trkpt>
      <trkpt lat="42.70808793604373931884765625" lon="1.27089827321469783782958984375">
        <ele>2404</ele>
        <time>2018-05-01T10:16:56.000Z</time>
      </trkpt>
      <trkpt lat="42.708083577454090118408203125" lon="1.2709937430918216705322265625">
        <ele>2403.60009765625</ele>
        <time>2018-05-01T10:17:51.000Z</time>
      </trkpt>
      <trkpt lat="42.7081046998500823974609375" lon="1.271014697849750518798828125">
        <ele>2403.60009765625</ele>
        <time>2018-05-01T10:17:53.000Z</time>
      </trkpt>
      <trkpt lat="42.70812104456126689910888671875" lon="1.27102634869515895843505859375">
        <ele>2403.800048828125</ele>
        <time>2018-05-01T10:17:54.000Z</time>
      </trkpt>
      <trkpt lat="42.70813026465475559234619140625" lon="1.27103975974023342132568359375">
        <ele>2404.199951171875</ele>
        <time>2018-05-01T10:17:55.000Z</time>
      </trkpt>
      <trkpt lat="42.70813864655792713165283203125" lon="1.27104797400534152984619140625">
        <ele>2404.39990234375</ele>
        <time>2018-05-01T10:17:56.000Z</time>
      </trkpt>
      <trkpt lat="42.7081434242427349090576171875" lon="1.27106088213622570037841796875">
        <ele>2404.60009765625</ele>
        <time>2018-05-01T10:17:57.000Z</time>
      </trkpt>
      <trkpt lat="42.7081457711756229400634765625" lon="1.27107001841068267822265625">
        <ele>2404.800048828125</ele>
        <time>2018-05-01T10:17:58.000Z</time>
      </trkpt>
      <trkpt lat="42.70822715945541858673095703125" lon="1.271290965378284454345703125">
        <ele>2407</ele>
        <time>2018-05-01T10:18:18.000Z</time>
      </trkpt>
      <trkpt lat="42.7082892693579196929931640625" lon="1.2714537419378757476806640625">
        <ele>2410</ele>
        <time>2018-05-01T10:19:30.000Z</time>
      </trkpt>
      <trkpt lat="42.70833260379731655120849609375" lon="1.2715010158717632293701171875">
        <ele>2411.60009765625</ele>
        <time>2018-05-01T10:19:38.000Z</time>
      </trkpt>
      <trkpt lat="42.7085219509899616241455078125" lon="1.27148282714188098907470703125">
        <ele>2414.199951171875</ele>
        <time>2018-05-01T10:20:00.000Z</time>
      </trkpt>
      <trkpt lat="42.70861255936324596405029296875" lon="1.27144728787243366241455078125">
        <ele>2414.39990234375</ele>
        <time>2018-05-01T10:20:09.000Z</time>
      </trkpt>
      <trkpt lat="42.708788327872753143310546875" lon="1.27134821377694606781005859375">
        <ele>2414.39990234375</ele>
        <time>2018-05-01T10:20:28.000Z</time>
      </trkpt>
      <trkpt lat="42.7089350111782550811767578125" lon="1.2712053023278713226318359375">
        <ele>2417.199951171875</ele>
        <time>2018-05-01T10:20:58.000Z</time>
      </trkpt>
      <trkpt lat="42.70899460650980472564697265625" lon="1.2711013667285442352294921875">
        <ele>2420.199951171875</ele>
        <time>2018-05-01T10:21:17.000Z</time>
      </trkpt>
      <trkpt lat="42.70907339639961719512939453125" lon="1.27098410390317440032958984375">
        <ele>2423.39990234375</ele>
        <time>2018-05-01T10:21:35.000Z</time>
      </trkpt>
      <trkpt lat="42.70911647938191890716552734375" lon="1.270810849964618682861328125">
        <ele>2426.60009765625</ele>
        <time>2018-05-01T10:22:03.000Z</time>
      </trkpt>
      <trkpt lat="42.7091710455715656280517578125" lon="1.27071370370686054229736328125">
        <ele>2429.60009765625</ele>
        <time>2018-05-01T10:22:20.000Z</time>
      </trkpt>
      <trkpt lat="42.70926249213516712188720703125" lon="1.270567439496517181396484375">
        <ele>2432.800048828125</ele>
        <time>2018-05-01T10:22:45.000Z</time>
      </trkpt>
      <trkpt lat="42.70933725871145725250244140625" lon="1.2704710476100444793701171875">
        <ele>2435.800048828125</ele>
        <time>2018-05-01T10:23:04.000Z</time>
      </trkpt>
      <trkpt lat="42.70932954736053943634033203125" lon="1.27047247253358364105224609375">
        <ele>2436.39990234375</ele>
        <time>2018-05-01T10:23:29.000Z</time>
      </trkpt>
      <trkpt lat="42.70935050211846828460693359375" lon="1.27056450583040714263916015625">
        <ele>2439.60009765625</ele>
        <time>2018-05-01T10:23:56.000Z</time>
      </trkpt>
      <trkpt lat="42.70942560397088527679443359375" lon="1.27062770538032054901123046875">
        <ele>2442.800048828125</ele>
        <time>2018-05-01T10:24:12.000Z</time>
      </trkpt>
      <trkpt lat="42.70944513380527496337890625" lon="1.27070817165076732635498046875">
        <ele>2446</ele>
        <time>2018-05-01T10:24:26.000Z</time>
      </trkpt>
      <trkpt lat="42.70953775383532047271728515625" lon="1.2706262804567813873291015625">
        <ele>2449.199951171875</ele>
        <time>2018-05-01T10:24:44.000Z</time>
      </trkpt>
      <trkpt lat="42.7096236683428287506103515625" lon="1.2705820240080356597900390625">
        <ele>2452.199951171875</ele>
        <time>2018-05-01T10:25:07.000Z</time>
      </trkpt>
      <trkpt lat="42.70965593867003917694091796875" lon="1.27067481167614459991455078125">
        <ele>2455.199951171875</ele>
        <time>2018-05-01T10:25:24.000Z</time>
      </trkpt>
      <trkpt lat="42.7096813358366489410400390625" lon="1.27068067900836467742919921875">
        <ele>2458.199951171875</ele>
        <time>2018-05-01T10:25:36.000Z</time>
      </trkpt>
      <trkpt lat="42.70969348959624767303466796875" lon="1.27067715860903263092041015625">
        <ele>2458.800048828125</ele>
        <time>2018-05-01T10:25:38.000Z</time>
      </trkpt>
      <trkpt lat="42.70975786261260509490966796875" lon="1.27064622938632965087890625">
        <ele>2460.800048828125</ele>
        <time>2018-05-01T10:25:50.000Z</time>
      </trkpt>
      <trkpt lat="42.70984151400625705718994140625" lon="1.27057783305644989013671875">
        <ele>2463.800048828125</ele>
        <time>2018-05-01T10:26:10.000Z</time>
      </trkpt>
      <trkpt lat="42.70992868579924106597900390625" lon="1.27065737731754779815673828125">
        <ele>2465.800048828125</ele>
        <time>2018-05-01T10:26:41.000Z</time>
      </trkpt>
      <trkpt lat="42.70995718427002429962158203125" lon="1.2707188166677951812744140625">
        <ele>2468</ele>
        <time>2018-05-01T10:26:54.000Z</time>
      </trkpt>
      <trkpt lat="42.7099810726940631866455078125" lon="1.27074421383440494537353515625">
        <ele>2470.60009765625</ele>
        <time>2018-05-01T10:27:03.000Z</time>
      </trkpt>
      <trkpt lat="42.709985263645648956298828125" lon="1.27074589021503925323486328125">
        <ele>2471.39990234375</ele>
        <time>2018-05-01T10:27:05.000Z</time>
      </trkpt>
      <trkpt lat="42.71001921035349369049072265625" lon="1.27074438147246837615966796875">
        <ele>2474.39990234375</ele>
        <time>2018-05-01T10:27:13.000Z</time>
      </trkpt>
      <trkpt lat="42.71008073352277278900146484375" lon="1.27074270509183406829833984375">
        <ele>2475.39990234375</ele>
        <time>2018-05-01T10:27:28.000Z</time>
      </trkpt>
      <trkpt lat="42.7101597748696804046630859375" lon="1.27078159712255001068115234375">
        <ele>2475.39990234375</ele>
        <time>2018-05-01T10:27:46.000Z</time>
      </trkpt>
      <trkpt lat="42.71018215455114841461181640625" lon="1.2708413600921630859375">
        <ele>2477.39990234375</ele>
        <time>2018-05-01T10:27:57.000Z</time>
      </trkpt>
      <trkpt lat="42.71019556559622287750244140625" lon="1.27086943946778774261474609375">
        <ele>2480.39990234375</ele>
        <time>2018-05-01T10:28:05.000Z</time>
      </trkpt>
      <trkpt lat="42.71019841544330120086669921875" lon="1.27087195403873920440673828125">
        <ele>2481</ele>
        <time>2018-05-01T10:28:06.000Z</time>
      </trkpt>
      <trkpt lat="42.710234038531780242919921875" lon="1.270897351205348968505859375">
        <ele>2482.199951171875</ele>
        <time>2018-05-01T10:28:17.000Z</time>
      </trkpt>
      <trkpt lat="42.710368148982524871826171875" lon="1.2709652446210384368896484375">
        <ele>2485.199951171875</ele>
        <time>2018-05-01T10:28:41.000Z</time>
      </trkpt>
      <trkpt lat="42.71052279509603977203369140625" lon="1.27100723795592784881591796875">
        <ele>2488.199951171875</ele>
        <time>2018-05-01T10:29:09.000Z</time>
      </trkpt>
      <trkpt lat="42.71064399741590023040771484375" lon="1.27109818160533905029296875">
        <ele>2491.39990234375</ele>
        <time>2018-05-01T10:29:32.000Z</time>
      </trkpt>
      <trkpt lat="42.71078665740787982940673828125" lon="1.27110580913722515106201171875">
        <ele>2494.39990234375</ele>
        <time>2018-05-01T10:29:54.000Z</time>
      </trkpt>
      <trkpt lat="42.710919342935085296630859375" lon="1.2710648216307163238525390625">
        <ele>2497.60009765625</ele>
        <time>2018-05-01T10:30:14.000Z</time>
      </trkpt>
      <trkpt lat="42.711043395102024078369140625" lon="1.27108535729348659515380859375">
        <ele>2500.60009765625</ele>
        <time>2018-05-01T10:30:35.000Z</time>
      </trkpt>
      <trkpt lat="42.71119016222655773162841796875" lon="1.27105317078530788421630859375">
        <ele>2503.800048828125</ele>
        <time>2018-05-01T10:30:56.000Z</time>
      </trkpt>
      <trkpt lat="42.71136215887963771820068359375" lon="1.27101427875459194183349609375">
        <ele>2505.800048828125</ele>
        <time>2018-05-01T10:31:23.000Z</time>
      </trkpt>
      <trkpt lat="42.7114234305918216705322265625" lon="1.271008662879467010498046875">
        <ele>2504.800048828125</ele>
        <time>2018-05-01T10:31:34.000Z</time>
      </trkpt>
      <trkpt lat="42.7114170603454113006591796875" lon="1.27102249301970005035400390625">
        <ele>2505.60009765625</ele>
        <time>2018-05-01T10:32:19.000Z</time>
      </trkpt>
      <trkpt lat="42.7114251069724559783935546875" lon="1.27101503312587738037109375">
        <ele>2506.199951171875</ele>
        <time>2018-05-01T10:32:20.000Z</time>
      </trkpt>
      <trkpt lat="42.71142753772437572479248046875" lon="1.2710125185549259185791015625">
        <ele>2506.39990234375</ele>
        <time>2018-05-01T10:32:21.000Z</time>
      </trkpt>
      <trkpt lat="42.7114976942539215087890625" lon="1.27103204838931560516357421875">
        <ele>2507</ele>
        <time>2018-05-01T10:32:33.000Z</time>
      </trkpt>
      <trkpt lat="42.71164680831134319305419921875" lon="1.27098795957863330841064453125">
        <ele>2507.39990234375</ele>
        <time>2018-05-01T10:32:52.000Z</time>
      </trkpt>
      <trkpt lat="42.71181528456509113311767578125" lon="1.27094655297696590423583984375">
        <ele>2510.60009765625</ele>
        <time>2018-05-01T10:33:15.000Z</time>
      </trkpt>
      <trkpt lat="42.7119295299053192138671875" lon="1.2709947489202022552490234375">
        <ele>2513.60009765625</ele>
        <time>2018-05-01T10:33:38.000Z</time>
      </trkpt>
      <trkpt lat="42.71199591457843780517578125" lon="1.27102039754390716552734375">
        <ele>2516.60009765625</ele>
        <time>2018-05-01T10:33:53.000Z</time>
      </trkpt>
      <trkpt lat="42.71209389902651309967041015625" lon="1.27098628319799900054931640625">
        <ele>2519.800048828125</ele>
        <time>2018-05-01T10:34:08.000Z</time>
      </trkpt>
      <trkpt lat="42.71219347603619098663330078125" lon="1.27090866677463054656982421875">
        <ele>2521</ele>
        <time>2018-05-01T10:34:22.000Z</time>
      </trkpt>
      <trkpt lat="42.71220185793936252593994140625" lon="1.27090263180434703826904296875">
        <ele>2521</ele>
        <time>2018-05-01T10:34:23.000Z</time>
      </trkpt>
      <trkpt lat="42.71225935779511928558349609375" lon="1.27084965817630290985107421875">
        <ele>2520.60009765625</ele>
        <time>2018-05-01T10:34:30.000Z</time>
      </trkpt>
      <trkpt lat="42.71226656623184680938720703125" lon="1.2708411924540996551513671875">
        <ele>2520.60009765625</ele>
        <time>2018-05-01T10:34:31.000Z</time>
      </trkpt>
      <trkpt lat="42.7122770436108112335205078125" lon="1.27083021216094493865966796875">
        <ele>2520.39990234375</ele>
        <time>2018-05-01T10:34:32.000Z</time>
      </trkpt>
      <trkpt lat="42.71240956149995326995849609375" lon="1.270677745342254638671875">
        <ele>2520.39990234375</ele>
        <time>2018-05-01T10:35:05.000Z</time>
      </trkpt>
      <trkpt lat="42.7124034427106380462646484375" lon="1.27069660462439060211181640625">
        <ele>2519.800048828125</ele>
        <time>2018-05-01T10:35:52.000Z</time>
      </trkpt>
      <trkpt lat="42.7123964019119739532470703125" lon="1.2706866301596164703369140625">
        <ele>2520.39990234375</ele>
        <time>2018-05-01T10:36:17.000Z</time>
      </trkpt>
      <trkpt lat="42.71244107745587825775146484375" lon="1.27059987746179103851318359375">
        <ele>2520.800048828125</ele>
        <time>2018-05-01T10:36:30.000Z</time>
      </trkpt>
      <trkpt lat="42.71244250237941741943359375" lon="1.2705686129629611968994140625">
        <ele>2521.199951171875</ele>
        <time>2018-05-01T10:37:00.000Z</time>
      </trkpt>
      <trkpt lat="42.71244241856038570404052734375" lon="1.27053265459835529327392578125">
        <ele>2521.199951171875</ele>
        <time>2018-05-01T10:37:10.000Z</time>
      </trkpt>
      <trkpt lat="42.7124376408755779266357421875" lon="1.27051807008683681488037109375">
        <ele>2520.800048828125</ele>
        <time>2018-05-01T10:37:43.000Z</time>
      </trkpt>
      <trkpt lat="42.7124339528381824493408203125" lon="1.27039812505245208740234375">
        <ele>2519.39990234375</ele>
        <time>2018-05-01T10:38:09.000Z</time>
      </trkpt>
      <trkpt lat="42.712433449923992156982421875" lon="1.270247586071491241455078125">
        <ele>2519</ele>
        <time>2018-05-01T10:38:19.000Z</time>
      </trkpt>
      <trkpt lat="42.71244174800813198089599609375" lon="1.270171813666820526123046875">
        <ele>2519.60009765625</ele>
        <time>2018-05-01T10:38:24.000Z</time>
      </trkpt>
      <trkpt lat="42.7124500460922718048095703125" lon="1.2701377831399440765380859375">
        <ele>2520</ele>
        <time>2018-05-01T10:38:28.000Z</time>
      </trkpt>
      <trkpt lat="42.71245717070996761322021484375" lon="1.27009025774896144866943359375">
        <ele>2519.800048828125</ele>
        <time>2018-05-01T10:38:32.000Z</time>
      </trkpt>
      <trkpt lat="42.71246957592666149139404296875" lon="1.2700589932501316070556640625">
        <ele>2520</ele>
        <time>2018-05-01T10:38:36.000Z</time>
      </trkpt>
      <trkpt lat="42.71246706135571002960205078125" lon="1.27000710926949977874755859375">
        <ele>2519.800048828125</ele>
        <time>2018-05-01T10:38:40.000Z</time>
      </trkpt>
      <trkpt lat="42.7124726772308349609375" lon="1.2699456699192523956298828125">
        <ele>2519.800048828125</ele>
        <time>2018-05-01T10:38:45.000Z</time>
      </trkpt>
      <trkpt lat="42.71248835138976573944091796875" lon="1.269883476197719573974609375">
        <ele>2519.60009765625</ele>
        <time>2018-05-01T10:38:50.000Z</time>
      </trkpt>
      <trkpt lat="42.7125321887433528900146484375" lon="1.26977073960006237030029296875">
        <ele>2519.199951171875</ele>
        <time>2018-05-01T10:38:59.000Z</time>
      </trkpt>
      <trkpt lat="42.7125620283186435699462890625" lon="1.26966881565749645233154296875">
        <ele>2518.800048828125</ele>
        <time>2018-05-01T10:39:06.000Z</time>
      </trkpt>
      <trkpt lat="42.71261927671730518341064453125" lon="1.26955146901309490203857421875">
        <ele>2518.800048828125</ele>
        <time>2018-05-01T10:39:16.000Z</time>
      </trkpt>
      <trkpt lat="42.712725810706615447998046875" lon="1.2693529017269611358642578125">
        <ele>2518</ele>
        <time>2018-05-01T10:39:34.000Z</time>
      </trkpt>
      <trkpt lat="42.71278255619108676910400390625" lon="1.2691765464842319488525390625">
        <ele>2518.39990234375</ele>
        <time>2018-05-01T10:39:53.000Z</time>
      </trkpt>
      <trkpt lat="42.7128758467733860015869140625" lon="1.26894830726087093353271484375">
        <ele>2519.39990234375</ele>
        <time>2018-05-01T10:40:13.000Z</time>
      </trkpt>
      <trkpt lat="42.71299839019775390625" lon="1.26874697394669055938720703125">
        <ele>2518.800048828125</ele>
        <time>2018-05-01T10:40:32.000Z</time>
      </trkpt>
      <trkpt lat="42.71314683370292186737060546875" lon="1.268603391945362091064453125">
        <ele>2518.199951171875</ele>
        <time>2018-05-01T10:40:49.000Z</time>
      </trkpt>
      <trkpt lat="42.71326401270925998687744140625" lon="1.2684298865497112274169921875">
        <ele>2518.800048828125</ele>
        <time>2018-05-01T10:41:11.000Z</time>
      </trkpt>
      <trkpt lat="42.71327122114598751068115234375" lon="1.26846693456172943115234375">
        <ele>2518.800048828125</ele>
        <time>2018-05-01T10:41:33.000Z</time>
      </trkpt>
      <trkpt lat="42.71326736547052860260009765625" lon="1.2684771604835987091064453125">
        <ele>2518.800048828125</ele>
        <time>2018-05-01T10:41:34.000Z</time>
      </trkpt>
      <trkpt lat="42.7132718078792095184326171875" lon="1.2684339098632335662841796875">
        <ele>2518.800048828125</ele>
        <time>2018-05-01T10:41:53.000Z</time>
      </trkpt>
      <trkpt lat="42.71333475597202777862548828125" lon="1.26816074363887310028076171875">
        <ele>2519.199951171875</ele>
        <time>2018-05-01T10:42:13.000Z</time>
      </trkpt>
      <trkpt lat="42.71342276595532894134521484375" lon="1.2679581530392169952392578125">
        <ele>2519.39990234375</ele>
        <time>2018-05-01T10:42:32.000Z</time>
      </trkpt>
      <trkpt lat="42.7134659327566623687744140625" lon="1.26786410808563232421875">
        <ele>2520.60009765625</ele>
        <time>2018-05-01T10:42:54.000Z</time>
      </trkpt>
      <trkpt lat="42.7134458161890506744384765625" lon="1.26789160072803497314453125">
        <ele>2520</ele>
        <time>2018-05-01T10:43:46.000Z</time>
      </trkpt>
      <trkpt lat="42.7134635858237743377685546875" lon="1.2678739987313747406005859375">
        <ele>2520.39990234375</ele>
        <time>2018-05-01T10:44:23.000Z</time>
      </trkpt>
      <trkpt lat="42.71347112953662872314453125" lon="1.2678555585443973541259765625">
        <ele>2520.60009765625</ele>
        <time>2018-05-01T10:45:00.000Z</time>
      </trkpt>
      <trkpt lat="42.71345436573028564453125" lon="1.26786050386726856231689453125">
        <ele>2520.60009765625</ele>
        <time>2018-05-01T10:45:06.000Z</time>
      </trkpt>
      <trkpt lat="42.71346366964280605316162109375" lon="1.2678793631494045257568359375">
        <ele>2519.800048828125</ele>
        <time>2018-05-01T10:45:40.000Z</time>
      </trkpt>
      <trkpt lat="42.7134645916521549224853515625" lon="1.26788623631000518798828125">
        <ele>2520</ele>
        <time>2018-05-01T10:46:07.000Z</time>
      </trkpt>
      <trkpt lat="42.71347708068788051605224609375" lon="1.26788564957678318023681640625">
        <ele>2521.199951171875</ele>
        <time>2018-05-01T10:47:48.000Z</time>
      </trkpt>
      <trkpt lat="42.71347641013562679290771484375" lon="1.26786100678145885467529296875">
        <ele>2521.800048828125</ele>
        <time>2018-05-01T10:48:54.000Z</time>
      </trkpt>
      <trkpt lat="42.71355084143579006195068359375" lon="1.26768381334841251373291015625">
        <ele>2524.39990234375</ele>
        <time>2018-05-01T10:49:32.000Z</time>
      </trkpt>
      <trkpt lat="42.7135956846177577972412109375" lon="1.2675732560455799102783203125">
        <ele>2527.60009765625</ele>
        <time>2018-05-01T10:49:52.000Z</time>
      </trkpt>
      <trkpt lat="42.7136528491973876953125" lon="1.26748197712004184722900390625">
        <ele>2530.60009765625</ele>
        <time>2018-05-01T10:50:10.000Z</time>
      </trkpt>
      <trkpt lat="42.7137137018144130706787109375" lon="1.26741995103657245635986328125">
        <ele>2534</ele>
        <time>2018-05-01T10:50:24.000Z</time>
      </trkpt>
      <trkpt lat="42.71380933932960033416748046875" lon="1.26739162020385265350341796875">
        <ele>2537</ele>
        <time>2018-05-01T10:50:40.000Z</time>
      </trkpt>
      <trkpt lat="42.7138392627239227294921875" lon="1.26737837679684162139892578125">
        <ele>2539.800048828125</ele>
        <time>2018-05-01T10:50:47.000Z</time>
      </trkpt>
      <trkpt lat="42.71385334432125091552734375" lon="1.26728399656713008880615234375">
        <ele>2539.800048828125</ele>
        <time>2018-05-01T10:51:08.000Z</time>
      </trkpt>
      <trkpt lat="42.71384370513260364532470703125" lon="1.2671977467834949493408203125">
        <ele>2541.60009765625</ele>
        <time>2018-05-01T10:51:19.000Z</time>
      </trkpt>
      <trkpt lat="42.71385200321674346923828125" lon="1.26714955084025859832763671875">
        <ele>2543.39990234375</ele>
        <time>2018-05-01T10:51:30.000Z</time>
      </trkpt>
      <trkpt lat="42.71394663490355014801025390625" lon="1.26714996993541717529296875">
        <ele>2546.60009765625</ele>
        <time>2018-05-01T10:51:50.000Z</time>
      </trkpt>
      <trkpt lat="42.71402827464044094085693359375" lon="1.26715139485895633697509765625">
        <ele>2549.199951171875</ele>
        <time>2018-05-01T10:52:04.000Z</time>
      </trkpt>
      <trkpt lat="42.714036069810390472412109375" lon="1.2671541608870029449462890625">
        <ele>2549.39990234375</ele>
        <time>2018-05-01T10:52:05.000Z</time>
      </trkpt>
      <trkpt lat="42.71405258215963840484619140625" lon="1.26705885864794254302978515625">
        <ele>2552.60009765625</ele>
        <time>2018-05-01T10:52:26.000Z</time>
      </trkpt>
      <trkpt lat="42.7140147797763347625732421875" lon="1.26690982840955257415771484375">
        <ele>2555.800048828125</ele>
        <time>2018-05-01T10:52:49.000Z</time>
      </trkpt>
      <trkpt lat="42.7139805816113948822021484375" lon="1.26683606766164302825927734375">
        <ele>2558.800048828125</ele>
        <time>2018-05-01T10:53:03.000Z</time>
      </trkpt>
      <trkpt lat="42.714092396199703216552734375" lon="1.26679147593677043914794921875">
        <ele>2561.39990234375</ele>
        <time>2018-05-01T10:53:22.000Z</time>
      </trkpt>
      <trkpt lat="42.71419742144644260406494140625" lon="1.26677404157817363739013671875">
        <ele>2564.39990234375</ele>
        <time>2018-05-01T10:53:40.000Z</time>
      </trkpt>
      <trkpt lat="42.7142930589616298675537109375" lon="1.26677353866398334503173828125">
        <ele>2567.60009765625</ele>
        <time>2018-05-01T10:54:00.000Z</time>
      </trkpt>
      <trkpt lat="42.71428115665912628173828125" lon="1.26665535382926464080810546875">
        <ele>2570.800048828125</ele>
        <time>2018-05-01T10:54:23.000Z</time>
      </trkpt>
      <trkpt lat="42.71426313556730747222900390625" lon="1.266531385481357574462890625">
        <ele>2573.800048828125</ele>
        <time>2018-05-01T10:54:42.000Z</time>
      </trkpt>
      <trkpt lat="42.714241258800029754638671875" lon="1.266368441283702850341796875">
        <ele>2577</ele>
        <time>2018-05-01T10:55:03.000Z</time>
      </trkpt>
      <trkpt lat="42.71417143754661083221435546875" lon="1.26623994670808315277099609375">
        <ele>2580</ele>
        <time>2018-05-01T10:55:26.000Z</time>
      </trkpt>
      <trkpt lat="42.71409566514194011688232421875" lon="1.2661064229905605316162109375">
        <ele>2583</ele>
        <time>2018-05-01T10:55:47.000Z</time>
      </trkpt>
      <trkpt lat="42.71407906897366046905517578125" lon="1.26599687151610851287841796875">
        <ele>2584.39990234375</ele>
        <time>2018-05-01T10:56:35.000Z</time>
      </trkpt>
      <trkpt lat="42.71401469595730304718017578125" lon="1.26579134725034236907958984375">
        <ele>2585.800048828125</ele>
        <time>2018-05-01T10:57:01.000Z</time>
      </trkpt>
      <trkpt lat="42.714009582996368408203125" lon="1.265523545444011688232421875">
        <ele>2586.800048828125</ele>
        <time>2018-05-01T10:57:20.000Z</time>
      </trkpt>
      <trkpt lat="42.71406096406280994415283203125" lon="1.26526311971247196197509765625">
        <ele>2588.199951171875</ele>
        <time>2018-05-01T10:57:41.000Z</time>
      </trkpt>
      <trkpt lat="42.71409130655229091644287109375" lon="1.2650115787982940673828125">
        <ele>2590.800048828125</ele>
        <time>2018-05-01T10:58:04.000Z</time>
      </trkpt>
      <trkpt lat="42.7140597067773342132568359375" lon="1.2647810764610767364501953125">
        <ele>2592.800048828125</ele>
        <time>2018-05-01T10:58:27.000Z</time>
      </trkpt>
      <trkpt lat="42.71404939703643321990966796875" lon="1.26475584693253040313720703125">
        <ele>2593.199951171875</ele>
        <time>2018-05-01T10:58:30.000Z</time>
      </trkpt>
      <trkpt lat="42.71404034458100795745849609375" lon="1.26462609507143497467041015625">
        <ele>2595.199951171875</ele>
        <time>2018-05-01T10:58:46.000Z</time>
      </trkpt>
      <trkpt lat="42.7140563540160655975341796875" lon="1.264529787003993988037109375">
        <ele>2597.199951171875</ele>
        <time>2018-05-01T10:59:00.000Z</time>
      </trkpt>
      <trkpt lat="42.71405912004411220550537109375" lon="1.2645225785672664642333984375">
        <ele>2597.199951171875</ele>
        <time>2018-05-01T10:59:01.000Z</time>
      </trkpt>
      <trkpt lat="42.71408476866781711578369140625" lon="1.26439475454390048980712890625">
        <ele>2600.39990234375</ele>
        <time>2018-05-01T10:59:19.000Z</time>
      </trkpt>
      <trkpt lat="42.71414796821773052215576171875" lon="1.2642847001552581787109375">
        <ele>2603.60009765625</ele>
        <time>2018-05-01T10:59:38.000Z</time>
      </trkpt>
      <trkpt lat="42.71420203149318695068359375" lon="1.26426751725375652313232421875">
        <ele>2604.39990234375</ele>
        <time>2018-05-01T10:59:47.000Z</time>
      </trkpt>
      <trkpt lat="42.7142746187746524810791015625" lon="1.2642724625766277313232421875">
        <ele>2606.800048828125</ele>
        <time>2018-05-01T11:00:05.000Z</time>
      </trkpt>
      <trkpt lat="42.71429850719869136810302734375" lon="1.264291740953922271728515625">
        <ele>2609.800048828125</ele>
        <time>2018-05-01T11:00:19.000Z</time>
      </trkpt>
      <trkpt lat="42.7143068052828311920166015625" lon="1.264183782041072845458984375">
        <ele>2612.199951171875</ele>
        <time>2018-05-01T11:00:33.000Z</time>
      </trkpt>
      <trkpt lat="42.71429121494293212890625" lon="1.26411781646311283111572265625">
        <ele>2612.800048828125</ele>
        <time>2018-05-01T11:00:54.000Z</time>
      </trkpt>
      <trkpt lat="42.7142689190804958343505859375" lon="1.264132149517536163330078125">
        <ele>2612.800048828125</ele>
        <time>2018-05-01T11:01:16.000Z</time>
      </trkpt>
      <trkpt lat="42.71424268372356891632080078125" lon="1.2641279585659503936767578125">
        <ele>2613.39990234375</ele>
        <time>2018-05-01T11:01:34.000Z</time>
      </trkpt>
      <trkpt lat="42.714327089488506317138671875" lon="1.26397331245243549346923828125">
        <ele>2616.199951171875</ele>
        <time>2018-05-01T11:01:56.000Z</time>
      </trkpt>
      <trkpt lat="42.71427805535495281219482421875" lon="1.26377642154693603515625">
        <ele>2619.39990234375</ele>
        <time>2018-05-01T11:02:20.000Z</time>
      </trkpt>
      <trkpt lat="42.714257352054119110107421875" lon="1.26369654200971126556396484375">
        <ele>2620.60009765625</ele>
        <time>2018-05-01T11:02:30.000Z</time>
      </trkpt>
      <trkpt lat="42.71419574506580829620361328125" lon="1.2635486014187335968017578125">
        <ele>2623.800048828125</ele>
        <time>2018-05-01T11:02:51.000Z</time>
      </trkpt>
      <trkpt lat="42.71416456438601016998291015625" lon="1.26347609795629978179931640625">
        <ele>2626.199951171875</ele>
        <time>2018-05-01T11:03:05.000Z</time>
      </trkpt>
      <trkpt lat="42.71412148140370845794677734375" lon="1.26340334303677082061767578125">
        <ele>2629.199951171875</ele>
        <time>2018-05-01T11:03:20.000Z</time>
      </trkpt>
      <trkpt lat="42.71415785886347293853759765625" lon="1.2633839808404445648193359375">
        <ele>2630.39990234375</ele>
        <time>2018-05-01T11:03:25.000Z</time>
      </trkpt>
      <trkpt lat="42.71416850388050079345703125" lon="1.2633799575269222259521484375">
        <ele>2630.39990234375</ele>
        <time>2018-05-01T11:03:26.000Z</time>
      </trkpt>
      <trkpt lat="42.7142830006778240203857421875" lon="1.26333452761173248291015625">
        <ele>2633.199951171875</ele>
        <time>2018-05-01T11:03:44.000Z</time>
      </trkpt>
      <trkpt lat="42.71422675810754299163818359375" lon="1.26325137913227081298828125">
        <ele>2636.60009765625</ele>
        <time>2018-05-01T11:04:08.000Z</time>
      </trkpt>
      <trkpt lat="42.71422089077532291412353515625" lon="1.263246349990367889404296875">
        <ele>2636.800048828125</ele>
        <time>2018-05-01T11:04:09.000Z</time>
      </trkpt>
      <trkpt lat="42.7141324616968631744384765625" lon="1.2630830705165863037109375">
        <ele>2639.60009765625</ele>
        <time>2018-05-01T11:04:38.000Z</time>
      </trkpt>
      <trkpt lat="42.71406565792858600616455078125" lon="1.26299313269555568695068359375">
        <ele>2643</ele>
        <time>2018-05-01T11:04:55.000Z</time>
      </trkpt>
      <trkpt lat="42.7141423523426055908203125" lon="1.26292674802243709564208984375">
        <ele>2646</ele>
        <time>2018-05-01T11:05:11.000Z</time>
      </trkpt>
      <trkpt lat="42.714194990694522857666015625" lon="1.2628658115863800048828125">
        <ele>2649.199951171875</ele>
        <time>2018-05-01T11:05:29.000Z</time>
      </trkpt>
      <trkpt lat="42.7142209745943546295166015625" lon="1.26277905888855457305908203125">
        <ele>2652.39990234375</ele>
        <time>2018-05-01T11:05:50.000Z</time>
      </trkpt>
      <trkpt lat="42.71420664153993129730224609375" lon="1.262768246233463287353515625">
        <ele>2653.199951171875</ele>
        <time>2018-05-01T11:05:52.000Z</time>
      </trkpt>
      <trkpt lat="42.7141609601676464080810546875" lon="1.26264679245650768280029296875">
        <ele>2656</ele>
        <time>2018-05-01T11:06:16.000Z</time>
      </trkpt>
      <trkpt lat="42.7140865288674831390380859375" lon="1.26253254711627960205078125">
        <ele>2659</ele>
        <time>2018-05-01T11:06:36.000Z</time>
      </trkpt>
      <trkpt lat="42.71402173675596714019775390625" lon="1.26242450438439846038818359375">
        <ele>2661.800048828125</ele>
        <time>2018-05-01T11:06:55.000Z</time>
      </trkpt>
      <trkpt lat="42.7140281908214092254638671875" lon="1.26238963566720485687255859375">
        <ele>2662.800048828125</ele>
        <time>2018-05-01T11:06:59.000Z</time>
      </trkpt>
      <trkpt lat="42.71408895961940288543701171875" lon="1.262309253215789794921875">
        <ele>2665.800048828125</ele>
        <time>2018-05-01T11:07:18.000Z</time>
      </trkpt>
      <trkpt lat="42.71417881362140178680419921875" lon="1.26224278472363948822021484375">
        <ele>2669</ele>
        <time>2018-05-01T11:07:38.000Z</time>
      </trkpt>
      <trkpt lat="42.7142286859452724456787109375" lon="1.2622306309640407562255859375">
        <ele>2670</ele>
        <time>2018-05-01T11:08:09.000Z</time>
      </trkpt>
      <trkpt lat="42.71420815028250217437744140625" lon="1.26223842613399028778076171875">
        <ele>2670</ele>
        <time>2018-05-01T11:08:31.000Z</time>
      </trkpt>
      <trkpt lat="42.71417495794594287872314453125" lon="1.26224982552230358123779296875">
        <ele>2670.39990234375</ele>
        <time>2018-05-01T11:08:51.000Z</time>
      </trkpt>
      <trkpt lat="42.71419641561806201934814453125" lon="1.26223205588757991790771484375">
        <ele>2670</ele>
        <time>2018-05-01T11:09:06.000Z</time>
      </trkpt>
      <trkpt lat="42.7141904644668102264404296875" lon="1.26224379055202007293701171875">
        <ele>2670.60009765625</ele>
        <time>2018-05-01T11:09:24.000Z</time>
      </trkpt>
      <trkpt lat="42.7141482196748256683349609375" lon="1.26224345527589321136474609375">
        <ele>2671</ele>
        <time>2018-05-01T11:09:53.000Z</time>
      </trkpt>
      <trkpt lat="42.7141049690544605255126953125" lon="1.2622864544391632080078125">
        <ele>2670.39990234375</ele>
        <time>2018-05-01T11:10:19.000Z</time>
      </trkpt>
      <trkpt lat="42.7140915580093860626220703125" lon="1.2622209079563617706298828125">
        <ele>2673</ele>
        <time>2018-05-01T11:11:03.000Z</time>
      </trkpt>
      <trkpt lat="42.71410010755062103271484375" lon="1.262221746146678924560546875">
        <ele>2672.60009765625</ele>
        <time>2018-05-01T11:11:04.000Z</time>
      </trkpt>
      <trkpt lat="42.71405660547316074371337890625" lon="1.26218679361045360565185546875">
        <ele>2672.800048828125</ele>
        <time>2018-05-01T11:11:44.000Z</time>
      </trkpt>
      <trkpt lat="42.71416850388050079345703125" lon="1.262141279876232147216796875">
        <ele>2675.60009765625</ele>
        <time>2018-05-01T11:12:03.000Z</time>
      </trkpt>
      <trkpt lat="42.7142437733709812164306640625" lon="1.26210163347423076629638671875">
        <ele>2677.60009765625</ele>
        <time>2018-05-01T11:12:13.000Z</time>
      </trkpt>
      <trkpt lat="42.714254669845104217529296875" lon="1.26210163347423076629638671875">
        <ele>2677.800048828125</ele>
        <time>2018-05-01T11:12:14.000Z</time>
      </trkpt>
      <trkpt lat="42.71426112391054630279541015625" lon="1.26209802925586700439453125">
        <ele>2678</ele>
        <time>2018-05-01T11:12:15.000Z</time>
      </trkpt>
      <trkpt lat="42.7143527381122112274169921875" lon="1.26210205256938934326171875">
        <ele>2680.60009765625</ele>
        <time>2018-05-01T11:12:31.000Z</time>
      </trkpt>
      <trkpt lat="42.71439707837998867034912109375" lon="1.2621079199016094207763671875">
        <ele>2682.39990234375</ele>
        <time>2018-05-01T11:12:48.000Z</time>
      </trkpt>
      <trkpt lat="42.7143748663365840911865234375" lon="1.2621407769620418548583984375">
        <ele>2682.800048828125</ele>
        <time>2018-05-01T11:13:11.000Z</time>
      </trkpt>
      <trkpt lat="42.714376710355281829833984375" lon="1.262128539383411407470703125">
        <ele>2682.800048828125</ele>
        <time>2018-05-01T11:13:13.000Z</time>
      </trkpt>
      <trkpt lat="42.7144057117402553558349609375" lon="1.26212493516504764556884765625">
        <ele>2683.199951171875</ele>
        <time>2018-05-01T11:13:17.000Z</time>
      </trkpt>
      <trkpt lat="42.71450269035995006561279296875" lon="1.262121833860874176025390625">
        <ele>2686.199951171875</ele>
        <time>2018-05-01T11:13:31.000Z</time>
      </trkpt>
      <trkpt lat="42.71456019021570682525634765625" lon="1.26216516830027103424072265625">
        <ele>2689.199951171875</ele>
        <time>2018-05-01T11:14:14.000Z</time>
      </trkpt>
      <trkpt lat="42.71463998593389987945556640625" lon="1.26218662597239017486572265625">
        <ele>2692.39990234375</ele>
        <time>2018-05-01T11:14:30.000Z</time>
      </trkpt>
      <trkpt lat="42.7146357111632823944091796875" lon="1.26220523379743099212646484375">
        <ele>2694</ele>
        <time>2018-05-01T11:14:44.000Z</time>
      </trkpt>
      <trkpt lat="42.714571841061115264892578125" lon="1.26207925379276275634765625">
        <ele>2697.199951171875</ele>
        <time>2018-05-01T11:15:03.000Z</time>
      </trkpt>
      <trkpt lat="42.71459673531353473663330078125" lon="1.26207196153700351715087890625">
        <ele>2697.60009765625</ele>
        <time>2018-05-01T11:15:16.000Z</time>
      </trkpt>
      <trkpt lat="42.71468742750585079193115234375" lon="1.26210012473165988922119140625">
        <ele>2700.60009765625</ele>
        <time>2018-05-01T11:15:33.000Z</time>
      </trkpt>
      <trkpt lat="42.7146960608661174774169921875" lon="1.2621243484318256378173828125">
        <ele>2702</ele>
        <time>2018-05-01T11:15:53.000Z</time>
      </trkpt>
      <trkpt lat="42.71468751132488250732421875" lon="1.26206391490995883941650390625">
        <ele>2702.60009765625</ele>
        <time>2018-05-01T11:15:59.000Z</time>
      </trkpt>
      <trkpt lat="42.71469647996127605438232421875" lon="1.262020580470561981201171875">
        <ele>2704</ele>
        <time>2018-05-01T11:16:48.000Z</time>
      </trkpt>
      <trkpt lat="42.7146655507385730743408203125" lon="1.26190868206322193145751953125">
        <ele>2706.39990234375</ele>
        <time>2018-05-01T11:17:30.000Z</time>
      </trkpt>
      <trkpt lat="42.71469891071319580078125" lon="1.26197590492665767669677734375">
        <ele>2707.39990234375</ele>
        <time>2018-05-01T11:18:09.000Z</time>
      </trkpt>
      <trkpt lat="42.7147104777395725250244140625" lon="1.26196266151964664459228515625">
        <ele>2707.60009765625</ele>
        <time>2018-05-01T11:18:22.000Z</time>
      </trkpt>
      <trkpt lat="42.7147155068814754486083984375" lon="1.2619557045400142669677734375">
        <ele>2707.60009765625</ele>
        <time>2018-05-01T11:18:37.000Z</time>
      </trkpt>
      <trkpt lat="42.71470067091286182403564453125" lon="1.261960230767726898193359375">
        <ele>2707.60009765625</ele>
        <time>2018-05-01T11:19:02.000Z</time>
      </trkpt>
      <trkpt lat="42.7146953903138637542724609375" lon="1.26194606535136699676513671875">
        <ele>2708</ele>
        <time>2018-05-01T11:19:32.000Z</time>
      </trkpt>
      <trkpt lat="42.71470201201736927032470703125" lon="1.26196031458675861358642578125">
        <ele>2707.800048828125</ele>
        <time>2018-05-01T11:19:52.000Z</time>
      </trkpt>
      <trkpt lat="42.7147091366350650787353515625" lon="1.26196232624351978302001953125">
        <ele>2708.60009765625</ele>
        <time>2018-05-01T11:20:11.000Z</time>
      </trkpt>
      <trkpt lat="42.7147399820387363433837890625" lon="1.26200607977807521820068359375">
        <ele>2707.39990234375</ele>
        <time>2018-05-01T11:20:40.000Z</time>
      </trkpt>
      <trkpt lat="42.71472011692821979522705078125" lon="1.26198311336338520050048828125">
        <ele>2708.199951171875</ele>
        <time>2018-05-01T11:21:46.000Z</time>
      </trkpt>
      <trkpt lat="42.71471542306244373321533203125" lon="1.26197070814669132232666015625">
        <ele>2707.800048828125</ele>
        <time>2018-05-01T11:22:23.000Z</time>
      </trkpt>
      <trkpt lat="42.7147379703819751739501953125" lon="1.26194304786622524261474609375">
        <ele>2708.39990234375</ele>
        <time>2018-05-01T11:23:50.000Z</time>
      </trkpt>
      <trkpt lat="42.71472849883139133453369140625" lon="1.26193617470562458038330078125">
        <ele>2708.60009765625</ele>
        <time>2018-05-01T11:23:52.000Z</time>
      </trkpt>
      <trkpt lat="42.71474341861903667449951171875" lon="1.2619607336819171905517578125">
        <ele>2708.39990234375</ele>
        <time>2018-05-01T11:24:48.000Z</time>
      </trkpt>
      <trkpt lat="42.7147376351058483123779296875" lon="1.2619580514729022979736328125">
        <ele>2708</ele>
        <time>2018-05-01T11:24:58.000Z</time>
      </trkpt>
      <trkpt lat="42.71474517881870269775390625" lon="1.26196299679577350616455078125">
        <ele>2708</ele>
        <time>2018-05-01T11:24:59.000Z</time>
      </trkpt>
      <trkpt lat="42.7148087136447429656982421875" lon="1.26202217303216457366943359375">
        <ele>2711</ele>
        <time>2018-05-01T11:25:16.000Z</time>
      </trkpt>
      <trkpt lat="42.714811898767948150634765625" lon="1.2620220892131328582763671875">
        <ele>2711.800048828125</ele>
        <time>2018-05-01T11:25:31.000Z</time>
      </trkpt>
      <trkpt lat="42.7147993259131908416748046875" lon="1.262012533843517303466796875">
        <ele>2711.800048828125</ele>
        <time>2018-05-01T11:25:32.000Z</time>
      </trkpt>
      <trkpt lat="42.71473989821970462799072265625" lon="1.261884458363056182861328125">
        <ele>2713.800048828125</ele>
        <time>2018-05-01T11:25:48.000Z</time>
      </trkpt>
      <trkpt lat="42.71474107168614864349365234375" lon="1.261797286570072174072265625">
        <ele>2716.199951171875</ele>
        <time>2018-05-01T11:26:00.000Z</time>
      </trkpt>
      <trkpt lat="42.714701592922210693359375" lon="1.2617176584899425506591796875">
        <ele>2718</ele>
        <time>2018-05-01T11:26:12.000Z</time>
      </trkpt>
      <trkpt lat="42.71471039392054080963134765625" lon="1.26172251999378204345703125">
        <ele>2718</ele>
        <time>2018-05-01T11:26:13.000Z</time>
      </trkpt>
      <trkpt lat="42.71475196816027164459228515625" lon="1.2617377750575542449951171875">
        <ele>2718.39990234375</ele>
        <time>2018-05-01T11:26:28.000Z</time>
      </trkpt>
      <trkpt lat="42.71483637392520904541015625" lon="1.26177842728793621063232421875">
        <ele>2721.39990234375</ele>
        <time>2018-05-01T11:26:45.000Z</time>
      </trkpt>
      <trkpt lat="42.714792452752590179443359375" lon="1.26165202818810939788818359375">
        <ele>2724</ele>
        <time>2018-05-01T11:27:21.000Z</time>
      </trkpt>
      <trkpt lat="42.71475515328347682952880859375" lon="1.26155463047325611114501953125">
        <ele>2727</ele>
        <time>2018-05-01T11:27:41.000Z</time>
      </trkpt>
      <trkpt lat="42.71479345858097076416015625" lon="1.2615848891437053680419921875">
        <ele>2727.199951171875</ele>
        <time>2018-05-01T11:28:45.000Z</time>
      </trkpt>
      <trkpt lat="42.71482489071786403656005859375" lon="1.26158463768661022186279296875">
        <ele>2728</ele>
        <time>2018-05-01T11:29:10.000Z</time>
      </trkpt>
      <trkpt lat="42.71486059762537479400634765625" lon="1.2615936063230037689208984375">
        <ele>2727.800048828125</ele>
        <time>2018-05-01T11:29:15.000Z</time>
      </trkpt>
      <trkpt lat="42.7148405648767948150634765625" lon="1.26156368292868137359619140625">
        <ele>2730.800048828125</ele>
        <time>2018-05-01T11:29:37.000Z</time>
      </trkpt>
      <trkpt lat="42.71483109332621097564697265625" lon="1.26147978007793426513671875">
        <ele>2734</ele>
        <time>2018-05-01T11:30:02.000Z</time>
      </trkpt>
      <trkpt lat="42.71480812691152095794677734375" lon="1.26139269210398197174072265625">
        <ele>2737.199951171875</ele>
        <time>2018-05-01T11:30:29.000Z</time>
      </trkpt>
      <trkpt lat="42.71482941694557666778564453125" lon="1.261368133127689361572265625">
        <ele>2740.199951171875</ele>
        <time>2018-05-01T11:31:14.000Z</time>
      </trkpt>
      <trkpt lat="42.71487317048013210296630859375" lon="1.26134701073169708251953125">
        <ele>2742.199951171875</ele>
        <time>2018-05-01T11:31:36.000Z</time>
      </trkpt>
      <trkpt lat="42.7148745954036712646484375" lon="1.26128934323787689208984375">
        <ele>2745.199951171875</ele>
        <time>2018-05-01T11:32:12.000Z</time>
      </trkpt>
      <trkpt lat="42.714897729456424713134765625" lon="1.261224634945392608642578125">
        <ele>2748.39990234375</ele>
        <time>2018-05-01T11:32:44.000Z</time>
      </trkpt>
      <trkpt lat="42.714921198785305023193359375" lon="1.26121466048061847686767578125">
        <ele>2751.60009765625</ele>
        <time>2018-05-01T11:33:07.000Z</time>
      </trkpt>
      <trkpt lat="42.714880965650081634521484375" lon="1.26111759804189205169677734375">
        <ele>2754.800048828125</ele>
        <time>2018-05-01T11:33:32.000Z</time>
      </trkpt>
      <trkpt lat="42.71497174166142940521240234375" lon="1.26112296245992183685302734375">
        <ele>2757.800048828125</ele>
        <time>2018-05-01T11:33:50.000Z</time>
      </trkpt>
      <trkpt lat="42.7149240486323833465576171875" lon="1.26101483590900897979736328125">
        <ele>2760.800048828125</ele>
        <time>2018-05-01T11:34:15.000Z</time>
      </trkpt>
      <trkpt lat="42.7149552293121814727783203125" lon="1.26098298467695713043212890625">
        <ele>2763.800048828125</ele>
        <time>2018-05-01T11:34:47.000Z</time>
      </trkpt>
      <trkpt lat="42.7149592526257038116455078125" lon="1.26091877929866313934326171875">
        <ele>2767</ele>
        <time>2018-05-01T11:35:12.000Z</time>
      </trkpt>
      <trkpt lat="42.71494475193321704864501953125" lon="1.26089480705559253692626953125">
        <ele>2768.800048828125</ele>
        <time>2018-05-01T11:35:28.000Z</time>
      </trkpt>
      <trkpt lat="42.71490602754056453704833984375" lon="1.26084015704691410064697265625">
        <ele>2770.199951171875</ele>
        <time>2018-05-01T11:35:40.000Z</time>
      </trkpt>
      <trkpt lat="42.71499596536159515380859375" lon="1.26081601716578006744384765625">
        <ele>2773.39990234375</ele>
        <time>2018-05-01T11:35:59.000Z</time>
      </trkpt>
      <trkpt lat="42.7149840630590915679931640625" lon="1.26078802160918712615966796875">
        <ele>2774.60009765625</ele>
        <time>2018-05-01T11:37:10.000Z</time>
      </trkpt>
      <trkpt lat="42.7149857394397258758544921875" lon="1.26079573296010494232177734375">
        <ele>2774.39990234375</ele>
        <time>2018-05-01T11:38:15.000Z</time>
      </trkpt>
      <trkpt lat="42.71498599089682102203369140625" lon="1.260786093771457672119140625">
        <ele>2774.60009765625</ele>
        <time>2018-05-01T11:38:59.000Z</time>
      </trkpt>
      <trkpt lat="42.71499906666576862335205078125" lon="1.26078098081052303314208984375">
        <ele>2774.39990234375</ele>
        <time>2018-05-01T11:40:41.000Z</time>
      </trkpt>
      <trkpt lat="42.71502471528947353363037109375" lon="1.26083093695342540740966796875">
        <ele>2774.199951171875</ele>
        <time>2018-05-01T11:41:41.000Z</time>
      </trkpt>
      <trkpt lat="42.7149988152086734771728515625" lon="1.26078383065760135650634765625">
        <ele>2774.800048828125</ele>
        <time>2018-05-01T11:42:02.000Z</time>
      </trkpt>
      <trkpt lat="42.71499889902770519256591796875" lon="1.260785423219203948974609375">
        <ele>2774.60009765625</ele>
        <time>2018-05-01T11:42:59.000Z</time>
      </trkpt>
      <trkpt lat="42.71500526927411556243896484375" lon="1.2607557512819766998291015625">
        <ele>2774.60009765625</ele>
        <time>2018-05-01T11:43:50.000Z</time>
      </trkpt>
      <trkpt lat="42.71499252878129482269287109375" lon="1.260780058801174163818359375">
        <ele>2774.60009765625</ele>
        <time>2018-05-01T11:44:13.000Z</time>
      </trkpt>
      <trkpt lat="42.7149092964828014373779296875" lon="1.260710991919040679931640625">
        <ele>2776.39990234375</ele>
        <time>2018-05-01T11:45:30.000Z</time>
      </trkpt>
      <trkpt lat="42.71485523320734500885009765625" lon="1.26069657504558563232421875">
        <ele>2778.800048828125</ele>
        <time>2018-05-01T11:45:39.000Z</time>
      </trkpt>
      <trkpt lat="42.71481919102370738983154296875" lon="1.2606907077133655548095703125">
        <ele>2782</ele>
        <time>2018-05-01T11:45:48.000Z</time>
      </trkpt>
      <trkpt lat="42.7147956378757953643798828125" lon="1.26070537604391574859619140625">
        <ele>2783.800048828125</ele>
        <time>2018-05-01T11:45:57.000Z</time>
      </trkpt>
      <trkpt lat="42.714750878512859344482421875" lon="1.26072071492671966552734375">
        <ele>2786.60009765625</ele>
        <time>2018-05-01T11:46:05.000Z</time>
      </trkpt>
      <trkpt lat="42.7147088013589382171630859375" lon="1.26072264276444911956787109375">
        <ele>2787.60009765625</ele>
        <time>2018-05-01T11:46:13.000Z</time>
      </trkpt>
      <trkpt lat="42.71468809805810451507568359375" lon="1.26072901301085948944091796875">
        <ele>2787.60009765625</ele>
        <time>2018-05-01T11:46:21.000Z</time>
      </trkpt>
      <trkpt lat="42.71468214690685272216796875" lon="1.260737478733062744140625">
        <ele>2786.800048828125</ele>
        <time>2018-05-01T11:46:40.000Z</time>
      </trkpt>
      <trkpt lat="42.71465926431119441986083984375" lon="1.2607487104833126068115234375">
        <ele>2786.199951171875</ele>
        <time>2018-05-01T11:47:09.000Z</time>
      </trkpt>
      <trkpt lat="42.7146786265075206756591796875" lon="1.26072985120117664337158203125">
        <ele>2787.60009765625</ele>
        <time>2018-05-01T11:47:27.000Z</time>
      </trkpt>
      <trkpt lat="42.7146772854030132293701171875" lon="1.260720379650592803955078125">
        <ele>2787.39990234375</ele>
        <time>2018-05-01T11:47:41.000Z</time>
      </trkpt>
      <trkpt lat="42.7146836556494235992431640625" lon="1.260717026889324188232421875">
        <ele>2787.60009765625</ele>
        <time>2018-05-01T11:47:53.000Z</time>
      </trkpt>
      <trkpt lat="42.7146828174591064453125" lon="1.26071275211870670318603515625">
        <ele>2788</ele>
        <time>2018-05-01T11:48:09.000Z</time>
      </trkpt>
      <trkpt lat="42.7146933786571025848388671875" lon="1.26072834245860576629638671875">
        <ele>2787.60009765625</ele>
        <time>2018-05-01T11:48:25.000Z</time>
      </trkpt>
      <trkpt lat="42.71485037170350551605224609375" lon="1.2607091479003429412841796875">
        <ele>2784.199951171875</ele>
        <time>2018-05-01T11:49:13.000Z</time>
      </trkpt>
      <trkpt lat="42.71489546634256839752197265625" lon="1.26070487312972545623779296875">
        <ele>2781.39990234375</ele>
        <time>2018-05-01T11:49:19.000Z</time>
      </trkpt>
      <trkpt lat="42.71495011635124683380126953125" lon="1.26071979291737079620361328125">
        <ele>2778.199951171875</ele>
        <time>2018-05-01T11:49:24.000Z</time>
      </trkpt>
      <trkpt lat="42.7149823866784572601318359375" lon="1.2607591040432453155517578125">
        <ele>2775.800048828125</ele>
        <time>2018-05-01T11:49:29.000Z</time>
      </trkpt>
      <trkpt lat="42.71498934365808963775634765625" lon="1.26077494584023952484130859375">
        <ele>2774.60009765625</ele>
        <time>2018-05-01T11:50:33.000Z</time>
      </trkpt>
      <trkpt lat="42.71498900838196277618408203125" lon="1.26076488755643367767333984375">
        <ele>2774.60009765625</ele>
        <time>2018-05-01T11:53:16.000Z</time>
      </trkpt>
      <trkpt lat="42.7149813808500766754150390625" lon="1.26077880151569843292236328125">
        <ele>2774.60009765625</ele>
        <time>2018-05-01T11:54:47.000Z</time>
      </trkpt>
      <trkpt lat="42.7149870805442333221435546875" lon="1.260775364935398101806640625">
        <ele>2774.800048828125</ele>
        <time>2018-05-01T11:55:22.000Z</time>
      </trkpt>
      <trkpt lat="42.71498255431652069091796875" lon="1.260763294994831085205078125">
        <ele>2774.800048828125</ele>
        <time>2018-05-01T11:56:12.000Z</time>
      </trkpt>
      <trkpt lat="42.71495631895959377288818359375" lon="1.26069297082722187042236328125">
        <ele>2775.60009765625</ele>
        <time>2018-05-01T11:57:15.000Z</time>
      </trkpt>
      <trkpt lat="42.71494978107511997222900390625" lon="1.26067436300218105316162109375">
        <ele>2775.199951171875</ele>
        <time>2018-05-01T11:57:16.000Z</time>
      </trkpt>
      <trkpt lat="42.71494458429515361785888671875" lon="1.2606585212051868438720703125">
        <ele>2775</ele>
        <time>2018-05-01T11:57:17.000Z</time>
      </trkpt>
      <trkpt lat="42.71494927816092967987060546875" lon="1.26061937771737575531005859375">
        <ele>2773.800048828125</ele>
        <time>2018-05-01T11:57:24.000Z</time>
      </trkpt>
      <trkpt lat="42.7149542234838008880615234375" lon="1.2605934776365756988525390625">
        <ele>2774</ele>
        <time>2018-05-01T11:57:25.000Z</time>
      </trkpt>
      <trkpt lat="42.7149558998644351959228515625" lon="1.26056204549968242645263671875">
        <ele>2774</ele>
        <time>2018-05-01T11:57:26.000Z</time>
      </trkpt>
      <trkpt lat="42.71496268920600414276123046875" lon="1.260518543422222137451171875">
        <ele>2774</ele>
        <time>2018-05-01T11:57:27.000Z</time>
      </trkpt>
      <trkpt lat="42.71497911773622035980224609375" lon="1.26048141159117221832275390625">
        <ele>2773.800048828125</ele>
        <time>2018-05-01T11:57:28.000Z</time>
      </trkpt>
      <trkpt lat="42.714998982846736907958984375" lon="1.2604533322155475616455078125">
        <ele>2773</ele>
        <time>2018-05-01T11:57:29.000Z</time>
      </trkpt>
      <trkpt lat="42.71502404473721981048583984375" lon="1.26042164862155914306640625">
        <ele>2772.60009765625</ele>
        <time>2018-05-01T11:57:30.000Z</time>
      </trkpt>
      <trkpt lat="42.715103924274444580078125" lon="1.2603765539824962615966796875">
        <ele>2769.60009765625</ele>
        <time>2018-05-01T11:57:38.000Z</time>
      </trkpt>
      <trkpt lat="42.715107612311840057373046875" lon="1.2603614665567874908447265625">
        <ele>2770</ele>
        <time>2018-05-01T11:57:47.000Z</time>
      </trkpt>
      <trkpt lat="42.7151191793382167816162109375" lon="1.26034596003592014312744140625">
        <ele>2770</ele>
        <time>2018-05-01T11:57:48.000Z</time>
      </trkpt>
      <trkpt lat="42.715129069983959197998046875" lon="1.26032886095345020294189453125">
        <ele>2769.60009765625</ele>
        <time>2018-05-01T11:57:49.000Z</time>
      </trkpt>
      <trkpt lat="42.71517726592719554901123046875" lon="1.2602354027330875396728515625">
        <ele>2769.39990234375</ele>
        <time>2018-05-01T11:57:52.000Z</time>
      </trkpt>
      <trkpt lat="42.7151533775031566619873046875" lon="1.2602109275758266448974609375">
        <ele>2768.800048828125</ele>
        <time>2018-05-01T11:57:53.000Z</time>
      </trkpt>
      <trkpt lat="42.71513317711651325225830078125" lon="1.26021252013742923736572265625">
        <ele>2767</ele>
        <time>2018-05-01T11:57:54.000Z</time>
      </trkpt>
      <trkpt lat="42.71510660648345947265625" lon="1.26021536998450756072998046875">
        <ele>2763.800048828125</ele>
        <time>2018-05-01T11:57:56.000Z</time>
      </trkpt>
      <trkpt lat="42.7150809578597545623779296875" lon="1.26020447351038455963134765625">
        <ele>2763.199951171875</ele>
        <time>2018-05-01T11:57:57.000Z</time>
      </trkpt>
      <trkpt lat="42.71504851989448070526123046875" lon="1.26019273884594440460205078125">
        <ele>2762.39990234375</ele>
        <time>2018-05-01T11:57:58.000Z</time>
      </trkpt>
      <trkpt lat="42.715030498802661895751953125" lon="1.26015921123325824737548828125">
        <ele>2761.39990234375</ele>
        <time>2018-05-01T11:57:59.000Z</time>
      </trkpt>
      <trkpt lat="42.71503083407878875732421875" lon="1.26011378131806850433349609375">
        <ele>2760.39990234375</ele>
        <time>2018-05-01T11:58:00.000Z</time>
      </trkpt>
      <trkpt lat="42.71501616574823856353759765625" lon="1.2600627355277538299560546875">
        <ele>2759</ele>
        <time>2018-05-01T11:58:01.000Z</time>
      </trkpt>
      <trkpt lat="42.71500828675925731658935546875" lon="1.2600137852132320404052734375">
        <ele>2756.800048828125</ele>
        <time>2018-05-01T11:58:02.000Z</time>
      </trkpt>
      <trkpt lat="42.71501448936760425567626953125" lon="1.2599628232419490814208984375">
        <ele>2754.199951171875</ele>
        <time>2018-05-01T11:58:03.000Z</time>
      </trkpt>
      <trkpt lat="42.71502077579498291015625" lon="1.2599135376513004302978515625">
        <ele>2752.199951171875</ele>
        <time>2018-05-01T11:58:04.000Z</time>
      </trkpt>
      <trkpt lat="42.7150058560073375701904296875" lon="1.25986634753644466400146484375">
        <ele>2750</ele>
        <time>2018-05-01T11:58:05.000Z</time>
      </trkpt>
      <trkpt lat="42.71500308997929096221923828125" lon="1.259811110794544219970703125">
        <ele>2748</ele>
        <time>2018-05-01T11:58:06.000Z</time>
      </trkpt>
      <trkpt lat="42.7150182612240314483642578125" lon="1.25974841415882110595703125">
        <ele>2745.60009765625</ele>
        <time>2018-05-01T11:58:07.000Z</time>
      </trkpt>
      <trkpt lat="42.71503494121134281158447265625" lon="1.25969736836850643157958984375">
        <ele>2743.60009765625</ele>
        <time>2018-05-01T11:58:08.000Z</time>
      </trkpt>
      <trkpt lat="42.71501717157661914825439453125" lon="1.2596218474209308624267578125">
        <ele>2740.39990234375</ele>
        <time>2018-05-01T11:58:10.000Z</time>
      </trkpt>
      <trkpt lat="42.71500208415091037750244140625" lon="1.25958723016083240509033203125">
        <ele>2739</ele>
        <time>2018-05-01T11:58:11.000Z</time>
      </trkpt>
      <trkpt lat="42.71500669419765472412109375" lon="1.25955261290073394775390625">
        <ele>2736</ele>
        <time>2018-05-01T11:58:12.000Z</time>
      </trkpt>
      <trkpt lat="42.71500937640666961669921875" lon="1.25952444970607757568359375">
        <ele>2734</ele>
        <time>2018-05-01T11:58:13.000Z</time>
      </trkpt>
      <trkpt lat="42.7150246314704418182373046875" lon="1.25949905253946781158447265625">
        <ele>2730.60009765625</ele>
        <time>2018-05-01T11:58:17.000Z</time>
      </trkpt>
      <trkpt lat="42.715045921504497528076171875" lon="1.25946518965065479278564453125">
        <ele>2729.800048828125</ele>
        <time>2018-05-01T11:58:19.000Z</time>
      </trkpt>
      <trkpt lat="42.71502588875591754913330078125" lon="1.25941305421292781829833984375">
        <ele>2729</ele>
        <time>2018-05-01T11:58:20.000Z</time>
      </trkpt>
      <trkpt lat="42.715003006160259246826171875" lon="1.25938153825700283050537109375">
        <ele>2727.800048828125</ele>
        <time>2018-05-01T11:58:21.000Z</time>
      </trkpt>
      <trkpt lat="42.71499319933354854583740234375" lon="1.25933627597987651824951171875">
        <ele>2725.39990234375</ele>
        <time>2018-05-01T11:58:22.000Z</time>
      </trkpt>
      <trkpt lat="42.7149890922009944915771484375" lon="1.25927693210542201995849609375">
        <ele>2723.39990234375</ele>
        <time>2018-05-01T11:58:23.000Z</time>
      </trkpt>
      <trkpt lat="42.7149803750216960906982421875" lon="1.25920283608138561248779296875">
        <ele>2720.60009765625</ele>
        <time>2018-05-01T11:58:24.000Z</time>
      </trkpt>
      <trkpt lat="42.71498029120266437530517578125" lon="1.25913561321794986724853515625">
        <ele>2717.39990234375</ele>
        <time>2018-05-01T11:58:25.000Z</time>
      </trkpt>
      <trkpt lat="42.7149780280888080596923828125" lon="1.25906310975551605224609375">
        <ele>2713.800048828125</ele>
        <time>2018-05-01T11:58:26.000Z</time>
      </trkpt>
      <trkpt lat="42.71494927816092967987060546875" lon="1.25901214778423309326171875">
        <ele>2710.39990234375</ele>
        <time>2018-05-01T11:58:27.000Z</time>
      </trkpt>
      <trkpt lat="42.714936621487140655517578125" lon="1.2589466013014316558837890625">
        <ele>2707.60009765625</ele>
        <time>2018-05-01T11:58:28.000Z</time>
      </trkpt>
      <trkpt lat="42.7149441651999950408935546875" lon="1.25889035873115062713623046875">
        <ele>2704.199951171875</ele>
        <time>2018-05-01T11:58:29.000Z</time>
      </trkpt>
      <trkpt lat="42.7149615995585918426513671875" lon="1.25883235596120357513427734375">
        <ele>2702</ele>
        <time>2018-05-01T11:58:30.000Z</time>
      </trkpt>
      <trkpt lat="42.71497744135558605194091796875" lon="1.2588091380894184112548828125">
        <ele>2700.60009765625</ele>
        <time>2018-05-01T11:58:31.000Z</time>
      </trkpt>
      <trkpt lat="42.71496905945241451263427734375" lon="1.25879715196788311004638671875">
        <ele>2699</ele>
        <time>2018-05-01T11:58:34.000Z</time>
      </trkpt>
      <trkpt lat="42.7149448357522487640380859375" lon="1.2587459385395050048828125">
        <ele>2698.39990234375</ele>
        <time>2018-05-01T11:58:41.000Z</time>
      </trkpt>
      <trkpt lat="42.71490938030183315277099609375" lon="1.25870905816555023193359375">
        <ele>2697</ele>
        <time>2018-05-01T11:58:42.000Z</time>
      </trkpt>
      <trkpt lat="42.714885659515857696533203125" lon="1.258659772574901580810546875">
        <ele>2695</ele>
        <time>2018-05-01T11:58:43.000Z</time>
      </trkpt>
      <trkpt lat="42.714897058904170989990234375" lon="1.2586183659732341766357421875">
        <ele>2693.39990234375</ele>
        <time>2018-05-01T11:58:44.000Z</time>
      </trkpt>
      <trkpt lat="42.7149103023111820220947265625" lon="1.25857251696288585662841796875">
        <ele>2690.60009765625</ele>
        <time>2018-05-01T11:58:45.000Z</time>
      </trkpt>
      <trkpt lat="42.71491373889148235321044921875" lon="1.258527003228664398193359375">
        <ele>2688.800048828125</ele>
        <time>2018-05-01T11:58:46.000Z</time>
      </trkpt>
      <trkpt lat="42.71493159234523773193359375" lon="1.25847981311380863189697265625">
        <ele>2686.199951171875</ele>
        <time>2018-05-01T11:58:47.000Z</time>
      </trkpt>
      <trkpt lat="42.71495732478797435760498046875" lon="1.25841200351715087890625">
        <ele>2684</ele>
        <time>2018-05-01T11:58:48.000Z</time>
      </trkpt>
      <trkpt lat="42.71497291512787342071533203125" lon="1.25834134407341480255126953125">
        <ele>2681.39990234375</ele>
        <time>2018-05-01T11:58:49.000Z</time>
      </trkpt>
      <trkpt lat="42.7149505354464054107666015625" lon="1.25827915035188198089599609375">
        <ele>2679.199951171875</ele>
        <time>2018-05-01T11:58:50.000Z</time>
      </trkpt>
      <trkpt lat="42.7149314247071743011474609375" lon="1.2582150287926197052001953125">
        <ele>2676.800048828125</ele>
        <time>2018-05-01T11:58:51.000Z</time>
      </trkpt>
      <trkpt lat="42.7149351127445697784423828125" lon="1.25815912149846553802490234375">
        <ele>2674.60009765625</ele>
        <time>2018-05-01T11:58:52.000Z</time>
      </trkpt>
      <trkpt lat="42.71493217907845973968505859375" lon="1.2581184692680835723876953125">
        <ele>2672</ele>
        <time>2018-05-01T11:58:53.000Z</time>
      </trkpt>
      <trkpt lat="42.7149121463298797607421875" lon="1.2581033818423748016357421875">
        <ele>2669.199951171875</ele>
        <time>2018-05-01T11:58:55.000Z</time>
      </trkpt>
      <trkpt lat="42.7148499526083469390869140625" lon="1.258084774017333984375">
        <ele>2667</ele>
        <time>2018-05-01T11:59:21.000Z</time>
      </trkpt>
      <trkpt lat="42.71484886296093463897705078125" lon="1.2580239214003086090087890625">
        <ele>2666.39990234375</ele>
        <time>2018-05-01T11:59:22.000Z</time>
      </trkpt>
      <trkpt lat="42.714827321469783782958984375" lon="1.257958710193634033203125">
        <ele>2664.800048828125</ele>
        <time>2018-05-01T11:59:23.000Z</time>
      </trkpt>
      <trkpt lat="42.71480577997863292694091796875" lon="1.25788821838796138763427734375">
        <ele>2662.60009765625</ele>
        <time>2018-05-01T11:59:24.000Z</time>
      </trkpt>
      <trkpt lat="42.714806534349918365478515625" lon="1.257821582257747650146484375">
        <ele>2660.199951171875</ele>
        <time>2018-05-01T11:59:25.000Z</time>
      </trkpt>
      <trkpt lat="42.7147926203906536102294921875" lon="1.25775410793721675872802734375">
        <ele>2657.60009765625</ele>
        <time>2018-05-01T11:59:26.000Z</time>
      </trkpt>
      <trkpt lat="42.7147661335766315460205078125" lon="1.2576919980347156524658203125">
        <ele>2654.60009765625</ele>
        <time>2018-05-01T11:59:27.000Z</time>
      </trkpt>
      <trkpt lat="42.71475783549249172210693359375" lon="1.2576329894363880157470703125">
        <ele>2652</ele>
        <time>2018-05-01T11:59:28.000Z</time>
      </trkpt>
      <trkpt lat="42.71475699730217456817626953125" lon="1.257587559521198272705078125">
        <ele>2649.60009765625</ele>
        <time>2018-05-01T11:59:29.000Z</time>
      </trkpt>
      <trkpt lat="42.71473470143973827362060546875" lon="1.25756316818296909332275390625">
        <ele>2647.39990234375</ele>
        <time>2018-05-01T11:59:30.000Z</time>
      </trkpt>
      <trkpt lat="42.7147134952247142791748046875" lon="1.257556043565273284912109375">
        <ele>2645.39990234375</ele>
        <time>2018-05-01T11:59:31.000Z</time>
      </trkpt>
      <trkpt lat="42.71469312720000743865966796875" lon="1.257552020251750946044921875">
        <ele>2644</ele>
        <time>2018-05-01T11:59:32.000Z</time>
      </trkpt>
      <trkpt lat="42.7145817317068576812744140625" lon="1.2575743161141872406005859375">
        <ele>2640.800048828125</ele>
        <time>2018-05-01T11:59:37.000Z</time>
      </trkpt>
      <trkpt lat="42.714524567127227783203125" lon="1.2576229311525821685791015625">
        <ele>2637.800048828125</ele>
        <time>2018-05-01T11:59:42.000Z</time>
      </trkpt>
      <trkpt lat="42.7144945599138736724853515625" lon="1.25765536911785602569580078125">
        <ele>2637.800048828125</ele>
        <time>2018-05-01T12:00:27.000Z</time>
      </trkpt>
      <trkpt lat="42.71449841558933258056640625" lon="1.25762276351451873779296875">
        <ele>2637.199951171875</ele>
        <time>2018-05-01T12:00:28.000Z</time>
      </trkpt>
      <trkpt lat="42.7145190350711345672607421875" lon="1.257572472095489501953125">
        <ele>2636.199951171875</ele>
        <time>2018-05-01T12:00:29.000Z</time>
      </trkpt>
      <trkpt lat="42.71452163346111774444580078125" lon="1.2574157305061817169189453125">
        <ele>2633.39990234375</ele>
        <time>2018-05-01T12:00:32.000Z</time>
      </trkpt>
      <trkpt lat="42.7145005948841571807861328125" lon="1.25736585818231105804443359375">
        <ele>2631.199951171875</ele>
        <time>2018-05-01T12:00:33.000Z</time>
      </trkpt>
      <trkpt lat="42.71445927210152149200439453125" lon="1.2572628445923328399658203125">
        <ele>2627.800048828125</ele>
        <time>2018-05-01T12:00:35.000Z</time>
      </trkpt>
      <trkpt lat="42.71443043835461139678955078125" lon="1.257208026945590972900390625">
        <ele>2625.199951171875</ele>
        <time>2018-05-01T12:00:36.000Z</time>
      </trkpt>
      <trkpt lat="42.71441954188048839569091796875" lon="1.2571428157389163970947265625">
        <ele>2623</ele>
        <time>2018-05-01T12:00:37.000Z</time>
      </trkpt>
      <trkpt lat="42.7143906243145465850830078125" lon="1.2570985592901706695556640625">
        <ele>2620.800048828125</ele>
        <time>2018-05-01T12:00:38.000Z</time>
      </trkpt>
      <trkpt lat="42.71435667760670185089111328125" lon="1.2570454180240631103515625">
        <ele>2618.199951171875</ele>
        <time>2018-05-01T12:00:39.000Z</time>
      </trkpt>
      <trkpt lat="42.7143436856567859649658203125" lon="1.25699236057698726654052734375">
        <ele>2615.60009765625</ele>
        <time>2018-05-01T12:00:40.000Z</time>
      </trkpt>
      <trkpt lat="42.7143423445522785186767578125" lon="1.256953887641429901123046875">
        <ele>2613.60009765625</ele>
        <time>2018-05-01T12:00:41.000Z</time>
      </trkpt>
      <trkpt lat="42.7143436856567859649658203125" lon="1.25693134032189846038818359375">
        <ele>2612.39990234375</ele>
        <time>2018-05-01T12:00:42.000Z</time>
      </trkpt>
      <trkpt lat="42.71434896625578403472900390625" lon="1.25688239000737667083740234375">
        <ele>2610.39990234375</ele>
        <time>2018-05-01T12:00:46.000Z</time>
      </trkpt>
      <trkpt lat="42.71434695459902286529541015625" lon="1.25692404806613922119140625">
        <ele>2610.199951171875</ele>
        <time>2018-05-01T12:00:55.000Z</time>
      </trkpt>
      <trkpt lat="42.71431426517665386199951171875" lon="1.25685037113726139068603515625">
        <ele>2608.199951171875</ele>
        <time>2018-05-01T12:01:06.000Z</time>
      </trkpt>
      <trkpt lat="42.71427872590720653533935546875" lon="1.25676973722875118255615234375">
        <ele>2605.60009765625</ele>
        <time>2018-05-01T12:01:10.000Z</time>
      </trkpt>
      <trkpt lat="42.71426095627248287200927734375" lon="1.25677946023643016815185546875">
        <ele>2604.39990234375</ele>
        <time>2018-05-01T12:01:11.000Z</time>
      </trkpt>
      <trkpt lat="42.71425525657832622528076171875" lon="1.2567961402237415313720703125">
        <ele>2603.60009765625</ele>
        <time>2018-05-01T12:01:12.000Z</time>
      </trkpt>
      <trkpt lat="42.714249305427074432373046875" lon="1.25685355626046657562255859375">
        <ele>2601.199951171875</ele>
        <time>2018-05-01T12:01:34.000Z</time>
      </trkpt>
      <trkpt lat="42.7142335474491119384765625" lon="1.25686378218233585357666015625">
        <ele>2601</ele>
        <time>2018-05-01T12:01:35.000Z</time>
      </trkpt>
      <trkpt lat="42.71421988494694232940673828125" lon="1.2568484432995319366455078125">
        <ele>2600.199951171875</ele>
        <time>2018-05-01T12:01:36.000Z</time>
      </trkpt>
      <trkpt lat="42.714213766157627105712890625" lon="1.2568152509629726409912109375">
        <ele>2598.800048828125</ele>
        <time>2018-05-01T12:01:37.000Z</time>
      </trkpt>
      <trkpt lat="42.71420764736831188201904296875" lon="1.25678532756865024566650390625">
        <ele>2597.60009765625</ele>
        <time>2018-05-01T12:01:38.000Z</time>
      </trkpt>
      <trkpt lat="42.71419960074126720428466796875" lon="1.25676445662975311279296875">
        <ele>2596.60009765625</ele>
        <time>2018-05-01T12:01:39.000Z</time>
      </trkpt>
      <trkpt lat="42.714180238544940948486328125" lon="1.2567512132227420806884765625">
        <ele>2595.199951171875</ele>
        <time>2018-05-01T12:01:40.000Z</time>
      </trkpt>
      <trkpt lat="42.7141584455966949462890625" lon="1.25674903392791748046875">
        <ele>2594.199951171875</ele>
        <time>2018-05-01T12:01:41.000Z</time>
      </trkpt>
      <trkpt lat="42.71414629183709621429443359375" lon="1.256752051413059234619140625">
        <ele>2593</ele>
        <time>2018-05-01T12:01:42.000Z</time>
      </trkpt>
      <trkpt lat="42.714131288230419158935546875" lon="1.25677250325679779052734375">
        <ele>2591</ele>
        <time>2018-05-01T12:01:45.000Z</time>
      </trkpt>
      <trkpt lat="42.71412349306046962738037109375" lon="1.2567934580147266387939453125">
        <ele>2590.199951171875</ele>
        <time>2018-05-01T12:01:46.000Z</time>
      </trkpt>
      <trkpt lat="42.71411963738501071929931640625" lon="1.2568061985075473785400390625">
        <ele>2588.800048828125</ele>
        <time>2018-05-01T12:01:49.000Z</time>
      </trkpt>
      <trkpt lat="42.71410739980638027191162109375" lon="1.25676671974360942840576171875">
        <ele>2587.39990234375</ele>
        <time>2018-05-01T12:02:10.000Z</time>
      </trkpt>
      <trkpt lat="42.7140982635319232940673828125" lon="1.2567468546330928802490234375">
        <ele>2586.60009765625</ele>
        <time>2018-05-01T12:02:11.000Z</time>
      </trkpt>
      <trkpt lat="42.71409206092357635498046875" lon="1.2567123211920261383056640625">
        <ele>2585.800048828125</ele>
        <time>2018-05-01T12:02:12.000Z</time>
      </trkpt>
      <trkpt lat="42.7140734530985355377197265625" lon="1.2566781230270862579345703125">
        <ele>2584.800048828125</ele>
        <time>2018-05-01T12:02:13.000Z</time>
      </trkpt>
      <trkpt lat="42.7140431106090545654296875" lon="1.2566814757883548736572265625">
        <ele>2583.60009765625</ele>
        <time>2018-05-01T12:02:14.000Z</time>
      </trkpt>
      <trkpt lat="42.7140109241008758544921875" lon="1.25669681467115879058837890625">
        <ele>2582</ele>
        <time>2018-05-01T12:02:15.000Z</time>
      </trkpt>
      <trkpt lat="42.713989131152629852294921875" lon="1.2566734291613101959228515625">
        <ele>2579.60009765625</ele>
        <time>2018-05-01T12:02:16.000Z</time>
      </trkpt>
      <trkpt lat="42.7139752171933650970458984375" lon="1.2566363811492919921875">
        <ele>2577.60009765625</ele>
        <time>2018-05-01T12:02:17.000Z</time>
      </trkpt>
      <trkpt lat="42.71395870484411716461181640625" lon="1.256617605686187744140625">
        <ele>2576.199951171875</ele>
        <time>2018-05-01T12:02:18.000Z</time>
      </trkpt>
      <trkpt lat="42.713929116725921630859375" lon="1.256618611514568328857421875">
        <ele>2574.60009765625</ele>
        <time>2018-05-01T12:02:19.000Z</time>
      </trkpt>
      <trkpt lat="42.7139081619679927825927734375" lon="1.2566432543098926544189453125">
        <ele>2572.800048828125</ele>
        <time>2018-05-01T12:02:20.000Z</time>
      </trkpt>
      <trkpt lat="42.71389625966548919677734375" lon="1.25667518936097621917724609375">
        <ele>2571.39990234375</ele>
        <time>2018-05-01T12:02:21.000Z</time>
      </trkpt>
      <trkpt lat="42.7138887159526348114013671875" lon="1.256703436374664306640625">
        <ele>2570.60009765625</ele>
        <time>2018-05-01T12:02:22.000Z</time>
      </trkpt>
      <trkpt lat="42.71388393826782703399658203125" lon="1.256722547113895416259765625">
        <ele>2569.60009765625</ele>
        <time>2018-05-01T12:02:23.000Z</time>
      </trkpt>
      <trkpt lat="42.71388393826782703399658203125" lon="1.2567300908267498016357421875">
        <ele>2568.800048828125</ele>
        <time>2018-05-01T12:02:24.000Z</time>
      </trkpt>
      <trkpt lat="42.7138635702431201934814453125" lon="1.256733275949954986572265625">
        <ele>2568.39990234375</ele>
        <time>2018-05-01T12:02:32.000Z</time>
      </trkpt>
      <trkpt lat="42.7138437889516353607177734375" lon="1.25673956237733364105224609375">
        <ele>2568.39990234375</ele>
        <time>2018-05-01T12:02:33.000Z</time>
      </trkpt>
      <trkpt lat="42.713814787566661834716796875" lon="1.25674576498568058013916015625">
        <ele>2568</ele>
        <time>2018-05-01T12:02:34.000Z</time>
      </trkpt>
      <trkpt lat="42.71377547644078731536865234375" lon="1.256691701710224151611328125">
        <ele>2566.39990234375</ele>
        <time>2018-05-01T12:02:35.000Z</time>
      </trkpt>
      <trkpt lat="42.7137381769716739654541015625" lon="1.25665172003209590911865234375">
        <ele>2564.39990234375</ele>
        <time>2018-05-01T12:02:36.000Z</time>
      </trkpt>
      <trkpt lat="42.71370087750256061553955078125" lon="1.25662498176097869873046875">
        <ele>2562</ele>
        <time>2018-05-01T12:02:37.000Z</time>
      </trkpt>
      <trkpt lat="42.71367053501307964324951171875" lon="1.2566117383539676666259765625">
        <ele>2560</ele>
        <time>2018-05-01T12:02:38.000Z</time>
      </trkpt>
      <trkpt lat="42.71370314061641693115234375" lon="1.256687007844448089599609375">
        <ele>2556.800048828125</ele>
        <time>2018-05-01T12:02:43.000Z</time>
      </trkpt>
      <trkpt lat="42.71371655166149139404296875" lon="1.2566908635199069976806640625">
        <ele>2556.39990234375</ele>
        <time>2018-05-01T12:02:47.000Z</time>
      </trkpt>
      <trkpt lat="42.7137083373963832855224609375" lon="1.25674425624310970306396484375">
        <ele>2556.60009765625</ele>
        <time>2018-05-01T12:03:16.000Z</time>
      </trkpt>
      <trkpt lat="42.713684700429439544677734375" lon="1.25675917603075504302978515625">
        <ele>2556.39990234375</ele>
        <time>2018-05-01T12:03:17.000Z</time>
      </trkpt>
      <trkpt lat="42.7136546932160854339599609375" lon="1.25678725540637969970703125">
        <ele>2556.199951171875</ele>
        <time>2018-05-01T12:03:18.000Z</time>
      </trkpt>
      <trkpt lat="42.71355536766350269317626953125" lon="1.25686311163008213043212890625">
        <ele>2554.39990234375</ele>
        <time>2018-05-01T12:03:21.000Z</time>
      </trkpt>
      <trkpt lat="42.71351848728954792022705078125" lon="1.2568668834865093231201171875">
        <ele>2553</ele>
        <time>2018-05-01T12:03:22.000Z</time>
      </trkpt>
      <trkpt lat="42.71349350921809673309326171875" lon="1.25683846883475780487060546875">
        <ele>2551.60009765625</ele>
        <time>2018-05-01T12:03:23.000Z</time>
      </trkpt>
      <trkpt lat="42.7134575508534908294677734375" lon="1.25680795870721340179443359375">
        <ele>2550</ele>
        <time>2018-05-01T12:03:24.000Z</time>
      </trkpt>
      <trkpt lat="42.713410444557666778564453125" lon="1.25678549520671367645263671875">
        <ele>2547.39990234375</ele>
        <time>2018-05-01T12:03:25.000Z</time>
      </trkpt>
      <trkpt lat="42.71337213926017284393310546875" lon="1.25675247050821781158447265625">
        <ele>2545.199951171875</ele>
        <time>2018-05-01T12:03:26.000Z</time>
      </trkpt>
      <trkpt lat="42.7133309841156005859375" lon="1.25671458430588245391845703125">
        <ele>2542.800048828125</ele>
        <time>2018-05-01T12:03:27.000Z</time>
      </trkpt>
      <trkpt lat="42.71328647620975971221923828125" lon="1.25667870976030826568603515625">
        <ele>2539.800048828125</ele>
        <time>2018-05-01T12:03:28.000Z</time>
      </trkpt>
      <trkpt lat="42.71325051784515380859375" lon="1.25662221573293209075927734375">
        <ele>2537</ele>
        <time>2018-05-01T12:03:29.000Z</time>
      </trkpt>
      <trkpt lat="42.713205926120281219482421875" lon="1.2565872631967067718505859375">
        <ele>2533.800048828125</ele>
        <time>2018-05-01T12:03:30.000Z</time>
      </trkpt>
      <trkpt lat="42.71315689198672771453857421875" lon="1.2565477006137371063232421875">
        <ele>2530.39990234375</ele>
        <time>2018-05-01T12:03:31.000Z</time>
      </trkpt>
      <trkpt lat="42.71311447955667972564697265625" lon="1.2564836628735065460205078125">
        <ele>2528</ele>
        <time>2018-05-01T12:03:32.000Z</time>
      </trkpt>
      <trkpt lat="42.713064439594745635986328125" lon="1.25644217245280742645263671875">
        <ele>2525.199951171875</ele>
        <time>2018-05-01T12:03:33.000Z</time>
      </trkpt>
      <trkpt lat="42.71301372908055782318115234375" lon="1.25640445388853549957275390625">
        <ele>2522</ele>
        <time>2018-05-01T12:03:34.000Z</time>
      </trkpt>
      <trkpt lat="42.71297316066920757293701171875" lon="1.256358437240123748779296875">
        <ele>2519.39990234375</ele>
        <time>2018-05-01T12:03:35.000Z</time>
      </trkpt>
      <trkpt lat="42.71292940713465213775634765625" lon="1.25633203424513339996337890625">
        <ele>2516.60009765625</ele>
        <time>2018-05-01T12:03:36.000Z</time>
      </trkpt>
      <trkpt lat="42.71288816817104816436767578125" lon="1.25630102120339870452880859375">
        <ele>2514.199951171875</ele>
        <time>2018-05-01T12:03:37.000Z</time>
      </trkpt>
      <trkpt lat="42.712851874530315399169921875" lon="1.2562442757189273834228515625">
        <ele>2512</ele>
        <time>2018-05-01T12:03:38.000Z</time>
      </trkpt>
      <trkpt lat="42.7128134854137897491455078125" lon="1.25619188882410526275634765625">
        <ele>2510.60009765625</ele>
        <time>2018-05-01T12:03:39.000Z</time>
      </trkpt>
      <trkpt lat="42.71277115680277347564697265625" lon="1.25614461489021778106689453125">
        <ele>2507.39990234375</ele>
        <time>2018-05-01T12:03:40.000Z</time>
      </trkpt>
      <trkpt lat="42.712733186781406402587890625" lon="1.25609164126217365264892578125">
        <ele>2505.199951171875</ele>
        <time>2018-05-01T12:03:41.000Z</time>
      </trkpt>
      <trkpt lat="42.7126832306385040283203125" lon="1.25607118941843509674072265625">
        <ele>2502.800048828125</ele>
        <time>2018-05-01T12:03:42.000Z</time>
      </trkpt>
      <trkpt lat="42.712631933391094207763671875" lon="1.2560427747666835784912109375">
        <ele>2500.800048828125</ele>
        <time>2018-05-01T12:03:43.000Z</time>
      </trkpt>
      <trkpt lat="42.7125174365937709808349609375" lon="1.25595174729824066162109375">
        <ele>2496.60009765625</ele>
        <time>2018-05-01T12:03:45.000Z</time>
      </trkpt>
      <trkpt lat="42.71247024647891521453857421875" lon="1.25589550472795963287353515625">
        <ele>2494.199951171875</ele>
        <time>2018-05-01T12:03:46.000Z</time>
      </trkpt>
      <trkpt lat="42.7124195359647274017333984375" lon="1.2558359093964099884033203125">
        <ele>2492</ele>
        <time>2018-05-01T12:03:47.000Z</time>
      </trkpt>
      <trkpt lat="42.7123679034411907196044921875" lon="1.255780756473541259765625">
        <ele>2488.800048828125</ele>
        <time>2018-05-01T12:03:48.000Z</time>
      </trkpt>
      <trkpt lat="42.71227193064987659454345703125" lon="1.2557069957256317138671875">
        <ele>2484.199951171875</ele>
        <time>2018-05-01T12:03:50.000Z</time>
      </trkpt>
      <trkpt lat="42.71222256124019622802734375" lon="1.25566869042813777923583984375">
        <ele>2482</ele>
        <time>2018-05-01T12:03:51.000Z</time>
      </trkpt>
      <trkpt lat="42.7121855132281780242919921875" lon="1.25561454333364963531494140625">
        <ele>2480.60009765625</ele>
        <time>2018-05-01T12:03:52.000Z</time>
      </trkpt>
      <trkpt lat="42.7121395803987979888916015625" lon="1.25557757914066314697265625">
        <ele>2478.60009765625</ele>
        <time>2018-05-01T12:03:53.000Z</time>
      </trkpt>
      <trkpt lat="42.71209859289228916168212890625" lon="1.25552259385585784912109375">
        <ele>2476.800048828125</ele>
        <time>2018-05-01T12:03:54.000Z</time>
      </trkpt>
      <trkpt lat="42.71207495592534542083740234375" lon="1.25544321723282337188720703125">
        <ele>2475</ele>
        <time>2018-05-01T12:03:55.000Z</time>
      </trkpt>
      <trkpt lat="42.7120502293109893798828125" lon="1.2553609907627105712890625">
        <ele>2473.800048828125</ele>
        <time>2018-05-01T12:03:56.000Z</time>
      </trkpt>
      <trkpt lat="42.71200907416641712188720703125" lon="1.25531363300979137420654296875">
        <ele>2472.199951171875</ele>
        <time>2018-05-01T12:03:57.000Z</time>
      </trkpt>
      <trkpt lat="42.7119649015367031097412109375" lon="1.2552709691226482391357421875">
        <ele>2470.60009765625</ele>
        <time>2018-05-01T12:03:58.000Z</time>
      </trkpt>
      <trkpt lat="42.71192005835473537445068359375" lon="1.25521606765687465667724609375">
        <ele>2469.199951171875</ele>
        <time>2018-05-01T12:03:59.000Z</time>
      </trkpt>
      <trkpt lat="42.711861133575439453125" lon="1.25518237240612506866455078125">
        <ele>2467.60009765625</ele>
        <time>2018-05-01T12:04:00.000Z</time>
      </trkpt>
      <trkpt lat="42.71180539391934871673583984375" lon="1.2551247887313365936279296875">
        <ele>2465.199951171875</ele>
        <time>2018-05-01T12:04:01.000Z</time>
      </trkpt>
      <trkpt lat="42.71174781024456024169921875" lon="1.2550637684762477874755859375">
        <ele>2463.39990234375</ele>
        <time>2018-05-01T12:04:02.000Z</time>
      </trkpt>
      <trkpt lat="42.71168519742786884307861328125" lon="1.2550503574311733245849609375">
        <ele>2461</ele>
        <time>2018-05-01T12:04:03.000Z</time>
      </trkpt>
      <trkpt lat="42.71162576973438262939453125" lon="1.25506619922816753387451171875">
        <ele>2459.199951171875</ele>
        <time>2018-05-01T12:04:04.000Z</time>
      </trkpt>
      <trkpt lat="42.711573131382465362548828125" lon="1.25508413650095462799072265625">
        <ele>2458</ele>
        <time>2018-05-01T12:04:05.000Z</time>
      </trkpt>
      <trkpt lat="42.7115220017731189727783203125" lon="1.25509570352733135223388671875">
        <ele>2457.60009765625</ele>
        <time>2018-05-01T12:04:06.000Z</time>
      </trkpt>
      <trkpt lat="42.71146944724023342132568359375" lon="1.2551008164882659912109375">
        <ele>2457.199951171875</ele>
        <time>2018-05-01T12:04:07.000Z</time>
      </trkpt>
      <trkpt lat="42.71120826713740825653076171875" lon="1.2551180832087993621826171875">
        <ele>2454.60009765625</ele>
        <time>2018-05-01T12:04:11.000Z</time>
      </trkpt>
      <trkpt lat="42.71114540286362171173095703125" lon="1.25510492362082004547119140625">
        <ele>2453.800048828125</ele>
        <time>2018-05-01T12:04:12.000Z</time>
      </trkpt>
      <trkpt lat="42.7110915072262287139892578125" lon="1.2550775147974491119384765625">
        <ele>2452.39990234375</ele>
        <time>2018-05-01T12:04:13.000Z</time>
      </trkpt>
      <trkpt lat="42.7109506912529468536376953125" lon="1.25501942820847034454345703125">
        <ele>2450.800048828125</ele>
        <time>2018-05-01T12:04:16.000Z</time>
      </trkpt>
      <trkpt lat="42.7107686363160610198974609375" lon="1.25495664775371551513671875">
        <ele>2449.800048828125</ele>
        <time>2018-05-01T12:04:24.000Z</time>
      </trkpt>
      <trkpt lat="42.7108242921531200408935546875" lon="1.25493108294904232025146484375">
        <ele>2448.800048828125</ele>
        <time>2018-05-01T12:05:23.000Z</time>
      </trkpt>
      <trkpt lat="42.71079956553876399993896484375" lon="1.25494751147925853729248046875">
        <ele>2448.800048828125</ele>
        <time>2018-05-01T12:05:49.000Z</time>
      </trkpt>
      <trkpt lat="42.710673920810222625732421875" lon="1.25486117787659168243408203125">
        <ele>2447.199951171875</ele>
        <time>2018-05-01T12:05:52.000Z</time>
      </trkpt>
      <trkpt lat="42.71052095107734203338623046875" lon="1.25473402440547943115234375">
        <ele>2444.199951171875</ele>
        <time>2018-05-01T12:05:55.000Z</time>
      </trkpt>
      <trkpt lat="42.71048775874078273773193359375" lon="1.2546555697917938232421875">
        <ele>2442.800048828125</ele>
        <time>2018-05-01T12:05:56.000Z</time>
      </trkpt>
      <trkpt lat="42.7104595117270946502685546875" lon="1.254576109349727630615234375">
        <ele>2440.60009765625</ele>
        <time>2018-05-01T12:05:57.000Z</time>
      </trkpt>
      <trkpt lat="42.7104360423982143402099609375" lon="1.25449857674539089202880859375">
        <ele>2438</ele>
        <time>2018-05-01T12:05:58.000Z</time>
      </trkpt>
      <trkpt lat="42.71040393970906734466552734375" lon="1.25441006384789943695068359375">
        <ele>2435.39990234375</ele>
        <time>2018-05-01T12:05:59.000Z</time>
      </trkpt>
      <trkpt lat="42.71034308709204196929931640625" lon="1.2543395720422267913818359375">
        <ele>2432.39990234375</ele>
        <time>2018-05-01T12:06:00.000Z</time>
      </trkpt>
      <trkpt lat="42.7102878503501415252685546875" lon="1.25426338054239749908447265625">
        <ele>2429.60009765625</ele>
        <time>2018-05-01T12:06:01.000Z</time>
      </trkpt>
      <trkpt lat="42.71024652756750583648681640625" lon="1.25418425537645816802978515625">
        <ele>2427</ele>
        <time>2018-05-01T12:06:02.000Z</time>
      </trkpt>
      <trkpt lat="42.710189111530780792236328125" lon="1.25413010828197002410888671875">
        <ele>2424.60009765625</ele>
        <time>2018-05-01T12:06:03.000Z</time>
      </trkpt>
      <trkpt lat="42.7101332880556583404541015625" lon="1.25407554209232330322265625">
        <ele>2421.60009765625</ele>
        <time>2018-05-01T12:06:04.000Z</time>
      </trkpt>
      <trkpt lat="42.7100501395761966705322265625" lon="1.25397353433072566986083984375">
        <ele>2417.39990234375</ele>
        <time>2018-05-01T12:06:06.000Z</time>
      </trkpt>
      <trkpt lat="42.71002926863729953765869140625" lon="1.25400152988731861114501953125">
        <ele>2416.199951171875</ele>
        <time>2018-05-01T12:06:07.000Z</time>
      </trkpt>
      <trkpt lat="42.71002373658120632171630859375" lon="1.25402499921619892120361328125">
        <ele>2415.60009765625</ele>
        <time>2018-05-01T12:06:08.000Z</time>
      </trkpt>
      <trkpt lat="42.71002306602895259857177734375" lon="1.254037320613861083984375">
        <ele>2415.39990234375</ele>
        <time>2018-05-01T12:06:09.000Z</time>
      </trkpt>
      <trkpt lat="42.71002851426601409912109375" lon="1.2540861032903194427490234375">
        <ele>2414.800048828125</ele>
        <time>2018-05-01T12:06:34.000Z</time>
      </trkpt>
      <trkpt lat="42.71000881679356098175048828125" lon="1.25408518128097057342529296875">
        <ele>2414.60009765625</ele>
        <time>2018-05-01T12:06:35.000Z</time>
      </trkpt>
      <trkpt lat="42.7098603732883930206298828125" lon="1.2540653161704540252685546875">
        <ele>2412.199951171875</ele>
        <time>2018-05-01T12:06:38.000Z</time>
      </trkpt>
      <trkpt lat="42.709798850119113922119140625" lon="1.25402860343456268310546875">
        <ele>2410.60009765625</ele>
        <time>2018-05-01T12:06:39.000Z</time>
      </trkpt>
      <trkpt lat="42.7097326330840587615966796875" lon="1.25399096868932247161865234375">
        <ele>2408.800048828125</ele>
        <time>2018-05-01T12:06:40.000Z</time>
      </trkpt>
      <trkpt lat="42.7096716128289699554443359375" lon="1.25396682880818843841552734375">
        <ele>2406.800048828125</ele>
        <time>2018-05-01T12:06:41.000Z</time>
      </trkpt>
      <trkpt lat="42.7096213214099407196044921875" lon="1.25395710580050945281982421875">
        <ele>2404</ele>
        <time>2018-05-01T12:06:42.000Z</time>
      </trkpt>
      <trkpt lat="42.70956524647772312164306640625" lon="1.253951154649257659912109375">
        <ele>2401.800048828125</ele>
        <time>2018-05-01T12:06:43.000Z</time>
      </trkpt>
      <trkpt lat="42.70951311103999614715576171875" lon="1.25395811162889003753662109375">
        <ele>2399.60009765625</ele>
        <time>2018-05-01T12:06:44.000Z</time>
      </trkpt>
      <trkpt lat="42.70947421900928020477294921875" lon="1.25394587405025959014892578125">
        <ele>2397.60009765625</ele>
        <time>2018-05-01T12:06:45.000Z</time>
      </trkpt>
      <trkpt lat="42.709421329200267791748046875" lon="1.2539261765778064727783203125">
        <ele>2395.39990234375</ele>
        <time>2018-05-01T12:06:46.000Z</time>
      </trkpt>
      <trkpt lat="42.70936910994350910186767578125" lon="1.25391662120819091796875">
        <ele>2392.800048828125</ele>
        <time>2018-05-01T12:06:47.000Z</time>
      </trkpt>
      <trkpt lat="42.7093212492763996124267578125" lon="1.25389055348932743072509765625">
        <ele>2390.60009765625</ele>
        <time>2018-05-01T12:06:48.000Z</time>
      </trkpt>
      <trkpt lat="42.70927506498992443084716796875" lon="1.2538535892963409423828125">
        <ele>2387.800048828125</ele>
        <time>2018-05-01T12:06:49.000Z</time>
      </trkpt>
      <trkpt lat="42.7092199958860874176025390625" lon="1.2538497336208820343017578125">
        <ele>2385</ele>
        <time>2018-05-01T12:06:50.000Z</time>
      </trkpt>
      <trkpt lat="42.70916090346872806549072265625" lon="1.25385568477213382720947265625">
        <ele>2382.199951171875</ele>
        <time>2018-05-01T12:06:51.000Z</time>
      </trkpt>
      <trkpt lat="42.70911346189677715301513671875" lon="1.25383322127163410186767578125">
        <ele>2379.800048828125</ele>
        <time>2018-05-01T12:06:52.000Z</time>
      </trkpt>
      <trkpt lat="42.70907473750412464141845703125" lon="1.25380187295377254486083984375">
        <ele>2377.39990234375</ele>
        <time>2018-05-01T12:06:53.000Z</time>
      </trkpt>
      <trkpt lat="42.70902335643768310546875" lon="1.25378477387130260467529296875">
        <ele>2374.800048828125</ele>
        <time>2018-05-01T12:06:54.000Z</time>
      </trkpt>
      <trkpt lat="42.708981446921825408935546875" lon="1.2537543475627899169921875">
        <ele>2372.199951171875</ele>
        <time>2018-05-01T12:06:55.000Z</time>
      </trkpt>
      <trkpt lat="42.7089366875588893890380859375" lon="1.25372777692973613739013671875">
        <ele>2369.39990234375</ele>
        <time>2018-05-01T12:06:56.000Z</time>
      </trkpt>
      <trkpt lat="42.70888379774987697601318359375" lon="1.25372744165360927581787109375">
        <ele>2367.800048828125</ele>
        <time>2018-05-01T12:06:57.000Z</time>
      </trkpt>
      <trkpt lat="42.70885370671749114990234375" lon="1.25369257293641567230224609375">
        <ele>2365</ele>
        <time>2018-05-01T12:06:58.000Z</time>
      </trkpt>
      <trkpt lat="42.7088418044149875640869140625" lon="1.25365502201020717620849609375">
        <ele>2362.800048828125</ele>
        <time>2018-05-01T12:06:59.000Z</time>
      </trkpt>
      <trkpt lat="42.7088458277285099029541015625" lon="1.25361495651304721832275390625">
        <ele>2361.39990234375</ele>
        <time>2018-05-01T12:07:00.000Z</time>
      </trkpt>
      <trkpt lat="42.70884892903268337249755859375" lon="1.25359467230737209320068359375">
        <ele>2361</ele>
        <time>2018-05-01T12:07:01.000Z</time>
      </trkpt>
      <trkpt lat="42.70885848440229892730712890625" lon="1.25366759486496448516845703125">
        <ele>2360.800048828125</ele>
        <time>2018-05-01T12:07:11.000Z</time>
      </trkpt>
      <trkpt lat="42.70880852825939655303955078125" lon="1.25371185131371021270751953125">
        <ele>2360.39990234375</ele>
        <time>2018-05-01T12:07:12.000Z</time>
      </trkpt>
      <trkpt lat="42.70873971283435821533203125" lon="1.25372962094843387603759765625">
        <ele>2357.199951171875</ele>
        <time>2018-05-01T12:07:14.000Z</time>
      </trkpt>
      <trkpt lat="42.7086894214153289794921875" lon="1.253743283450603485107421875">
        <ele>2355</ele>
        <time>2018-05-01T12:07:15.000Z</time>
      </trkpt>
      <trkpt lat="42.70863468758761882781982421875" lon="1.2537494860589504241943359375">
        <ele>2352.800048828125</ele>
        <time>2018-05-01T12:07:16.000Z</time>
      </trkpt>
      <trkpt lat="42.70859277807176113128662109375" lon="1.25368184410035610198974609375">
        <ele>2350</ele>
        <time>2018-05-01T12:07:17.000Z</time>
      </trkpt>
      <trkpt lat="42.7085450850427150726318359375" lon="1.25359031371772289276123046875">
        <ele>2348.199951171875</ele>
        <time>2018-05-01T12:07:18.000Z</time>
      </trkpt>
      <trkpt lat="42.70849403925240039825439453125" lon="1.2535050697624683380126953125">
        <ele>2344.60009765625</ele>
        <time>2018-05-01T12:07:19.000Z</time>
      </trkpt>
      <trkpt lat="42.70843804813921451568603515625" lon="1.253444887697696685791015625">
        <ele>2343</ele>
        <time>2018-05-01T12:07:20.000Z</time>
      </trkpt>
      <trkpt lat="42.70837602205574512481689453125" lon="1.25341194681823253631591796875">
        <ele>2341.60009765625</ele>
        <time>2018-05-01T12:07:21.000Z</time>
      </trkpt>
      <trkpt lat="42.70824677310883998870849609375" lon="1.25334539450705051422119140625">
        <ele>2338.60009765625</ele>
        <time>2018-05-01T12:07:23.000Z</time>
      </trkpt>
      <trkpt lat="42.7081395685672760009765625" lon="1.25325386412441730499267578125">
        <ele>2335.60009765625</ele>
        <time>2018-05-01T12:07:27.000Z</time>
      </trkpt>
      <trkpt lat="42.70814401097595691680908203125" lon="1.25321363098919391632080078125">
        <ele>2335</ele>
        <time>2018-05-01T12:07:30.000Z</time>
      </trkpt>
      <trkpt lat="42.708172090351581573486328125" lon="1.25319820828735828399658203125">
        <ele>2335.199951171875</ele>
        <time>2018-05-01T12:07:38.000Z</time>
      </trkpt>
      <trkpt lat="42.708178125321865081787109375" lon="1.2531845457851886749267578125">
        <ele>2335</ele>
        <time>2018-05-01T12:07:39.000Z</time>
      </trkpt>
      <trkpt lat="42.70821542479097843170166015625" lon="1.2531459890305995941162109375">
        <ele>2334.39990234375</ele>
        <time>2018-05-01T12:08:36.000Z</time>
      </trkpt>
      <trkpt lat="42.70821223966777324676513671875" lon="1.2531563825905323028564453125">
        <ele>2334.199951171875</ele>
        <time>2018-05-01T12:09:22.000Z</time>
      </trkpt>
      <trkpt lat="42.7082188613712787628173828125" lon="1.25316032208502292633056640625">
        <ele>2334.60009765625</ele>
        <time>2018-05-01T12:10:05.000Z</time>
      </trkpt>
      <trkpt lat="42.70812523551285266876220703125" lon="1.25309477560222148895263671875">
        <ele>2332.199951171875</ele>
        <time>2018-05-01T12:10:23.000Z</time>
      </trkpt>
      <trkpt lat="42.70807796157896518707275390625" lon="1.253086812794208526611328125">
        <ele>2330</ele>
        <time>2018-05-01T12:10:24.000Z</time>
      </trkpt>
      <trkpt lat="42.708021886646747589111328125" lon="1.2530688755214214324951171875">
        <ele>2328.60009765625</ele>
        <time>2018-05-01T12:10:25.000Z</time>
      </trkpt>
      <trkpt lat="42.70795994438230991363525390625" lon="1.25306543894112110137939453125">
        <ele>2325.199951171875</ele>
        <time>2018-05-01T12:10:26.000Z</time>
      </trkpt>
      <trkpt lat="42.707900516688823699951171875" lon="1.2530303187668323516845703125">
        <ele>2322.800048828125</ele>
        <time>2018-05-01T12:10:27.000Z</time>
      </trkpt>
      <trkpt lat="42.707852907478809356689453125" lon="1.25296778976917266845703125">
        <ele>2321</ele>
        <time>2018-05-01T12:10:28.000Z</time>
      </trkpt>
      <trkpt lat="42.70779951475560665130615234375" lon="1.25289847142994403839111328125">
        <ele>2319.199951171875</ele>
        <time>2018-05-01T12:10:29.000Z</time>
      </trkpt>
      <trkpt lat="42.7077397517859935760498046875" lon="1.25283694826066493988037109375">
        <ele>2317.60009765625</ele>
        <time>2018-05-01T12:10:30.000Z</time>
      </trkpt>
      <trkpt lat="42.7076576091349124908447265625" lon="1.2528154067695140838623046875">
        <ele>2313.800048828125</ele>
        <time>2018-05-01T12:10:31.000Z</time>
      </trkpt>
      <trkpt lat="42.70757940597832202911376953125" lon="1.2527879141271114349365234375">
        <ele>2310</ele>
        <time>2018-05-01T12:10:32.000Z</time>
      </trkpt>
      <trkpt lat="42.707524336874485015869140625" lon="1.252724044024944305419921875">
        <ele>2307</ele>
        <time>2018-05-01T12:10:33.000Z</time>
      </trkpt>
      <trkpt lat="42.707479409873485565185546875" lon="1.25265137292444705963134765625">
        <ele>2304.60009765625</ele>
        <time>2018-05-01T12:10:34.000Z</time>
      </trkpt>
      <trkpt lat="42.70742132328450679779052734375" lon="1.252603344619274139404296875">
        <ele>2302.60009765625</ele>
        <time>2018-05-01T12:10:35.000Z</time>
      </trkpt>
      <trkpt lat="42.70736499689519405364990234375" lon="1.2525324337184429168701171875">
        <ele>2300</ele>
        <time>2018-05-01T12:10:36.000Z</time>
      </trkpt>
      <trkpt lat="42.707314789295196533203125" lon="1.25245138071477413177490234375">
        <ele>2297.800048828125</ele>
        <time>2018-05-01T12:10:37.000Z</time>
      </trkpt>
      <trkpt lat="42.707261480391025543212890625" lon="1.2523708306252956390380859375">
        <ele>2296</ele>
        <time>2018-05-01T12:10:38.000Z</time>
      </trkpt>
      <trkpt lat="42.70718805491924285888671875" lon="1.252332441508769989013671875">
        <ele>2294.39990234375</ele>
        <time>2018-05-01T12:10:39.000Z</time>
      </trkpt>
      <trkpt lat="42.7071111090481281280517578125" lon="1.252302266657352447509765625">
        <ele>2293</ele>
        <time>2018-05-01T12:10:40.000Z</time>
      </trkpt>
      <trkpt lat="42.707040868699550628662109375" lon="1.252274103462696075439453125">
        <ele>2292.199951171875</ele>
        <time>2018-05-01T12:10:41.000Z</time>
      </trkpt>
      <trkpt lat="42.70698211155831813812255859375" lon="1.25225105322897434234619140625">
        <ele>2291.60009765625</ele>
        <time>2018-05-01T12:10:42.000Z</time>
      </trkpt>
      <trkpt lat="42.7068609930574893951416015625" lon="1.25223822891712188720703125">
        <ele>2292</ele>
        <time>2018-05-01T12:10:48.000Z</time>
      </trkpt>
      <trkpt lat="42.70685034804046154022216796875" lon="1.25224225223064422607421875">
        <ele>2292.199951171875</ele>
        <time>2018-05-01T12:10:50.000Z</time>
      </trkpt>
      <trkpt lat="42.7068298123776912689208984375" lon="1.25224183313548564910888671875">
        <ele>2292</ele>
        <time>2018-05-01T12:10:51.000Z</time>
      </trkpt>
      <trkpt lat="42.706817574799060821533203125" lon="1.25223948620259761810302734375">
        <ele>2291.800048828125</ele>
        <time>2018-05-01T12:10:52.000Z</time>
      </trkpt>
      <trkpt lat="42.70681254565715789794921875" lon="1.2522367201745510101318359375">
        <ele>2291.60009765625</ele>
        <time>2018-05-01T12:10:53.000Z</time>
      </trkpt>
      <trkpt lat="42.70677189342677593231201171875" lon="1.25226060859858989715576171875">
        <ele>2290.800048828125</ele>
        <time>2018-05-01T12:12:11.000Z</time>
      </trkpt>
      <trkpt lat="42.70673518069088459014892578125" lon="1.252233870327472686767578125">
        <ele>2290</ele>
        <time>2018-05-01T12:12:12.000Z</time>
      </trkpt>
      <trkpt lat="42.7066708914935588836669921875" lon="1.25219975598156452178955078125">
        <ele>2288.199951171875</ele>
        <time>2018-05-01T12:12:13.000Z</time>
      </trkpt>
      <trkpt lat="42.70660425536334514617919921875" lon="1.2521461956202983856201171875">
        <ele>2285</ele>
        <time>2018-05-01T12:12:14.000Z</time>
      </trkpt>
      <trkpt lat="42.70654038526117801666259765625" lon="1.25208802521228790283203125">
        <ele>2282.39990234375</ele>
        <time>2018-05-01T12:12:15.000Z</time>
      </trkpt>
      <trkpt lat="42.70648506470024585723876953125" lon="1.25202474184334278106689453125">
        <ele>2279.800048828125</ele>
        <time>2018-05-01T12:12:16.000Z</time>
      </trkpt>
      <trkpt lat="42.706434689462184906005859375" lon="1.25195316039025783538818359375">
        <ele>2277.60009765625</ele>
        <time>2018-05-01T12:12:17.000Z</time>
      </trkpt>
      <trkpt lat="42.70639956928789615631103515625" lon="1.25188350677490234375">
        <ele>2275.800048828125</ele>
        <time>2018-05-01T12:12:18.000Z</time>
      </trkpt>
      <trkpt lat="42.7063708193600177764892578125" lon="1.25181318260729312896728515625">
        <ele>2274.60009765625</ele>
        <time>2018-05-01T12:12:19.000Z</time>
      </trkpt>
      <trkpt lat="42.7063500322401523590087890625" lon="1.251734979450702667236328125">
        <ele>2273.800048828125</ele>
        <time>2018-05-01T12:12:20.000Z</time>
      </trkpt>
      <trkpt lat="42.7063151635229587554931640625" lon="1.2515886314213275909423828125">
        <ele>2272.199951171875</ele>
        <time>2018-05-01T12:12:22.000Z</time>
      </trkpt>
      <trkpt lat="42.70627032034099102020263671875" lon="1.2515255995094776153564453125">
        <ele>2271.39990234375</ele>
        <time>2018-05-01T12:12:23.000Z</time>
      </trkpt>
      <trkpt lat="42.70622589625418186187744140625" lon="1.25145510770380496978759765625">
        <ele>2270.39990234375</ele>
        <time>2018-05-01T12:12:24.000Z</time>
      </trkpt>
      <trkpt lat="42.70614677108824253082275390625" lon="1.25133030116558074951171875">
        <ele>2268.800048828125</ele>
        <time>2018-05-01T12:12:26.000Z</time>
      </trkpt>
      <trkpt lat="42.70609698258340358734130859375" lon="1.25128202140331268310546875">
        <ele>2268</ele>
        <time>2018-05-01T12:12:27.000Z</time>
      </trkpt>
      <trkpt lat="42.70600176416337490081787109375" lon="1.2511759065091609954833984375">
        <ele>2267.199951171875</ele>
        <time>2018-05-01T12:12:29.000Z</time>
      </trkpt>
      <trkpt lat="42.7059701643884181976318359375" lon="1.2511199153959751129150390625">
        <ele>2266.39990234375</ele>
        <time>2018-05-01T12:12:30.000Z</time>
      </trkpt>
      <trkpt lat="42.70594543777406215667724609375" lon="1.25106610357761383056640625">
        <ele>2266</ele>
        <time>2018-05-01T12:12:31.000Z</time>
      </trkpt>
      <trkpt lat="42.70592716522514820098876953125" lon="1.25101170502603054046630859375">
        <ele>2265.60009765625</ele>
        <time>2018-05-01T12:12:32.000Z</time>
      </trkpt>
      <trkpt lat="42.70592280663549900054931640625" lon="1.25095252878963947296142578125">
        <ele>2265.199951171875</ele>
        <time>2018-05-01T12:12:33.000Z</time>
      </trkpt>
      <trkpt lat="42.705925405025482177734375" lon="1.2508999742567539215087890625">
        <ele>2264.60009765625</ele>
        <time>2018-05-01T12:12:35.000Z</time>
      </trkpt>
      <trkpt lat="42.70593118853867053985595703125" lon="1.2509331665933132171630859375">
        <ele>2264.60009765625</ele>
        <time>2018-05-01T12:12:54.000Z</time>
      </trkpt>
      <trkpt lat="42.705913670361042022705078125" lon="1.25095856375992298126220703125">
        <ele>2264.60009765625</ele>
        <time>2018-05-01T12:12:55.000Z</time>
      </trkpt>
      <trkpt lat="42.7058933861553668975830078125" lon="1.25098161399364471435546875">
        <ele>2264.199951171875</ele>
        <time>2018-05-01T12:12:56.000Z</time>
      </trkpt>
      <trkpt lat="42.70586706697940826416015625" lon="1.25099980272352695465087890625">
        <ele>2263.60009765625</ele>
        <time>2018-05-01T12:12:57.000Z</time>
      </trkpt>
      <trkpt lat="42.70584284327924251556396484375" lon="1.25096954405307769775390625">
        <ele>2262.39990234375</ele>
        <time>2018-05-01T12:12:58.000Z</time>
      </trkpt>
      <trkpt lat="42.7058226428925991058349609375" lon="1.25090626068413257598876953125">
        <ele>2260.60009765625</ele>
        <time>2018-05-01T12:12:59.000Z</time>
      </trkpt>
      <trkpt lat="42.7058135904371738433837890625" lon="1.25080316327512264251708984375">
        <ele>2258.199951171875</ele>
        <time>2018-05-01T12:13:00.000Z</time>
      </trkpt>
      <trkpt lat="42.7058350481092929840087890625" lon="1.25071297399699687957763671875">
        <ele>2256</ele>
        <time>2018-05-01T12:13:01.000Z</time>
      </trkpt>
      <trkpt lat="42.70586178638041019439697265625" lon="1.2506237067282199859619140625">
        <ele>2253.60009765625</ele>
        <time>2018-05-01T12:13:02.000Z</time>
      </trkpt>
      <trkpt lat="42.70587938837707042694091796875" lon="1.250534355640411376953125">
        <ele>2252.199951171875</ele>
        <time>2018-05-01T12:13:03.000Z</time>
      </trkpt>
      <trkpt lat="42.7058501355350017547607421875" lon="1.2504436634480953216552734375">
        <ele>2250.199951171875</ele>
        <time>2018-05-01T12:13:04.000Z</time>
      </trkpt>
      <trkpt lat="42.70581585355103015899658203125" lon="1.2503326870501041412353515625">
        <ele>2248.39990234375</ele>
        <time>2018-05-01T12:13:05.000Z</time>
      </trkpt>
      <trkpt lat="42.70581082440912723541259765625" lon="1.2502163462340831756591796875">
        <ele>2246.199951171875</ele>
        <time>2018-05-01T12:13:06.000Z</time>
      </trkpt>
      <trkpt lat="42.70581149496138095855712890625" lon="1.25009254552423954010009765625">
        <ele>2243.39990234375</ele>
        <time>2018-05-01T12:13:07.000Z</time>
      </trkpt>
      <trkpt lat="42.7057844214141368865966796875" lon="1.24997637234628200531005859375">
        <ele>2240.39990234375</ele>
        <time>2018-05-01T12:13:08.000Z</time>
      </trkpt>
      <trkpt lat="42.70576690323650836944580078125" lon="1.2498713470995426177978515625">
        <ele>2238.800048828125</ele>
        <time>2018-05-01T12:13:09.000Z</time>
      </trkpt>
      <trkpt lat="42.7057723514735698699951171875" lon="1.249772608280181884765625">
        <ele>2237.39990234375</ele>
        <time>2018-05-01T12:13:10.000Z</time>
      </trkpt>
      <trkpt lat="42.7057778835296630859375" lon="1.24968199990689754486083984375">
        <ele>2237</ele>
        <time>2018-05-01T12:13:11.000Z</time>
      </trkpt>
      <trkpt lat="42.7057736925780773162841796875" lon="1.24960321001708507537841796875">
        <ele>2236.800048828125</ele>
        <time>2018-05-01T12:13:12.000Z</time>
      </trkpt>
      <trkpt lat="42.70576271228492259979248046875" lon="1.2495236657559871673583984375">
        <ele>2236.60009765625</ele>
        <time>2018-05-01T12:13:13.000Z</time>
      </trkpt>
      <trkpt lat="42.7057589404284954071044921875" lon="1.2492266111075878143310546875">
        <ele>2234</ele>
        <time>2018-05-01T12:13:16.000Z</time>
      </trkpt>
      <trkpt lat="42.70578316412866115570068359375" lon="1.24911957420408725738525390625">
        <ele>2232.800048828125</ele>
        <time>2018-05-01T12:13:17.000Z</time>
      </trkpt>
      <trkpt lat="42.7058275043964385986328125" lon="1.248901225626468658447265625">
        <ele>2228.199951171875</ele>
        <time>2018-05-01T12:13:19.000Z</time>
      </trkpt>
      <trkpt lat="42.70584334619343280792236328125" lon="1.2487964518368244171142578125">
        <ele>2226.39990234375</ele>
        <time>2018-05-01T12:13:20.000Z</time>
      </trkpt>
      <trkpt lat="42.70584284327924251556396484375" lon="1.2486962042748928070068359375">
        <ele>2225</ele>
        <time>2018-05-01T12:13:21.000Z</time>
      </trkpt>
      <trkpt lat="42.70583345554769039154052734375" lon="1.24859469942748546600341796875">
        <ele>2223.800048828125</ele>
        <time>2018-05-01T12:13:22.000Z</time>
      </trkpt>
      <trkpt lat="42.705830521881580352783203125" lon="1.2484903447329998016357421875">
        <ele>2223</ele>
        <time>2018-05-01T12:13:23.000Z</time>
      </trkpt>
      <trkpt lat="42.70583865232765674591064453125" lon="1.24839420430362224578857421875">
        <ele>2221.60009765625</ele>
        <time>2018-05-01T12:13:24.000Z</time>
      </trkpt>
      <trkpt lat="42.70586664788424968719482421875" lon="1.2482905201613903045654296875">
        <ele>2219.800048828125</ele>
        <time>2018-05-01T12:13:25.000Z</time>
      </trkpt>
      <trkpt lat="42.70591056905686855316162109375" lon="1.24818675220012664794921875">
        <ele>2217.39990234375</ele>
        <time>2018-05-01T12:13:26.000Z</time>
      </trkpt>
      <trkpt lat="42.7059616148471832275390625" lon="1.24808826483786106109619140625">
        <ele>2215.199951171875</ele>
        <time>2018-05-01T12:13:27.000Z</time>
      </trkpt>
      <trkpt lat="42.706000171601772308349609375" lon="1.24798156321048736572265625">
        <ele>2213</ele>
        <time>2018-05-01T12:13:28.000Z</time>
      </trkpt>
      <trkpt lat="42.7060516364872455596923828125" lon="1.24775583855807781219482421875">
        <ele>2209</ele>
        <time>2018-05-01T12:13:30.000Z</time>
      </trkpt>
      <trkpt lat="42.7060667239129543304443359375" lon="1.2476397491991519927978515625">
        <ele>2207</ele>
        <time>2018-05-01T12:13:31.000Z</time>
      </trkpt>
      <trkpt lat="42.70607803948223590850830078125" lon="1.24753497540950775146484375">
        <ele>2204.800048828125</ele>
        <time>2018-05-01T12:13:32.000Z</time>
      </trkpt>
      <trkpt lat="42.70608021877706050872802734375" lon="1.24743380583822727203369140625">
        <ele>2203.199951171875</ele>
        <time>2018-05-01T12:13:33.000Z</time>
      </trkpt>
      <trkpt lat="42.70607954822480678558349609375" lon="1.24733305536210536956787109375">
        <ele>2202.199951171875</ele>
        <time>2018-05-01T12:13:34.000Z</time>
      </trkpt>
      <trkpt lat="42.70606948994100093841552734375" lon="1.24711613170802593231201171875">
        <ele>2198.39990234375</ele>
        <time>2018-05-01T12:13:36.000Z</time>
      </trkpt>
      <trkpt lat="42.7060742676258087158203125" lon="1.24687171541154384613037109375">
        <ele>2191.800048828125</ele>
        <time>2018-05-01T12:13:38.000Z</time>
      </trkpt>
      <trkpt lat="42.7061465196311473846435546875" lon="1.2467591464519500732421875">
        <ele>2188.800048828125</ele>
        <time>2018-05-01T12:13:39.000Z</time>
      </trkpt>
      <trkpt lat="42.70619354210793972015380859375" lon="1.2466573901474475860595703125">
        <ele>2186.39990234375</ele>
        <time>2018-05-01T12:13:40.000Z</time>
      </trkpt>
      <trkpt lat="42.70621466450393199920654296875" lon="1.2465521134436130523681640625">
        <ele>2184.199951171875</ele>
        <time>2018-05-01T12:13:41.000Z</time>
      </trkpt>
      <trkpt lat="42.70622790791094303131103515625" lon="1.2464377842843532562255859375">
        <ele>2181.800048828125</ele>
        <time>2018-05-01T12:13:42.000Z</time>
      </trkpt>
      <trkpt lat="42.7062306739389896392822265625" lon="1.24630342237651348114013671875">
        <ele>2177.60009765625</ele>
        <time>2018-05-01T12:13:43.000Z</time>
      </trkpt>
      <trkpt lat="42.7062326855957508087158203125" lon="1.24616227112710475921630859375">
        <ele>2174.199951171875</ele>
        <time>2018-05-01T12:13:44.000Z</time>
      </trkpt>
      <trkpt lat="42.70623729564249515533447265625" lon="1.24601927585899829864501953125">
        <ele>2170.60009765625</ele>
        <time>2018-05-01T12:13:45.000Z</time>
      </trkpt>
      <trkpt lat="42.7062459290027618408203125" lon="1.2458849139511585235595703125">
        <ele>2167.800048828125</ele>
        <time>2018-05-01T12:13:46.000Z</time>
      </trkpt>
      <trkpt lat="42.706241905689239501953125" lon="1.24575239606201648712158203125">
        <ele>2163.800048828125</ele>
        <time>2018-05-01T12:13:47.000Z</time>
      </trkpt>
      <trkpt lat="42.70624550990760326385498046875" lon="1.2454845942556858062744140625">
        <ele>2159.800048828125</ele>
        <time>2018-05-01T12:13:49.000Z</time>
      </trkpt>
      <trkpt lat="42.7062514610588550567626953125" lon="1.24535392038524150848388671875">
        <ele>2156.199951171875</ele>
        <time>2018-05-01T12:13:50.000Z</time>
      </trkpt>
      <trkpt lat="42.70622053183615207672119140625" lon="1.245218217372894287109375">
        <ele>2153.800048828125</ele>
        <time>2018-05-01T12:13:51.000Z</time>
      </trkpt>
      <trkpt lat="42.7061756886541843414306640625" lon="1.2451256811618804931640625">
        <ele>2151</ele>
        <time>2018-05-01T12:13:52.000Z</time>
      </trkpt>
      <trkpt lat="42.70613662898540496826171875" lon="1.2450799159705638885498046875">
        <ele>2149.60009765625</ele>
        <time>2018-05-01T12:13:53.000Z</time>
      </trkpt>
      <trkpt lat="42.70610854960978031158447265625" lon="1.24506122432649135589599609375">
        <ele>2148.800048828125</ele>
        <time>2018-05-01T12:13:54.000Z</time>
      </trkpt>
      <trkpt lat="42.706099413335323333740234375" lon="1.2450577877461910247802734375">
        <ele>2149</ele>
        <time>2018-05-01T12:13:55.000Z</time>
      </trkpt>
      <trkpt lat="42.70610871724784374237060546875" lon="1.24511101283133029937744140625">
        <ele>2149.199951171875</ele>
        <time>2018-05-01T12:14:31.000Z</time>
      </trkpt>
      <trkpt lat="42.706111483275890350341796875" lon="1.2450628168880939483642578125">
        <ele>2148.199951171875</ele>
        <time>2018-05-01T12:14:32.000Z</time>
      </trkpt>
      <trkpt lat="42.7061029337346553802490234375" lon="1.24498612247407436370849609375">
        <ele>2147.199951171875</ele>
        <time>2018-05-01T12:14:33.000Z</time>
      </trkpt>
      <trkpt lat="42.70604434423148632049560546875" lon="1.2447769939899444580078125">
        <ele>2143.39990234375</ele>
        <time>2018-05-01T12:14:35.000Z</time>
      </trkpt>
      <trkpt lat="42.7060234732925891876220703125" lon="1.2446578033268451690673828125">
        <ele>2139.800048828125</ele>
        <time>2018-05-01T12:14:36.000Z</time>
      </trkpt>
      <trkpt lat="42.7060125768184661865234375" lon="1.24452888965606689453125">
        <ele>2135.800048828125</ele>
        <time>2018-05-01T12:14:37.000Z</time>
      </trkpt>
      <trkpt lat="42.7059701643884181976318359375" lon="1.2444207631051540374755859375">
        <ele>2133</ele>
        <time>2018-05-01T12:14:38.000Z</time>
      </trkpt>
      <trkpt lat="42.70594510249793529510498046875" lon="1.24431557022035121917724609375">
        <ele>2131</ele>
        <time>2018-05-01T12:14:39.000Z</time>
      </trkpt>
      <trkpt lat="42.70596052519977092742919921875" lon="1.24421280808746814727783203125">
        <ele>2129.800048828125</ele>
        <time>2018-05-01T12:14:40.000Z</time>
      </trkpt>
      <trkpt lat="42.70598466508090496063232421875" lon="1.2441659532487392425537109375">
        <ele>2129</ele>
        <time>2018-05-01T12:14:41.000Z</time>
      </trkpt>
      <trkpt lat="42.7059932984411716461181640625" lon="1.2441532127559185028076171875">
        <ele>2129</ele>
        <time>2018-05-01T12:14:42.000Z</time>
      </trkpt>
      <trkpt lat="42.70597326569259166717529296875" lon="1.24414022080600261688232421875">
        <ele>2128.800048828125</ele>
        <time>2018-05-01T12:14:46.000Z</time>
      </trkpt>
      <trkpt lat="42.70596069283783435821533203125" lon="1.2441237084567546844482421875">
        <ele>2128.60009765625</ele>
        <time>2018-05-01T12:14:47.000Z</time>
      </trkpt>
      <trkpt lat="42.70594946108758449554443359375" lon="1.24409965239465236663818359375">
        <ele>2128.60009765625</ele>
        <time>2018-05-01T12:14:48.000Z</time>
      </trkpt>
      <trkpt lat="42.70594560541212558746337890625" lon="1.24406411312520503997802734375">
        <ele>2128.199951171875</ele>
        <time>2018-05-01T12:14:49.000Z</time>
      </trkpt>
      <trkpt lat="42.7059477008879184722900390625" lon="1.24402203597128391265869140625">
        <ele>2127.800048828125</ele>
        <time>2018-05-01T12:14:50.000Z</time>
      </trkpt>
      <trkpt lat="42.70595449022948741912841796875" lon="1.24397174455225467681884765625">
        <ele>2127.39990234375</ele>
        <time>2018-05-01T12:14:51.000Z</time>
      </trkpt>
      <trkpt lat="42.7059591002762317657470703125" lon="1.243929751217365264892578125">
        <ele>2127.199951171875</ele>
        <time>2018-05-01T12:14:52.000Z</time>
      </trkpt>
      <trkpt lat="42.70596505142748355865478515625" lon="1.24388541094958782196044921875">
        <ele>2127</ele>
        <time>2018-05-01T12:14:53.000Z</time>
      </trkpt>
      <trkpt lat="42.705977372825145721435546875" lon="1.24383713118731975555419921875">
        <ele>2126.800048828125</ele>
        <time>2018-05-01T12:14:54.000Z</time>
      </trkpt>
      <trkpt lat="42.7059859223663806915283203125" lon="1.24378834851086139678955078125">
        <ele>2126.800048828125</ele>
        <time>2018-05-01T12:14:55.000Z</time>
      </trkpt>
      <trkpt lat="42.7060573361814022064208984375" lon="1.243501268327236175537109375">
        <ele>2126.800048828125</ele>
        <time>2018-05-01T12:15:05.000Z</time>
      </trkpt>
      <trkpt lat="42.7060576714575290679931640625" lon="1.24348240904510021209716796875">
        <ele>2126.60009765625</ele>
        <time>2018-05-01T12:15:06.000Z</time>
      </trkpt>
      <trkpt lat="42.7061431668698787689208984375" lon="1.2432882003486156463623046875">
        <ele>2127.199951171875</ele>
        <time>2018-05-01T12:15:23.000Z</time>
      </trkpt>
      <trkpt lat="42.70615481771528720855712890625" lon="1.24328878708183765411376953125">
        <ele>2127.39990234375</ele>
        <time>2018-05-01T12:15:24.000Z</time>
      </trkpt>
      <trkpt lat="42.7063356153666973114013671875" lon="1.2433059699833393096923828125">
        <ele>2126.39990234375</ele>
        <time>2018-05-01T12:15:33.000Z</time>
      </trkpt>
      <trkpt lat="42.706444747745990753173828125" lon="1.2432825006544589996337890625">
        <ele>2125.199951171875</ele>
        <time>2018-05-01T12:15:35.000Z</time>
      </trkpt>
      <trkpt lat="42.7064898423850536346435546875" lon="1.24325827695429325103759765625">
        <ele>2124.60009765625</ele>
        <time>2018-05-01T12:15:36.000Z</time>
      </trkpt>
      <trkpt lat="42.70652378909289836883544921875" lon="1.24322994612157344818115234375">
        <ele>2124.199951171875</ele>
        <time>2018-05-01T12:15:37.000Z</time>
      </trkpt>
      <trkpt lat="42.70654943771660327911376953125" lon="1.24319809488952159881591796875">
        <ele>2123.800048828125</ele>
        <time>2018-05-01T12:15:38.000Z</time>
      </trkpt>
      <trkpt lat="42.70657106302678585052490234375" lon="1.2431577779352664947509765625">
        <ele>2123.60009765625</ele>
        <time>2018-05-01T12:15:39.000Z</time>
      </trkpt>
      <trkpt lat="42.7065967954695224761962890625" lon="1.2431252561509609222412109375">
        <ele>2123.39990234375</ele>
        <time>2018-05-01T12:15:40.000Z</time>
      </trkpt>
      <trkpt lat="42.70670752041041851043701171875" lon="1.243023164570331573486328125">
        <ele>2121.800048828125</ele>
        <time>2018-05-01T12:15:43.000Z</time>
      </trkpt>
      <trkpt lat="42.70683559589087963104248046875" lon="1.24291327781975269317626953125">
        <ele>2118.39990234375</ele>
        <time>2018-05-01T12:15:46.000Z</time>
      </trkpt>
      <trkpt lat="42.7068335004150867462158203125" lon="1.24285376630723476409912109375">
        <ele>2116.800048828125</ele>
        <time>2018-05-01T12:15:47.000Z</time>
      </trkpt>
      <trkpt lat="42.70682101137936115264892578125" lon="1.24279542826116085052490234375">
        <ele>2113.800048828125</ele>
        <time>2018-05-01T12:15:48.000Z</time>
      </trkpt>
      <trkpt lat="42.7067537046968936920166015625" lon="1.242748908698558807373046875">
        <ele>2112.60009765625</ele>
        <time>2018-05-01T12:15:49.000Z</time>
      </trkpt>
      <trkpt lat="42.7067117951810359954833984375" lon="1.2427118606865406036376953125">
        <ele>2110.60009765625</ele>
        <time>2018-05-01T12:15:50.000Z</time>
      </trkpt>
      <trkpt lat="42.7067054249346256256103515625" lon="1.2426498346030712127685546875">
        <ele>2107.800048828125</ele>
        <time>2018-05-01T12:15:51.000Z</time>
      </trkpt>
      <trkpt lat="42.706684134900569915771484375" lon="1.24257984571158885955810546875">
        <ele>2105.199951171875</ele>
        <time>2018-05-01T12:15:52.000Z</time>
      </trkpt>
      <trkpt lat="42.706684134900569915771484375" lon="1.242496110498905181884765625">
        <ele>2102.39990234375</ele>
        <time>2018-05-01T12:15:53.000Z</time>
      </trkpt>
      <trkpt lat="42.7066876552999019622802734375" lon="1.24241824261844158172607421875">
        <ele>2099.60009765625</ele>
        <time>2018-05-01T12:15:54.000Z</time>
      </trkpt>
      <trkpt lat="42.70664750598371028900146484375" lon="1.24237683601677417755126953125">
        <ele>2096.199951171875</ele>
        <time>2018-05-01T12:15:55.000Z</time>
      </trkpt>
      <trkpt lat="42.70660467445850372314453125" lon="1.24232185073196887969970703125">
        <ele>2093.199951171875</ele>
        <time>2018-05-01T12:15:56.000Z</time>
      </trkpt>
      <trkpt lat="42.70656620152294635772705078125" lon="1.24226787127554416656494140625">
        <ele>2090.800048828125</ele>
        <time>2018-05-01T12:15:57.000Z</time>
      </trkpt>
      <trkpt lat="42.70653351210057735443115234375" lon="1.24221858568489551544189453125">
        <ele>2088.800048828125</ele>
        <time>2018-05-01T12:15:58.000Z</time>
      </trkpt>
      <trkpt lat="42.706537283957004547119140625" lon="1.24217030592262744903564453125">
        <ele>2087.39990234375</ele>
        <time>2018-05-01T12:15:59.000Z</time>
      </trkpt>
      <trkpt lat="42.70655346103012561798095703125" lon="1.24213828705251216888427734375">
        <ele>2085.800048828125</ele>
        <time>2018-05-01T12:16:00.000Z</time>
      </trkpt>
      <trkpt lat="42.706568799912929534912109375" lon="1.24211414717137813568115234375">
        <ele>2084.39990234375</ele>
        <time>2018-05-01T12:16:01.000Z</time>
      </trkpt>
      <trkpt lat="42.70658078603446483612060546875" lon="1.24211749993264675140380859375">
        <ele>2083.800048828125</ele>
        <time>2018-05-01T12:16:02.000Z</time>
      </trkpt>
      <trkpt lat="42.70657324232161045074462890625" lon="1.24209143221378326416015625">
        <ele>2082.60009765625</ele>
        <time>2018-05-01T12:16:11.000Z</time>
      </trkpt>
      <trkpt lat="42.70659252069890499114990234375" lon="1.24205346219241619110107421875">
        <ele>2082.199951171875</ele>
        <time>2018-05-01T12:16:12.000Z</time>
      </trkpt>
      <trkpt lat="42.7066604979336261749267578125" lon="1.24196578748524188995361328125">
        <ele>2078.800048828125</ele>
        <time>2018-05-01T12:16:15.000Z</time>
      </trkpt>
      <trkpt lat="42.7066551335155963897705078125" lon="1.2419128976762294769287109375">
        <ele>2076.800048828125</ele>
        <time>2018-05-01T12:16:39.000Z</time>
      </trkpt>
      <trkpt lat="42.70667902193963527679443359375" lon="1.2418726645410060882568359375">
        <ele>2076.800048828125</ele>
        <time>2018-05-01T12:16:40.000Z</time>
      </trkpt>
      <trkpt lat="42.7067179977893829345703125" lon="1.24183000065386295318603515625">
        <ele>2075.39990234375</ele>
        <time>2018-05-01T12:16:41.000Z</time>
      </trkpt>
      <trkpt lat="42.7067493461072444915771484375" lon="1.2417809665203094482421875">
        <ele>2072.800048828125</ele>
        <time>2018-05-01T12:16:42.000Z</time>
      </trkpt>
      <trkpt lat="42.7067664451897144317626953125" lon="1.24173603951930999755859375">
        <ele>2071</ele>
        <time>2018-05-01T12:16:43.000Z</time>
      </trkpt>
      <trkpt lat="42.7067634277045726776123046875" lon="1.24169907532632350921630859375">
        <ele>2067.199951171875</ele>
        <time>2018-05-01T12:16:44.000Z</time>
      </trkpt>
      <trkpt lat="42.70670919679105281829833984375" lon="1.24166236259043216705322265625">
        <ele>2065.199951171875</ele>
        <time>2018-05-01T12:16:45.000Z</time>
      </trkpt>
      <trkpt lat="42.706647254526615142822265625" lon="1.24162497930228710174560546875">
        <ele>2063</ele>
        <time>2018-05-01T12:16:46.000Z</time>
      </trkpt>
      <trkpt lat="42.706591598689556121826171875" lon="1.2416027672588825225830078125">
        <ele>2060.199951171875</ele>
        <time>2018-05-01T12:16:47.000Z</time>
      </trkpt>
      <trkpt lat="42.7065458334982395172119140625" lon="1.24155792407691478729248046875">
        <ele>2057.199951171875</ele>
        <time>2018-05-01T12:16:48.000Z</time>
      </trkpt>
      <trkpt lat="42.70649361424148082733154296875" lon="1.24150671064853668212890625">
        <ele>2054.39990234375</ele>
        <time>2018-05-01T12:16:49.000Z</time>
      </trkpt>
      <trkpt lat="42.70643192343413829803466796875" lon="1.24149070121347904205322265625">
        <ele>2050.800048828125</ele>
        <time>2018-05-01T12:16:50.000Z</time>
      </trkpt>
      <trkpt lat="42.70637190900743007659912109375" lon="1.241496317088603973388671875">
        <ele>2047.4000244140625</ele>
        <time>2018-05-01T12:16:51.000Z</time>
      </trkpt>
      <trkpt lat="42.7063305862247943878173828125" lon="1.24147720634937286376953125">
        <ele>2044.800048828125</ele>
        <time>2018-05-01T12:16:52.000Z</time>
      </trkpt>
      <trkpt lat="42.70628549158573150634765625" lon="1.24142917804419994354248046875">
        <ele>2042.4000244140625</ele>
        <time>2018-05-01T12:16:53.000Z</time>
      </trkpt>
      <trkpt lat="42.7062363736331462860107421875" lon="1.2413798086345195770263671875">
        <ele>2039</ele>
        <time>2018-05-01T12:16:54.000Z</time>
      </trkpt>
      <trkpt lat="42.70619940944015979766845703125" lon="1.24132088385522365570068359375">
        <ele>2035.4000244140625</ele>
        <time>2018-05-01T12:16:55.000Z</time>
      </trkpt>
      <trkpt lat="42.70616034977138042449951171875" lon="1.24125734902918338775634765625">
        <ele>2032.199951171875</ele>
        <time>2018-05-01T12:16:56.000Z</time>
      </trkpt>
      <trkpt lat="42.706123888492584228515625" lon="1.2411980889737606048583984375">
        <ele>2028.4000244140625</ele>
        <time>2018-05-01T12:16:57.000Z</time>
      </trkpt>
      <trkpt lat="42.70609463565051555633544921875" lon="1.24113765545189380645751953125">
        <ele>2024.5999755859375</ele>
        <time>2018-05-01T12:16:58.000Z</time>
      </trkpt>
      <trkpt lat="42.70605423487722873687744140625" lon="1.241070516407489776611328125">
        <ele>2021.199951171875</ele>
        <time>2018-05-01T12:16:59.000Z</time>
      </trkpt>
      <trkpt lat="42.7060181088745594024658203125" lon="1.2410069815814495086669921875">
        <ele>2016.800048828125</ele>
        <time>2018-05-01T12:17:00.000Z</time>
      </trkpt>
      <trkpt lat="42.7059845812618732452392578125" lon="1.24093464575707912445068359375">
        <ele>2013.4000244140625</ele>
        <time>2018-05-01T12:17:01.000Z</time>
      </trkpt>
      <trkpt lat="42.705940492451190948486328125" lon="1.24088536016643047332763671875">
        <ele>2010.199951171875</ele>
        <time>2018-05-01T12:17:02.000Z</time>
      </trkpt>
      <trkpt lat="42.70588584244251251220703125" lon="1.240894496440887451171875">
        <ele>2006.4000244140625</ele>
        <time>2018-05-01T12:17:03.000Z</time>
      </trkpt>
      <trkpt lat="42.7058709226548671722412109375" lon="1.24089919030666351318359375">
        <ele>2003.800048828125</ele>
        <time>2018-05-01T12:17:04.000Z</time>
      </trkpt>
      <trkpt lat="42.705868743360042572021484375" lon="1.24090279452502727508544921875">
        <ele>2002.800048828125</ele>
        <time>2018-05-01T12:17:05.000Z</time>
      </trkpt>
      <trkpt lat="42.70587855018675327301025390625" lon="1.24090011231601238250732421875">
        <ele>2001</ele>
        <time>2018-05-01T12:17:08.000Z</time>
      </trkpt>
      <trkpt lat="42.70588709972798824310302734375" lon="1.24090061523020267486572265625">
        <ele>2001</ele>
        <time>2018-05-01T12:17:09.000Z</time>
      </trkpt>
      <trkpt lat="42.70585927180945873260498046875" lon="1.2409439496695995330810546875">
        <ele>2001</ele>
        <time>2018-05-01T12:17:36.000Z</time>
      </trkpt>
      <trkpt lat="42.70586262457072734832763671875" lon="1.2408919818699359893798828125">
        <ele>2000.4000244140625</ele>
        <time>2018-05-01T12:17:37.000Z</time>
      </trkpt>
      <trkpt lat="42.70588877610862255096435546875" lon="1.2407712824642658233642578125">
        <ele>1996.4000244140625</ele>
        <time>2018-05-01T12:17:39.000Z</time>
      </trkpt>
      <trkpt lat="42.705908976495265960693359375" lon="1.24070112593472003936767578125">
        <ele>1992.4000244140625</ele>
        <time>2018-05-01T12:17:40.000Z</time>
      </trkpt>
      <trkpt lat="42.70592163316905498504638671875" lon="1.2406276166439056396484375">
        <ele>1990.199951171875</ele>
        <time>2018-05-01T12:17:41.000Z</time>
      </trkpt>
      <trkpt lat="42.70592666231095790863037109375" lon="1.24054689891636371612548828125">
        <ele>1988.5999755859375</ele>
        <time>2018-05-01T12:17:42.000Z</time>
      </trkpt>
      <trkpt lat="42.70594895817339420318603515625" lon="1.24047749675810337066650390625">
        <ele>1985.4000244140625</ele>
        <time>2018-05-01T12:17:43.000Z</time>
      </trkpt>
      <trkpt lat="42.70596639253199100494384765625" lon="1.24041764996945858001708984375">
        <ele>1983.199951171875</ele>
        <time>2018-05-01T12:17:44.000Z</time>
      </trkpt>
      <trkpt lat="42.705981396138668060302734375" lon="1.2403736449778079986572265625">
        <ele>1981.800048828125</ele>
        <time>2018-05-01T12:17:45.000Z</time>
      </trkpt>
      <trkpt lat="42.7060026861727237701416015625" lon="1.24033366329967975616455078125">
        <ele>1980.4000244140625</ele>
        <time>2018-05-01T12:17:46.000Z</time>
      </trkpt>
      <trkpt lat="42.7060098946094512939453125" lon="1.24029301106929779052734375">
        <ele>1978.5999755859375</ele>
        <time>2018-05-01T12:17:47.000Z</time>
      </trkpt>
      <trkpt lat="42.70599036477506160736083984375" lon="1.24025973491370677947998046875">
        <ele>1977.199951171875</ele>
        <time>2018-05-01T12:17:48.000Z</time>
      </trkpt>
      <trkpt lat="42.705973684787750244140625" lon="1.240218915045261383056640625">
        <ele>1976</ele>
        <time>2018-05-01T12:17:49.000Z</time>
      </trkpt>
      <trkpt lat="42.7059829048812389373779296875" lon="1.240169294178485870361328125">
        <ele>1972.5999755859375</ele>
        <time>2018-05-01T12:17:50.000Z</time>
      </trkpt>
      <trkpt lat="42.7060046978294849395751953125" lon="1.24011657200753688812255859375">
        <ele>1969.5999755859375</ele>
        <time>2018-05-01T12:17:51.000Z</time>
      </trkpt>
      <trkpt lat="42.70601836033165454864501953125" lon="1.24007801525294780731201171875">
        <ele>1967.4000244140625</ele>
        <time>2018-05-01T12:17:52.000Z</time>
      </trkpt>
      <trkpt lat="42.70602020435035228729248046875" lon="1.24003862030804157257080078125">
        <ele>1965.199951171875</ele>
        <time>2018-05-01T12:17:53.000Z</time>
      </trkpt>
      <trkpt lat="42.70603747107088565826416015625" lon="1.23998061753809452056884765625">
        <ele>1962.5999755859375</ele>
        <time>2018-05-01T12:17:54.000Z</time>
      </trkpt>
      <trkpt lat="42.70606898702681064605712890625" lon="1.23992529697716236114501953125">
        <ele>1959.5999755859375</ele>
        <time>2018-05-01T12:17:55.000Z</time>
      </trkpt>
      <trkpt lat="42.70609044469892978668212890625" lon="1.23988422565162181854248046875">
        <ele>1956.800048828125</ele>
        <time>2018-05-01T12:17:56.000Z</time>
      </trkpt>
      <trkpt lat="42.7060968987643718719482421875" lon="1.239838041365146636962890625">
        <ele>1954.800048828125</ele>
        <time>2018-05-01T12:17:57.000Z</time>
      </trkpt>
      <trkpt lat="42.70611458458006381988525390625" lon="1.23977509327232837677001953125">
        <ele>1951.800048828125</ele>
        <time>2018-05-01T12:17:58.000Z</time>
      </trkpt>
      <trkpt lat="42.7061287499964237213134765625" lon="1.239706613123416900634765625">
        <ele>1948.800048828125</ele>
        <time>2018-05-01T12:17:59.000Z</time>
      </trkpt>
      <trkpt lat="42.7061176858842372894287109375" lon="1.23968574218451976776123046875">
        <ele>1946.800048828125</ele>
        <time>2018-05-01T12:18:00.000Z</time>
      </trkpt>
      <trkpt lat="42.70609413273632526397705078125" lon="1.23967199586331844329833984375">
        <ele>1943.800048828125</ele>
        <time>2018-05-01T12:18:01.000Z</time>
      </trkpt>
      <trkpt lat="42.70607653073966503143310546875" lon="1.2396802939474582672119140625">
        <ele>1939.800048828125</ele>
        <time>2018-05-01T12:18:03.000Z</time>
      </trkpt>
      <trkpt lat="42.70606982521712779998779296875" lon="1.2396863289177417755126953125">
        <ele>1939</ele>
        <time>2018-05-01T12:18:04.000Z</time>
      </trkpt>
      <trkpt lat="42.706062532961368560791015625" lon="1.23969144187867641448974609375">
        <ele>1938.5999755859375</ele>
        <time>2018-05-01T12:18:05.000Z</time>
      </trkpt>
      <trkpt lat="42.70604048855602741241455078125" lon="1.23968004249036312103271484375">
        <ele>1938</ele>
        <time>2018-05-01T12:18:11.000Z</time>
      </trkpt>
      <trkpt lat="42.7060603536665439605712890625" lon="1.23962581157684326171875">
        <ele>1937.4000244140625</ele>
        <time>2018-05-01T12:18:12.000Z</time>
      </trkpt>
      <trkpt lat="42.70607401616871356964111328125" lon="1.23951525427401065826416015625">
        <ele>1933.199951171875</ele>
        <time>2018-05-01T12:18:14.000Z</time>
      </trkpt>
      <trkpt lat="42.7060583420097827911376953125" lon="1.239467896521091461181640625">
        <ele>1930.5999755859375</ele>
        <time>2018-05-01T12:18:15.000Z</time>
      </trkpt>
      <trkpt lat="42.706060521304607391357421875" lon="1.2393939681351184844970703125">
        <ele>1928.4000244140625</ele>
        <time>2018-05-01T12:18:16.000Z</time>
      </trkpt>
      <trkpt lat="42.706073261797428131103515625" lon="1.23933202587068080902099609375">
        <ele>1923.5999755859375</ele>
        <time>2018-05-01T12:18:17.000Z</time>
      </trkpt>
      <trkpt lat="42.7060684002935886383056640625" lon="1.23927637003362178802490234375">
        <ele>1920.5999755859375</ele>
        <time>2018-05-01T12:18:18.000Z</time>
      </trkpt>
      <trkpt lat="42.7060653828084468841552734375" lon="1.2392035312950611114501953125">
        <ele>1917.800048828125</ele>
        <time>2018-05-01T12:18:19.000Z</time>
      </trkpt>
      <trkpt lat="42.70607787184417247772216796875" lon="1.23912985436618328094482421875">
        <ele>1914.5999755859375</ele>
        <time>2018-05-01T12:18:20.000Z</time>
      </trkpt>
      <trkpt lat="42.706069909036159515380859375" lon="1.23906028456985950469970703125">
        <ele>1911.4000244140625</ele>
        <time>2018-05-01T12:18:21.000Z</time>
      </trkpt>
      <trkpt lat="42.70606026984751224517822265625" lon="1.23897931538522243499755859375">
        <ele>1908.5999755859375</ele>
        <time>2018-05-01T12:18:22.000Z</time>
      </trkpt>
      <trkpt lat="42.706089355051517486572265625" lon="1.23888862319290637969970703125">
        <ele>1904.800048828125</ele>
        <time>2018-05-01T12:18:23.000Z</time>
      </trkpt>
      <trkpt lat="42.7061186917126178741455078125" lon="1.2388058938086032867431640625">
        <ele>1900</ele>
        <time>2018-05-01T12:18:24.000Z</time>
      </trkpt>
      <trkpt lat="42.706113159656524658203125" lon="1.2387110106647014617919921875">
        <ele>1896.4000244140625</ele>
        <time>2018-05-01T12:18:25.000Z</time>
      </trkpt>
      <trkpt lat="42.70609580911695957183837890625" lon="1.2386338971555233001708984375">
        <ele>1892.800048828125</ele>
        <time>2018-05-01T12:18:26.000Z</time>
      </trkpt>
      <trkpt lat="42.706070579588413238525390625" lon="1.23854546807706356048583984375">
        <ele>1889.199951171875</ele>
        <time>2018-05-01T12:18:27.000Z</time>
      </trkpt>
      <trkpt lat="42.706047780811786651611328125" lon="1.23844840563833713531494140625">
        <ele>1885.800048828125</ele>
        <time>2018-05-01T12:18:28.000Z</time>
      </trkpt>
      <trkpt lat="42.7060459367930889129638671875" lon="1.23834346421062946319580078125">
        <ele>1881.800048828125</ele>
        <time>2018-05-01T12:18:29.000Z</time>
      </trkpt>
      <trkpt lat="42.70604132674634456634521484375" lon="1.2382392771542072296142578125">
        <ele>1878.4000244140625</ele>
        <time>2018-05-01T12:18:30.000Z</time>
      </trkpt>
      <trkpt lat="42.706024311482906341552734375" lon="1.2381360121071338653564453125">
        <ele>1874.5999755859375</ele>
        <time>2018-05-01T12:18:31.000Z</time>
      </trkpt>
      <trkpt lat="42.70599723793566226959228515625" lon="1.23804104514420032501220703125">
        <ele>1871</ele>
        <time>2018-05-01T12:18:32.000Z</time>
      </trkpt>
      <trkpt lat="42.705977372825145721435546875" lon="1.23794876039028167724609375">
        <ele>1868.800048828125</ele>
        <time>2018-05-01T12:18:33.000Z</time>
      </trkpt>
      <trkpt lat="42.7059349603950977325439453125" lon="1.23786292970180511474609375">
        <ele>1865.4000244140625</ele>
        <time>2018-05-01T12:18:34.000Z</time>
      </trkpt>
      <trkpt lat="42.7058598585426807403564453125" lon="1.2378315813839435577392578125">
        <ele>1861.4000244140625</ele>
        <time>2018-05-01T12:18:35.000Z</time>
      </trkpt>
      <trkpt lat="42.70578685216605663299560546875" lon="1.2378300726413726806640625">
        <ele>1859</ele>
        <time>2018-05-01T12:18:36.000Z</time>
      </trkpt>
      <trkpt lat="42.7057378180325031280517578125" lon="1.23784591443836688995361328125">
        <ele>1857</ele>
        <time>2018-05-01T12:18:37.000Z</time>
      </trkpt>
      <trkpt lat="42.70570403896272182464599609375" lon="1.2378657795488834381103515625">
        <ele>1855.800048828125</ele>
        <time>2018-05-01T12:18:38.000Z</time>
      </trkpt>
      <trkpt lat="42.70567554049193859100341796875" lon="1.23788463883101940155029296875">
        <ele>1855.5999755859375</ele>
        <time>2018-05-01T12:18:39.000Z</time>
      </trkpt>
      <trkpt lat="42.70566598512232303619384765625" lon="1.2379107065498828887939453125">
        <ele>1855.199951171875</ele>
        <time>2018-05-01T12:18:53.000Z</time>
      </trkpt>
      <trkpt lat="42.70567537285387516021728515625" lon="1.2378915958106517791748046875">
        <ele>1854.5999755859375</ele>
        <time>2018-05-01T12:18:54.000Z</time>
      </trkpt>
      <trkpt lat="42.70566950552165508270263671875" lon="1.2378620915114879608154296875">
        <ele>1853.800048828125</ele>
        <time>2018-05-01T12:18:55.000Z</time>
      </trkpt>
      <trkpt lat="42.7056429348886013031005859375" lon="1.237844489514827728271484375">
        <ele>1852.5999755859375</ele>
        <time>2018-05-01T12:18:56.000Z</time>
      </trkpt>
      <trkpt lat="42.7056174539029598236083984375" lon="1.2378426454961299896240234375">
        <ele>1851.800048828125</ele>
        <time>2018-05-01T12:18:57.000Z</time>
      </trkpt>
      <trkpt lat="42.70561099983751773834228515625" lon="1.237828396260738372802734375">
        <ele>1850.5999755859375</ele>
        <time>2018-05-01T12:19:00.000Z</time>
      </trkpt>
      <trkpt lat="42.70565156824886798858642578125" lon="1.2378423102200031280517578125">
        <ele>1850.4000244140625</ele>
        <time>2018-05-01T12:20:07.000Z</time>
      </trkpt>
      <trkpt lat="42.7057052962481975555419921875" lon="1.237828731536865234375">
        <ele>1849.199951171875</ele>
        <time>2018-05-01T12:21:23.000Z</time>
      </trkpt>
      <trkpt lat="42.705708481371402740478515625" lon="1.2378164939582347869873046875">
        <ele>1849.199951171875</ele>
        <time>2018-05-01T12:21:51.000Z</time>
      </trkpt>
      <trkpt lat="42.7057079784572124481201171875" lon="1.23781976290047168731689453125">
        <ele>1849</ele>
        <time>2018-05-01T12:22:06.000Z</time>
      </trkpt>
      <trkpt lat="42.70570705644786357879638671875" lon="1.23781221918761730194091796875">
        <ele>1848.800048828125</ele>
        <time>2018-05-01T12:22:12.000Z</time>
      </trkpt>
      <trkpt lat="42.705703787505626678466796875" lon="1.23786066658794879913330078125">
        <ele>1849.4000244140625</ele>
        <time>2018-05-01T12:22:49.000Z</time>
      </trkpt>
      <trkpt lat="42.70565710030496120452880859375" lon="1.23780450783669948577880859375">
        <ele>1847.800048828125</ele>
        <time>2018-05-01T12:23:00.000Z</time>
      </trkpt>
      <trkpt lat="42.705644778907299041748046875" lon="1.237799562513828277587890625">
        <ele>1847.5999755859375</ele>
        <time>2018-05-01T12:23:01.000Z</time>
      </trkpt>
      <trkpt lat="42.70563648082315921783447265625" lon="1.23779185116291046142578125">
        <ele>1847.4000244140625</ele>
        <time>2018-05-01T12:23:02.000Z</time>
      </trkpt>
      <trkpt lat="42.70562524907290935516357421875" lon="1.2377890013158321380615234375">
        <ele>1847.199951171875</ele>
        <time>2018-05-01T12:23:03.000Z</time>
      </trkpt>
      <trkpt lat="42.70561150275170803070068359375" lon="1.2377849780023097991943359375">
        <ele>1847</ele>
        <time>2018-05-01T12:23:04.000Z</time>
      </trkpt>
      <trkpt lat="42.7055909670889377593994140625" lon="1.2377615086734294891357421875">
        <ele>1846</ele>
        <time>2018-05-01T12:23:08.000Z</time>
      </trkpt>
      <trkpt lat="42.7055698446929454803466796875" lon="1.23774893581867218017578125">
        <ele>1845.4000244140625</ele>
        <time>2018-05-01T12:23:11.000Z</time>
      </trkpt>
      <trkpt lat="42.70556255243718624114990234375" lon="1.237736530601978302001953125">
        <ele>1845.4000244140625</ele>
        <time>2018-05-01T12:23:12.000Z</time>
      </trkpt>
      <trkpt lat="42.70555349998176097869873046875" lon="1.23772856779396533966064453125">
        <ele>1845.199951171875</ele>
        <time>2018-05-01T12:23:13.000Z</time>
      </trkpt>
      <trkpt lat="42.70543330349028110504150390625" lon="1.23765430413186550140380859375">
        <ele>1842</ele>
        <time>2018-05-01T12:23:27.000Z</time>
      </trkpt>
      <trkpt lat="42.7054239995777606964111328125" lon="1.23764877207577228546142578125">
        <ele>1841.800048828125</ele>
        <time>2018-05-01T12:23:28.000Z</time>
      </trkpt>
      <trkpt lat="42.70537563599646091461181640625" lon="1.23762345872819423675537109375">
        <ele>1840.4000244140625</ele>
        <time>2018-05-01T12:23:34.000Z</time>
      </trkpt>
      <trkpt lat="42.70520280115306377410888671875" lon="1.23758708126842975616455078125">
        <ele>1837.199951171875</ele>
        <time>2018-05-01T12:23:51.000Z</time>
      </trkpt>
      <trkpt lat="42.70503751002252101898193359375" lon="1.23756679706275463104248046875">
        <ele>1834</ele>
        <time>2018-05-01T12:24:03.000Z</time>
      </trkpt>
      <trkpt lat="42.70502619445323944091796875" lon="1.2375623546540737152099609375">
        <ele>1833.5999755859375</ele>
        <time>2018-05-01T12:24:04.000Z</time>
      </trkpt>
      <trkpt lat="42.7048493362963199615478515625" lon="1.23749278485774993896484375">
        <ele>1830.5999755859375</ele>
        <time>2018-05-01T12:24:18.000Z</time>
      </trkpt>
      <trkpt lat="42.70483869127929210662841796875" lon="1.23749990947544574737548828125">
        <ele>1830.5999755859375</ele>
        <time>2018-05-01T12:24:19.000Z</time>
      </trkpt>
      <trkpt lat="42.70482695661485195159912109375" lon="1.23750342987477779388427734375">
        <ele>1830.5999755859375</ele>
        <time>2018-05-01T12:24:20.000Z</time>
      </trkpt>
      <trkpt lat="42.70481756888329982757568359375" lon="1.2375030107796192169189453125">
        <ele>1830.5999755859375</ele>
        <time>2018-05-01T12:24:21.000Z</time>
      </trkpt>
      <trkpt lat="42.70480415783822536468505859375" lon="1.237500496208667755126953125">
        <ele>1830.4000244140625</ele>
        <time>2018-05-01T12:24:22.000Z</time>
      </trkpt>
      <trkpt lat="42.70479124970734119415283203125" lon="1.23749270103871822357177734375">
        <ele>1830.199951171875</ele>
        <time>2018-05-01T12:24:23.000Z</time>
      </trkpt>
      <trkpt lat="42.7047809399664402008056640625" lon="1.23748918063938617706298828125">
        <ele>1830</ele>
        <time>2018-05-01T12:24:24.000Z</time>
      </trkpt>
      <trkpt lat="42.70477180369198322296142578125" lon="1.23748281039297580718994140625">
        <ele>1829.800048828125</ele>
        <time>2018-05-01T12:24:25.000Z</time>
      </trkpt>
      <trkpt lat="42.70476090721786022186279296875" lon="1.2374755181372165679931640625">
        <ele>1829.4000244140625</ele>
        <time>2018-05-01T12:24:26.000Z</time>
      </trkpt>
      <trkpt lat="42.70474883727729320526123046875" lon="1.2374711595475673675537109375">
        <ele>1828.800048828125</ele>
        <time>2018-05-01T12:24:27.000Z</time>
      </trkpt>
      <trkpt lat="42.704737521708011627197265625" lon="1.2374652922153472900390625">
        <ele>1828.5999755859375</ele>
        <time>2018-05-01T12:24:28.000Z</time>
      </trkpt>
      <trkpt lat="42.70463970489799976348876953125" lon="1.23743117786943912506103515625">
        <ele>1825.5999755859375</ele>
        <time>2018-05-01T12:24:36.000Z</time>
      </trkpt>
      <trkpt lat="42.70453342236578464508056640625" lon="1.23738859780132770538330078125">
        <ele>1822.5999755859375</ele>
        <time>2018-05-01T12:24:44.000Z</time>
      </trkpt>
      <trkpt lat="42.70451925694942474365234375" lon="1.2373846583068370819091796875">
        <ele>1822.199951171875</ele>
        <time>2018-05-01T12:24:45.000Z</time>
      </trkpt>
      <trkpt lat="42.70450450479984283447265625" lon="1.23738490976393222808837890625">
        <ele>1821.5999755859375</ele>
        <time>2018-05-01T12:24:46.000Z</time>
      </trkpt>
      <trkpt lat="42.70449084229767322540283203125" lon="1.23738222755491733551025390625">
        <ele>1821.199951171875</ele>
        <time>2018-05-01T12:24:47.000Z</time>
      </trkpt>
      <trkpt lat="42.70447642542421817779541015625" lon="1.23737518675625324249267578125">
        <ele>1821</ele>
        <time>2018-05-01T12:24:48.000Z</time>
      </trkpt>
      <trkpt lat="42.70446083508431911468505859375" lon="1.23736965470016002655029296875">
        <ele>1820.5999755859375</ele>
        <time>2018-05-01T12:24:49.000Z</time>
      </trkpt>
      <trkpt lat="42.7044475078582763671875" lon="1.23735842294991016387939453125">
        <ele>1820.4000244140625</ele>
        <time>2018-05-01T12:24:50.000Z</time>
      </trkpt>
      <trkpt lat="42.704436443746089935302734375" lon="1.23734953813254833221435546875">
        <ele>1820.199951171875</ele>
        <time>2018-05-01T12:24:51.000Z</time>
      </trkpt>
      <trkpt lat="42.7042897604405879974365234375" lon="1.237268485128879547119140625">
        <ele>1817.199951171875</ele>
        <time>2018-05-01T12:25:06.000Z</time>
      </trkpt>
      <trkpt lat="42.7042149938642978668212890625" lon="1.237247027456760406494140625">
        <ele>1815</ele>
        <time>2018-05-01T12:25:13.000Z</time>
      </trkpt>
      <trkpt lat="42.704206444323062896728515625" lon="1.2372518889605998992919921875">
        <ele>1814.800048828125</ele>
        <time>2018-05-01T12:25:14.000Z</time>
      </trkpt>
      <trkpt lat="42.7041727490723133087158203125" lon="1.237278543412685394287109375">
        <ele>1814.800048828125</ele>
        <time>2018-05-01T12:25:17.000Z</time>
      </trkpt>
      <trkpt lat="42.704162858426570892333984375" lon="1.23728734441101551055908203125">
        <ele>1814.5999755859375</ele>
        <time>2018-05-01T12:25:18.000Z</time>
      </trkpt>
      <trkpt lat="42.704153470695018768310546875" lon="1.2372963130474090576171875">
        <ele>1814.199951171875</ele>
        <time>2018-05-01T12:25:19.000Z</time>
      </trkpt>
      <trkpt lat="42.704144753515720367431640625" lon="1.2373016774654388427734375">
        <ele>1814</ele>
        <time>2018-05-01T12:25:20.000Z</time>
      </trkpt>
      <trkpt lat="42.70413435995578765869140625" lon="1.2373124063014984130859375">
        <ele>1813.800048828125</ele>
        <time>2018-05-01T12:25:21.000Z</time>
      </trkpt>
      <trkpt lat="42.70395624451339244842529296875" lon="1.23741642571985721588134765625">
        <ele>1811.800048828125</ele>
        <time>2018-05-01T12:25:37.000Z</time>
      </trkpt>
      <trkpt lat="42.70379061810672283172607421875" lon="1.2373705767095088958740234375">
        <ele>1810</ele>
        <time>2018-05-01T12:25:52.000Z</time>
      </trkpt>
      <trkpt lat="42.7036081440746784210205078125" lon="1.23730595223605632781982421875">
        <ele>1807.4000244140625</ele>
        <time>2018-05-01T12:26:10.000Z</time>
      </trkpt>
      <trkpt lat="42.7035637199878692626953125" lon="1.2372961454093456268310546875">
        <ele>1805.5999755859375</ele>
        <time>2018-05-01T12:26:16.000Z</time>
      </trkpt>
      <trkpt lat="42.70355206914246082305908203125" lon="1.2372911162674427032470703125">
        <ele>1805.4000244140625</ele>
        <time>2018-05-01T12:26:17.000Z</time>
      </trkpt>
      <trkpt lat="42.70339063368737697601318359375" lon="1.2371841631829738616943359375">
        <ele>1802.199951171875</ele>
        <time>2018-05-01T12:26:35.000Z</time>
      </trkpt>
      <trkpt lat="42.7033080719411373138427734375" lon="1.23707301914691925048828125">
        <ele>1799.5999755859375</ele>
        <time>2018-05-01T12:26:44.000Z</time>
      </trkpt>
      <trkpt lat="42.70329776220023632049560546875" lon="1.23706438578665256500244140625">
        <ele>1799.5999755859375</ele>
        <time>2018-05-01T12:26:45.000Z</time>
      </trkpt>
      <trkpt lat="42.70329055376350879669189453125" lon="1.23705533333122730255126953125">
        <ele>1799.5999755859375</ele>
        <time>2018-05-01T12:26:46.000Z</time>
      </trkpt>
      <trkpt lat="42.703205645084381103515625" lon="1.23700286261737346649169921875">
        <ele>1798.4000244140625</ele>
        <time>2018-05-01T12:27:03.000Z</time>
      </trkpt>
      <trkpt lat="42.703196592628955841064453125" lon="1.23699900694191455841064453125">
        <ele>1798.199951171875</ele>
        <time>2018-05-01T12:27:04.000Z</time>
      </trkpt>
      <trkpt lat="42.70318712107837200164794921875" lon="1.23699146322906017303466796875">
        <ele>1798</ele>
        <time>2018-05-01T12:27:05.000Z</time>
      </trkpt>
      <trkpt lat="42.703173458576202392578125" lon="1.2369897030293941497802734375">
        <ele>1798</ele>
        <time>2018-05-01T12:27:06.000Z</time>
      </trkpt>
      <trkpt lat="42.7031632326543331146240234375" lon="1.23698584735393524169921875">
        <ele>1798</ele>
        <time>2018-05-01T12:27:07.000Z</time>
      </trkpt>
      <trkpt lat="42.702980004251003265380859375" lon="1.2369313649833202362060546875">
        <ele>1795.4000244140625</ele>
        <time>2018-05-01T12:27:30.000Z</time>
      </trkpt>
      <trkpt lat="42.70279551856219768524169921875" lon="1.23692675493657588958740234375">
        <ele>1792.4000244140625</ele>
        <time>2018-05-01T12:27:49.000Z</time>
      </trkpt>
      <trkpt lat="42.70260550081729888916015625" lon="1.236915104091167449951171875">
        <ele>1790.199951171875</ele>
        <time>2018-05-01T12:28:06.000Z</time>
      </trkpt>
      <trkpt lat="42.70245269872248172760009765625" lon="1.236932538449764251708984375">
        <ele>1788.800048828125</ele>
        <time>2018-05-01T12:28:18.000Z</time>
      </trkpt>
      <trkpt lat="42.7024427242577075958251953125" lon="1.23693932779133319854736328125">
        <ele>1788.5999755859375</ele>
        <time>2018-05-01T12:28:19.000Z</time>
      </trkpt>
      <trkpt lat="42.70243140868842601776123046875" lon="1.2369420938193798065185546875">
        <ele>1788.4000244140625</ele>
        <time>2018-05-01T12:28:20.000Z</time>
      </trkpt>
      <trkpt lat="42.70241866819560527801513671875" lon="1.23693798668682575225830078125">
        <ele>1788.4000244140625</ele>
        <time>2018-05-01T12:28:21.000Z</time>
      </trkpt>
      <trkpt lat="42.70240676589310169219970703125" lon="1.2369350530207157135009765625">
        <ele>1788.199951171875</ele>
        <time>2018-05-01T12:28:22.000Z</time>
      </trkpt>
      <trkpt lat="42.7023944444954395294189453125" lon="1.2369327060878276824951171875">
        <ele>1788</ele>
        <time>2018-05-01T12:28:23.000Z</time>
      </trkpt>
      <trkpt lat="42.70235664211213588714599609375" lon="1.236924491822719573974609375">
        <ele>1787.5999755859375</ele>
        <time>2018-05-01T12:28:26.000Z</time>
      </trkpt>
      <trkpt lat="42.70234490744769573211669921875" lon="1.2369243241846561431884765625">
        <ele>1787.4000244140625</ele>
        <time>2018-05-01T12:28:27.000Z</time>
      </trkpt>
      <trkpt lat="42.702333927154541015625" lon="1.23691887594759464263916015625">
        <ele>1787.4000244140625</ele>
        <time>2018-05-01T12:28:28.000Z</time>
      </trkpt>
      <trkpt lat="42.70232395268976688385009765625" lon="1.23691468499600887298583984375">
        <ele>1787.4000244140625</ele>
        <time>2018-05-01T12:28:29.000Z</time>
      </trkpt>
      <trkpt lat="42.702315151691436767578125" lon="1.2369159422814846038818359375">
        <ele>1787.199951171875</ele>
        <time>2018-05-01T12:28:30.000Z</time>
      </trkpt>
      <trkpt lat="42.702307440340518951416015625" lon="1.2369181215763092041015625">
        <ele>1787</ele>
        <time>2018-05-01T12:28:31.000Z</time>
      </trkpt>
      <trkpt lat="42.702294029295444488525390625" lon="1.2369209714233875274658203125">
        <ele>1786.5999755859375</ele>
        <time>2018-05-01T12:28:33.000Z</time>
      </trkpt>
      <trkpt lat="42.70228506065905094146728515625" lon="1.236923150718212127685546875">
        <ele>1786.5999755859375</ele>
        <time>2018-05-01T12:28:34.000Z</time>
      </trkpt>
      <trkpt lat="42.70208372734487056732177734375" lon="1.23686757870018482208251953125">
        <ele>1784.800048828125</ele>
        <time>2018-05-01T12:28:51.000Z</time>
      </trkpt>
      <trkpt lat="42.7020363695919513702392578125" lon="1.23682801611721515655517578125">
        <ele>1784</ele>
        <time>2018-05-01T12:28:55.000Z</time>
      </trkpt>
      <trkpt lat="42.702020443975925445556640625" lon="1.2368257530033588409423828125">
        <ele>1784</ele>
        <time>2018-05-01T12:28:56.000Z</time>
      </trkpt>
      <trkpt lat="42.70200577564537525177001953125" lon="1.236820556223392486572265625">
        <ele>1783.800048828125</ele>
        <time>2018-05-01T12:28:57.000Z</time>
      </trkpt>
      <trkpt lat="42.701992951333522796630859375" lon="1.236815862357616424560546875">
        <ele>1783.800048828125</ele>
        <time>2018-05-01T12:28:58.000Z</time>
      </trkpt>
      <trkpt lat="42.7019817195832729339599609375" lon="1.23681158758699893951416015625">
        <ele>1783.4000244140625</ele>
        <time>2018-05-01T12:28:59.000Z</time>
      </trkpt>
      <trkpt lat="42.701967470347881317138671875" lon="1.23680655844509601593017578125">
        <ele>1783.199951171875</ele>
        <time>2018-05-01T12:29:00.000Z</time>
      </trkpt>
      <trkpt lat="42.7019535563886165618896484375" lon="1.236799098551273345947265625">
        <ele>1783</ele>
        <time>2018-05-01T12:29:01.000Z</time>
      </trkpt>
      <trkpt lat="42.70194165408611297607421875" lon="1.23678811825811862945556640625">
        <ele>1782.800048828125</ele>
        <time>2018-05-01T12:29:02.000Z</time>
      </trkpt>
      <trkpt lat="42.70183444954454898834228515625" lon="1.23673698864877223968505859375">
        <ele>1780.800048828125</ele>
        <time>2018-05-01T12:29:11.000Z</time>
      </trkpt>
      <trkpt lat="42.701820619404315948486328125" lon="1.2367330491542816162109375">
        <ele>1780.800048828125</ele>
        <time>2018-05-01T12:29:12.000Z</time>
      </trkpt>
      <trkpt lat="42.70180762745440006256103515625" lon="1.2367285229265689849853515625">
        <ele>1780.4000244140625</ele>
        <time>2018-05-01T12:29:13.000Z</time>
      </trkpt>
      <trkpt lat="42.70179455168545246124267578125" lon="1.2367271818220615386962890625">
        <ele>1780.4000244140625</ele>
        <time>2018-05-01T12:29:14.000Z</time>
      </trkpt>
      <trkpt lat="42.70178264938294887542724609375" lon="1.23672558926045894622802734375">
        <ele>1780.199951171875</ele>
        <time>2018-05-01T12:29:15.000Z</time>
      </trkpt>
      <trkpt lat="42.70177141763269901275634765625" lon="1.2367224879562854766845703125">
        <ele>1780</ele>
        <time>2018-05-01T12:29:16.000Z</time>
      </trkpt>
      <trkpt lat="42.70175750367343425750732421875" lon="1.23671486042439937591552734375">
        <ele>1779.800048828125</ele>
        <time>2018-05-01T12:29:17.000Z</time>
      </trkpt>
      <trkpt lat="42.70157041959464550018310546875" lon="1.2366383336484432220458984375">
        <ele>1777</ele>
        <time>2018-05-01T12:29:31.000Z</time>
      </trkpt>
      <trkpt lat="42.701384089887142181396484375" lon="1.23659516684710979461669921875">
        <ele>1774.5999755859375</ele>
        <time>2018-05-01T12:29:46.000Z</time>
      </trkpt>
      <trkpt lat="42.70128342323005199432373046875" lon="1.236552335321903228759765625">
        <ele>1773.5999755859375</ele>
        <time>2018-05-01T12:29:55.000Z</time>
      </trkpt>
      <trkpt lat="42.701274454593658447265625" lon="1.236544959247112274169921875">
        <ele>1773.4000244140625</ele>
        <time>2018-05-01T12:29:56.000Z</time>
      </trkpt>
      <trkpt lat="42.70126246847212314605712890625" lon="1.2365397624671459197998046875">
        <ele>1773.199951171875</ele>
        <time>2018-05-01T12:29:57.000Z</time>
      </trkpt>
      <trkpt lat="42.70119625143706798553466796875" lon="1.2365162931382656097412109375">
        <ele>1771.800048828125</ele>
        <time>2018-05-01T12:30:03.000Z</time>
      </trkpt>
      <trkpt lat="42.7011847682297229766845703125" lon="1.23651570640504360198974609375">
        <ele>1771.800048828125</ele>
        <time>2018-05-01T12:30:04.000Z</time>
      </trkpt>
      <trkpt lat="42.70117328502237796783447265625" lon="1.23651319183409214019775390625">
        <ele>1771.5999755859375</ele>
        <time>2018-05-01T12:30:05.000Z</time>
      </trkpt>
      <trkpt lat="42.70116071216762065887451171875" lon="1.236512102186679840087890625">
        <ele>1771.5999755859375</ele>
        <time>2018-05-01T12:30:06.000Z</time>
      </trkpt>
      <trkpt lat="42.70114730112254619598388671875" lon="1.2365126051008701324462890625">
        <ele>1771.5999755859375</ele>
        <time>2018-05-01T12:30:07.000Z</time>
      </trkpt>
      <trkpt lat="42.70113573409616947174072265625" lon="1.236513443291187286376953125">
        <ele>1771.5999755859375</ele>
        <time>2018-05-01T12:30:08.000Z</time>
      </trkpt>
      <trkpt lat="42.70093574188649654388427734375" lon="1.23645619489252567291259765625">
        <ele>1769.5999755859375</ele>
        <time>2018-05-01T12:30:24.000Z</time>
      </trkpt>
      <trkpt lat="42.70073038525879383087158203125" lon="1.23639039695262908935546875">
        <ele>1768.4000244140625</ele>
        <time>2018-05-01T12:30:40.000Z</time>
      </trkpt>
      <trkpt lat="42.70071563310921192169189453125" lon="1.23638310469686985015869140625">
        <ele>1768.4000244140625</ele>
        <time>2018-05-01T12:30:41.000Z</time>
      </trkpt>
      <trkpt lat="42.700700126588344573974609375" lon="1.2363774888217449188232421875">
        <ele>1768.4000244140625</ele>
        <time>2018-05-01T12:30:42.000Z</time>
      </trkpt>
      <trkpt lat="42.70068495534360408782958984375" lon="1.23637120239436626434326171875">
        <ele>1768.4000244140625</ele>
        <time>2018-05-01T12:30:43.000Z</time>
      </trkpt>
      <trkpt lat="42.70067053847014904022216796875" lon="1.2363664247095584869384765625">
        <ele>1768.4000244140625</ele>
        <time>2018-05-01T12:30:44.000Z</time>
      </trkpt>
      <trkpt lat="42.70065662451088428497314453125" lon="1.2363607250154018402099609375">
        <ele>1768.199951171875</ele>
        <time>2018-05-01T12:30:45.000Z</time>
      </trkpt>
      <trkpt lat="42.70064069889485836029052734375" lon="1.2363520078361034393310546875">
        <ele>1768.199951171875</ele>
        <time>2018-05-01T12:30:47.000Z</time>
      </trkpt>
      <trkpt lat="42.70063064061105251312255859375" lon="1.23634655959904193878173828125">
        <ele>1768</ele>
        <time>2018-05-01T12:30:48.000Z</time>
      </trkpt>
      <trkpt lat="42.700617648661136627197265625" lon="1.2363396026194095611572265625">
        <ele>1768</ele>
        <time>2018-05-01T12:30:49.000Z</time>
      </trkpt>
      <trkpt lat="42.70060457289218902587890625" lon="1.23633566312491893768310546875">
        <ele>1767.800048828125</ele>
        <time>2018-05-01T12:30:50.000Z</time>
      </trkpt>
      <trkpt lat="42.70058671943843364715576171875" lon="1.23633415438234806060791015625">
        <ele>1767.800048828125</ele>
        <time>2018-05-01T12:30:51.000Z</time>
      </trkpt>
      <trkpt lat="42.70057431422173976898193359375" lon="1.2363268621265888214111328125">
        <ele>1767.5999755859375</ele>
        <time>2018-05-01T12:30:52.000Z</time>
      </trkpt>
      <trkpt lat="42.7005631662905216217041015625" lon="1.236320994794368743896484375">
        <ele>1767.5999755859375</ele>
        <time>2018-05-01T12:30:53.000Z</time>
      </trkpt>
      <trkpt lat="42.70052536390721797943115234375" lon="1.23631051741540431976318359375">
        <ele>1767</ele>
        <time>2018-05-01T12:30:56.000Z</time>
      </trkpt>
      <trkpt lat="42.7004595659673213958740234375" lon="1.23627950437366962432861328125">
        <ele>1766</ele>
        <time>2018-05-01T12:31:02.000Z</time>
      </trkpt>
      <trkpt lat="42.7004491724073886871337890625" lon="1.236277408897876739501953125">
        <ele>1765.800048828125</ele>
        <time>2018-05-01T12:31:03.000Z</time>
      </trkpt>
      <trkpt lat="42.70043718628585338592529296875" lon="1.23627481050789356231689453125">
        <ele>1765.5999755859375</ele>
        <time>2018-05-01T12:31:04.000Z</time>
      </trkpt>
      <trkpt lat="42.7004241943359375" lon="1.236277408897876739501953125">
        <ele>1765.4000244140625</ele>
        <time>2018-05-01T12:31:05.000Z</time>
      </trkpt>
      <trkpt lat="42.70041053183376789093017578125" lon="1.23627833090722560882568359375">
        <ele>1765.199951171875</ele>
        <time>2018-05-01T12:31:06.000Z</time>
      </trkpt>
      <trkpt lat="42.70039795897901058197021484375" lon="1.23627967201173305511474609375">
        <ele>1765</ele>
        <time>2018-05-01T12:31:07.000Z</time>
      </trkpt>
      <trkpt lat="42.7003834582865238189697265625" lon="1.23628319241106510162353515625">
        <ele>1765</ele>
        <time>2018-05-01T12:31:08.000Z</time>
      </trkpt>
      <trkpt lat="42.70036862231791019439697265625" lon="1.23628252185881137847900390625">
        <ele>1764.800048828125</ele>
        <time>2018-05-01T12:31:09.000Z</time>
      </trkpt>
      <trkpt lat="42.7003557980060577392578125" lon="1.2362846173346042633056640625">
        <ele>1764.5999755859375</ele>
        <time>2018-05-01T12:31:10.000Z</time>
      </trkpt>
      <trkpt lat="42.70034314133226871490478515625" lon="1.23629090376198291778564453125">
        <ele>1764.4000244140625</ele>
        <time>2018-05-01T12:31:11.000Z</time>
      </trkpt>
      <trkpt lat="42.700298465788364410400390625" lon="1.236346475780010223388671875">
        <ele>1764.199951171875</ele>
        <time>2018-05-01T12:31:16.000Z</time>
      </trkpt>
      <trkpt lat="42.7002899162471294403076171875" lon="1.23635930009186267852783203125">
        <ele>1764</ele>
        <time>2018-05-01T12:31:17.000Z</time>
      </trkpt>
      <trkpt lat="42.70028044469654560089111328125" lon="1.23637321405112743377685546875">
        <ele>1763.800048828125</ele>
        <time>2018-05-01T12:31:18.000Z</time>
      </trkpt>
      <trkpt lat="42.70023082382977008819580078125" lon="1.23642794787883758544921875">
        <ele>1763.199951171875</ele>
        <time>2018-05-01T12:31:23.000Z</time>
      </trkpt>
      <trkpt lat="42.70002881996333599090576171875" lon="1.2363670952618122100830078125">
        <ele>1762.4000244140625</ele>
        <time>2018-05-01T12:31:40.000Z</time>
      </trkpt>
      <trkpt lat="42.6998835615813732147216796875" lon="1.23633549548685550689697265625">
        <ele>1760.5999755859375</ele>
        <time>2018-05-01T12:31:54.000Z</time>
      </trkpt>
      <trkpt lat="42.69969421438872814178466796875" lon="1.23636818490922451019287109375">
        <ele>1757.800048828125</ele>
        <time>2018-05-01T12:32:15.000Z</time>
      </trkpt>
      <trkpt lat="42.69946203567087650299072265625" lon="1.23640590347349643707275390625">
        <ele>1755.4000244140625</ele>
        <time>2018-05-01T12:32:33.000Z</time>
      </trkpt>
      <trkpt lat="42.699245698750019073486328125" lon="1.23639567755162715911865234375">
        <ele>1753</ele>
        <time>2018-05-01T12:32:50.000Z</time>
      </trkpt>
      <trkpt lat="42.699019052088260650634765625" lon="1.2364381738007068634033203125">
        <ele>1750.4000244140625</ele>
        <time>2018-05-01T12:33:05.000Z</time>
      </trkpt>
      <trkpt lat="42.69882383756339550018310546875" lon="1.23644244857132434844970703125">
        <ele>1748.4000244140625</ele>
        <time>2018-05-01T12:33:21.000Z</time>
      </trkpt>
      <trkpt lat="42.6988157071173191070556640625" lon="1.236449070274829864501953125">
        <ele>1748.199951171875</ele>
        <time>2018-05-01T12:33:22.000Z</time>
      </trkpt>
      <trkpt lat="42.6988069899380207061767578125" lon="1.236450411379337310791015625">
        <ele>1748.199951171875</ele>
        <time>2018-05-01T12:33:23.000Z</time>
      </trkpt>
      <trkpt lat="42.69880087114870548248291015625" lon="1.23645217157900333404541015625">
        <ele>1748.199951171875</ele>
        <time>2018-05-01T12:33:24.000Z</time>
      </trkpt>
      <trkpt lat="42.69878997467458248138427734375" lon="1.23645535670220851898193359375">
        <ele>1748</ele>
        <time>2018-05-01T12:33:25.000Z</time>
      </trkpt>
      <trkpt lat="42.69878008402884006500244140625" lon="1.23646591790020465850830078125">
        <ele>1747.800048828125</ele>
        <time>2018-05-01T12:33:26.000Z</time>
      </trkpt>
      <trkpt lat="42.6987717859447002410888671875" lon="1.23647647909820079803466796875">
        <ele>1747.5999755859375</ele>
        <time>2018-05-01T12:33:27.000Z</time>
      </trkpt>
      <trkpt lat="42.69876281730830669403076171875" lon="1.2364837713539600372314453125">
        <ele>1747.4000244140625</ele>
        <time>2018-05-01T12:33:28.000Z</time>
      </trkpt>
      <trkpt lat="42.69874848425388336181640625" lon="1.23648821376264095306396484375">
        <ele>1747.199951171875</ele>
        <time>2018-05-01T12:33:29.000Z</time>
      </trkpt>
      <trkpt lat="42.6986926607787609100341796875" lon="1.23651369474828243255615234375">
        <ele>1746.4000244140625</ele>
        <time>2018-05-01T12:33:33.000Z</time>
      </trkpt>
      <trkpt lat="42.698658965528011322021484375" lon="1.2365357391536235809326171875">
        <ele>1745.800048828125</ele>
        <time>2018-05-01T12:33:36.000Z</time>
      </trkpt>
      <trkpt lat="42.69864697940647602081298828125" lon="1.23653716407716274261474609375">
        <ele>1745.5999755859375</ele>
        <time>2018-05-01T12:33:37.000Z</time>
      </trkpt>
      <trkpt lat="42.69863239489495754241943359375" lon="1.23654194176197052001953125">
        <ele>1745.5999755859375</ele>
        <time>2018-05-01T12:33:38.000Z</time>
      </trkpt>
      <trkpt lat="42.6986078359186649322509765625" lon="1.23654504306614398956298828125">
        <ele>1745.4000244140625</ele>
        <time>2018-05-01T12:33:40.000Z</time>
      </trkpt>
      <trkpt lat="42.69859383814036846160888671875" lon="1.2365374155342578887939453125">
        <ele>1745.199951171875</ele>
        <time>2018-05-01T12:33:41.000Z</time>
      </trkpt>
      <trkpt lat="42.698567770421504974365234375" lon="1.23653582297265529632568359375">
        <ele>1745</ele>
        <time>2018-05-01T12:33:43.000Z</time>
      </trkpt>
      <trkpt lat="42.6985535211861133575439453125" lon="1.23653565533459186553955078125">
        <ele>1744.800048828125</ele>
        <time>2018-05-01T12:33:44.000Z</time>
      </trkpt>
      <trkpt lat="42.69842796027660369873046875" lon="1.2365464679896831512451171875">
        <ele>1743.4000244140625</ele>
        <time>2018-05-01T12:33:54.000Z</time>
      </trkpt>
      <trkpt lat="42.698241211473941802978515625" lon="1.2367161177098751068115234375">
        <ele>1741.199951171875</ele>
        <time>2018-05-01T12:34:11.000Z</time>
      </trkpt>
      <trkpt lat="42.69822654314339160919189453125" lon="1.2367174588143825531005859375">
        <ele>1741.199951171875</ele>
        <time>2018-05-01T12:34:12.000Z</time>
      </trkpt>
      <trkpt lat="42.6982175745069980621337890625" lon="1.236721314489841461181640625">
        <ele>1741</ele>
        <time>2018-05-01T12:34:13.000Z</time>
      </trkpt>
      <trkpt lat="42.698029987514019012451171875" lon="1.2367452867329120635986328125">
        <ele>1738</ele>
        <time>2018-05-01T12:34:28.000Z</time>
      </trkpt>
      <trkpt lat="42.697863690555095672607421875" lon="1.2367697618901729583740234375">
        <ele>1734.800048828125</ele>
        <time>2018-05-01T12:34:44.000Z</time>
      </trkpt>
      <trkpt lat="42.6976586692035198211669921875" lon="1.2367496453225612640380859375">
        <ele>1731.5999755859375</ele>
        <time>2018-05-01T12:35:01.000Z</time>
      </trkpt>
      <trkpt lat="42.697478793561458587646484375" lon="1.23668552376329898834228515625">
        <ele>1728.5999755859375</ele>
        <time>2018-05-01T12:35:16.000Z</time>
      </trkpt>
      <trkpt lat="42.69729816354811191558837890625" lon="1.23667160980403423309326171875">
        <ele>1725.5999755859375</ele>
        <time>2018-05-01T12:35:29.000Z</time>
      </trkpt>
      <trkpt lat="42.69707788713276386260986328125" lon="1.23669289983808994293212890625">
        <ele>1723</ele>
        <time>2018-05-01T12:35:46.000Z</time>
      </trkpt>
      <trkpt lat="42.6968828402459621429443359375" lon="1.2366846017539501190185546875">
        <ele>1719.800048828125</ele>
        <time>2018-05-01T12:36:02.000Z</time>
      </trkpt>
      <trkpt lat="42.696741521358489990234375" lon="1.23673011548817157745361328125">
        <ele>1716.800048828125</ele>
        <time>2018-05-01T12:36:19.000Z</time>
      </trkpt>
      <trkpt lat="42.69672232680022716522216796875" lon="1.2367301993072032928466796875">
        <ele>1716.5999755859375</ele>
        <time>2018-05-01T12:36:29.000Z</time>
      </trkpt>
      <trkpt lat="42.69671377725899219512939453125" lon="1.23674335889518260955810546875">
        <ele>1717</ele>
        <time>2018-05-01T12:36:41.000Z</time>
      </trkpt>
    </trkseg>
  </trk>
</gpx>
